﻿<?xml version="1.0" encoding="utf-8"?><gpx creator="Garmin Desktop App" version="1.1" xsi:schemaLocation="http://www.topografix.com/GPX/1/1 http://www.topografix.com/GPX/1/1/gpx.xsd http://www.garmin.com/xmlschemas/WaypointExtension/v1 http://www8.garmin.com/xmlschemas/WaypointExtensionv1.xsd http://www.garmin.com/xmlschemas/TrackPointExtension/v1 http://www.garmin.com/xmlschemas/TrackPointExtensionv1.xsd http://www.garmin.com/xmlschemas/GpxExtensions/v3 http://www8.garmin.com/xmlschemas/GpxExtensionsv3.xsd http://www.garmin.com/xmlschemas/ActivityExtension/v1 http://www8.garmin.com/xmlschemas/ActivityExtensionv1.xsd http://www.garmin.com/xmlschemas/AdventuresExtensions/v1 http://www8.garmin.com/xmlschemas/AdventuresExtensionv1.xsd http://www.garmin.com/xmlschemas/PressureExtension/v1 http://www.garmin.com/xmlschemas/PressureExtensionv1.xsd http://www.garmin.com/xmlschemas/TripExtensions/v1 http://www.garmin.com/xmlschemas/TripExtensionsv1.xsd http://www.garmin.com/xmlschemas/TripMetaDataExtensions/v1 http://www.garmin.com/xmlschemas/TripMetaDataExtensionsv1.xsd http://www.garmin.com/xmlschemas/ViaPointTransportationModeExtensions/v1 http://www.garmin.com/xmlschemas/ViaPointTransportationModeExtensionsv1.xsd http://www.garmin.com/xmlschemas/CreationTimeExtension/v1 http://www.garmin.com/xmlschemas/CreationTimeExtensionsv1.xsd http://www.garmin.com/xmlschemas/AccelerationExtension/v1 http://www.garmin.com/xmlschemas/AccelerationExtensionv1.xsd http://www.garmin.com/xmlschemas/PowerExtension/v1 http://www.garmin.com/xmlschemas/PowerExtensionv1.xsd http://www.garmin.com/xmlschemas/VideoExtension/v1 http://www.garmin.com/xmlschemas/VideoExtensionv1.xsd" xmlns="http://www.topografix.com/GPX/1/1" xmlns:xsi="http://www.w3.org/2001/XMLSchema-instance" xmlns:wptx1="http://www.garmin.com/xmlschemas/WaypointExtension/v1" xmlns:gpxtrx="http://www.garmin.com/xmlschemas/GpxExtensions/v3" xmlns:gpxtpx="http://www.garmin.com/xmlschemas/TrackPointExtension/v1" xmlns:gpxx="http://www.garmin.com/xmlschemas/GpxExtensions/v3" xmlns:trp="http://www.garmin.com/xmlschemas/TripExtensions/v1" xmlns:adv="http://www.garmin.com/xmlschemas/AdventuresExtensions/v1" xmlns:prs="http://www.garmin.com/xmlschemas/PressureExtension/v1" xmlns:tmd="http://www.garmin.com/xmlschemas/TripMetaDataExtensions/v1" xmlns:vptm="http://www.garmin.com/xmlschemas/ViaPointTransportationModeExtensions/v1" xmlns:ctx="http://www.garmin.com/xmlschemas/CreationTimeExtension/v1" xmlns:gpxacc="http://www.garmin.com/xmlschemas/AccelerationExtension/v1" xmlns:gpxpx="http://www.garmin.com/xmlschemas/PowerExtension/v1" xmlns:vidx1="http://www.garmin.com/xmlschemas/VideoExtension/v1">

  <metadata>
    <link href="http://www.garmin.com">
      <text>Garmin International</text>
    </link>
    <time>2025-05-10T15:54:37Z</time>
    <bounds maxlat="37.23167703486979" maxlon="-3.594164019450545" minlat="36.930778026580811" minlon="-4.575870037078857" />
  </metadata>

  <trk>
    <name>Track vom: 2025-05-10 09:51</name>
    <extensions>
      <gpxx:TrackExtension>
        <gpxx:DisplayColor>DarkGray</gpxx:DisplayColor>
      </gpxx:TrackExtension>
    </extensions>
    <trkseg>
      <trkpt lat="36.930805016309023" lon="-4.529674015939236">
        <ele>615.38</ele>
        <time>2025-05-10T07:51:58Z</time>
      </trkpt>
      <trkpt lat="36.930778026580811" lon="-4.529522974044085">
        <ele>600.48000000000002</ele>
        <time>2025-05-10T07:52:56Z</time>
      </trkpt>
      <trkpt lat="36.930819014087319" lon="-4.529524985700846">
        <ele>611.05999999999995</ele>
        <time>2025-05-10T07:53:33Z</time>
      </trkpt>
      <trkpt lat="36.930850027129054" lon="-4.529546024277806">
        <ele>610.09000000000003</ele>
        <time>2025-05-10T07:53:40Z</time>
      </trkpt>
      <trkpt lat="36.930866958573461" lon="-4.529477041214705">
        <ele>609.61000000000001</ele>
        <time>2025-05-10T07:53:43Z</time>
      </trkpt>
      <trkpt lat="36.931080026552081" lon="-4.529236983507872">
        <ele>610.09000000000003</ele>
        <time>2025-05-10T07:53:49Z</time>
      </trkpt>
      <trkpt lat="36.931111961603165" lon="-4.529201025143266">
        <ele>610.57000000000005</ele>
        <time>2025-05-10T07:53:50Z</time>
      </trkpt>
      <trkpt lat="36.931142974644899" lon="-4.529165988788009">
        <ele>610.57000000000005</ele>
        <time>2025-05-10T07:53:51Z</time>
      </trkpt>
      <trkpt lat="36.931173987686634" lon="-4.529131036251783">
        <ele>610.57000000000005</ele>
        <time>2025-05-10T07:53:52Z</time>
      </trkpt>
      <trkpt lat="36.93120701238513" lon="-4.529093988239765">
        <ele>610.57000000000005</ele>
        <time>2025-05-10T07:53:53Z</time>
      </trkpt>
      <trkpt lat="36.931240959092975" lon="-4.529055012390018">
        <ele>611.05999999999995</ele>
        <time>2025-05-10T07:53:54Z</time>
      </trkpt>
      <trkpt lat="36.931274989619851" lon="-4.529016958549619">
        <ele>611.05999999999995</ele>
        <time>2025-05-10T07:53:55Z</time>
      </trkpt>
      <trkpt lat="36.931306002661586" lon="-4.528982006013393">
        <ele>611.05999999999995</ele>
        <time>2025-05-10T07:53:56Z</time>
      </trkpt>
      <trkpt lat="36.931370962411165" lon="-4.528908999636769">
        <ele>611.53999999999996</ele>
        <time>2025-05-10T07:53:58Z</time>
      </trkpt>
      <trkpt lat="36.931477999314666" lon="-4.528787964954972">
        <ele>612.01999999999998</ele>
        <time>2025-05-10T07:54:01Z</time>
      </trkpt>
      <trkpt lat="36.931514041498303" lon="-4.528747983276844">
        <ele>612.01999999999998</ele>
        <time>2025-05-10T07:54:02Z</time>
      </trkpt>
      <trkpt lat="36.931694000959396" lon="-4.528544973582029">
        <ele>614.41999999999996</ele>
        <time>2025-05-10T07:54:12Z</time>
      </trkpt>
      <trkpt lat="36.93174303509295" lon="-4.528542961925268">
        <ele>614.89999999999998</ele>
        <time>2025-05-10T07:54:13Z</time>
      </trkpt>
      <trkpt lat="36.93176600150764" lon="-4.528577998280525">
        <ele>614.89999999999998</ele>
        <time>2025-05-10T07:54:14Z</time>
      </trkpt>
      <trkpt lat="36.931800032034516" lon="-4.528629966080189">
        <ele>615.38</ele>
        <time>2025-05-10T07:54:15Z</time>
      </trkpt>
      <trkpt lat="36.931840013712645" lon="-4.528688974678516">
        <ele>615.86000000000001</ele>
        <time>2025-05-10T07:54:16Z</time>
      </trkpt>
      <trkpt lat="36.931948978453875" lon="-4.528793999925256">
        <ele>616.82000000000005</ele>
        <time>2025-05-10T07:54:18Z</time>
      </trkpt>
      <trkpt lat="36.931996000930667" lon="-4.528835993260145">
        <ele>617.29999999999995</ele>
        <time>2025-05-10T07:54:19Z</time>
      </trkpt>
      <trkpt lat="36.932032965123653" lon="-4.528870023787022">
        <ele>617.77999999999997</ele>
        <time>2025-05-10T07:54:20Z</time>
      </trkpt>
      <trkpt lat="36.932103959843516" lon="-4.528912017121911">
        <ele>619.71000000000004</ele>
        <time>2025-05-10T07:54:28Z</time>
      </trkpt>
      <trkpt lat="36.932268999516964" lon="-4.528967002406716">
        <ele>620.66999999999996</ele>
        <time>2025-05-10T07:54:40Z</time>
      </trkpt>
      <trkpt lat="36.932373018935323" lon="-4.528922997415066">
        <ele>621.14999999999998</ele>
        <time>2025-05-10T07:54:42Z</time>
      </trkpt>
      <trkpt lat="36.932417023926973" lon="-4.528869017958641">
        <ele>621.14999999999998</ele>
        <time>2025-05-10T07:54:43Z</time>
      </trkpt>
      <trkpt lat="36.932950029149652" lon="-4.528151024132967">
        <ele>625.96000000000004</ele>
        <time>2025-05-10T07:54:54Z</time>
      </trkpt>
      <trkpt lat="36.93314298056066" lon="-4.527894034981728">
        <ele>628.84000000000003</ele>
        <time>2025-05-10T07:54:58Z</time>
      </trkpt>
      <trkpt lat="36.93318204022944" lon="-4.527848018333316">
        <ele>629.79999999999995</ele>
        <time>2025-05-10T07:54:59Z</time>
      </trkpt>
      <trkpt lat="36.9332480058074" lon="-4.527825973927975">
        <ele>630.75999999999999</ele>
        <time>2025-05-10T07:55:00Z</time>
      </trkpt>
      <trkpt lat="36.933310031890869" lon="-4.527805019170046">
        <ele>631.72000000000003</ele>
        <time>2025-05-10T07:55:01Z</time>
      </trkpt>
      <trkpt lat="36.933344984427094" lon="-4.527839971706271">
        <ele>632.67999999999995</ele>
        <time>2025-05-10T07:55:02Z</time>
      </trkpt>
      <trkpt lat="36.93339703604579" lon="-4.527892023324966">
        <ele>633.64999999999998</ele>
        <time>2025-05-10T07:55:03Z</time>
      </trkpt>
      <trkpt lat="36.93344104103744" lon="-4.527939967811108">
        <ele>634.61000000000001</ele>
        <time>2025-05-10T07:55:04Z</time>
      </trkpt>
      <trkpt lat="36.933467024937272" lon="-4.528032001107931">
        <ele>635.57000000000005</ele>
        <time>2025-05-10T07:55:05Z</time>
      </trkpt>
      <trkpt lat="36.933536008000374" lon="-4.528252026066184">
        <ele>636.52999999999997</ele>
        <time>2025-05-10T07:55:07Z</time>
      </trkpt>
      <trkpt lat="36.933594010770321" lon="-4.528344981372356">
        <ele>637.00999999999999</ele>
        <time>2025-05-10T07:55:08Z</time>
      </trkpt>
      <trkpt lat="36.933668022975326" lon="-4.528431985527277">
        <ele>637.49000000000001</ele>
        <time>2025-05-10T07:55:09Z</time>
      </trkpt>
      <trkpt lat="36.933758966624737" lon="-4.528484037145972">
        <ele>637.97000000000003</ele>
        <time>2025-05-10T07:55:10Z</time>
      </trkpt>
      <trkpt lat="36.933857034891844" lon="-4.52850298024714">
        <ele>638.45000000000005</ele>
        <time>2025-05-10T07:55:11Z</time>
      </trkpt>
      <trkpt lat="36.93395895883441" lon="-4.528518989682198">
        <ele>638.45000000000005</ele>
        <time>2025-05-10T07:55:12Z</time>
      </trkpt>
      <trkpt lat="36.934060966596007" lon="-4.528534999117255">
        <ele>639.88999999999999</ele>
        <time>2025-05-10T07:55:13Z</time>
      </trkpt>
      <trkpt lat="36.934163980185986" lon="-4.528552014380693">
        <ele>641.34000000000003</ele>
        <time>2025-05-10T07:55:14Z</time>
      </trkpt>
      <trkpt lat="36.934674018993974" lon="-4.528544973582029">
        <ele>647.10000000000002</ele>
        <time>2025-05-10T07:55:19Z</time>
      </trkpt>
      <trkpt lat="36.934758005663753" lon="-4.528561988845468">
        <ele>648.54999999999995</ele>
        <time>2025-05-10T07:55:20Z</time>
      </trkpt>
      <trkpt lat="36.934829000383615" lon="-4.528575986623764">
        <ele>649.99000000000001</ele>
        <time>2025-05-10T07:55:21Z</time>
      </trkpt>
      <trkpt lat="36.934877028688788" lon="-4.528619991615415">
        <ele>650.95000000000005</ele>
        <time>2025-05-10T07:55:22Z</time>
      </trkpt>
      <trkpt lat="36.934919022023678" lon="-4.528677994385362">
        <ele>651.90999999999997</ele>
        <time>2025-05-10T07:55:23Z</time>
      </trkpt>
      <trkpt lat="36.934911981225014" lon="-4.528773967176676">
        <ele>653.35000000000002</ele>
        <time>2025-05-10T07:55:24Z</time>
      </trkpt>
      <trkpt lat="36.934905024245381" lon="-4.52888997271657">
        <ele>654.30999999999995</ele>
        <time>2025-05-10T07:55:25Z</time>
      </trkpt>
      <trkpt lat="36.934895971789956" lon="-4.529014024883509">
        <ele>654.79999999999995</ele>
        <time>2025-05-10T07:55:26Z</time>
      </trkpt>
      <trkpt lat="36.93487904034555" lon="-4.52927503734827">
        <ele>656.24000000000001</ele>
        <time>2025-05-10T07:55:28Z</time>
      </trkpt>
      <trkpt lat="36.934899995103478" lon="-4.52940596267581">
        <ele>656.72000000000003</ele>
        <time>2025-05-10T07:55:29Z</time>
      </trkpt>
      <trkpt lat="36.934928996488452" lon="-4.52953303232789">
        <ele>657.67999999999995</ele>
        <time>2025-05-10T07:55:30Z</time>
      </trkpt>
      <trkpt lat="36.934990016743541" lon="-4.529637973755598">
        <ele>658.63999999999999</ele>
        <time>2025-05-10T07:55:31Z</time>
      </trkpt>
      <trkpt lat="36.935069980099797" lon="-4.529725983738899">
        <ele>659.60000000000002</ele>
        <time>2025-05-10T07:55:32Z</time>
      </trkpt>
      <trkpt lat="36.935151033103466" lon="-4.52981298789382">
        <ele>661.51999999999998</ele>
        <time>2025-05-10T07:55:33Z</time>
      </trkpt>
      <trkpt lat="36.935234013944864" lon="-4.529889011755586">
        <ele>662.49000000000001</ele>
        <time>2025-05-10T07:55:34Z</time>
      </trkpt>
      <trkpt lat="36.935671968385577" lon="-4.530194029211998">
        <ele>670.65999999999997</ele>
        <time>2025-05-10T07:55:39Z</time>
      </trkpt>
      <trkpt lat="36.935764001682401" lon="-4.530218001455069">
        <ele>672.10000000000002</ele>
        <time>2025-05-10T07:55:40Z</time>
      </trkpt>
      <trkpt lat="36.935842037200928" lon="-4.530229987576604">
        <ele>673.53999999999996</ele>
        <time>2025-05-10T07:55:41Z</time>
      </trkpt>
      <trkpt lat="36.935939015820622" lon="-4.530189000070095">
        <ele>675.46000000000004</ele>
        <time>2025-05-10T07:55:42Z</time>
      </trkpt>
      <trkpt lat="36.936029037460685" lon="-4.530152035877109">
        <ele>676.90999999999997</ele>
        <time>2025-05-10T07:55:43Z</time>
      </trkpt>
      <trkpt lat="36.936114029958844" lon="-4.530108030885458">
        <ele>677.87</ele>
        <time>2025-05-10T07:55:44Z</time>
      </trkpt>
      <trkpt lat="36.936184018850327" lon="-4.530035024508834">
        <ele>679.30999999999995</ele>
        <time>2025-05-10T07:55:45Z</time>
      </trkpt>
      <trkpt lat="36.936247972771525" lon="-4.529967969283462">
        <ele>680.26999999999998</ele>
        <time>2025-05-10T07:55:46Z</time>
      </trkpt>
      <trkpt lat="36.936303041875362" lon="-4.529909966513515">
        <ele>681.23000000000002</ele>
        <time>2025-05-10T07:55:47Z</time>
      </trkpt>
      <trkpt lat="36.93668601103127" lon="-4.529553987085819">
        <ele>686.03999999999996</ele>
        <time>2025-05-10T07:55:54Z</time>
      </trkpt>
      <trkpt lat="36.936748037114739" lon="-4.529531020671129">
        <ele>686.51999999999998</ele>
        <time>2025-05-10T07:55:55Z</time>
      </trkpt>
      <trkpt lat="36.936817020177841" lon="-4.529514005407691">
        <ele>687.48000000000002</ele>
        <time>2025-05-10T07:55:56Z</time>
      </trkpt>
      <trkpt lat="36.936887009069324" lon="-4.529496990144253">
        <ele>688.44000000000005</ele>
        <time>2025-05-10T07:55:57Z</time>
      </trkpt>
      <trkpt lat="36.936955992132425" lon="-4.529478969052434">
        <ele>689.39999999999998</ele>
        <time>2025-05-10T07:55:58Z</time>
      </trkpt>
      <trkpt lat="36.937022041529417" lon="-4.52949196100235">
        <ele>690.84000000000003</ele>
        <time>2025-05-10T07:55:59Z</time>
      </trkpt>
      <trkpt lat="36.937163025140762" lon="-4.529522974044085">
        <ele>693.25</ele>
        <time>2025-05-10T07:56:01Z</time>
      </trkpt>
      <trkpt lat="36.937238965183496" lon="-4.529538983479142">
        <ele>694.21000000000004</ele>
        <time>2025-05-10T07:56:02Z</time>
      </trkpt>
      <trkpt lat="36.937300991266966" lon="-4.529596986249089">
        <ele>695.64999999999998</ele>
        <time>2025-05-10T07:56:03Z</time>
      </trkpt>
      <trkpt lat="36.937367040663958" lon="-4.529681978747249">
        <ele>696.61000000000001</ele>
        <time>2025-05-10T07:56:04Z</time>
      </trkpt>
      <trkpt lat="36.937429988756776" lon="-4.529778035357595">
        <ele>697.57000000000005</ele>
        <time>2025-05-10T07:56:05Z</time>
      </trkpt>
      <trkpt lat="36.937485979869962" lon="-4.529890017583966">
        <ele>698.52999999999997</ele>
        <time>2025-05-10T07:56:06Z</time>
      </trkpt>
      <trkpt lat="36.937972968444228" lon="-4.530794005841017">
        <ele>706.23000000000002</ele>
        <time>2025-05-10T07:56:14Z</time>
      </trkpt>
      <trkpt lat="36.938723986968398" lon="-4.531614007428289">
        <ele>714.88</ele>
        <time>2025-05-10T07:56:22Z</time>
      </trkpt>
      <trkpt lat="36.939360005781054" lon="-4.532586978748441">
        <ele>724.97000000000003</ele>
        <time>2025-05-10T07:56:30Z</time>
      </trkpt>
      <trkpt lat="36.939447009935975" lon="-4.532684963196516">
        <ele>726.40999999999997</ele>
        <time>2025-05-10T07:56:31Z</time>
      </trkpt>
      <trkpt lat="36.939534014090896" lon="-4.532781019806862">
        <ele>727.37</ele>
        <time>2025-05-10T07:56:32Z</time>
      </trkpt>
      <trkpt lat="36.939639039337635" lon="-4.532834999263287">
        <ele>728.82000000000005</ele>
        <time>2025-05-10T07:56:33Z</time>
      </trkpt>
      <trkpt lat="36.939744986593723" lon="-4.532873975113034">
        <ele>729.77999999999997</ele>
        <time>2025-05-10T07:56:34Z</time>
      </trkpt>
      <trkpt lat="36.939853029325604" lon="-4.532889984548092">
        <ele>731.22000000000003</ele>
        <time>2025-05-10T07:56:35Z</time>
      </trkpt>
      <trkpt lat="36.939960988238454" lon="-4.532889984548092">
        <ele>733.13999999999999</ele>
        <time>2025-05-10T07:56:36Z</time>
      </trkpt>
      <trkpt lat="36.940061990171671" lon="-4.532856959849596">
        <ele>734.10000000000002</ele>
        <time>2025-05-10T07:56:37Z</time>
      </trkpt>
      <trkpt lat="36.940148994326591" lon="-4.532813960686326">
        <ele>735.54999999999995</ele>
        <time>2025-05-10T07:56:38Z</time>
      </trkpt>
      <trkpt lat="36.940220994874835" lon="-4.532759981229901">
        <ele>736.99000000000001</ele>
        <time>2025-05-10T07:56:39Z</time>
      </trkpt>
      <trkpt lat="36.940288972109556" lon="-4.532708013430238">
        <ele>737.95000000000005</ele>
        <time>2025-05-10T07:56:40Z</time>
      </trkpt>
      <trkpt lat="36.940507991239429" lon="-4.532540962100029">
        <ele>741.78999999999996</ele>
        <time>2025-05-10T07:56:43Z</time>
      </trkpt>
      <trkpt lat="36.940585020929575" lon="-4.532482959330082">
        <ele>742.75999999999999</ele>
        <time>2025-05-10T07:56:44Z</time>
      </trkpt>
      <trkpt lat="36.940671019256115" lon="-4.532467033714056">
        <ele>744.20000000000005</ele>
        <time>2025-05-10T07:56:45Z</time>
      </trkpt>
      <trkpt lat="36.940761962905526" lon="-4.532450018450618">
        <ele>745.15999999999997</ele>
        <time>2025-05-10T07:56:46Z</time>
      </trkpt>
      <trkpt lat="36.940820971503854" lon="-4.532439960166812">
        <ele>746.60000000000002</ele>
        <time>2025-05-10T07:56:47Z</time>
      </trkpt>
      <trkpt lat="36.940922979265451" lon="-4.532480025663972">
        <ele>748.03999999999996</ele>
        <time>2025-05-10T07:56:48Z</time>
      </trkpt>
      <trkpt lat="36.940999003127217" lon="-4.532511038705707">
        <ele>749</ele>
        <time>2025-05-10T07:56:49Z</time>
      </trkpt>
      <trkpt lat="36.941056000068784" lon="-4.532570969313383">
        <ele>749.97000000000003</ele>
        <time>2025-05-10T07:56:50Z</time>
      </trkpt>
      <trkpt lat="36.941096987575293" lon="-4.532664008438587">
        <ele>750.92999999999995</ele>
        <time>2025-05-10T07:56:51Z</time>
      </trkpt>
      <trkpt lat="36.941135041415691" lon="-4.532771967351437">
        <ele>752.37</ele>
        <time>2025-05-10T07:56:52Z</time>
      </trkpt>
      <trkpt lat="36.941431006416678" lon="-4.533918024972081">
        <ele>761.98000000000002</ele>
        <time>2025-05-10T07:56:59Z</time>
      </trkpt>
      <trkpt lat="36.941805006936193" lon="-4.535250999033451">
        <ele>773.03999999999996</ele>
        <time>2025-05-10T07:57:06Z</time>
      </trkpt>
      <trkpt lat="36.941908020526171" lon="-4.535545958206058">
        <ele>776.88</ele>
        <time>2025-05-10T07:57:08Z</time>
      </trkpt>
      <trkpt lat="36.941955965012312" lon="-4.535650983452797">
        <ele>778.32000000000005</ele>
        <time>2025-05-10T07:57:09Z</time>
      </trkpt>
      <trkpt lat="36.941979015246034" lon="-4.535701023414731">
        <ele>780.25</ele>
        <time>2025-05-10T07:57:10Z</time>
      </trkpt>
      <trkpt lat="36.942046992480755" lon="-4.535715021193028">
        <ele>781.69000000000005</ele>
        <time>2025-05-10T07:57:11Z</time>
      </trkpt>
      <trkpt lat="36.942089991644025" lon="-4.535717032849789">
        <ele>783.13</ele>
        <time>2025-05-10T07:57:12Z</time>
      </trkpt>
      <trkpt lat="36.94212201051414" lon="-4.535662969574332">
        <ele>784.09000000000003</ele>
        <time>2025-05-10T07:57:13Z</time>
      </trkpt>
      <trkpt lat="36.942153023555875" lon="-4.535589041188359">
        <ele>785.52999999999997</ele>
        <time>2025-05-10T07:57:14Z</time>
      </trkpt>
      <trkpt lat="36.942160986363888" lon="-4.535488039255142">
        <ele>786.5</ele>
        <time>2025-05-10T07:57:15Z</time>
      </trkpt>
      <trkpt lat="36.942240027710795" lon="-4.534978000447154">
        <ele>790.34000000000003</ele>
        <time>2025-05-10T07:57:19Z</time>
      </trkpt>
      <trkpt lat="36.942284032702446" lon="-4.534880015999079">
        <ele>791.29999999999995</ele>
        <time>2025-05-10T07:57:20Z</time>
      </trkpt>
      <trkpt lat="36.942369025200605" lon="-4.534826036542654">
        <ele>792.25999999999999</ele>
        <time>2025-05-10T07:57:21Z</time>
      </trkpt>
      <trkpt lat="36.942472960799932" lon="-4.534799968823791">
        <ele>793.22000000000003</ele>
        <time>2025-05-10T07:57:22Z</time>
      </trkpt>
      <trkpt lat="36.942586032673717" lon="-4.534779014065862">
        <ele>794.19000000000005</ele>
        <time>2025-05-10T07:57:23Z</time>
      </trkpt>
      <trkpt lat="36.942706983536482" lon="-4.534779014065862">
        <ele>795.63</ele>
        <time>2025-05-10T07:57:24Z</time>
      </trkpt>
      <trkpt lat="36.943293968215585" lon="-4.534793011844158">
        <ele>800.91999999999996</ele>
        <time>2025-05-10T07:57:29Z</time>
      </trkpt>
      <trkpt lat="36.943398993462324" lon="-4.534825030714274">
        <ele>801.88</ele>
        <time>2025-05-10T07:57:30Z</time>
      </trkpt>
      <trkpt lat="36.943491026759148" lon="-4.534892002120614">
        <ele>802.84000000000003</ele>
        <time>2025-05-10T07:57:31Z</time>
      </trkpt>
      <trkpt lat="36.943557998165488" lon="-4.534997027367353">
        <ele>804.27999999999997</ele>
        <time>2025-05-10T07:57:32Z</time>
      </trkpt>
      <trkpt lat="36.943616000935435" lon="-4.535111021250486">
        <ele>805.24000000000001</ele>
        <time>2025-05-10T07:57:33Z</time>
      </trkpt>
      <trkpt lat="36.943641984835267" lon="-4.535252004861832">
        <ele>806.67999999999995</ele>
        <time>2025-05-10T07:57:34Z</time>
      </trkpt>
      <trkpt lat="36.943646008148789" lon="-4.53539801761508">
        <ele>808.13</ele>
        <time>2025-05-10T07:57:35Z</time>
      </trkpt>
      <trkpt lat="36.943633016198874" lon="-4.535551993176341">
        <ele>809.57000000000005</ele>
        <time>2025-05-10T07:57:36Z</time>
      </trkpt>
      <trkpt lat="36.943620024248958" lon="-4.535708986222744">
        <ele>811.00999999999999</ele>
        <time>2025-05-10T07:57:37Z</time>
      </trkpt>
      <trkpt lat="36.943619018420577" lon="-4.535863967612386">
        <ele>812.45000000000005</ele>
        <time>2025-05-10T07:57:38Z</time>
      </trkpt>
      <trkpt lat="36.943652965128422" lon="-4.536003023386002">
        <ele>813.88999999999999</ele>
        <time>2025-05-10T07:57:39Z</time>
      </trkpt>
      <trkpt lat="36.943696970120072" lon="-4.536132020875812">
        <ele>815.34000000000003</ele>
        <time>2025-05-10T07:57:40Z</time>
      </trkpt>
      <trkpt lat="36.943753967061639" lon="-4.536247020587325">
        <ele>817.25999999999999</ele>
        <time>2025-05-10T07:57:41Z</time>
      </trkpt>
      <trkpt lat="36.943838037550449" lon="-4.536310974508524">
        <ele>818.70000000000005</ele>
        <time>2025-05-10T07:57:42Z</time>
      </trkpt>
      <trkpt lat="36.943920012563467" lon="-4.5363450050354">
        <ele>820.62</ele>
        <time>2025-05-10T07:57:43Z</time>
      </trkpt>
      <trkpt lat="36.944014979526401" lon="-4.5363450050354">
        <ele>822.05999999999995</ele>
        <time>2025-05-10T07:57:44Z</time>
      </trkpt>
      <trkpt lat="36.944113969802856" lon="-4.53632103279233">
        <ele>823.50999999999999</ele>
        <time>2025-05-10T07:57:45Z</time>
      </trkpt>
      <trkpt lat="36.944832969456911" lon="-4.53613000921905">
        <ele>833.12</ele>
        <time>2025-05-10T07:57:52Z</time>
      </trkpt>
      <trkpt lat="36.944900024682283" lon="-4.536156998947263">
        <ele>834.55999999999995</ele>
        <time>2025-05-10T07:57:53Z</time>
      </trkpt>
      <trkpt lat="36.944949980825186" lon="-4.536203015595675">
        <ele>836</ele>
        <time>2025-05-10T07:57:54Z</time>
      </trkpt>
      <trkpt lat="36.944983005523682" lon="-4.53630200587213">
        <ele>837.45000000000005</ele>
        <time>2025-05-10T07:57:55Z</time>
      </trkpt>
      <trkpt lat="36.944983005523682" lon="-4.536395967006683">
        <ele>838.40999999999997</ele>
        <time>2025-05-10T07:57:56Z</time>
      </trkpt>
      <trkpt lat="36.944983005523682" lon="-4.536512978374958">
        <ele>839.85000000000002</ele>
        <time>2025-05-10T07:57:57Z</time>
      </trkpt>
      <trkpt lat="36.944983005523682" lon="-4.53668799251318">
        <ele>842.73000000000002</ele>
        <time>2025-05-10T07:57:59Z</time>
      </trkpt>
      <trkpt lat="36.945033967494965" lon="-4.536755969747901">
        <ele>844.17999999999995</ele>
        <time>2025-05-10T07:58:00Z</time>
      </trkpt>
      <trkpt lat="36.945083001628518" lon="-4.536768961697817">
        <ele>845.13999999999999</ele>
        <time>2025-05-10T07:58:01Z</time>
      </trkpt>
      <trkpt lat="36.945176962763071" lon="-4.536753036081791">
        <ele>846.58000000000004</ele>
        <time>2025-05-10T07:58:02Z</time>
      </trkpt>
      <trkpt lat="36.945223985239863" lon="-4.536721017211676">
        <ele>847.05999999999995</ele>
        <time>2025-05-10T07:58:03Z</time>
      </trkpt>
      <trkpt lat="36.945305960252881" lon="-4.536667037755251">
        <ele>848.01999999999998</ele>
        <time>2025-05-10T07:58:04Z</time>
      </trkpt>
      <trkpt lat="36.94609796628356" lon="-4.536024983972311">
        <ele>853.78999999999996</ele>
        <time>2025-05-10T07:58:12Z</time>
      </trkpt>
      <trkpt lat="36.946173990145326" lon="-4.535886012017727">
        <ele>854.26999999999998</ele>
        <time>2025-05-10T07:58:13Z</time>
      </trkpt>
      <trkpt lat="36.946916040033102" lon="-4.534511966630817">
        <ele>859.08000000000004</ele>
        <time>2025-05-10T07:58:23Z</time>
      </trkpt>
      <trkpt lat="36.946958033367991" lon="-4.534435020759702">
        <ele>859.08000000000004</ele>
        <time>2025-05-10T07:58:24Z</time>
      </trkpt>
      <trkpt lat="36.94708501920104" lon="-4.534317003563047">
        <ele>858.59000000000003</ele>
        <time>2025-05-10T07:58:25Z</time>
      </trkpt>
      <trkpt lat="36.947189038619399" lon="-4.534221030771732">
        <ele>858.11000000000001</ele>
        <time>2025-05-10T07:58:26Z</time>
      </trkpt>
      <trkpt lat="36.947294985875487" lon="-4.534139977768064">
        <ele>857.14999999999998</ele>
        <time>2025-05-10T07:58:27Z</time>
      </trkpt>
      <trkpt lat="36.947427000850439" lon="-4.534079041332007">
        <ele>856.66999999999996</ele>
        <time>2025-05-10T07:58:28Z</time>
      </trkpt>
      <trkpt lat="36.947559015825391" lon="-4.534018021076918">
        <ele>856.19000000000005</ele>
        <time>2025-05-10T07:58:29Z</time>
      </trkpt>
      <trkpt lat="36.94768700748682" lon="-4.53395901247859">
        <ele>855.71000000000004</ele>
        <time>2025-05-10T07:58:30Z</time>
      </trkpt>
      <trkpt lat="36.947817010805011" lon="-4.533896986395121">
        <ele>855.23000000000002</ele>
        <time>2025-05-10T07:58:31Z</time>
      </trkpt>
      <trkpt lat="36.947894040495157" lon="-4.533764971420169">
        <ele>855.23000000000002</ele>
        <time>2025-05-10T07:58:32Z</time>
      </trkpt>
      <trkpt lat="36.947969980537891" lon="-4.533627005293965">
        <ele>855.71000000000004</ele>
        <time>2025-05-10T07:58:33Z</time>
      </trkpt>
      <trkpt lat="36.948014991357923" lon="-4.533461965620518">
        <ele>856.19000000000005</ele>
        <time>2025-05-10T07:58:34Z</time>
      </trkpt>
      <trkpt lat="36.948061008006334" lon="-4.53329399228096">
        <ele>856.66999999999996</ele>
        <time>2025-05-10T07:58:35Z</time>
      </trkpt>
      <trkpt lat="36.948152035474777" lon="-4.532990986481309">
        <ele>857.63</ele>
        <time>2025-05-10T07:58:37Z</time>
      </trkpt>
      <trkpt lat="36.948212971910834" lon="-4.532869029790163">
        <ele>858.59000000000003</ele>
        <time>2025-05-10T07:58:38Z</time>
      </trkpt>
      <trkpt lat="36.948290001600981" lon="-4.532749000936747">
        <ele>859.08000000000004</ele>
        <time>2025-05-10T07:58:39Z</time>
      </trkpt>
      <trkpt lat="36.948398966342211" lon="-4.532688986510038">
        <ele>860.03999999999996</ele>
        <time>2025-05-10T07:58:40Z</time>
      </trkpt>
      <trkpt lat="36.948514971882105" lon="-4.53262503258884">
        <ele>860.51999999999998</ele>
        <time>2025-05-10T07:58:41Z</time>
      </trkpt>
      <trkpt lat="36.948766009882092" lon="-4.532485976815224">
        <ele>861.96000000000004</ele>
        <time>2025-05-10T07:58:43Z</time>
      </trkpt>
      <trkpt lat="36.948899030685425" lon="-4.532409030944109">
        <ele>862.44000000000005</ele>
        <time>2025-05-10T07:58:44Z</time>
      </trkpt>
      <trkpt lat="36.949843000620604" lon="-4.531323993578553">
        <ele>869.16999999999996</ele>
        <time>2025-05-10T07:58:52Z</time>
      </trkpt>
      <trkpt lat="36.950435014441609" lon="-4.529980961233378">
        <ele>873.5</ele>
        <time>2025-05-10T07:59:00Z</time>
      </trkpt>
      <trkpt lat="36.950487988069654" lon="-4.529853975400329">
        <ele>873.98000000000002</ele>
        <time>2025-05-10T07:59:01Z</time>
      </trkpt>
      <trkpt lat="36.950558982789516" lon="-4.529759008437395">
        <ele>874.46000000000004</ele>
        <time>2025-05-10T07:59:02Z</time>
      </trkpt>
      <trkpt lat="36.950667025521398" lon="-4.529706034809351">
        <ele>875.41999999999996</ele>
        <time>2025-05-10T07:59:03Z</time>
      </trkpt>
      <trkpt lat="36.950819995254278" lon="-4.529629005119205">
        <ele>876.38</ele>
        <time>2025-05-10T07:59:04Z</time>
      </trkpt>
      <trkpt lat="36.950912028551102" lon="-4.529624981805682">
        <ele>877.34000000000003</ele>
        <time>2025-05-10T07:59:05Z</time>
      </trkpt>
      <trkpt lat="36.951042031869292" lon="-4.529620036482811">
        <ele>878.29999999999995</ele>
        <time>2025-05-10T07:59:06Z</time>
      </trkpt>
      <trkpt lat="36.951286029070616" lon="-4.529609978199005">
        <ele>880.22000000000003</ele>
        <time>2025-05-10T07:59:08Z</time>
      </trkpt>
      <trkpt lat="36.951386025175452" lon="-4.52957502566278">
        <ele>881.66999999999996</ele>
        <time>2025-05-10T07:59:09Z</time>
      </trkpt>
      <trkpt lat="36.951473029330373" lon="-4.529481986537576">
        <ele>882.63</ele>
        <time>2025-05-10T07:59:10Z</time>
      </trkpt>
      <trkpt lat="36.951573025435209" lon="-4.529373021796346">
        <ele>883.59000000000003</ele>
        <time>2025-05-10T07:59:11Z</time>
      </trkpt>
      <trkpt lat="36.951680984348059" lon="-4.529257016256452">
        <ele>885.02999999999997</ele>
        <time>2025-05-10T07:59:12Z</time>
      </trkpt>
      <trkpt lat="36.952410964295268" lon="-4.528470039367676">
        <ele>890.79999999999995</ele>
        <time>2025-05-10T07:59:18Z</time>
      </trkpt>
      <trkpt lat="36.952488999813795" lon="-4.528312962502241">
        <ele>891.27999999999997</ele>
        <time>2025-05-10T07:59:19Z</time>
      </trkpt>
      <trkpt lat="36.952550020068884" lon="-4.528135014697909">
        <ele>892.24000000000001</ele>
        <time>2025-05-10T07:59:20Z</time>
      </trkpt>
      <trkpt lat="36.953031979501247" lon="-4.526846967637539">
        <ele>896.09000000000003</ele>
        <time>2025-05-10T07:59:27Z</time>
      </trkpt>
      <trkpt lat="36.953288968652487" lon="-4.526358973234892">
        <ele>899.45000000000005</ele>
        <time>2025-05-10T07:59:30Z</time>
      </trkpt>
      <trkpt lat="36.953361975029111" lon="-4.526197034865618">
        <ele>900.40999999999997</ele>
        <time>2025-05-10T07:59:31Z</time>
      </trkpt>
      <trkpt lat="36.953628016635776" lon="-4.525134963914752">
        <ele>907.62</ele>
        <time>2025-05-10T07:59:37Z</time>
      </trkpt>
      <trkpt lat="36.953678978607059" lon="-4.52497897669673">
        <ele>908.58000000000004</ele>
        <time>2025-05-10T07:59:38Z</time>
      </trkpt>
      <trkpt lat="36.953746033832431" lon="-4.524831036105752">
        <ele>909.05999999999995</ele>
        <time>2025-05-10T07:59:39Z</time>
      </trkpt>
      <trkpt lat="36.953834965825081" lon="-4.524697009474039">
        <ele>910.02999999999997</ele>
        <time>2025-05-10T07:59:40Z</time>
      </trkpt>
      <trkpt lat="36.953933034092188" lon="-4.524563988670707">
        <ele>910.50999999999999</ele>
        <time>2025-05-10T07:59:41Z</time>
      </trkpt>
      <trkpt lat="36.954034036025405" lon="-4.524424010887742">
        <ele>910.99000000000001</ele>
        <time>2025-05-10T07:59:42Z</time>
      </trkpt>
      <trkpt lat="36.954139983281493" lon="-4.524279003962874">
        <ele>911.47000000000003</ele>
        <time>2025-05-10T07:59:43Z</time>
      </trkpt>
      <trkpt lat="36.955049000680447" lon="-4.522864976897836">
        <ele>913.38999999999999</ele>
        <time>2025-05-10T07:59:52Z</time>
      </trkpt>
      <trkpt lat="36.955486033111811" lon="-4.522147988900542">
        <ele>914.35000000000002</ele>
        <time>2025-05-10T07:59:57Z</time>
      </trkpt>
      <trkpt lat="36.955591980367899" lon="-4.522029971703887">
        <ele>914.35000000000002</ele>
        <time>2025-05-10T07:59:58Z</time>
      </trkpt>
      <trkpt lat="36.956550031900406" lon="-4.520779978483915">
        <ele>919.15999999999997</ele>
        <time>2025-05-10T08:00:08Z</time>
      </trkpt>
      <trkpt lat="36.957060992717743" lon="-4.51990800909698">
        <ele>924.45000000000005</ele>
        <time>2025-05-10T08:00:14Z</time>
      </trkpt>
      <trkpt lat="36.957163000479341" lon="-4.519781023263931">
        <ele>924.92999999999995</ele>
        <time>2025-05-10T08:00:15Z</time>
      </trkpt>
      <trkpt lat="36.957270037382841" lon="-4.519665017724037">
        <ele>925.88999999999999</ele>
        <time>2025-05-10T08:00:16Z</time>
      </trkpt>
      <trkpt lat="36.957394005730748" lon="-4.519566027447581">
        <ele>926.85000000000002</ele>
        <time>2025-05-10T08:00:17Z</time>
      </trkpt>
      <trkpt lat="36.957523003220558" lon="-4.519491009414196">
        <ele>927.80999999999995</ele>
        <time>2025-05-10T08:00:18Z</time>
      </trkpt>
      <trkpt lat="36.957660969346762" lon="-4.519447004422545">
        <ele>928.76999999999998</ele>
        <time>2025-05-10T08:00:19Z</time>
      </trkpt>
      <trkpt lat="36.957799019291997" lon="-4.519428983330727">
        <ele>929.73000000000002</ele>
        <time>2025-05-10T08:00:20Z</time>
      </trkpt>
      <trkpt lat="36.957933967933059" lon="-4.519410962238908">
        <ele>930.69000000000005</ele>
        <time>2025-05-10T08:00:21Z</time>
      </trkpt>
      <trkpt lat="36.958060031756759" lon="-4.519394030794501">
        <ele>931.16999999999996</ele>
        <time>2025-05-10T08:00:22Z</time>
      </trkpt>
      <trkpt lat="36.958176959306002" lon="-4.519378021359444">
        <ele>932.13999999999999</ele>
        <time>2025-05-10T08:00:23Z</time>
      </trkpt>
      <trkpt lat="36.958283996209502" lon="-4.519337033852935">
        <ele>932.62</ele>
        <time>2025-05-10T08:00:24Z</time>
      </trkpt>
      <trkpt lat="36.958383992314339" lon="-4.519270984455943">
        <ele>932.62</ele>
        <time>2025-05-10T08:00:25Z</time>
      </trkpt>
      <trkpt lat="36.958463033661246" lon="-4.519157996401191">
        <ele>933.10000000000002</ele>
        <time>2025-05-10T08:00:26Z</time>
      </trkpt>
      <trkpt lat="36.95853503420949" lon="-4.519022963941097">
        <ele>933.58000000000004</ele>
        <time>2025-05-10T08:00:27Z</time>
      </trkpt>
      <trkpt lat="36.958570992574096" lon="-4.518865970894694">
        <ele>934.05999999999995</ele>
        <time>2025-05-10T08:00:28Z</time>
      </trkpt>
      <trkpt lat="36.958607034757733" lon="-4.518708977848291">
        <ele>934.53999999999996</ele>
        <time>2025-05-10T08:00:29Z</time>
      </trkpt>
      <trkpt lat="36.958641987293959" lon="-4.518558019772172">
        <ele>935.5</ele>
        <time>2025-05-10T08:00:30Z</time>
      </trkpt>
      <trkpt lat="36.958695966750383" lon="-4.518432039767504">
        <ele>936.46000000000004</ele>
        <time>2025-05-10T08:00:31Z</time>
      </trkpt>
      <trkpt lat="36.958760004490614" lon="-4.51831603422761">
        <ele>936.94000000000005</ele>
        <time>2025-05-10T08:00:32Z</time>
      </trkpt>
      <trkpt lat="36.958852959796786" lon="-4.518231963738799">
        <ele>937.89999999999998</ele>
        <time>2025-05-10T08:00:33Z</time>
      </trkpt>
      <trkpt lat="36.958957985043526" lon="-4.518164992332459">
        <ele>939.35000000000002</ele>
        <time>2025-05-10T08:00:34Z</time>
      </trkpt>
      <trkpt lat="36.959071978926659" lon="-4.51810497790575">
        <ele>940.30999999999995</ele>
        <time>2025-05-10T08:00:35Z</time>
      </trkpt>
      <trkpt lat="36.959185972809792" lon="-4.51805803924799">
        <ele>941.26999999999998</ele>
        <time>2025-05-10T08:00:36Z</time>
      </trkpt>
      <trkpt lat="36.959296027198434" lon="-4.518012022599578">
        <ele>942.23000000000002</ele>
        <time>2025-05-10T08:00:37Z</time>
      </trkpt>
      <trkpt lat="36.959399962797761" lon="-4.517954019829631">
        <ele>943.19000000000005</ele>
        <time>2025-05-10T08:00:38Z</time>
      </trkpt>
      <trkpt lat="36.959480009973049" lon="-4.517838014289737">
        <ele>944.14999999999998</ele>
        <time>2025-05-10T08:00:39Z</time>
      </trkpt>
      <trkpt lat="36.959536001086235" lon="-4.51769401319325">
        <ele>945.11000000000001</ele>
        <time>2025-05-10T08:00:40Z</time>
      </trkpt>
      <trkpt lat="36.95958998054266" lon="-4.517557974904776">
        <ele>946.55999999999995</ele>
        <time>2025-05-10T08:00:41Z</time>
      </trkpt>
      <trkpt lat="36.959639014676213" lon="-4.517431994900107">
        <ele>947.03999999999996</ele>
        <time>2025-05-10T08:00:42Z</time>
      </trkpt>
      <trkpt lat="36.959716966375709" lon="-4.517325963824987">
        <ele>947.03999999999996</ele>
        <time>2025-05-10T08:00:43Z</time>
      </trkpt>
      <trkpt lat="36.959824003279209" lon="-4.517229991033673">
        <ele>947.03999999999996</ele>
        <time>2025-05-10T08:00:44Z</time>
      </trkpt>
      <trkpt lat="36.959941014647484" lon="-4.517125971615315">
        <ele>946.55999999999995</ele>
        <time>2025-05-10T08:00:45Z</time>
      </trkpt>
      <trkpt lat="36.960195992141962" lon="-4.516898989677429">
        <ele>945.59000000000003</ele>
        <time>2025-05-10T08:00:47Z</time>
      </trkpt>
      <trkpt lat="36.960915997624397" lon="-4.515846977010369">
        <ele>942.71000000000004</ele>
        <time>2025-05-10T08:00:54Z</time>
      </trkpt>
      <trkpt lat="36.96102898567915" lon="-4.515758967027068">
        <ele>942.71000000000004</ele>
        <time>2025-05-10T08:00:55Z</time>
      </trkpt>
      <trkpt lat="36.961152032017708" lon="-4.515672968700528">
        <ele>943.19000000000005</ele>
        <time>2025-05-10T08:00:56Z</time>
      </trkpt>
      <trkpt lat="36.961661987006664" lon="-4.51530902646482">
        <ele>943.19000000000005</ele>
        <time>2025-05-10T08:01:00Z</time>
      </trkpt>
      <trkpt lat="36.961771035566926" lon="-4.515181034803391">
        <ele>943.19000000000005</ele>
        <time>2025-05-10T08:01:01Z</time>
      </trkpt>
      <trkpt lat="36.961880000308156" lon="-4.515052037313581">
        <ele>943.66999999999996</ele>
        <time>2025-05-10T08:01:02Z</time>
      </trkpt>
      <trkpt lat="36.962890019640326" lon="-4.513361994177103">
        <ele>947.03999999999996</ele>
        <time>2025-05-10T08:01:13Z</time>
      </trkpt>
      <trkpt lat="36.963962987065315" lon="-4.511438012123108">
        <ele>950.39999999999998</ele>
        <time>2025-05-10T08:01:25Z</time>
      </trkpt>
      <trkpt lat="36.965190013870597" lon="-4.509583013132215">
        <ele>947.51999999999998</ele>
        <time>2025-05-10T08:01:36Z</time>
      </trkpt>
      <trkpt lat="36.966155022382736" lon="-4.507792973890901">
        <ele>952.79999999999995</ele>
        <time>2025-05-10T08:01:46Z</time>
      </trkpt>
      <trkpt lat="36.96665802039206" lon="-4.506271993741393">
        <ele>956.16999999999996</ele>
        <time>2025-05-10T08:01:54Z</time>
      </trkpt>
      <trkpt lat="36.967503000050783" lon="-4.504413977265358">
        <ele>956.16999999999996</ele>
        <time>2025-05-10T08:02:04Z</time>
      </trkpt>
      <trkpt lat="36.967897033318877" lon="-4.503821041435003">
        <ele>958.57000000000005</ele>
        <time>2025-05-10T08:02:08Z</time>
      </trkpt>
      <trkpt lat="36.968907974660397" lon="-4.502690993249416">
        <ele>951.36000000000001</ele>
        <time>2025-05-10T08:02:16Z</time>
      </trkpt>
      <trkpt lat="36.969004031270742" lon="-4.502511033788323">
        <ele>949.44000000000005</ele>
        <time>2025-05-10T08:02:17Z</time>
      </trkpt>
      <trkpt lat="36.96985999122262" lon="-4.501189040020108">
        <ele>935.01999999999998</ele>
        <time>2025-05-10T08:02:25Z</time>
      </trkpt>
      <trkpt lat="36.970303980633616" lon="-4.500697022303939">
        <ele>927.33000000000004</ele>
        <time>2025-05-10T08:02:29Z</time>
      </trkpt>
      <trkpt lat="36.970381010323763" lon="-4.50061202980578">
        <ele>925.88999999999999</ele>
        <time>2025-05-10T08:02:30Z</time>
      </trkpt>
      <trkpt lat="36.970438007265329" lon="-4.50054899789393">
        <ele>923.96000000000004</ele>
        <time>2025-05-10T08:02:31Z</time>
      </trkpt>
      <trkpt lat="36.970435995608568" lon="-4.500460987910628">
        <ele>922.51999999999998</ele>
        <time>2025-05-10T08:02:32Z</time>
      </trkpt>
      <trkpt lat="36.970417974516749" lon="-4.500388987362385">
        <ele>921.55999999999995</ele>
        <time>2025-05-10T08:02:33Z</time>
      </trkpt>
      <trkpt lat="36.970373969525099" lon="-4.500341964885593">
        <ele>920.12</ele>
        <time>2025-05-10T08:02:34Z</time>
      </trkpt>
      <trkpt lat="36.970302974805236" lon="-4.500323021784425">
        <ele>918.67999999999995</ele>
        <time>2025-05-10T08:02:35Z</time>
      </trkpt>
      <trkpt lat="36.970216976478696" lon="-4.500346994027495">
        <ele>917.72000000000003</ele>
        <time>2025-05-10T08:02:36Z</time>
      </trkpt>
      <trkpt lat="36.970123015344143" lon="-4.500371972098947">
        <ele>916.75</ele>
        <time>2025-05-10T08:02:37Z</time>
      </trkpt>
      <trkpt lat="36.970025030896068" lon="-4.50039803981781">
        <ele>915.78999999999996</ele>
        <time>2025-05-10T08:02:38Z</time>
      </trkpt>
      <trkpt lat="36.969936015084386" lon="-4.500422012060881">
        <ele>914.83000000000004</ele>
        <time>2025-05-10T08:02:39Z</time>
      </trkpt>
      <trkpt lat="36.969791008159518" lon="-4.500460987910628">
        <ele>912.90999999999997</ele>
        <time>2025-05-10T08:02:41Z</time>
      </trkpt>
      <trkpt lat="36.969761000946164" lon="-4.500455036759377">
        <ele>912.42999999999995</ele>
        <time>2025-05-10T08:02:42Z</time>
      </trkpt>
      <trkpt lat="36.96973099373281" lon="-4.500395022332668">
        <ele>911.47000000000003</ele>
        <time>2025-05-10T08:02:43Z</time>
      </trkpt>
      <trkpt lat="36.969702998176217" lon="-4.500339031219482">
        <ele>910.99000000000001</ele>
        <time>2025-05-10T08:02:44Z</time>
      </trkpt>
      <trkpt lat="36.969734011217952" lon="-4.500268958508968">
        <ele>909.53999999999996</ele>
        <time>2025-05-10T08:02:45Z</time>
      </trkpt>
      <trkpt lat="36.969788996502757" lon="-4.500145995989442">
        <ele>909.05999999999995</ele>
        <time>2025-05-10T08:02:46Z</time>
      </trkpt>
      <trkpt lat="36.969841970130801" lon="-4.500049017369747">
        <ele>908.10000000000002</ele>
        <time>2025-05-10T08:02:47Z</time>
      </trkpt>
      <trkpt lat="36.970471031963825" lon="-4.498931961134076">
        <ele>898.49000000000001</ele>
        <time>2025-05-10T08:02:54Z</time>
      </trkpt>
      <trkpt lat="36.971311988309026" lon="-4.497162960469723">
        <ele>885.02999999999997</ele>
        <time>2025-05-10T08:03:04Z</time>
      </trkpt>
      <trkpt lat="36.971404021605849" lon="-4.49704997241497">
        <ele>883.59000000000003</ele>
        <time>2025-05-10T08:03:05Z</time>
      </trkpt>
      <trkpt lat="36.971504017710686" lon="-4.496926004067063">
        <ele>882.63</ele>
        <time>2025-05-10T08:03:06Z</time>
      </trkpt>
      <trkpt lat="36.971605019643903" lon="-4.496801029890776">
        <ele>881.19000000000005</ele>
        <time>2025-05-10T08:03:07Z</time>
      </trkpt>
      <trkpt lat="36.971698980778456" lon="-4.496659962460399">
        <ele>880.22000000000003</ele>
        <time>2025-05-10T08:03:08Z</time>
      </trkpt>
      <trkpt lat="36.97177198715508" lon="-4.496486959978938">
        <ele>879.25999999999999</ele>
        <time>2025-05-10T08:03:09Z</time>
      </trkpt>
      <trkpt lat="36.971847005188465" lon="-4.496308006346226">
        <ele>878.29999999999995</ele>
        <time>2025-05-10T08:03:10Z</time>
      </trkpt>
      <trkpt lat="36.972156967967749" lon="-4.495571991428733">
        <ele>874.46000000000004</ele>
        <time>2025-05-10T08:03:14Z</time>
      </trkpt>
      <trkpt lat="36.972249001264572" lon="-4.495410975068808">
        <ele>873.98000000000002</ele>
        <time>2025-05-10T08:03:15Z</time>
      </trkpt>
      <trkpt lat="36.972357966005802" lon="-4.49526303447783">
        <ele>873.00999999999999</ele>
        <time>2025-05-10T08:03:16Z</time>
      </trkpt>
      <trkpt lat="36.973261032253504" lon="-4.493896029889584">
        <ele>864.84000000000003</ele>
        <time>2025-05-10T08:03:25Z</time>
      </trkpt>
      <trkpt lat="36.973331021144986" lon="-4.493750017136335">
        <ele>863.88</ele>
        <time>2025-05-10T08:03:26Z</time>
      </trkpt>
      <trkpt lat="36.973381983116269" lon="-4.493602998554707">
        <ele>862.44000000000005</ele>
        <time>2025-05-10T08:03:27Z</time>
      </trkpt>
      <trkpt lat="36.973432023078203" lon="-4.49331097304821">
        <ele>860.03999999999996</ele>
        <time>2025-05-10T08:03:29Z</time>
      </trkpt>
      <trkpt lat="36.973503017798066" lon="-4.492894979193807">
        <ele>857.63</ele>
        <time>2025-05-10T08:03:32Z</time>
      </trkpt>
      <trkpt lat="36.973579041659832" lon="-4.492506980895996">
        <ele>856.66999999999996</ele>
        <time>2025-05-10T08:03:35Z</time>
      </trkpt>
      <trkpt lat="36.973632015287876" lon="-4.49242701753974">
        <ele>856.66999999999996</ele>
        <time>2025-05-10T08:03:36Z</time>
      </trkpt>
      <trkpt lat="36.973688006401062" lon="-4.492381000891328">
        <ele>856.19000000000005</ele>
        <time>2025-05-10T08:03:37Z</time>
      </trkpt>
      <trkpt lat="36.97374701499939" lon="-4.492373038083315">
        <ele>856.19000000000005</ele>
        <time>2025-05-10T08:03:38Z</time>
      </trkpt>
      <trkpt lat="36.973778028041124" lon="-4.492417965084314">
        <ele>855.71000000000004</ele>
        <time>2025-05-10T08:03:39Z</time>
      </trkpt>
      <trkpt lat="36.973823038861156" lon="-4.492486026138067">
        <ele>855.71000000000004</ele>
        <time>2025-05-10T08:03:40Z</time>
      </trkpt>
      <trkpt lat="36.973818009719253" lon="-4.49257998727262">
        <ele>855.71000000000004</ele>
        <time>2025-05-10T08:03:41Z</time>
      </trkpt>
      <trkpt lat="36.973811974748969" lon="-4.492704961448908">
        <ele>855.23000000000002</ele>
        <time>2025-05-10T08:03:42Z</time>
      </trkpt>
      <trkpt lat="36.973805017769337" lon="-4.492848040536046">
        <ele>855.23000000000002</ele>
        <time>2025-05-10T08:03:43Z</time>
      </trkpt>
      <trkpt lat="36.973722958937287" lon="-4.493895024061203">
        <ele>851.87</ele>
        <time>2025-05-10T08:03:49Z</time>
      </trkpt>
      <trkpt lat="36.973685994744301" lon="-4.494080012664199">
        <ele>851.38</ele>
        <time>2025-05-10T08:03:50Z</time>
      </trkpt>
      <trkpt lat="36.973349964246154" lon="-4.494909988716245">
        <ele>847.05999999999995</ele>
        <time>2025-05-10T08:03:56Z</time>
      </trkpt>
      <trkpt lat="36.973349964246154" lon="-4.49498500674963">
        <ele>846.10000000000002</ele>
        <time>2025-05-10T08:03:57Z</time>
      </trkpt>
      <trkpt lat="36.973349964246154" lon="-4.495038986206055">
        <ele>845.62</ele>
        <time>2025-05-10T08:03:58Z</time>
      </trkpt>
      <trkpt lat="36.973373014479876" lon="-4.495038986206055">
        <ele>844.65999999999997</ele>
        <time>2025-05-10T08:03:59Z</time>
      </trkpt>
      <trkpt lat="36.973414001986384" lon="-4.495038986206055">
        <ele>844.17999999999995</ele>
        <time>2025-05-10T08:04:00Z</time>
      </trkpt>
      <trkpt lat="36.973478961735964" lon="-4.495038986206055">
        <ele>843.21000000000004</ele>
        <time>2025-05-10T08:04:01Z</time>
      </trkpt>
      <trkpt lat="36.973535036668181" lon="-4.494991041719914">
        <ele>842.73000000000002</ele>
        <time>2025-05-10T08:04:02Z</time>
      </trkpt>
      <trkpt lat="36.973603013902903" lon="-4.494933038949966">
        <ele>841.76999999999998</ele>
        <time>2025-05-10T08:04:03Z</time>
      </trkpt>
      <trkpt lat="36.973906019702554" lon="-4.494673032313585">
        <ele>838.88999999999999</ele>
        <time>2025-05-10T08:04:07Z</time>
      </trkpt>
      <trkpt lat="36.973967039957643" lon="-4.494652999565005">
        <ele>838.88999999999999</ele>
        <time>2025-05-10T08:04:08Z</time>
      </trkpt>
      <trkpt lat="36.974015990272164" lon="-4.494674960151315">
        <ele>838.40999999999997</ele>
        <time>2025-05-10T08:04:09Z</time>
      </trkpt>
      <trkpt lat="36.974053960293531" lon="-4.494736986234784">
        <ele>837.92999999999995</ele>
        <time>2025-05-10T08:04:10Z</time>
      </trkpt>
      <trkpt lat="36.974038034677505" lon="-4.494809992611408">
        <ele>837.45000000000005</ele>
        <time>2025-05-10T08:04:11Z</time>
      </trkpt>
      <trkpt lat="36.974015990272164" lon="-4.494907977059484">
        <ele>836.48000000000002</ele>
        <time>2025-05-10T08:04:12Z</time>
      </trkpt>
      <trkpt lat="36.973973996937275" lon="-4.495016019791365">
        <ele>836</ele>
        <time>2025-05-10T08:04:13Z</time>
      </trkpt>
      <trkpt lat="36.973924040794373" lon="-4.495143005624414">
        <ele>835.03999999999996</ele>
        <time>2025-05-10T08:04:14Z</time>
      </trkpt>
      <trkpt lat="36.973869977518916" lon="-4.495279965922236">
        <ele>834.08000000000004</ele>
        <time>2025-05-10T08:04:15Z</time>
      </trkpt>
      <trkpt lat="36.973811974748969" lon="-4.495427990332246">
        <ele>833.12</ele>
        <time>2025-05-10T08:04:16Z</time>
      </trkpt>
      <trkpt lat="36.973780039697886" lon="-4.495575008913875">
        <ele>832.63999999999999</ele>
        <time>2025-05-10T08:04:17Z</time>
      </trkpt>
      <trkpt lat="36.973783979192376" lon="-4.49578195810318">
        <ele>831.67999999999995</ele>
        <time>2025-05-10T08:04:18Z</time>
      </trkpt>
      <trkpt lat="36.973788002505898" lon="-4.495980022475123">
        <ele>831.20000000000005</ele>
        <time>2025-05-10T08:04:19Z</time>
      </trkpt>
      <trkpt lat="36.973792025819421" lon="-4.496184037998319">
        <ele>830.24000000000001</ele>
        <time>2025-05-10T08:04:20Z</time>
      </trkpt>
      <trkpt lat="36.973799988627434" lon="-4.496584022417665">
        <ele>828.30999999999995</ele>
        <time>2025-05-10T08:04:22Z</time>
      </trkpt>
      <trkpt lat="36.973858997225761" lon="-4.496763981878758">
        <ele>827.35000000000002</ele>
        <time>2025-05-10T08:04:23Z</time>
      </trkpt>
      <trkpt lat="36.973935021087527" lon="-4.496945030987263">
        <ele>826.38999999999999</ele>
        <time>2025-05-10T08:04:24Z</time>
      </trkpt>
      <trkpt lat="36.974869016557932" lon="-4.498822996392846">
        <ele>817.74000000000001</ele>
        <time>2025-05-10T08:04:34Z</time>
      </trkpt>
      <trkpt lat="36.975544011220336" lon="-4.500112971290946">
        <ele>809.57000000000005</ele>
        <time>2025-05-10T08:04:41Z</time>
      </trkpt>
      <trkpt lat="36.976210037246346" lon="-4.501755991950631">
        <ele>795.14999999999998</ele>
        <time>2025-05-10T08:04:49Z</time>
      </trkpt>
      <trkpt lat="36.977204969152808" lon="-4.503630017861724">
        <ele>776.88</ele>
        <time>2025-05-10T08:04:59Z</time>
      </trkpt>
      <trkpt lat="36.978385979309678" lon="-4.505501026287675">
        <ele>762.46000000000004</ele>
        <time>2025-05-10T08:05:10Z</time>
      </trkpt>
      <trkpt lat="36.979452995583415" lon="-4.507157960906625">
        <ele>754.28999999999996</ele>
        <time>2025-05-10T08:05:20Z</time>
      </trkpt>
      <trkpt lat="36.980361007153988" lon="-4.508423041552305">
        <ele>745.15999999999997</ele>
        <time>2025-05-10T08:05:28Z</time>
      </trkpt>
      <trkpt lat="36.98105301707983" lon="-4.509308002889156">
        <ele>736.02999999999997</ele>
        <time>2025-05-10T08:05:34Z</time>
      </trkpt>
      <trkpt lat="36.981098027899861" lon="-4.509459966793656">
        <ele>734.10000000000002</ele>
        <time>2025-05-10T08:05:35Z</time>
      </trkpt>
      <trkpt lat="36.981142032891512" lon="-4.509606985375285">
        <ele>732.65999999999997</ele>
        <time>2025-05-10T08:05:36Z</time>
      </trkpt>
      <trkpt lat="36.981157036498189" lon="-4.509762972593308">
        <ele>731.22000000000003</ele>
        <time>2025-05-10T08:05:37Z</time>
      </trkpt>
      <trkpt lat="36.981148989871144" lon="-4.509935975074768">
        <ele>729.77999999999997</ele>
        <time>2025-05-10T08:05:38Z</time>
      </trkpt>
      <trkpt lat="36.981158964335918" lon="-4.510301006957889">
        <ele>726.88999999999999</ele>
        <time>2025-05-10T08:05:40Z</time>
      </trkpt>
      <trkpt lat="36.981183020398021" lon="-4.510489013046026">
        <ele>725.45000000000005</ele>
        <time>2025-05-10T08:05:41Z</time>
      </trkpt>
      <trkpt lat="36.981258960440755" lon="-4.510666038841009">
        <ele>723.52999999999997</ele>
        <time>2025-05-10T08:05:42Z</time>
      </trkpt>
      <trkpt lat="36.981338001787663" lon="-4.510849015787244">
        <ele>722.09000000000003</ele>
        <time>2025-05-10T08:05:43Z</time>
      </trkpt>
      <trkpt lat="36.981417965143919" lon="-4.511037021875382">
        <ele>720.64999999999998</ele>
        <time>2025-05-10T08:05:44Z</time>
      </trkpt>
      <trkpt lat="36.982327988371253" lon="-4.513330981135368">
        <ele>699.5</ele>
        <time>2025-05-10T08:05:55Z</time>
      </trkpt>
      <trkpt lat="36.982882032170892" lon="-4.514814997091889">
        <ele>683.14999999999998</ele>
        <time>2025-05-10T08:06:02Z</time>
      </trkpt>
      <trkpt lat="36.983320992439985" lon="-4.516646023839712">
        <ele>669.22000000000003</ele>
        <time>2025-05-10T08:06:11Z</time>
      </trkpt>
      <trkpt lat="36.983320992439985" lon="-4.516849033534527">
        <ele>667.76999999999998</ele>
        <time>2025-05-10T08:06:12Z</time>
      </trkpt>
      <trkpt lat="36.983311017975211" lon="-4.517061011865735">
        <ele>666.80999999999995</ele>
        <time>2025-05-10T08:06:13Z</time>
      </trkpt>
      <trkpt lat="36.98337497189641" lon="-4.518816014751792">
        <ele>657.20000000000005</ele>
        <time>2025-05-10T08:06:21Z</time>
      </trkpt>
      <trkpt lat="36.983662974089384" lon="-4.520828006789088">
        <ele>646.62</ele>
        <time>2025-05-10T08:06:30Z</time>
      </trkpt>
      <trkpt lat="36.984387002885342" lon="-4.52336898073554">
        <ele>637.00999999999999</ele>
        <time>2025-05-10T08:06:42Z</time>
      </trkpt>
      <trkpt lat="36.984492028132081" lon="-4.523552041500807">
        <ele>636.52999999999997</ele>
        <time>2025-05-10T08:06:43Z</time>
      </trkpt>
      <trkpt lat="36.984596969559789" lon="-4.523734012618661">
        <ele>636.04999999999995</ele>
        <time>2025-05-10T08:06:44Z</time>
      </trkpt>
      <trkpt lat="36.9856290332973" lon="-4.525560010224581">
        <ele>635.09000000000003</ele>
        <time>2025-05-10T08:06:55Z</time>
      </trkpt>
      <trkpt lat="36.986602004617453" lon="-4.527782974764705">
        <ele>623.54999999999995</ele>
        <time>2025-05-10T08:07:07Z</time>
      </trkpt>
      <trkpt lat="36.986829992383718" lon="-4.528241967782378">
        <ele>620.19000000000005</ele>
        <time>2025-05-10T08:07:10Z</time>
      </trkpt>
      <trkpt lat="36.986916996538639" lon="-4.528363002464175">
        <ele>619.23000000000002</ele>
        <time>2025-05-10T08:07:11Z</time>
      </trkpt>
      <trkpt lat="36.987017998471856" lon="-4.528455035760999">
        <ele>618.25999999999999</ele>
        <time>2025-05-10T08:07:12Z</time>
      </trkpt>
      <trkpt lat="36.987191000953317" lon="-4.528599036857486">
        <ele>616.34000000000003</ele>
        <time>2025-05-10T08:07:14Z</time>
      </trkpt>
      <trkpt lat="36.98724003508687" lon="-4.528714036568999">
        <ele>615.38</ele>
        <time>2025-05-10T08:07:15Z</time>
      </trkpt>
      <trkpt lat="36.987255038693547" lon="-4.528807997703552">
        <ele>614.89999999999998</ele>
        <time>2025-05-10T08:07:16Z</time>
      </trkpt>
      <trkpt lat="36.987246992066503" lon="-4.528916040435433">
        <ele>614.41999999999996</ele>
        <time>2025-05-10T08:07:17Z</time>
      </trkpt>
      <trkpt lat="36.987194018438458" lon="-4.529020981863141">
        <ele>613.94000000000005</ele>
        <time>2025-05-10T08:07:18Z</time>
      </trkpt>
      <trkpt lat="36.987124029546976" lon="-4.529109997674823">
        <ele>613.46000000000004</ele>
        <time>2025-05-10T08:07:19Z</time>
      </trkpt>
      <trkpt lat="36.987029984593391" lon="-4.529191972687841">
        <ele>612.98000000000002</ele>
        <time>2025-05-10T08:07:20Z</time>
      </trkpt>
      <trkpt lat="36.986932000145316" lon="-4.529277971014381">
        <ele>612.5</ele>
        <time>2025-05-10T08:07:21Z</time>
      </trkpt>
      <trkpt lat="36.986834015697241" lon="-4.52936296351254">
        <ele>612.5</ele>
        <time>2025-05-10T08:07:22Z</time>
      </trkpt>
      <trkpt lat="36.986646009609103" lon="-4.5295549929142">
        <ele>611.05999999999995</ele>
        <time>2025-05-10T08:07:24Z</time>
      </trkpt>
      <trkpt lat="36.986580966040492" lon="-4.529675021767616">
        <ele>610.57000000000005</ele>
        <time>2025-05-10T08:07:25Z</time>
      </trkpt>
      <trkpt lat="36.986525980755687" lon="-4.5298139937222">
        <ele>609.61000000000001</ele>
        <time>2025-05-10T08:07:26Z</time>
      </trkpt>
      <trkpt lat="36.986528998240829" lon="-4.529970986768603">
        <ele>609.13</ele>
        <time>2025-05-10T08:07:27Z</time>
      </trkpt>
      <trkpt lat="36.986533021554351" lon="-4.530142983421683">
        <ele>608.64999999999998</ele>
        <time>2025-05-10T08:07:28Z</time>
      </trkpt>
      <trkpt lat="36.986536039039493" lon="-4.530319003388286">
        <ele>608.16999999999996</ele>
        <time>2025-05-10T08:07:29Z</time>
      </trkpt>
      <trkpt lat="36.986539978533983" lon="-4.530499968677759">
        <ele>607.69000000000005</ele>
        <time>2025-05-10T08:07:30Z</time>
      </trkpt>
      <trkpt lat="36.986544001847506" lon="-4.530681017786264">
        <ele>607.21000000000004</ele>
        <time>2025-05-10T08:07:31Z</time>
      </trkpt>
      <trkpt lat="36.986544001847506" lon="-4.530870029702783">
        <ele>606.25</ele>
        <time>2025-05-10T08:07:32Z</time>
      </trkpt>
      <trkpt lat="36.986512988805771" lon="-4.531054012477398">
        <ele>605.76999999999998</ele>
        <time>2025-05-10T08:07:33Z</time>
      </trkpt>
      <trkpt lat="36.986480969935656" lon="-4.531237995252013">
        <ele>604.80999999999995</ele>
        <time>2025-05-10T08:07:34Z</time>
      </trkpt>
      <trkpt lat="36.986386002972722" lon="-4.531795978546143">
        <ele>601.44000000000005</ele>
        <time>2025-05-10T08:07:37Z</time>
      </trkpt>
      <trkpt lat="36.986394971609116" lon="-4.531989013776183">
        <ele>600.48000000000002</ele>
        <time>2025-05-10T08:07:38Z</time>
      </trkpt>
      <trkpt lat="36.98642497882247" lon="-4.532172996550798">
        <ele>599.51999999999998</ele>
        <time>2025-05-10T08:07:39Z</time>
      </trkpt>
      <trkpt lat="36.986475018784404" lon="-4.532354967668653">
        <ele>598.55999999999995</ele>
        <time>2025-05-10T08:07:40Z</time>
      </trkpt>
      <trkpt lat="36.986549030989408" lon="-4.532531993463635">
        <ele>597.60000000000002</ele>
        <time>2025-05-10T08:07:41Z</time>
      </trkpt>
      <trkpt lat="36.986622037366033" lon="-4.532708013430238">
        <ele>596.63999999999999</ele>
        <time>2025-05-10T08:07:42Z</time>
      </trkpt>
      <trkpt lat="36.986694959923625" lon="-4.53288596123457">
        <ele>595.19000000000005</ele>
        <time>2025-05-10T08:07:43Z</time>
      </trkpt>
      <trkpt lat="36.986736031249166" lon="-4.533075978979468">
        <ele>593.75</ele>
        <time>2025-05-10T08:07:44Z</time>
      </trkpt>
      <trkpt lat="36.986776012927294" lon="-4.533267002552748">
        <ele>592.78999999999996</ele>
        <time>2025-05-10T08:07:45Z</time>
      </trkpt>
      <trkpt lat="36.986784981563687" lon="-4.533458026126027">
        <ele>591.35000000000002</ele>
        <time>2025-05-10T08:07:46Z</time>
      </trkpt>
      <trkpt lat="36.98678900487721" lon="-4.533651983365417">
        <ele>590.38999999999999</ele>
        <time>2025-05-10T08:07:47Z</time>
      </trkpt>
      <trkpt lat="36.986869974061847" lon="-4.535991037264466">
        <ele>586.53999999999996</ele>
        <time>2025-05-10T08:07:59Z</time>
      </trkpt>
      <trkpt lat="36.986996959894896" lon="-4.53866695985198">
        <ele>579.33000000000004</ele>
        <time>2025-05-10T08:08:11Z</time>
      </trkpt>
      <trkpt lat="36.98715697042644" lon="-4.540611980482936">
        <ele>572.60000000000002</ele>
        <time>2025-05-10T08:08:20Z</time>
      </trkpt>
      <trkpt lat="36.987223019823432" lon="-4.5407709851861">
        <ele>572.12</ele>
        <time>2025-05-10T08:08:21Z</time>
      </trkpt>
      <trkpt lat="36.987314969301224" lon="-4.540909035131335">
        <ele>571.63999999999999</ele>
        <time>2025-05-10T08:08:22Z</time>
      </trkpt>
      <trkpt lat="36.987430974841118" lon="-4.541039038449526">
        <ele>571.15999999999997</ele>
        <time>2025-05-10T08:08:23Z</time>
      </trkpt>
      <trkpt lat="36.987558966502547" lon="-4.541148003190756">
        <ele>571.15999999999997</ele>
        <time>2025-05-10T08:08:24Z</time>
      </trkpt>
      <trkpt lat="36.987702967599034" lon="-4.541259985417128">
        <ele>570.67999999999995</ele>
        <time>2025-05-10T08:08:25Z</time>
      </trkpt>
      <trkpt lat="36.989115988835692" lon="-4.541941015049815">
        <ele>569.24000000000001</ele>
        <time>2025-05-10T08:08:33Z</time>
      </trkpt>
      <trkpt lat="36.990433037281036" lon="-4.542222982272506">
        <ele>566.83000000000004</ele>
        <time>2025-05-10T08:08:41Z</time>
      </trkpt>
      <trkpt lat="36.990563040599227" lon="-4.542262963950634">
        <ele>566.83000000000004</ele>
        <time>2025-05-10T08:08:42Z</time>
      </trkpt>
      <trkpt lat="36.990689020603895" lon="-4.542327001690865">
        <ele>566.83000000000004</ele>
        <time>2025-05-10T08:08:43Z</time>
      </trkpt>
      <trkpt lat="36.990817012265325" lon="-4.542438983917236">
        <ele>566.83000000000004</ele>
        <time>2025-05-10T08:08:44Z</time>
      </trkpt>
      <trkpt lat="36.991656962782145" lon="-4.543744968250394">
        <ele>567.79999999999995</ele>
        <time>2025-05-10T08:08:52Z</time>
      </trkpt>
      <trkpt lat="36.991844968870282" lon="-4.544033976271749">
        <ele>567.79999999999995</ele>
        <time>2025-05-10T08:08:54Z</time>
      </trkpt>
      <trkpt lat="36.991902971640229" lon="-4.544206978753209">
        <ele>568.27999999999997</ele>
        <time>2025-05-10T08:08:55Z</time>
      </trkpt>
      <trkpt lat="36.991954017430544" lon="-4.544413005933166">
        <ele>568.27999999999997</ele>
        <time>2025-05-10T08:08:56Z</time>
      </trkpt>
      <trkpt lat="36.991971032693982" lon="-4.544580979272723">
        <ele>568.27999999999997</ele>
        <time>2025-05-10T08:08:57Z</time>
      </trkpt>
      <trkpt lat="36.99199098162353" lon="-4.544777031987906">
        <ele>568.27999999999997</ele>
        <time>2025-05-10T08:08:58Z</time>
      </trkpt>
      <trkpt lat="36.99203004129231" lon="-4.545168969780207">
        <ele>567.79999999999995</ele>
        <time>2025-05-10T08:09:00Z</time>
      </trkpt>
      <trkpt lat="36.992077985778451" lon="-4.545351024717093">
        <ele>567.32000000000005</ele>
        <time>2025-05-10T08:09:01Z</time>
      </trkpt>
      <trkpt lat="36.992159960791469" lon="-4.545524027198553">
        <ele>567.32000000000005</ele>
        <time>2025-05-10T08:09:02Z</time>
      </trkpt>
      <trkpt lat="36.992244031280279" lon="-4.545695018023253">
        <ele>567.32000000000005</ele>
        <time>2025-05-10T08:09:03Z</time>
      </trkpt>
      <trkpt lat="36.992349978536367" lon="-4.545858968049288">
        <ele>567.32000000000005</ele>
        <time>2025-05-10T08:09:04Z</time>
      </trkpt>
      <trkpt lat="36.993290008977056" lon="-4.547674991190434">
        <ele>565.38999999999999</ele>
        <time>2025-05-10T08:09:14Z</time>
      </trkpt>
      <trkpt lat="36.993618998676538" lon="-4.548446964472532">
        <ele>565.38999999999999</ele>
        <time>2025-05-10T08:09:18Z</time>
      </trkpt>
      <trkpt lat="36.993700973689556" lon="-4.548638993874192">
        <ele>564.90999999999997</ele>
        <time>2025-05-10T08:09:19Z</time>
      </trkpt>
      <trkpt lat="36.995025984942913" lon="-4.550516037270427">
        <ele>562.50999999999999</ele>
        <time>2025-05-10T08:09:30Z</time>
      </trkpt>
      <trkpt lat="36.995306024327874" lon="-4.550796998664737">
        <ele>562.02999999999997</ele>
        <time>2025-05-10T08:09:32Z</time>
      </trkpt>
      <trkpt lat="36.995453964918852" lon="-4.550929013639689">
        <ele>561.54999999999995</ele>
        <time>2025-05-10T08:09:33Z</time>
      </trkpt>
      <trkpt lat="36.995613975450397" lon="-4.551022974774241">
        <ele>561.54999999999995</ele>
        <time>2025-05-10T08:09:34Z</time>
      </trkpt>
      <trkpt lat="36.995901977643371" lon="-4.551193965598941">
        <ele>560.59000000000003</ele>
        <time>2025-05-10T08:09:36Z</time>
      </trkpt>
      <trkpt lat="36.996017983183265" lon="-4.55131801776588">
        <ele>560.11000000000001</ele>
        <time>2025-05-10T08:09:37Z</time>
      </trkpt>
      <trkpt lat="36.996128959581256" lon="-4.551438968628645">
        <ele>559.62</ele>
        <time>2025-05-10T08:09:38Z</time>
      </trkpt>
      <trkpt lat="36.996219987049699" lon="-4.551574001088738">
        <ele>558.65999999999997</ele>
        <time>2025-05-10T08:09:39Z</time>
      </trkpt>
      <trkpt lat="36.996301962062716" lon="-4.551714984700084">
        <ele>558.17999999999995</ele>
        <time>2025-05-10T08:09:40Z</time>
      </trkpt>
      <trkpt lat="36.996381003409624" lon="-4.551860997453332">
        <ele>557.22000000000003</ele>
        <time>2025-05-10T08:09:41Z</time>
      </trkpt>
      <trkpt lat="36.996430959552526" lon="-4.552039029076695">
        <ele>556.25999999999999</ele>
        <time>2025-05-10T08:09:42Z</time>
      </trkpt>
      <trkpt lat="36.996484016999602" lon="-4.552226029336453">
        <ele>555.29999999999995</ele>
        <time>2025-05-10T08:09:43Z</time>
      </trkpt>
      <trkpt lat="36.996588036417961" lon="-4.552596006542444">
        <ele>552.89999999999998</ele>
        <time>2025-05-10T08:09:45Z</time>
      </trkpt>
      <trkpt lat="36.99667202308774" lon="-4.552761968225241">
        <ele>551.92999999999995</ele>
        <time>2025-05-10T08:09:46Z</time>
      </trkpt>
      <trkpt lat="36.996762966737151" lon="-4.55288995988667">
        <ele>551.45000000000005</ele>
        <time>2025-05-10T08:09:47Z</time>
      </trkpt>
      <trkpt lat="36.996889030560851" lon="-4.553066985681653">
        <ele>549.52999999999997</ele>
        <time>2025-05-10T08:09:49Z</time>
      </trkpt>
      <trkpt lat="36.996942004188895" lon="-4.553142003715038">
        <ele>548.57000000000005</ele>
        <time>2025-05-10T08:09:50Z</time>
      </trkpt>
      <trkpt lat="36.997203016653657" lon="-4.553327998146415">
        <ele>546.64999999999998</ele>
        <time>2025-05-10T08:09:53Z</time>
      </trkpt>
      <trkpt lat="36.997311981394887" lon="-4.553393963724375">
        <ele>546.16999999999996</ele>
        <time>2025-05-10T08:09:54Z</time>
      </trkpt>
      <trkpt lat="36.997686987742782" lon="-4.553622035309672">
        <ele>543.75999999999999</ele>
        <time>2025-05-10T08:09:57Z</time>
      </trkpt>
      <trkpt lat="36.997958980500698" lon="-4.553786991164088">
        <ele>542.32000000000005</ele>
        <time>2025-05-10T08:09:59Z</time>
      </trkpt>
      <trkpt lat="36.998096024617553" lon="-4.553859997540712">
        <ele>541.84000000000003</ele>
        <time>2025-05-10T08:10:00Z</time>
      </trkpt>
      <trkpt lat="36.99824295938015" lon="-4.553891010582447">
        <ele>540.88</ele>
        <time>2025-05-10T08:10:01Z</time>
      </trkpt>
      <trkpt lat="36.998396012932062" lon="-4.553924035280943">
        <ele>539.91999999999996</ele>
        <time>2025-05-10T08:10:02Z</time>
      </trkpt>
      <trkpt lat="36.998549988493323" lon="-4.553956976160407">
        <ele>538.96000000000004</ele>
        <time>2025-05-10T08:10:03Z</time>
      </trkpt>
      <trkpt lat="36.999752959236503" lon="-4.554266016930342">
        <ele>532.71000000000004</ele>
        <time>2025-05-10T08:10:11Z</time>
      </trkpt>
      <trkpt lat="37.000623000785708" lon="-4.554519988596439">
        <ele>529.82000000000005</ele>
        <time>2025-05-10T08:10:19Z</time>
      </trkpt>
      <trkpt lat="37.000718973577023" lon="-4.554598024114966">
        <ele>530.29999999999995</ele>
        <time>2025-05-10T08:10:20Z</time>
      </trkpt>
      <trkpt lat="37.000796003267169" lon="-4.554660972207785">
        <ele>530.29999999999995</ele>
        <time>2025-05-10T08:10:21Z</time>
      </trkpt>
      <trkpt lat="37.000874960795045" lon="-4.554740013554692">
        <ele>530.29999999999995</ele>
        <time>2025-05-10T08:10:22Z</time>
      </trkpt>
      <trkpt lat="37.000932041555643" lon="-4.554841015487909">
        <ele>530.29999999999995</ele>
        <time>2025-05-10T08:10:23Z</time>
      </trkpt>
      <trkpt lat="37.00099197216332" lon="-4.554948974400759">
        <ele>530.29999999999995</ele>
        <time>2025-05-10T08:10:24Z</time>
      </trkpt>
      <trkpt lat="37.001057015731931" lon="-4.555072020739317">
        <ele>530.29999999999995</ele>
        <time>2025-05-10T08:10:25Z</time>
      </trkpt>
      <trkpt lat="37.001103032380342" lon="-4.555215016007423">
        <ele>530.29999999999995</ele>
        <time>2025-05-10T08:10:26Z</time>
      </trkpt>
      <trkpt lat="37.001259019598365" lon="-4.55585103482008">
        <ele>531.26999999999998</ele>
        <time>2025-05-10T08:10:30Z</time>
      </trkpt>
      <trkpt lat="37.00124996714294" lon="-4.556016996502876">
        <ele>531.75</ele>
        <time>2025-05-10T08:10:31Z</time>
      </trkpt>
      <trkpt lat="37.00120403431356" lon="-4.556182958185673">
        <ele>532.71000000000004</ele>
        <time>2025-05-10T08:10:32Z</time>
      </trkpt>
      <trkpt lat="37.001155000180006" lon="-4.556358978152275">
        <ele>533.66999999999996</ele>
        <time>2025-05-10T08:10:33Z</time>
      </trkpt>
      <trkpt lat="37.001104960218072" lon="-4.556536003947258">
        <ele>534.63</ele>
        <time>2025-05-10T08:10:34Z</time>
      </trkpt>
      <trkpt lat="37.0009929779917" lon="-4.556904975324869">
        <ele>536.54999999999995</ele>
        <time>2025-05-10T08:10:36Z</time>
      </trkpt>
      <trkpt lat="37.000902034342289" lon="-4.557041013613343">
        <ele>537.99000000000001</ele>
        <time>2025-05-10T08:10:37Z</time>
      </trkpt>
      <trkpt lat="37.000822992995381" lon="-4.557160036638379">
        <ele>538.96000000000004</ele>
        <time>2025-05-10T08:10:38Z</time>
      </trkpt>
      <trkpt lat="37.000751998275518" lon="-4.557265983894467">
        <ele>540.88</ele>
        <time>2025-05-10T08:10:39Z</time>
      </trkpt>
      <trkpt lat="37.000761972740293" lon="-4.557376960292459">
        <ele>542.32000000000005</ele>
        <time>2025-05-10T08:10:40Z</time>
      </trkpt>
      <trkpt lat="37.000775970518589" lon="-4.557520039379597">
        <ele>543.75999999999999</ele>
        <time>2025-05-10T08:10:41Z</time>
      </trkpt>
      <trkpt lat="37.000790974125266" lon="-4.557682983577251">
        <ele>545.20000000000005</ele>
        <time>2025-05-10T08:10:42Z</time>
      </trkpt>
      <trkpt lat="37.0008600410074" lon="-4.558157986029983">
        <ele>549.04999999999995</ele>
        <time>2025-05-10T08:10:45Z</time>
      </trkpt>
      <trkpt lat="37.00090697966516" lon="-4.558290001004934">
        <ele>550.49000000000001</ele>
        <time>2025-05-10T08:10:46Z</time>
      </trkpt>
      <trkpt lat="37.000981997698545" lon="-4.558397959917784">
        <ele>551.92999999999995</ele>
        <time>2025-05-10T08:10:47Z</time>
      </trkpt>
      <trkpt lat="37.001086017116904" lon="-4.558485969901085">
        <ele>552.89999999999998</ele>
        <time>2025-05-10T08:10:48Z</time>
      </trkpt>
      <trkpt lat="37.001215014606714" lon="-4.558528969064355">
        <ele>554.34000000000003</ele>
        <time>2025-05-10T08:10:49Z</time>
      </trkpt>
      <trkpt lat="37.001361027359962" lon="-4.558574985712767">
        <ele>555.77999999999997</ele>
        <time>2025-05-10T08:10:50Z</time>
      </trkpt>
      <trkpt lat="37.001517014577985" lon="-4.558574985712767">
        <ele>557.22000000000003</ele>
        <time>2025-05-10T08:10:51Z</time>
      </trkpt>
      <trkpt lat="37.002206007018685" lon="-4.558648997917771">
        <ele>562.99000000000001</ele>
        <time>2025-05-10T08:10:56Z</time>
      </trkpt>
      <trkpt lat="37.002330981194973" lon="-4.5586889795959">
        <ele>563.95000000000005</ele>
        <time>2025-05-10T08:10:57Z</time>
      </trkpt>
      <trkpt lat="37.002446986734867" lon="-4.558725021779537">
        <ele>564.90999999999997</ele>
        <time>2025-05-10T08:10:58Z</time>
      </trkpt>
      <trkpt lat="37.002571960911155" lon="-4.558805990964174">
        <ele>565.87</ele>
        <time>2025-05-10T08:10:59Z</time>
      </trkpt>
      <trkpt lat="37.002694001421332" lon="-4.558885032311082">
        <ele>566.83000000000004</ele>
        <time>2025-05-10T08:11:00Z</time>
      </trkpt>
      <trkpt lat="37.00281897559762" lon="-4.558969018980861">
        <ele>567.32000000000005</ele>
        <time>2025-05-10T08:11:01Z</time>
      </trkpt>
      <trkpt lat="37.002930035814643" lon="-4.559087958186865">
        <ele>568.27999999999997</ele>
        <time>2025-05-10T08:11:02Z</time>
      </trkpt>
      <trkpt lat="37.003791024908423" lon="-4.559892034158111">
        <ele>574.03999999999996</ele>
        <time>2025-05-10T08:11:09Z</time>
      </trkpt>
      <trkpt lat="37.004883019253612" lon="-4.560542972758412">
        <ele>578.37</ele>
        <time>2025-05-10T08:11:17Z</time>
      </trkpt>
      <trkpt lat="37.005017967894673" lon="-4.560600975528359">
        <ele>578.37</ele>
        <time>2025-05-10T08:11:18Z</time>
      </trkpt>
      <trkpt lat="37.005162974819541" lon="-4.560656966641545">
        <ele>578.37</ele>
        <time>2025-05-10T08:11:19Z</time>
      </trkpt>
      <trkpt lat="37.005318962037563" lon="-4.560667024925351">
        <ele>577.88999999999999</ele>
        <time>2025-05-10T08:11:20Z</time>
      </trkpt>
      <trkpt lat="37.005493976175785" lon="-4.560678005218506">
        <ele>577.88999999999999</ele>
        <time>2025-05-10T08:11:21Z</time>
      </trkpt>
      <trkpt lat="37.005650969222188" lon="-4.560631988570094">
        <ele>576.92999999999995</ele>
        <time>2025-05-10T08:11:22Z</time>
      </trkpt>
      <trkpt lat="37.005813997238874" lon="-4.560583960264921">
        <ele>576.92999999999995</ele>
        <time>2025-05-10T08:11:23Z</time>
      </trkpt>
      <trkpt lat="37.007165998220444" lon="-4.560414981096983">
        <ele>574.52999999999997</ele>
        <time>2025-05-10T08:11:31Z</time>
      </trkpt>
      <trkpt lat="37.007322991266847" lon="-4.560452029109001">
        <ele>574.03999999999996</ele>
        <time>2025-05-10T08:11:32Z</time>
      </trkpt>
      <trkpt lat="37.007656004279852" lon="-4.560525035485625">
        <ele>573.08000000000004</ele>
        <time>2025-05-10T08:11:34Z</time>
      </trkpt>
      <trkpt lat="37.00782397761941" lon="-4.560540961101651">
        <ele>572.60000000000002</ele>
        <time>2025-05-10T08:11:35Z</time>
      </trkpt>
      <trkpt lat="37.00799304060638" lon="-4.560513971373439">
        <ele>572.12</ele>
        <time>2025-05-10T08:11:36Z</time>
      </trkpt>
      <trkpt lat="37.008742969483137" lon="-4.560436019673944">
        <ele>571.15999999999997</ele>
        <time>2025-05-10T08:11:41Z</time>
      </trkpt>
      <trkpt lat="37.008859980851412" lon="-4.560482958331704">
        <ele>570.67999999999995</ele>
        <time>2025-05-10T08:11:42Z</time>
      </trkpt>
      <trkpt lat="37.008970035240054" lon="-4.560555964708328">
        <ele>570.67999999999995</ele>
        <time>2025-05-10T08:11:43Z</time>
      </trkpt>
      <trkpt lat="37.009080005809665" lon="-4.560641041025519">
        <ele>570.67999999999995</ele>
        <time>2025-05-10T08:11:44Z</time>
      </trkpt>
      <trkpt lat="37.009181007742882" lon="-4.560753023251891">
        <ele>571.15999999999997</ele>
        <time>2025-05-10T08:11:45Z</time>
      </trkpt>
      <trkpt lat="37.010289011523128" lon="-4.561944007873535">
        <ele>576.92999999999995</ele>
        <time>2025-05-10T08:11:54Z</time>
      </trkpt>
      <trkpt lat="37.010624036192894" lon="-4.562372993677855">
        <ele>579.33000000000004</ele>
        <time>2025-05-10T08:11:58Z</time>
      </trkpt>
      <trkpt lat="37.010749010369182" lon="-4.56259997561574">
        <ele>581.25</ele>
        <time>2025-05-10T08:12:06Z</time>
      </trkpt>
      <trkpt lat="37.010749010369182" lon="-4.56259997561574">
        <ele>581.25</ele>
        <time>2025-05-10T08:12:20Z</time>
      </trkpt>
      <trkpt lat="37.010743981227279" lon="-4.562591006979346">
        <ele>581.73000000000002</ele>
        <time>2025-05-10T08:12:22Z</time>
      </trkpt>
      <trkpt lat="37.010727971792221" lon="-4.562563011422753">
        <ele>582.22000000000003</ele>
        <time>2025-05-10T08:12:23Z</time>
      </trkpt>
      <trkpt lat="37.010709028691053" lon="-4.562527975067496">
        <ele>582.22000000000003</ele>
        <time>2025-05-10T08:12:24Z</time>
      </trkpt>
      <trkpt lat="37.010687990114093" lon="-4.562488999217749">
        <ele>582.70000000000005</ele>
        <time>2025-05-10T08:12:25Z</time>
      </trkpt>
      <trkpt lat="37.010669969022274" lon="-4.562456980347633">
        <ele>582.70000000000005</ele>
        <time>2025-05-10T08:12:26Z</time>
      </trkpt>
      <trkpt lat="37.010751022025943" lon="-4.562329994514585">
        <ele>583.17999999999995</ele>
        <time>2025-05-10T08:12:27Z</time>
      </trkpt>
      <trkpt lat="37.010755967348814" lon="-4.562328988686204">
        <ele>583.17999999999995</ele>
        <time>2025-05-10T08:12:28Z</time>
      </trkpt>
      <trkpt lat="37.010814975947142" lon="-4.562318008393049">
        <ele>582.70000000000005</ele>
        <time>2025-05-10T08:12:29Z</time>
      </trkpt>
      <trkpt lat="37.010884964838624" lon="-4.562304010614753">
        <ele>582.70000000000005</ele>
        <time>2025-05-10T08:12:30Z</time>
      </trkpt>
      <trkpt lat="37.011435991153121" lon="-4.562004022300243">
        <ele>575.97000000000003</ele>
        <time>2025-05-10T08:12:39Z</time>
      </trkpt>
      <trkpt lat="37.011456023901701" lon="-4.561989018693566">
        <ele>574.52999999999997</ele>
        <time>2025-05-10T08:12:48Z</time>
      </trkpt>
      <trkpt lat="37.011502040550113" lon="-4.561955993995071">
        <ele>574.03999999999996</ele>
        <time>2025-05-10T08:12:52Z</time>
      </trkpt>
      <trkpt lat="37.011787025257945" lon="-4.561750972643495">
        <ele>569.72000000000003</ele>
        <time>2025-05-10T08:13:00Z</time>
      </trkpt>
      <trkpt lat="37.011787025257945" lon="-4.561750972643495">
        <ele>568.75999999999999</ele>
        <time>2025-05-10T08:13:12Z</time>
      </trkpt>
      <trkpt lat="37.011787025257945" lon="-4.561750972643495">
        <ele>568.27999999999997</ele>
        <time>2025-05-10T08:13:13Z</time>
      </trkpt>
      <trkpt lat="37.011787025257945" lon="-4.561750972643495">
        <ele>567.79999999999995</ele>
        <time>2025-05-10T08:13:14Z</time>
      </trkpt>
      <trkpt lat="37.011787025257945" lon="-4.561750972643495">
        <ele>567.32000000000005</ele>
        <time>2025-05-10T08:13:18Z</time>
      </trkpt>
      <trkpt lat="37.011792976409197" lon="-4.561746027320623">
        <ele>566.83000000000004</ele>
        <time>2025-05-10T08:13:19Z</time>
      </trkpt>
      <trkpt lat="37.011741008609533" lon="-4.561783997341991">
        <ele>566.83000000000004</ele>
        <time>2025-05-10T08:13:21Z</time>
      </trkpt>
      <trkpt lat="37.011700021103024" lon="-4.561812998726964">
        <ele>566.83000000000004</ele>
        <time>2025-05-10T08:13:22Z</time>
      </trkpt>
      <trkpt lat="37.01164998114109" lon="-4.561849040910602">
        <ele>566.35000000000002</ele>
        <time>2025-05-10T08:13:23Z</time>
      </trkpt>
      <trkpt lat="37.010947996750474" lon="-4.562291018664837">
        <ele>571.15999999999997</ele>
        <time>2025-05-10T08:13:35Z</time>
      </trkpt>
      <trkpt lat="37.010696958750486" lon="-4.562329994514585">
        <ele>575.00999999999999</ele>
        <time>2025-05-10T08:13:41Z</time>
      </trkpt>
      <trkpt lat="37.010673992335796" lon="-4.562329994514585">
        <ele>575.97000000000003</ele>
        <time>2025-05-10T08:13:42Z</time>
      </trkpt>
      <trkpt lat="37.010600985959172" lon="-4.562329994514585">
        <ele>576.45000000000005</ele>
        <time>2025-05-10T08:13:43Z</time>
      </trkpt>
      <trkpt lat="37.010596040636301" lon="-4.562321025878191">
        <ele>577.40999999999997</ele>
        <time>2025-05-10T08:13:44Z</time>
      </trkpt>
      <trkpt lat="37.01055496931076" lon="-4.562250031158328">
        <ele>578.37</ele>
        <time>2025-05-10T08:13:45Z</time>
      </trkpt>
      <trkpt lat="37.010514987632632" lon="-4.562179958447814">
        <ele>578.85000000000002</ele>
        <time>2025-05-10T08:13:46Z</time>
      </trkpt>
      <trkpt lat="37.01042303815484" lon="-4.5620839856565">
        <ele>579.33000000000004</ele>
        <time>2025-05-10T08:13:47Z</time>
      </trkpt>
      <trkpt lat="37.010331004858017" lon="-4.561987007036805">
        <ele>579.33000000000004</ele>
        <time>2025-05-10T08:13:48Z</time>
      </trkpt>
      <trkpt lat="37.009374964982271" lon="-4.560970030725002">
        <ele>580.76999999999998</ele>
        <time>2025-05-10T08:13:56Z</time>
      </trkpt>
      <trkpt lat="37.009056033566594" lon="-4.560613967478275">
        <ele>579.33000000000004</ele>
        <time>2025-05-10T08:13:59Z</time>
      </trkpt>
      <trkpt lat="37.008944973349571" lon="-4.560540039092302">
        <ele>578.85000000000002</ele>
        <time>2025-05-10T08:14:00Z</time>
      </trkpt>
      <trkpt lat="37.008855035528541" lon="-4.560480024665594">
        <ele>578.85000000000002</ele>
        <time>2025-05-10T08:14:01Z</time>
      </trkpt>
      <trkpt lat="37.008769959211349" lon="-4.560439037159085">
        <ele>578.37</ele>
        <time>2025-05-10T08:14:02Z</time>
      </trkpt>
      <trkpt lat="37.008697958663106" lon="-4.560431996360421">
        <ele>578.37</ele>
        <time>2025-05-10T08:14:03Z</time>
      </trkpt>
      <trkpt lat="37.008638028055429" lon="-4.560425961390138">
        <ele>578.37</ele>
        <time>2025-05-10T08:14:04Z</time>
      </trkpt>
      <trkpt lat="37.008597040548921" lon="-4.560422021895647">
        <ele>577.88999999999999</ele>
        <time>2025-05-10T08:14:05Z</time>
      </trkpt>
      <trkpt lat="37.008601985871792" lon="-4.560339963063598">
        <ele>577.88999999999999</ele>
        <time>2025-05-10T08:14:06Z</time>
      </trkpt>
      <trkpt lat="37.008615983650088" lon="-4.56027802079916">
        <ele>577.40999999999997</ele>
        <time>2025-05-10T08:14:07Z</time>
      </trkpt>
      <trkpt lat="37.008634004741907" lon="-4.560217000544071">
        <ele>577.40999999999997</ele>
        <time>2025-05-10T08:14:08Z</time>
      </trkpt>
      <trkpt lat="37.008677003905177" lon="-4.560152962803841">
        <ele>576.92999999999995</ele>
        <time>2025-05-10T08:14:09Z</time>
      </trkpt>
      <trkpt lat="37.008712962269783" lon="-4.560098983347416">
        <ele>576.92999999999995</ele>
        <time>2025-05-10T08:14:10Z</time>
      </trkpt>
      <trkpt lat="37.008764008060098" lon="-4.560113986954093">
        <ele>576.45000000000005</ele>
        <time>2025-05-10T08:14:11Z</time>
      </trkpt>
      <trkpt lat="37.008824022486806" lon="-4.560132008045912">
        <ele>575.97000000000003</ele>
        <time>2025-05-10T08:14:12Z</time>
      </trkpt>
      <trkpt lat="37.008888982236385" lon="-4.560151034966111">
        <ele>575.49000000000001</ele>
        <time>2025-05-10T08:14:13Z</time>
      </trkpt>
      <trkpt lat="37.008956037461758" lon="-4.560174001380801">
        <ele>575.00999999999999</ele>
        <time>2025-05-10T08:14:14Z</time>
      </trkpt>
      <trkpt lat="37.009184025228024" lon="-4.560272991657257">
        <ele>574.52999999999997</ele>
        <time>2025-05-10T08:14:17Z</time>
      </trkpt>
      <trkpt lat="37.01027300208807" lon="-4.560742964968085">
        <ele>569.24000000000001</ele>
        <time>2025-05-10T08:14:30Z</time>
      </trkpt>
      <trkpt lat="37.010432006791234" lon="-4.560753023251891">
        <ele>568.27999999999997</ele>
        <time>2025-05-10T08:14:32Z</time>
      </trkpt>
      <trkpt lat="37.010577013716102" lon="-4.560761991888285">
        <ele>567.32000000000005</ele>
        <time>2025-05-10T08:14:34Z</time>
      </trkpt>
      <trkpt lat="37.010925030335784" lon="-4.560686973854899">
        <ele>562.99000000000001</ele>
        <time>2025-05-10T08:14:41Z</time>
      </trkpt>
      <trkpt lat="37.010979009792209" lon="-4.560675993561745">
        <ele>562.50999999999999</ele>
        <time>2025-05-10T08:14:42Z</time>
      </trkpt>
      <trkpt lat="37.011591978371143" lon="-4.560546996071935">
        <ele>556.25999999999999</ele>
        <time>2025-05-10T08:14:52Z</time>
      </trkpt>
      <trkpt lat="37.011639000847936" lon="-4.560524029657245">
        <ele>555.77999999999997</ele>
        <time>2025-05-10T08:14:53Z</time>
      </trkpt>
      <trkpt lat="37.011762969195843" lon="-4.560416992753744">
        <ele>553.86000000000001</ele>
        <time>2025-05-10T08:14:56Z</time>
      </trkpt>
      <trkpt lat="37.011879980564117" lon="-4.560299981385469">
        <ele>551.92999999999995</ele>
        <time>2025-05-10T08:14:59Z</time>
      </trkpt>
      <trkpt lat="37.011921973899007" lon="-4.56025798805058">
        <ele>551.45000000000005</ele>
        <time>2025-05-10T08:15:00Z</time>
      </trkpt>
      <trkpt lat="37.011965978890657" lon="-4.560213983058929">
        <ele>550.97000000000003</ele>
        <time>2025-05-10T08:15:01Z</time>
      </trkpt>
      <trkpt lat="37.012115009129047" lon="-4.560094960033894">
        <ele>550.00999999999999</ele>
        <time>2025-05-10T08:15:04Z</time>
      </trkpt>
      <trkpt lat="37.012171000242233" lon="-4.560069981962442">
        <ele>549.52999999999997</ele>
        <time>2025-05-10T08:15:05Z</time>
      </trkpt>
      <trkpt lat="37.01246696524322" lon="-4.559935033321381">
        <ele>547.13</ele>
        <time>2025-05-10T08:15:10Z</time>
      </trkpt>
      <trkpt lat="37.012577019631863" lon="-4.559907959774137">
        <ele>546.64999999999998</ele>
        <time>2025-05-10T08:15:12Z</time>
      </trkpt>
      <trkpt lat="37.012634016573429" lon="-4.559911983087659">
        <ele>546.16999999999996</ele>
        <time>2025-05-10T08:15:13Z</time>
      </trkpt>
      <trkpt lat="37.012794027104974" lon="-4.559922041371465">
        <ele>545.20000000000005</ele>
        <time>2025-05-10T08:15:16Z</time>
      </trkpt>
      <trkpt lat="37.012839959934354" lon="-4.559924975037575">
        <ele>545.20000000000005</ele>
        <time>2025-05-10T08:15:17Z</time>
      </trkpt>
      <trkpt lat="37.01298002153635" lon="-4.559902008622885">
        <ele>544.72000000000003</ele>
        <time>2025-05-10T08:15:20Z</time>
      </trkpt>
      <trkpt lat="37.013025032356381" lon="-4.559892034158111">
        <ele>544.24000000000001</ele>
        <time>2025-05-10T08:15:21Z</time>
      </trkpt>
      <trkpt lat="37.013073982670903" lon="-4.559879964217544">
        <ele>544.24000000000001</ele>
        <time>2025-05-10T08:15:22Z</time>
      </trkpt>
      <trkpt lat="37.013178002089262" lon="-4.559855991974473">
        <ele>544.72000000000003</ele>
        <time>2025-05-10T08:15:24Z</time>
      </trkpt>
      <trkpt lat="37.013240028172731" lon="-4.559840988367796">
        <ele>544.72000000000003</ele>
        <time>2025-05-10T08:15:25Z</time>
      </trkpt>
      <trkpt lat="37.013271041214466" lon="-4.559832019731402">
        <ele>544.72000000000003</ele>
        <time>2025-05-10T08:15:26Z</time>
      </trkpt>
      <trkpt lat="37.0133660081774" lon="-4.559803018346429">
        <ele>544.72000000000003</ele>
        <time>2025-05-10T08:15:28Z</time>
      </trkpt>
      <trkpt lat="37.013460975140333" lon="-4.559773011133075">
        <ele>544.72000000000003</ele>
        <time>2025-05-10T08:15:30Z</time>
      </trkpt>
      <trkpt lat="37.01351897791028" lon="-4.559754990041256">
        <ele>544.72000000000003</ele>
        <time>2025-05-10T08:15:31Z</time>
      </trkpt>
      <trkpt lat="37.013589972630143" lon="-4.559768987819552">
        <ele>544.24000000000001</ele>
        <time>2025-05-10T08:15:33Z</time>
      </trkpt>
      <trkpt lat="37.013632971793413" lon="-4.559778040274978">
        <ele>544.24000000000001</ele>
        <time>2025-05-10T08:15:34Z</time>
      </trkpt>
      <trkpt lat="37.013934971764684" lon="-4.559830008074641">
        <ele>539.91999999999996</ele>
        <time>2025-05-10T08:15:43Z</time>
      </trkpt>
      <trkpt lat="37.013965984806418" lon="-4.55984802916646">
        <ele>539.44000000000005</ele>
        <time>2025-05-10T08:15:44Z</time>
      </trkpt>
      <trkpt lat="37.014013007283211" lon="-4.559909971430898">
        <ele>538.48000000000002</ele>
        <time>2025-05-10T08:15:46Z</time>
      </trkpt>
      <trkpt lat="37.01403203420341" lon="-4.559951964765787">
        <ele>537.50999999999999</ele>
        <time>2025-05-10T08:15:47Z</time>
      </trkpt>
      <trkpt lat="37.014057012274861" lon="-4.560005022212863">
        <ele>537.02999999999997</ele>
        <time>2025-05-10T08:15:48Z</time>
      </trkpt>
      <trkpt lat="37.014080984517932" lon="-4.560056990012527">
        <ele>536.07000000000005</ele>
        <time>2025-05-10T08:15:49Z</time>
      </trkpt>
      <trkpt lat="37.014103028923273" lon="-4.560104012489319">
        <ele>535.59000000000003</ele>
        <time>2025-05-10T08:15:50Z</time>
      </trkpt>
      <trkpt lat="37.014122977852821" lon="-4.560147011652589">
        <ele>535.11000000000001</ele>
        <time>2025-05-10T08:15:51Z</time>
      </trkpt>
      <trkpt lat="37.014142004773021" lon="-4.560189004987478">
        <ele>534.63</ele>
        <time>2025-05-10T08:15:52Z</time>
      </trkpt>
      <trkpt lat="37.01416103169322" lon="-4.560233009979129">
        <ele>533.66999999999996</ele>
        <time>2025-05-10T08:15:53Z</time>
      </trkpt>
      <trkpt lat="37.01420595869422" lon="-4.560329988598824">
        <ele>532.23000000000002</ele>
        <time>2025-05-10T08:15:55Z</time>
      </trkpt>
      <trkpt lat="37.014229008927941" lon="-4.560382040217519">
        <ele>531.75</ele>
        <time>2025-05-10T08:15:56Z</time>
      </trkpt>
      <trkpt lat="37.014251975342631" lon="-4.560433002188802">
        <ele>530.78999999999996</ele>
        <time>2025-05-10T08:15:57Z</time>
      </trkpt>
      <trkpt lat="37.014276031404734" lon="-4.560484969988465">
        <ele>530.29999999999995</ele>
        <time>2025-05-10T08:15:58Z</time>
      </trkpt>
      <trkpt lat="37.014298997819424" lon="-4.560535009950399">
        <ele>529.34000000000003</ele>
        <time>2025-05-10T08:15:59Z</time>
      </trkpt>
      <trkpt lat="37.014320036396384" lon="-4.560582032427192">
        <ele>528.86000000000001</ele>
        <time>2025-05-10T08:16:00Z</time>
      </trkpt>
      <trkpt lat="37.014410980045795" lon="-4.560782024636865">
        <ele>525.5</ele>
        <time>2025-05-10T08:16:04Z</time>
      </trkpt>
      <trkpt lat="37.01444199308753" lon="-4.560850001871586">
        <ele>524.05999999999995</ele>
        <time>2025-05-10T08:16:05Z</time>
      </trkpt>
      <trkpt lat="37.014469988644123" lon="-4.560886966064572">
        <ele>523.09000000000003</ele>
        <time>2025-05-10T08:16:06Z</time>
      </trkpt>
      <trkpt lat="37.014536960050464" lon="-4.560975981876254">
        <ele>521.64999999999998</ele>
        <time>2025-05-10T08:16:08Z</time>
      </trkpt>
      <trkpt lat="37.01457099057734" lon="-4.561021998524666">
        <ele>521.16999999999996</ele>
        <time>2025-05-10T08:16:09Z</time>
      </trkpt>
      <trkpt lat="37.014638967812061" lon="-4.561112020164728">
        <ele>519.25</ele>
        <time>2025-05-10T08:16:11Z</time>
      </trkpt>
      <trkpt lat="37.014672998338938" lon="-4.56115803681314">
        <ele>518.76999999999998</ele>
        <time>2025-05-10T08:16:12Z</time>
      </trkpt>
      <trkpt lat="37.014707028865814" lon="-4.561230037361383">
        <ele>518.28999999999996</ele>
        <time>2025-05-10T08:16:13Z</time>
      </trkpt>
      <trkpt lat="37.014721026644111" lon="-4.561300026252866">
        <ele>516.37</ele>
        <time>2025-05-10T08:16:15Z</time>
      </trkpt>
      <trkpt lat="37.014736030250788" lon="-4.56133003346622">
        <ele>515.88</ele>
        <time>2025-05-10T08:16:16Z</time>
      </trkpt>
      <trkpt lat="37.014764025807381" lon="-4.561386024579406">
        <ele>514.91999999999996</ele>
        <time>2025-05-10T08:16:17Z</time>
      </trkpt>
      <trkpt lat="37.014777017757297" lon="-4.561409996822476">
        <ele>513.96000000000004</ele>
        <time>2025-05-10T08:16:18Z</time>
      </trkpt>
      <trkpt lat="37.014807024970651" lon="-4.561460958793759">
        <ele>513</ele>
        <time>2025-05-10T08:16:19Z</time>
      </trkpt>
      <trkpt lat="37.014841977506876" lon="-4.561521979048848">
        <ele>512.51999999999998</ele>
        <time>2025-05-10T08:16:20Z</time>
      </trkpt>
      <trkpt lat="37.014886988326907" lon="-4.561584005132318">
        <ele>512.03999999999996</ele>
        <time>2025-05-10T08:16:21Z</time>
      </trkpt>
      <trkpt lat="37.014931999146938" lon="-4.561643013730645">
        <ele>511.56</ele>
        <time>2025-05-10T08:16:22Z</time>
      </trkpt>
      <trkpt lat="37.014980027452111" lon="-4.561704033985734">
        <ele>511.07999999999998</ele>
        <time>2025-05-10T08:16:23Z</time>
      </trkpt>
      <trkpt lat="37.015023026615381" lon="-4.561765976250172">
        <ele>511.56</ele>
        <time>2025-05-10T08:16:24Z</time>
      </trkpt>
      <trkpt lat="37.015062002465129" lon="-4.561828002333641">
        <ele>512.03999999999996</ele>
        <time>2025-05-10T08:16:25Z</time>
      </trkpt>
      <trkpt lat="37.015098966658115" lon="-4.561886005103588">
        <ele>511.56</ele>
        <time>2025-05-10T08:16:26Z</time>
      </trkpt>
      <trkpt lat="37.0151930116117" lon="-4.562035035341978">
        <ele>510.60000000000002</ele>
        <time>2025-05-10T08:16:29Z</time>
      </trkpt>
      <trkpt lat="37.015224024653435" lon="-4.56208499148488">
        <ele>510.60000000000002</ele>
        <time>2025-05-10T08:16:30Z</time>
      </trkpt>
      <trkpt lat="37.015256965532899" lon="-4.562136959284544">
        <ele>510.12</ele>
        <time>2025-05-10T08:16:31Z</time>
      </trkpt>
      <trkpt lat="37.015591990202665" lon="-4.562524035573006">
        <ele>508.67000000000002</ele>
        <time>2025-05-10T08:16:39Z</time>
      </trkpt>
      <trkpt lat="37.015631971880794" lon="-4.562570974230766">
        <ele>508.67000000000002</ele>
        <time>2025-05-10T08:16:40Z</time>
      </trkpt>
      <trkpt lat="37.015727022662759" lon="-4.562670970335603">
        <ele>510.12</ele>
        <time>2025-05-10T08:16:42Z</time>
      </trkpt>
      <trkpt lat="37.015925003215671" lon="-4.562850007787347">
        <ele>511.56</ele>
        <time>2025-05-10T08:16:46Z</time>
      </trkpt>
      <trkpt lat="37.015970014035702" lon="-4.562887977808714">
        <ele>511.56</ele>
        <time>2025-05-10T08:16:47Z</time>
      </trkpt>
      <trkpt lat="37.016004966571927" lon="-4.562916979193687">
        <ele>511.56</ele>
        <time>2025-05-10T08:16:48Z</time>
      </trkpt>
      <trkpt lat="37.016061963513494" lon="-4.562966013327241">
        <ele>511.56</ele>
        <time>2025-05-10T08:16:51Z</time>
      </trkpt>
      <trkpt lat="37.016061963513494" lon="-4.562966013327241">
        <ele>511.56</ele>
        <time>2025-05-10T08:16:52Z</time>
      </trkpt>
      <trkpt lat="37.016061963513494" lon="-4.562966013327241">
        <ele>511.56</ele>
        <time>2025-05-10T08:17:04Z</time>
      </trkpt>
      <trkpt lat="37.016098005697131" lon="-4.562997026368976">
        <ele>512.03999999999996</ele>
        <time>2025-05-10T08:17:19Z</time>
      </trkpt>
      <trkpt lat="37.016099011525512" lon="-4.562997026368976">
        <ele>512.03999999999996</ele>
        <time>2025-05-10T08:17:20Z</time>
      </trkpt>
      <trkpt lat="37.016093982383609" lon="-4.562939023599029">
        <ele>512.51999999999998</ele>
        <time>2025-05-10T08:17:22Z</time>
      </trkpt>
      <trkpt lat="37.015793994069099" lon="-4.562738025560975">
        <ele>512.03999999999996</ele>
        <time>2025-05-10T08:17:27Z</time>
      </trkpt>
      <trkpt lat="37.015793994069099" lon="-4.562738025560975">
        <ele>512.03999999999996</ele>
        <time>2025-05-10T08:17:29Z</time>
      </trkpt>
      <trkpt lat="37.015790976583958" lon="-4.562736013904214">
        <ele>512.51999999999998</ele>
        <time>2025-05-10T08:17:30Z</time>
      </trkpt>
      <trkpt lat="37.015770021826029" lon="-4.562713969498873">
        <ele>512.51999999999998</ele>
        <time>2025-05-10T08:17:31Z</time>
      </trkpt>
      <trkpt lat="37.015757029876113" lon="-4.562701983377338">
        <ele>513.48000000000002</ele>
        <time>2025-05-10T08:17:40Z</time>
      </trkpt>
      <trkpt lat="37.015744037926197" lon="-4.562687985599041">
        <ele>513.48000000000002</ele>
        <time>2025-05-10T08:17:44Z</time>
      </trkpt>
      <trkpt lat="37.015826012939215" lon="-4.562478018924594">
        <ele>513.48000000000002</ele>
        <time>2025-05-10T08:17:45Z</time>
      </trkpt>
      <trkpt lat="37.015970014035702" lon="-4.562400989234448">
        <ele>513.48000000000002</ele>
        <time>2025-05-10T08:17:49Z</time>
      </trkpt>
      <trkpt lat="37.016018964350224" lon="-4.562389003112912">
        <ele>513.48000000000002</ele>
        <time>2025-05-10T08:17:50Z</time>
      </trkpt>
      <trkpt lat="37.016072021797299" lon="-4.562377016991377">
        <ele>513.48000000000002</ele>
        <time>2025-05-10T08:17:51Z</time>
      </trkpt>
      <trkpt lat="37.01631098985672" lon="-4.562323037534952">
        <ele>513</ele>
        <time>2025-05-10T08:17:55Z</time>
      </trkpt>
      <trkpt lat="37.016373015940189" lon="-4.562309039756656">
        <ele>513</ele>
        <time>2025-05-10T08:17:56Z</time>
      </trkpt>
      <trkpt lat="37.016734024509788" lon="-4.562194962054491">
        <ele>512.03999999999996</ele>
        <time>2025-05-10T08:18:02Z</time>
      </trkpt>
      <trkpt lat="37.016780963167548" lon="-4.562179958447814">
        <ele>511.56</ele>
        <time>2025-05-10T08:18:03Z</time>
      </trkpt>
      <trkpt lat="37.01684801839292" lon="-4.56214802339673">
        <ele>511.56</ele>
        <time>2025-05-10T08:18:04Z</time>
      </trkpt>
      <trkpt lat="37.016901997849345" lon="-4.562122039496899">
        <ele>511.56</ele>
        <time>2025-05-10T08:18:05Z</time>
      </trkpt>
      <trkpt lat="37.016953965649009" lon="-4.562096977606416">
        <ele>511.07999999999998</ele>
        <time>2025-05-10T08:18:06Z</time>
      </trkpt>
      <trkpt lat="37.017004005610943" lon="-4.562073005363345">
        <ele>511.07999999999998</ele>
        <time>2025-05-10T08:18:07Z</time>
      </trkpt>
      <trkpt lat="37.017101990059018" lon="-4.562026988714933">
        <ele>511.07999999999998</ele>
        <time>2025-05-10T08:18:09Z</time>
      </trkpt>
      <trkpt lat="37.017205003648996" lon="-4.561978038400412">
        <ele>510.60000000000002</ele>
        <time>2025-05-10T08:18:11Z</time>
      </trkpt>
      <trkpt lat="37.017312040552497" lon="-4.561923975124955">
        <ele>510.12</ele>
        <time>2025-05-10T08:18:13Z</time>
      </trkpt>
      <trkpt lat="37.017409019172192" lon="-4.561871001496911">
        <ele>509.63999999999999</ele>
        <time>2025-05-10T08:18:15Z</time>
      </trkpt>
      <trkpt lat="37.017453024163842" lon="-4.56184702925384">
        <ele>509.16000000000003</ele>
        <time>2025-05-10T08:18:16Z</time>
      </trkpt>
      <trkpt lat="37.01760096475482" lon="-4.561765976250172">
        <ele>506.75</ele>
        <time>2025-05-10T08:18:25Z</time>
      </trkpt>
      <trkpt lat="37.017654022201896" lon="-4.561736974865198">
        <ele>504.35000000000002</ele>
        <time>2025-05-10T08:18:35Z</time>
      </trkpt>
      <trkpt lat="37.017654022201896" lon="-4.561736974865198">
        <ele>513</ele>
        <time>2025-05-10T08:19:02Z</time>
      </trkpt>
      <trkpt lat="37.017654022201896" lon="-4.561736974865198">
        <ele>513.96000000000004</ele>
        <time>2025-05-10T08:19:24Z</time>
      </trkpt>
      <trkpt lat="37.017654022201896" lon="-4.561736974865198">
        <ele>513.96000000000004</ele>
        <time>2025-05-10T08:19:31Z</time>
      </trkpt>
      <trkpt lat="37.017809003591537" lon="-4.561650976538658">
        <ele>515.39999999999998</ele>
        <time>2025-05-10T08:19:32Z</time>
      </trkpt>
      <trkpt lat="37.017830964177847" lon="-4.561637984588742">
        <ele>515.88</ele>
        <time>2025-05-10T08:19:33Z</time>
      </trkpt>
      <trkpt lat="37.017855020239949" lon="-4.561624992638826">
        <ele>516.37</ele>
        <time>2025-05-10T08:19:34Z</time>
      </trkpt>
      <trkpt lat="37.017885027453303" lon="-4.561606971547008">
        <ele>516.85000000000002</ele>
        <time>2025-05-10T08:19:35Z</time>
      </trkpt>
      <trkpt lat="37.017910005524755" lon="-4.561592973768711">
        <ele>516.85000000000002</ele>
        <time>2025-05-10T08:19:36Z</time>
      </trkpt>
      <trkpt lat="37.01809398829937" lon="-4.561488032341003">
        <ele>516.37</ele>
        <time>2025-05-10T08:19:44Z</time>
      </trkpt>
      <trkpt lat="37.018197001889348" lon="-4.561429023742676">
        <ele>515.88</ele>
        <time>2025-05-10T08:19:45Z</time>
      </trkpt>
      <trkpt lat="37.018120978027582" lon="-4.561325004324317">
        <ele>515.88</ele>
        <time>2025-05-10T08:19:46Z</time>
      </trkpt>
      <trkpt lat="37.018095999956131" lon="-4.56128996796906">
        <ele>515.88</ele>
        <time>2025-05-10T08:19:47Z</time>
      </trkpt>
      <trkpt lat="37.018064986914396" lon="-4.561247974634171">
        <ele>515.39999999999998</ele>
        <time>2025-05-10T08:19:48Z</time>
      </trkpt>
      <trkpt lat="37.018030034378171" lon="-4.561200030148029">
        <ele>515.88</ele>
        <time>2025-05-10T08:19:49Z</time>
      </trkpt>
      <trkpt lat="37.017993992194533" lon="-4.561150996014476">
        <ele>515.39999999999998</ele>
        <time>2025-05-10T08:19:50Z</time>
      </trkpt>
      <trkpt lat="37.017958033829927" lon="-4.561101961880922">
        <ele>515.39999999999998</ele>
        <time>2025-05-10T08:19:51Z</time>
      </trkpt>
      <trkpt lat="37.017919979989529" lon="-4.561049994081259">
        <ele>515.39999999999998</ele>
        <time>2025-05-10T08:19:52Z</time>
      </trkpt>
      <trkpt lat="37.01783699914813" lon="-4.560937006026506">
        <ele>515.88</ele>
        <time>2025-05-10T08:19:54Z</time>
      </trkpt>
      <trkpt lat="37.017797017470002" lon="-4.560882020741701">
        <ele>515.88</ele>
        <time>2025-05-10T08:19:55Z</time>
      </trkpt>
      <trkpt lat="37.017757035791874" lon="-4.560826029628515">
        <ele>515.88</ele>
        <time>2025-05-10T08:19:56Z</time>
      </trkpt>
      <trkpt lat="37.017713030800223" lon="-4.560767021030188">
        <ele>515.88</ele>
        <time>2025-05-10T08:19:57Z</time>
      </trkpt>
      <trkpt lat="37.017669025808573" lon="-4.560706000775099">
        <ele>515.88</ele>
        <time>2025-05-10T08:19:58Z</time>
      </trkpt>
      <trkpt lat="37.017530975863338" lon="-4.560514977201819">
        <ele>515.39999999999998</ele>
        <time>2025-05-10T08:20:01Z</time>
      </trkpt>
      <trkpt lat="37.017487976700068" lon="-4.560456974431872">
        <ele>515.88</ele>
        <time>2025-05-10T08:20:02Z</time>
      </trkpt>
      <trkpt lat="37.0174500066787" lon="-4.560404000803828">
        <ele>515.39999999999998</ele>
        <time>2025-05-10T08:20:03Z</time>
      </trkpt>
      <trkpt lat="37.017415976151824" lon="-4.560357984155417">
        <ele>515.39999999999998</ele>
        <time>2025-05-10T08:20:04Z</time>
      </trkpt>
      <trkpt lat="37.01738303527236" lon="-4.560312973335385">
        <ele>515.39999999999998</ele>
        <time>2025-05-10T08:20:05Z</time>
      </trkpt>
      <trkpt lat="37.017346993088722" lon="-4.560264023020864">
        <ele>515.39999999999998</ele>
        <time>2025-05-10T08:20:06Z</time>
      </trkpt>
      <trkpt lat="37.017308017238975" lon="-4.560210965573788">
        <ele>515.39999999999998</ele>
        <time>2025-05-10T08:20:07Z</time>
      </trkpt>
      <trkpt lat="37.017267029732466" lon="-4.560155980288982">
        <ele>515.39999999999998</ele>
        <time>2025-05-10T08:20:08Z</time>
      </trkpt>
      <trkpt lat="37.017210032790899" lon="-4.560077022761107">
        <ele>515.39999999999998</ele>
        <time>2025-05-10T08:20:09Z</time>
      </trkpt>
      <trkpt lat="37.017067037522793" lon="-4.559911983087659">
        <ele>515.39999999999998</ele>
        <time>2025-05-10T08:20:12Z</time>
      </trkpt>
      <trkpt lat="37.017010040581226" lon="-4.559864038601518">
        <ele>515.39999999999998</ele>
        <time>2025-05-10T08:20:13Z</time>
      </trkpt>
      <trkpt lat="37.016797978430986" lon="-4.559707967564464">
        <ele>515.39999999999998</ele>
        <time>2025-05-10T08:20:17Z</time>
      </trkpt>
      <trkpt lat="37.016708962619305" lon="-4.559644013643265">
        <ele>515.39999999999998</ele>
        <time>2025-05-10T08:20:19Z</time>
      </trkpt>
      <trkpt lat="37.016663029789925" lon="-4.559618029743433">
        <ele>514.91999999999996</ele>
        <time>2025-05-10T08:20:20Z</time>
      </trkpt>
      <trkpt lat="37.016612989827991" lon="-4.55958902835846">
        <ele>515.39999999999998</ele>
        <time>2025-05-10T08:20:21Z</time>
      </trkpt>
      <trkpt lat="37.016457002609968" lon="-4.559493977576494">
        <ele>515.39999999999998</ele>
        <time>2025-05-10T08:20:24Z</time>
      </trkpt>
      <trkpt lat="37.016264973208308" lon="-4.559366991743445">
        <ele>514.91999999999996</ele>
        <time>2025-05-10T08:20:30Z</time>
      </trkpt>
      <trkpt lat="37.016261033713818" lon="-4.559337990358472">
        <ele>514.44000000000005</ele>
        <time>2025-05-10T08:20:31Z</time>
      </trkpt>
      <trkpt lat="37.016254998743534" lon="-4.559304965659976">
        <ele>514.44000000000005</ele>
        <time>2025-05-10T08:20:32Z</time>
      </trkpt>
      <trkpt lat="37.016272014006972" lon="-4.559193989261985">
        <ele>514.44000000000005</ele>
        <time>2025-05-10T08:20:34Z</time>
      </trkpt>
      <trkpt lat="37.016308978199959" lon="-4.559132969006896">
        <ele>514.44000000000005</ele>
        <time>2025-05-10T08:20:35Z</time>
      </trkpt>
      <trkpt lat="37.016488015651703" lon="-4.55864698626101">
        <ele>510.60000000000002</ele>
        <time>2025-05-10T08:20:45Z</time>
      </trkpt>
      <trkpt lat="37.016527997329831" lon="-4.558536009863019">
        <ele>510.12</ele>
        <time>2025-05-10T08:20:47Z</time>
      </trkpt>
      <trkpt lat="37.016575019806623" lon="-4.558421010151506">
        <ele>509.16000000000003</ele>
        <time>2025-05-10T08:20:49Z</time>
      </trkpt>
      <trkpt lat="37.016601003706455" lon="-4.558363007381558">
        <ele>508.67000000000002</ele>
        <time>2025-05-10T08:20:50Z</time>
      </trkpt>
      <trkpt lat="37.016623970121145" lon="-4.558310033753514">
        <ele>508.67000000000002</ele>
        <time>2025-05-10T08:20:51Z</time>
      </trkpt>
      <trkpt lat="37.016649032011628" lon="-4.558252030983567">
        <ele>508.19</ele>
        <time>2025-05-10T08:20:52Z</time>
      </trkpt>
      <trkpt lat="37.016673004254699" lon="-4.558196039870381">
        <ele>508.19</ele>
        <time>2025-05-10T08:20:53Z</time>
      </trkpt>
      <trkpt lat="37.01669798232615" lon="-4.558137031272054">
        <ele>507.70999999999998</ele>
        <time>2025-05-10T08:20:54Z</time>
      </trkpt>
      <trkpt lat="37.016927981749177" lon="-4.557611988857389">
        <ele>505.31</ele>
        <time>2025-05-10T08:21:03Z</time>
      </trkpt>
      <trkpt lat="37.016957988962531" lon="-4.557544011622667">
        <ele>504.82999999999998</ele>
        <time>2025-05-10T08:21:04Z</time>
      </trkpt>
      <trkpt lat="37.016989002004266" lon="-4.557477040216327">
        <ele>504.35000000000002</ele>
        <time>2025-05-10T08:21:05Z</time>
      </trkpt>
      <trkpt lat="37.017018003389239" lon="-4.557411996647716">
        <ele>503.87</ele>
        <time>2025-05-10T08:21:06Z</time>
      </trkpt>
      <trkpt lat="37.017043987289071" lon="-4.557353993877769">
        <ele>503.38999999999999</ele>
        <time>2025-05-10T08:21:07Z</time>
      </trkpt>
      <trkpt lat="37.017066031694412" lon="-4.557304959744215">
        <ele>503.38999999999999</ele>
        <time>2025-05-10T08:21:08Z</time>
      </trkpt>
      <trkpt lat="37.017088998109102" lon="-4.557255003601313">
        <ele>502.91000000000003</ele>
        <time>2025-05-10T08:21:09Z</time>
      </trkpt>
      <trkpt lat="37.017109030857682" lon="-4.557212004438043">
        <ele>502.91000000000003</ele>
        <time>2025-05-10T08:21:10Z</time>
      </trkpt>
      <trkpt lat="37.017125962302089" lon="-4.557176968082786">
        <ele>502.43000000000001</ele>
        <time>2025-05-10T08:21:11Z</time>
      </trkpt>
      <trkpt lat="37.017139960080385" lon="-4.557148972526193">
        <ele>501.94999999999999</ele>
        <time>2025-05-10T08:21:12Z</time>
      </trkpt>
      <trkpt lat="37.017152030020952" lon="-4.557123994454742">
        <ele>501.94999999999999</ele>
        <time>2025-05-10T08:21:13Z</time>
      </trkpt>
      <trkpt lat="37.017165021970868" lon="-4.557100022211671">
        <ele>501.45999999999998</ele>
        <time>2025-05-10T08:21:14Z</time>
      </trkpt>
      <trkpt lat="37.017167033627629" lon="-4.557094993069768">
        <ele>501.45999999999998</ele>
        <time>2025-05-10T08:21:15Z</time>
      </trkpt>
      <trkpt lat="37.017217995598912" lon="-4.557132963091135">
        <ele>501.45999999999998</ele>
        <time>2025-05-10T08:21:16Z</time>
      </trkpt>
      <trkpt lat="37.017268035560846" lon="-4.557171016931534">
        <ele>502.43000000000001</ele>
        <time>2025-05-10T08:21:17Z</time>
      </trkpt>
      <trkpt lat="37.017310028895736" lon="-4.557202029973269">
        <ele>502.91000000000003</ele>
        <time>2025-05-10T08:21:18Z</time>
      </trkpt>
      <trkpt lat="37.017350010573864" lon="-4.557232037186623">
        <ele>502.91000000000003</ele>
        <time>2025-05-10T08:21:19Z</time>
      </trkpt>
      <trkpt lat="37.01738697476685" lon="-4.557260032743216">
        <ele>502.91000000000003</ele>
        <time>2025-05-10T08:21:20Z</time>
      </trkpt>
      <trkpt lat="37.017430979758501" lon="-4.557291967794299">
        <ele>502.91000000000003</ele>
        <time>2025-05-10T08:21:21Z</time>
      </trkpt>
      <trkpt lat="37.017473978921771" lon="-4.557324992492795">
        <ele>502.91000000000003</ele>
        <time>2025-05-10T08:21:22Z</time>
      </trkpt>
      <trkpt lat="37.017596019431949" lon="-4.557416019961238">
        <ele>502.91000000000003</ele>
        <time>2025-05-10T08:21:23Z</time>
      </trkpt>
      <trkpt lat="37.017570035532117" lon="-4.557396993041039">
        <ele>502.91000000000003</ele>
        <time>2025-05-10T08:21:24Z</time>
      </trkpt>
      <trkpt lat="37.017626026645303" lon="-4.557434041053057">
        <ele>502.91000000000003</ele>
        <time>2025-05-10T08:21:25Z</time>
      </trkpt>
      <trkpt lat="37.017682017758489" lon="-4.55746597610414">
        <ele>502.91000000000003</ele>
        <time>2025-05-10T08:21:26Z</time>
      </trkpt>
      <trkpt lat="37.0177280344069" lon="-4.557492965832353">
        <ele>503.38999999999999</ele>
        <time>2025-05-10T08:21:27Z</time>
      </trkpt>
      <trkpt lat="37.017772039398551" lon="-4.557519033551216">
        <ele>503.87</ele>
        <time>2025-05-10T08:21:28Z</time>
      </trkpt>
      <trkpt lat="37.017868012189865" lon="-4.557576030492783">
        <ele>503.87</ele>
        <time>2025-05-10T08:21:30Z</time>
      </trkpt>
      <trkpt lat="37.018240001052618" lon="-4.557803012430668">
        <ele>504.35000000000002</ele>
        <time>2025-05-10T08:21:39Z</time>
      </trkpt>
      <trkpt lat="37.018240001052618" lon="-4.557803012430668">
        <ele>504.35000000000002</ele>
        <time>2025-05-10T08:21:49Z</time>
      </trkpt>
      <trkpt lat="37.018240001052618" lon="-4.557803012430668">
        <ele>504.35000000000002</ele>
        <time>2025-05-10T08:21:50Z</time>
      </trkpt>
      <trkpt lat="37.018085019662976" lon="-4.557734029367566">
        <ele>504.35000000000002</ele>
        <time>2025-05-10T08:23:37Z</time>
      </trkpt>
      <trkpt lat="37.018271014094353" lon="-4.557870989665389">
        <ele>522.61000000000001</ele>
        <time>2025-05-10T08:23:58Z</time>
      </trkpt>
      <trkpt lat="37.018304038792849" lon="-4.557836037129164">
        <ele>522.13</ele>
        <time>2025-05-10T08:23:59Z</time>
      </trkpt>
      <trkpt lat="37.018762025982141" lon="-4.558075005188584">
        <ele>520.69000000000005</ele>
        <time>2025-05-10T08:24:12Z</time>
      </trkpt>
      <trkpt lat="37.01880301348865" lon="-4.558095037937164">
        <ele>520.69000000000005</ele>
        <time>2025-05-10T08:24:13Z</time>
      </trkpt>
      <trkpt lat="37.018819022923708" lon="-4.558103000745177">
        <ele>520.21000000000004</ele>
        <time>2025-05-10T08:24:14Z</time>
      </trkpt>
      <trkpt lat="37.01886797323823" lon="-4.558141976594925">
        <ele>519.73000000000002</ele>
        <time>2025-05-10T08:24:15Z</time>
      </trkpt>
      <trkpt lat="37.018899992108345" lon="-4.558167960494757">
        <ele>519.25</ele>
        <time>2025-05-10T08:24:16Z</time>
      </trkpt>
      <trkpt lat="37.018938967958093" lon="-4.558195034042001">
        <ele>518.76999999999998</ele>
        <time>2025-05-10T08:24:17Z</time>
      </trkpt>
      <trkpt lat="37.018978027626872" lon="-4.558214982971549">
        <ele>518.76999999999998</ele>
        <time>2025-05-10T08:24:18Z</time>
      </trkpt>
      <trkpt lat="37.01923300512135" lon="-4.558359989896417">
        <ele>520.69000000000005</ele>
        <time>2025-05-10T08:24:28Z</time>
      </trkpt>
      <trkpt lat="37.019421011209488" lon="-4.558477001264691">
        <ele>521.16999999999996</ele>
        <time>2025-05-10T08:24:39Z</time>
      </trkpt>
      <trkpt lat="37.019475996494293" lon="-4.558514971286058">
        <ele>521.64999999999998</ele>
        <time>2025-05-10T08:24:40Z</time>
      </trkpt>
      <trkpt lat="37.01955696567893" lon="-4.558570962399244">
        <ele>523.09000000000003</ele>
        <time>2025-05-10T08:24:46Z</time>
      </trkpt>
      <trkpt lat="37.01964003033936" lon="-4.558627959340811">
        <ele>524.53999999999996</ele>
        <time>2025-05-10T08:24:55Z</time>
      </trkpt>
      <trkpt lat="37.019680012017488" lon="-4.558653021231294">
        <ele>524.53999999999996</ele>
        <time>2025-05-10T08:24:56Z</time>
      </trkpt>
      <trkpt lat="37.019728040322661" lon="-4.558680010959506">
        <ele>523.58000000000004</ele>
        <time>2025-05-10T08:24:57Z</time>
      </trkpt>
      <trkpt lat="37.019784031435847" lon="-4.558713035658002">
        <ele>523.58000000000004</ele>
        <time>2025-05-10T08:24:58Z</time>
      </trkpt>
      <trkpt lat="37.019841028377414" lon="-4.558744970709086">
        <ele>522.61000000000001</ele>
        <time>2025-05-10T08:24:59Z</time>
      </trkpt>
      <trkpt lat="37.019901964813471" lon="-4.558780007064343">
        <ele>522.13</ele>
        <time>2025-05-10T08:25:00Z</time>
      </trkpt>
      <trkpt lat="37.019967008382082" lon="-4.558816971257329">
        <ele>521.64999999999998</ele>
        <time>2025-05-10T08:25:01Z</time>
      </trkpt>
      <trkpt lat="37.020106986165047" lon="-4.558897018432617">
        <ele>520.69000000000005</ele>
        <time>2025-05-10T08:25:03Z</time>
      </trkpt>
      <trkpt lat="37.020185021683574" lon="-4.558942029252648">
        <ele>519.73000000000002</ele>
        <time>2025-05-10T08:25:04Z</time>
      </trkpt>
      <trkpt lat="37.020258028060198" lon="-4.558984022587538">
        <ele>519.25</ele>
        <time>2025-05-10T08:25:05Z</time>
      </trkpt>
      <trkpt lat="37.020321981981397" lon="-4.559019980952144">
        <ele>519.25</ele>
        <time>2025-05-10T08:25:06Z</time>
      </trkpt>
      <trkpt lat="37.020378978922963" lon="-4.55905300565064">
        <ele>518.76999999999998</ele>
        <time>2025-05-10T08:25:07Z</time>
      </trkpt>
      <trkpt lat="37.020432958379388" lon="-4.559086030349135">
        <ele>518.76999999999998</ele>
        <time>2025-05-10T08:25:08Z</time>
      </trkpt>
      <trkpt lat="37.020490039139986" lon="-4.559124000370503">
        <ele>518.76999999999998</ele>
        <time>2025-05-10T08:25:09Z</time>
      </trkpt>
      <trkpt lat="37.020744010806084" lon="-4.559258027002215">
        <ele>518.76999999999998</ele>
        <time>2025-05-10T08:25:13Z</time>
      </trkpt>
      <trkpt lat="37.020806036889553" lon="-4.559289962053299">
        <ele>518.28999999999996</ele>
        <time>2025-05-10T08:25:14Z</time>
      </trkpt>
      <trkpt lat="37.020934028550982" lon="-4.55935399979353">
        <ele>517.80999999999995</ele>
        <time>2025-05-10T08:25:16Z</time>
      </trkpt>
      <trkpt lat="37.020998988300562" lon="-4.559386018663645">
        <ele>517.33000000000004</ele>
        <time>2025-05-10T08:25:17Z</time>
      </trkpt>
      <trkpt lat="37.021064031869173" lon="-4.559418959543109">
        <ele>517.33000000000004</ele>
        <time>2025-05-10T08:25:18Z</time>
      </trkpt>
      <trkpt lat="37.021147012710571" lon="-4.559458019211888">
        <ele>516.85000000000002</ele>
        <time>2025-05-10T08:25:19Z</time>
      </trkpt>
      <trkpt lat="37.021212978288531" lon="-4.559477968141437">
        <ele>516.37</ele>
        <time>2025-05-10T08:25:20Z</time>
      </trkpt>
      <trkpt lat="37.021269975230098" lon="-4.559494983404875">
        <ele>516.37</ele>
        <time>2025-05-10T08:25:21Z</time>
      </trkpt>
      <trkpt lat="37.021322026848793" lon="-4.559509987011552">
        <ele>516.37</ele>
        <time>2025-05-10T08:25:22Z</time>
      </trkpt>
      <trkpt lat="37.021394027397037" lon="-4.559519039466977">
        <ele>514.91999999999996</ele>
        <time>2025-05-10T08:25:23Z</time>
      </trkpt>
      <trkpt lat="37.021439038217068" lon="-4.559519039466977">
        <ele>513.96000000000004</ele>
        <time>2025-05-10T08:25:24Z</time>
      </trkpt>
      <trkpt lat="37.021480025723577" lon="-4.559519039466977">
        <ele>513.48000000000002</ele>
        <time>2025-05-10T08:25:25Z</time>
      </trkpt>
      <trkpt lat="37.021525036543608" lon="-4.55952599644661">
        <ele>513.48000000000002</ele>
        <time>2025-05-10T08:25:26Z</time>
      </trkpt>
      <trkpt lat="37.021569963544607" lon="-4.559532031416893">
        <ele>513.96000000000004</ele>
        <time>2025-05-10T08:25:27Z</time>
      </trkpt>
      <trkpt lat="37.021616986021399" lon="-4.559538988396525">
        <ele>513.96000000000004</ele>
        <time>2025-05-10T08:25:28Z</time>
      </trkpt>
      <trkpt lat="37.021774984896183" lon="-4.559561032801867">
        <ele>514.44000000000005</ele>
        <time>2025-05-10T08:25:31Z</time>
      </trkpt>
      <trkpt lat="37.021821001544595" lon="-4.559567989781499">
        <ele>514.44000000000005</ele>
        <time>2025-05-10T08:25:32Z</time>
      </trkpt>
      <trkpt lat="37.022034991532564" lon="-4.559599002823234">
        <ele>512.51999999999998</ele>
        <time>2025-05-10T08:25:42Z</time>
      </trkpt>
      <trkpt lat="37.022034991532564" lon="-4.559599002823234">
        <ele>513</ele>
        <time>2025-05-10T08:26:22Z</time>
      </trkpt>
      <trkpt lat="37.022267002612352" lon="-4.559634039178491">
        <ele>511.07999999999998</ele>
        <time>2025-05-10T08:26:35Z</time>
      </trkpt>
      <trkpt lat="37.022499013692141" lon="-4.559651976451278">
        <ele>510.12</ele>
        <time>2025-05-10T08:26:40Z</time>
      </trkpt>
      <trkpt lat="37.022544024512172" lon="-4.559666980057955">
        <ele>509.63999999999999</ele>
        <time>2025-05-10T08:26:41Z</time>
      </trkpt>
      <trkpt lat="37.022590963169932" lon="-4.559683995321393">
        <ele>509.63999999999999</ele>
        <time>2025-05-10T08:26:42Z</time>
      </trkpt>
      <trkpt lat="37.02269297093153" lon="-4.559720037505031">
        <ele>509.63999999999999</ele>
        <time>2025-05-10T08:26:44Z</time>
      </trkpt>
      <trkpt lat="37.022794978693128" lon="-4.559754990041256">
        <ele>509.16000000000003</ele>
        <time>2025-05-10T08:26:46Z</time>
      </trkpt>
      <trkpt lat="37.022957000881433" lon="-4.559810981154442">
        <ele>508.67000000000002</ele>
        <time>2025-05-10T08:26:49Z</time>
      </trkpt>
      <trkpt lat="37.023007962852716" lon="-4.55982799641788">
        <ele>508.67000000000002</ele>
        <time>2025-05-10T08:26:50Z</time>
      </trkpt>
      <trkpt lat="37.023067977279425" lon="-4.55984802916646">
        <ele>508.19</ele>
        <time>2025-05-10T08:26:51Z</time>
      </trkpt>
      <trkpt lat="37.023286996409297" lon="-4.559750966727734">
        <ele>506.75</ele>
        <time>2025-05-10T08:26:54Z</time>
      </trkpt>
      <trkpt lat="37.023358996957541" lon="-4.55976496450603">
        <ele>505.79000000000002</ele>
        <time>2025-05-10T08:26:55Z</time>
      </trkpt>
      <trkpt lat="37.023740960285068" lon="-4.559838976711035">
        <ele>504.35000000000002</ele>
        <time>2025-05-10T08:27:00Z</time>
      </trkpt>
      <trkpt lat="37.023969031870365" lon="-4.559863032773137">
        <ele>503.38999999999999</ele>
        <time>2025-05-10T08:27:03Z</time>
      </trkpt>
      <trkpt lat="37.024181010201573" lon="-4.559850040823221">
        <ele>503.87</ele>
        <time>2025-05-10T08:27:06Z</time>
      </trkpt>
      <trkpt lat="37.024333979934454" lon="-4.559797989204526">
        <ele>503.38999999999999</ele>
        <time>2025-05-10T08:27:08Z</time>
      </trkpt>
      <trkpt lat="37.024391982704401" lon="-4.559766976162791">
        <ele>502.43000000000001</ele>
        <time>2025-05-10T08:27:09Z</time>
      </trkpt>
      <trkpt lat="37.02462499961257" lon="-4.559639990329742">
        <ele>500.98000000000002</ele>
        <time>2025-05-10T08:27:12Z</time>
      </trkpt>
      <trkpt lat="37.024704040959477" lon="-4.559596991166472">
        <ele>500.01999999999998</ele>
        <time>2025-05-10T08:27:13Z</time>
      </trkpt>
      <trkpt lat="37.025029007345438" lon="-4.55942097119987">
        <ele>497.62</ele>
        <time>2025-05-10T08:27:17Z</time>
      </trkpt>
      <trkpt lat="37.025414993986487" lon="-4.559048982337117">
        <ele>493.29000000000002</ele>
        <time>2025-05-10T08:27:22Z</time>
      </trkpt>
      <trkpt lat="37.025694027543068" lon="-4.558759974315763">
        <ele>488.49000000000001</ele>
        <time>2025-05-10T08:27:27Z</time>
      </trkpt>
      <trkpt lat="37.025711964815855" lon="-4.558668024837971">
        <ele>487.52999999999997</ele>
        <time>2025-05-10T08:27:28Z</time>
      </trkpt>
      <trkpt lat="37.025750018656254" lon="-4.558339035138488">
        <ele>486.07999999999998</ele>
        <time>2025-05-10T08:27:31Z</time>
      </trkpt>
      <trkpt lat="37.02619400806725" lon="-4.5572470407933">
        <ele>484.16000000000003</ele>
        <time>2025-05-10T08:27:42Z</time>
      </trkpt>
      <trkpt lat="37.026357958093286" lon="-4.556780001148582">
        <ele>483.68000000000001</ele>
        <time>2025-05-10T08:27:47Z</time>
      </trkpt>
      <trkpt lat="37.026426019147038" lon="-4.556440031155944">
        <ele>482.24000000000001</ele>
        <time>2025-05-10T08:27:51Z</time>
      </trkpt>
      <trkpt lat="37.026397017762065" lon="-4.555556997656822">
        <ele>480.31999999999999</ele>
        <time>2025-05-10T08:28:01Z</time>
      </trkpt>
      <trkpt lat="37.026118990033865" lon="-4.554667007178068">
        <ele>481.75999999999999</ele>
        <time>2025-05-10T08:28:11Z</time>
      </trkpt>
      <trkpt lat="37.025696961209178" lon="-4.553678026422858">
        <ele>482.24000000000001</ele>
        <time>2025-05-10T08:28:23Z</time>
      </trkpt>
      <trkpt lat="37.025320027023554" lon="-4.553127000108361">
        <ele>484.63999999999999</ele>
        <time>2025-05-10T08:28:32Z</time>
      </trkpt>
      <trkpt lat="37.025289013981819" lon="-4.553087018430233">
        <ele>484.63999999999999</ele>
        <time>2025-05-10T08:28:33Z</time>
      </trkpt>
      <trkpt lat="37.024815017357469" lon="-4.552589971572161">
        <ele>488.49000000000001</ele>
        <time>2025-05-10T08:28:43Z</time>
      </trkpt>
      <trkpt lat="37.024200037121773" lon="-4.552012961357832">
        <ele>492.81</ele>
        <time>2025-05-10T08:28:52Z</time>
      </trkpt>
      <trkpt lat="37.023561000823975" lon="-4.551338972523809">
        <ele>494.74000000000001</ele>
        <time>2025-05-10T08:29:01Z</time>
      </trkpt>
      <trkpt lat="37.022954989224672" lon="-4.550467003136873">
        <ele>493.76999999999998</ele>
        <time>2025-05-10T08:29:12Z</time>
      </trkpt>
      <trkpt lat="37.022877959534526" lon="-4.550349991768599">
        <ele>493.29000000000002</ele>
        <time>2025-05-10T08:29:15Z</time>
      </trkpt>
      <trkpt lat="37.022809982299805" lon="-4.550357032567263">
        <ele>493.29000000000002</ele>
        <time>2025-05-10T08:29:16Z</time>
      </trkpt>
      <trkpt lat="37.022767988964915" lon="-4.550377987325192">
        <ele>492.81</ele>
        <time>2025-05-10T08:29:17Z</time>
      </trkpt>
      <trkpt lat="37.022457020357251" lon="-4.550532968714833">
        <ele>493.29000000000002</ele>
        <time>2025-05-10T08:29:22Z</time>
      </trkpt>
      <trkpt lat="37.022423995658755" lon="-4.550549983978272">
        <ele>493.76999999999998</ele>
        <time>2025-05-10T08:29:23Z</time>
      </trkpt>
      <trkpt lat="37.022389965131879" lon="-4.550539003685117">
        <ele>494.25999999999999</ele>
        <time>2025-05-10T08:29:24Z</time>
      </trkpt>
      <trkpt lat="37.022389965131879" lon="-4.550539003685117">
        <ele>494.74000000000001</ele>
        <time>2025-05-10T08:29:25Z</time>
      </trkpt>
      <trkpt lat="37.022389965131879" lon="-4.550539003685117">
        <ele>495.69999999999999</ele>
        <time>2025-05-10T08:29:36Z</time>
      </trkpt>
      <trkpt lat="37.022318970412016" lon="-4.55056699924171">
        <ele>497.13999999999999</ele>
        <time>2025-05-10T08:29:52Z</time>
      </trkpt>
      <trkpt lat="37.0223059784621" lon="-4.550534980371594">
        <ele>497.62</ele>
        <time>2025-05-10T08:29:53Z</time>
      </trkpt>
      <trkpt lat="37.022322993725538" lon="-4.550468008965254">
        <ele>497.13999999999999</ele>
        <time>2025-05-10T08:29:54Z</time>
      </trkpt>
      <trkpt lat="37.022360041737556" lon="-4.550413023680449">
        <ele>497.13999999999999</ele>
        <time>2025-05-10T08:29:55Z</time>
      </trkpt>
      <trkpt lat="37.022403962910175" lon="-4.550349991768599">
        <ele>496.66000000000003</ele>
        <time>2025-05-10T08:29:56Z</time>
      </trkpt>
      <trkpt lat="37.022448973730206" lon="-4.550285032019019">
        <ele>496.66000000000003</ele>
        <time>2025-05-10T08:29:57Z</time>
      </trkpt>
      <trkpt lat="37.02249800786376" lon="-4.550199033692479">
        <ele>496.18000000000001</ele>
        <time>2025-05-10T08:29:58Z</time>
      </trkpt>
      <trkpt lat="37.022531032562256" lon="-4.55009501427412">
        <ele>496.18000000000001</ele>
        <time>2025-05-10T08:29:59Z</time>
      </trkpt>
      <trkpt lat="37.022698000073433" lon="-4.549530996009708">
        <ele>494.25999999999999</ele>
        <time>2025-05-10T08:30:06Z</time>
      </trkpt>
      <trkpt lat="37.022765977308154" lon="-4.549269983544946">
        <ele>492.81</ele>
        <time>2025-05-10T08:30:12Z</time>
      </trkpt>
      <trkpt lat="37.022986002266407" lon="-4.54850303940475">
        <ele>492.32999999999998</ele>
        <time>2025-05-10T08:30:21Z</time>
      </trkpt>
      <trkpt lat="37.023260006681085" lon="-4.547209041193128">
        <ele>488.00999999999999</ele>
        <time>2025-05-10T08:30:32Z</time>
      </trkpt>
      <trkpt lat="37.023272998631001" lon="-4.547141985967755">
        <ele>487.05000000000001</ele>
        <time>2025-05-10T08:30:33Z</time>
      </trkpt>
      <trkpt lat="37.023283978924155" lon="-4.547091023996472">
        <ele>485.60000000000002</ele>
        <time>2025-05-10T08:30:34Z</time>
      </trkpt>
      <trkpt lat="37.023300994187593" lon="-4.547050036489964">
        <ele>485.12</ele>
        <time>2025-05-10T08:30:35Z</time>
      </trkpt>
      <trkpt lat="37.023352039977908" lon="-4.547112984582782">
        <ele>483.68000000000001</ele>
        <time>2025-05-10T08:30:36Z</time>
      </trkpt>
      <trkpt lat="37.023397972807288" lon="-4.547123964875937">
        <ele>483.19999999999999</ele>
        <time>2025-05-10T08:30:37Z</time>
      </trkpt>
      <trkpt lat="37.023448012769222" lon="-4.547137040644884">
        <ele>482.24000000000001</ele>
        <time>2025-05-10T08:30:38Z</time>
      </trkpt>
      <trkpt lat="37.023496963083744" lon="-4.547149026766419">
        <ele>481.75999999999999</ele>
        <time>2025-05-10T08:30:39Z</time>
      </trkpt>
      <trkpt lat="37.023536022752523" lon="-4.547159001231194">
        <ele>480.80000000000001</ele>
        <time>2025-05-10T08:30:40Z</time>
      </trkpt>
      <trkpt lat="37.023717993870378" lon="-4.547131005674601">
        <ele>476.47000000000003</ele>
        <time>2025-05-10T08:30:47Z</time>
      </trkpt>
      <trkpt lat="37.023769039660692" lon="-4.546896982938051">
        <ele>474.55000000000001</ele>
        <time>2025-05-10T08:30:55Z</time>
      </trkpt>
      <trkpt lat="37.023784965276718" lon="-4.54689203761518">
        <ele>474.55000000000001</ele>
        <time>2025-05-10T08:31:07Z</time>
      </trkpt>
      <trkpt lat="37.02378798276186" lon="-4.546889020130038">
        <ele>474.06999999999999</ele>
        <time>2025-05-10T08:31:21Z</time>
      </trkpt>
      <trkpt lat="37.023780019953847" lon="-4.54689396545291">
        <ele>484.63999999999999</ele>
        <time>2025-05-10T09:07:10Z</time>
      </trkpt>
      <trkpt lat="37.023839028552175" lon="-4.546920033171773">
        <ele>481.75999999999999</ele>
        <time>2025-05-10T09:07:45Z</time>
      </trkpt>
      <trkpt lat="37.023863000795245" lon="-4.546867981553078">
        <ele>480.80000000000001</ele>
        <time>2025-05-10T09:08:12Z</time>
      </trkpt>
      <trkpt lat="37.023849003016949" lon="-4.546847026795149">
        <ele>486.56</ele>
        <time>2025-05-10T09:08:34Z</time>
      </trkpt>
      <trkpt lat="37.023827964439988" lon="-4.546862030401826">
        <ele>485.60000000000002</ele>
        <time>2025-05-10T09:08:57Z</time>
      </trkpt>
      <trkpt lat="37.023582961410284" lon="-4.547223960980773">
        <ele>484.63999999999999</ele>
        <time>2025-05-10T09:09:06Z</time>
      </trkpt>
      <trkpt lat="37.023539962247014" lon="-4.547160007059574">
        <ele>484.16000000000003</ele>
        <time>2025-05-10T09:09:07Z</time>
      </trkpt>
      <trkpt lat="37.023539962247014" lon="-4.547160007059574">
        <ele>483.68000000000001</ele>
        <time>2025-05-10T09:09:08Z</time>
      </trkpt>
      <trkpt lat="37.02333603054285" lon="-4.54710896126926">
        <ele>482.72000000000003</ele>
        <time>2025-05-10T09:09:17Z</time>
      </trkpt>
      <trkpt lat="37.023267969489098" lon="-4.547168975695968">
        <ele>482.72000000000003</ele>
        <time>2025-05-10T09:09:34Z</time>
      </trkpt>
      <trkpt lat="37.023255983367562" lon="-4.547226978465915">
        <ele>482.72000000000003</ele>
        <time>2025-05-10T09:09:35Z</time>
      </trkpt>
      <trkpt lat="37.023239973932505" lon="-4.547309959307313">
        <ele>482.72000000000003</ele>
        <time>2025-05-10T09:09:36Z</time>
      </trkpt>
      <trkpt lat="37.022978961467743" lon="-4.548533968627453">
        <ele>487.52999999999997</ele>
        <time>2025-05-10T09:09:49Z</time>
      </trkpt>
      <trkpt lat="37.022678973153234" lon="-4.54960199072957">
        <ele>491.37</ele>
        <time>2025-05-10T09:10:01Z</time>
      </trkpt>
      <trkpt lat="37.022489039227366" lon="-4.550228035077453">
        <ele>492.32999999999998</ele>
        <time>2025-05-10T09:10:08Z</time>
      </trkpt>
      <trkpt lat="37.02243497595191" lon="-4.550305986776948">
        <ele>492.32999999999998</ele>
        <time>2025-05-10T09:10:09Z</time>
      </trkpt>
      <trkpt lat="37.022388959303498" lon="-4.55037203617394">
        <ele>492.32999999999998</ele>
        <time>2025-05-10T09:10:10Z</time>
      </trkpt>
      <trkpt lat="37.022345038130879" lon="-4.550434984266758">
        <ele>492.32999999999998</ele>
        <time>2025-05-10T09:10:11Z</time>
      </trkpt>
      <trkpt lat="37.022294998168945" lon="-4.550506984815002">
        <ele>492.32999999999998</ele>
        <time>2025-05-10T09:10:12Z</time>
      </trkpt>
      <trkpt lat="37.022238001227379" lon="-4.55054797232151">
        <ele>492.32999999999998</ele>
        <time>2025-05-10T09:10:13Z</time>
      </trkpt>
      <trkpt lat="37.022174969315529" lon="-4.550592983141542">
        <ele>492.32999999999998</ele>
        <time>2025-05-10T09:10:14Z</time>
      </trkpt>
      <trkpt lat="37.021975982934237" lon="-4.550808984786272">
        <ele>492.32999999999998</ele>
        <time>2025-05-10T09:10:18Z</time>
      </trkpt>
      <trkpt lat="37.021931977942586" lon="-4.550861036404967">
        <ele>492.32999999999998</ele>
        <time>2025-05-10T09:10:19Z</time>
      </trkpt>
      <trkpt lat="37.021885961294174" lon="-4.550918033346534">
        <ele>492.32999999999998</ele>
        <time>2025-05-10T09:10:20Z</time>
      </trkpt>
      <trkpt lat="37.021846985444427" lon="-4.550982993096113">
        <ele>492.32999999999998</ele>
        <time>2025-05-10T09:10:21Z</time>
      </trkpt>
      <trkpt lat="37.02181002125144" lon="-4.551046025007963">
        <ele>492.32999999999998</ele>
        <time>2025-05-10T09:10:22Z</time>
      </trkpt>
      <trkpt lat="37.021770961582661" lon="-4.551114002242684">
        <ele>492.32999999999998</ele>
        <time>2025-05-10T09:10:23Z</time>
      </trkpt>
      <trkpt lat="37.021729974076152" lon="-4.551191031932831">
        <ele>492.81</ele>
        <time>2025-05-10T09:10:24Z</time>
      </trkpt>
      <trkpt lat="37.021424034610391" lon="-4.551884969696403">
        <ele>495.69999999999999</ele>
        <time>2025-05-10T09:10:34Z</time>
      </trkpt>
      <trkpt lat="37.021323032677174" lon="-4.552122009918094">
        <ele>497.62</ele>
        <time>2025-05-10T09:10:38Z</time>
      </trkpt>
      <trkpt lat="37.021292019635439" lon="-4.552176995202899">
        <ele>498.57999999999998</ele>
        <time>2025-05-10T09:10:39Z</time>
      </trkpt>
      <trkpt lat="37.021180037409067" lon="-4.55237396992743">
        <ele>500.5</ele>
        <time>2025-05-10T09:10:42Z</time>
      </trkpt>
      <trkpt lat="37.021153969690204" lon="-4.552405988797545">
        <ele>501.45999999999998</ele>
        <time>2025-05-10T09:10:43Z</time>
      </trkpt>
      <trkpt lat="37.020778963342309" lon="-4.553047958761454">
        <ele>506.26999999999998</ele>
        <time>2025-05-10T09:10:52Z</time>
      </trkpt>
      <trkpt lat="37.020437987521291" lon="-4.553851028904319">
        <ele>504.35000000000002</ele>
        <time>2025-05-10T09:11:02Z</time>
      </trkpt>
      <trkpt lat="37.020403034985065" lon="-4.553937027230859">
        <ele>503.87</ele>
        <time>2025-05-10T09:11:03Z</time>
      </trkpt>
      <trkpt lat="37.020372021943331" lon="-4.554011961445212">
        <ele>503.38999999999999</ele>
        <time>2025-05-10T09:11:04Z</time>
      </trkpt>
      <trkpt lat="37.02034997753799" lon="-4.554065018892288">
        <ele>502.91000000000003</ele>
        <time>2025-05-10T09:11:05Z</time>
      </trkpt>
      <trkpt lat="37.020334973931313" lon="-4.554101983085275">
        <ele>501.94999999999999</ele>
        <time>2025-05-10T09:11:06Z</time>
      </trkpt>
      <trkpt lat="37.020323993638158" lon="-4.554127966985107">
        <ele>501.45999999999998</ele>
        <time>2025-05-10T09:11:07Z</time>
      </trkpt>
      <trkpt lat="37.020309995859861" lon="-4.55415403470397">
        <ele>500.98000000000002</ele>
        <time>2025-05-10T09:11:08Z</time>
      </trkpt>
      <trkpt lat="37.020292980596423" lon="-4.554184963926673">
        <ele>500.5</ele>
        <time>2025-05-10T09:11:09Z</time>
      </trkpt>
      <trkpt lat="37.020214023068547" lon="-4.554327037185431">
        <ele>499.06</ele>
        <time>2025-05-10T09:11:12Z</time>
      </trkpt>
      <trkpt lat="37.020041020587087" lon="-4.554528035223484">
        <ele>496.66000000000003</ele>
        <time>2025-05-10T09:11:19Z</time>
      </trkpt>
      <trkpt lat="37.020017970353365" lon="-4.554492998868227">
        <ele>496.18000000000001</ele>
        <time>2025-05-10T09:11:20Z</time>
      </trkpt>
      <trkpt lat="37.019992992281914" lon="-4.554452011361718">
        <ele>496.18000000000001</ele>
        <time>2025-05-10T09:11:21Z</time>
      </trkpt>
      <trkpt lat="37.019720999523997" lon="-4.553979020565748">
        <ele>491.85000000000002</ele>
        <time>2025-05-10T09:11:30Z</time>
      </trkpt>
      <trkpt lat="37.01968302950263" lon="-4.553912971168757">
        <ele>490.88999999999999</ele>
        <time>2025-05-10T09:11:31Z</time>
      </trkpt>
      <trkpt lat="37.019570963457227" lon="-4.553733011707664">
        <ele>489.93000000000001</ele>
        <time>2025-05-10T09:11:34Z</time>
      </trkpt>
      <trkpt lat="37.019325038418174" lon="-4.553272007033229">
        <ele>488.49000000000001</ele>
        <time>2025-05-10T09:11:41Z</time>
      </trkpt>
      <trkpt lat="37.019269969314337" lon="-4.55316798761487">
        <ele>488.00999999999999</ele>
        <time>2025-05-10T09:11:42Z</time>
      </trkpt>
      <trkpt lat="37.019230993464589" lon="-4.553033960983157">
        <ele>487.52999999999997</ele>
        <time>2025-05-10T09:11:44Z</time>
      </trkpt>
      <trkpt lat="37.019208027049899" lon="-4.552957015112042">
        <ele>487.52999999999997</ele>
        <time>2025-05-10T09:11:45Z</time>
      </trkpt>
      <trkpt lat="37.019185982644558" lon="-4.552879985421896">
        <ele>487.05000000000001</ele>
        <time>2025-05-10T09:11:46Z</time>
      </trkpt>
      <trkpt lat="37.019162010401487" lon="-4.552797004580498">
        <ele>487.05000000000001</ele>
        <time>2025-05-10T09:11:47Z</time>
      </trkpt>
      <trkpt lat="37.019138038158417" lon="-4.552717041224241">
        <ele>487.05000000000001</ele>
        <time>2025-05-10T09:11:48Z</time>
      </trkpt>
      <trkpt lat="37.019114987924695" lon="-4.55262802541256">
        <ele>487.05000000000001</ele>
        <time>2025-05-10T09:11:49Z</time>
      </trkpt>
      <trkpt lat="37.019051034003496" lon="-4.552298029884696">
        <ele>486.56</ele>
        <time>2025-05-10T09:11:53Z</time>
      </trkpt>
      <trkpt lat="37.019025972113013" lon="-4.55222100019455">
        <ele>486.56</ele>
        <time>2025-05-10T09:11:54Z</time>
      </trkpt>
      <trkpt lat="37.018999988213181" lon="-4.552142964676023">
        <ele>486.56</ele>
        <time>2025-05-10T09:11:55Z</time>
      </trkpt>
      <trkpt lat="37.018965035676956" lon="-4.551983959972858">
        <ele>487.05000000000001</ele>
        <time>2025-05-10T09:11:57Z</time>
      </trkpt>
      <trkpt lat="37.018907032907009" lon="-4.551894022151828">
        <ele>487.05000000000001</ele>
        <time>2025-05-10T09:11:58Z</time>
      </trkpt>
      <trkpt lat="37.018847018480301" lon="-4.551882036030293">
        <ele>487.05000000000001</ele>
        <time>2025-05-10T09:11:59Z</time>
      </trkpt>
      <trkpt lat="37.018783986568451" lon="-4.551872983574867">
        <ele>487.05000000000001</ele>
        <time>2025-05-10T09:12:00Z</time>
      </trkpt>
      <trkpt lat="37.018722966313362" lon="-4.551866026595235">
        <ele>487.52999999999997</ele>
        <time>2025-05-10T09:12:01Z</time>
      </trkpt>
      <trkpt lat="37.018633028492332" lon="-4.551924029365182">
        <ele>487.05000000000001</ele>
        <time>2025-05-10T09:12:02Z</time>
      </trkpt>
      <trkpt lat="37.018594974651933" lon="-4.551993012428284">
        <ele>487.52999999999997</ele>
        <time>2025-05-10T09:12:03Z</time>
      </trkpt>
      <trkpt lat="37.018551975488663" lon="-4.552069958299398">
        <ele>487.52999999999997</ele>
        <time>2025-05-10T09:12:04Z</time>
      </trkpt>
      <trkpt lat="37.018508976325393" lon="-4.552148999646306">
        <ele>487.05000000000001</ele>
        <time>2025-05-10T09:12:05Z</time>
      </trkpt>
      <trkpt lat="37.018463965505362" lon="-4.552229968830943">
        <ele>487.05000000000001</ele>
        <time>2025-05-10T09:12:06Z</time>
      </trkpt>
      <trkpt lat="37.018174035474658" lon="-4.55275702290237">
        <ele>484.63999999999999</ele>
        <time>2025-05-10T09:12:12Z</time>
      </trkpt>
      <trkpt lat="37.018120978027582" lon="-4.552854001522064">
        <ele>484.63999999999999</ele>
        <time>2025-05-10T09:12:13Z</time>
      </trkpt>
      <trkpt lat="37.018026011064649" lon="-4.552938994020224">
        <ele>484.16000000000003</ele>
        <time>2025-05-10T09:12:14Z</time>
      </trkpt>
      <trkpt lat="37.017932971939445" lon="-4.552980987355113">
        <ele>484.16000000000003</ele>
        <time>2025-05-10T09:12:15Z</time>
      </trkpt>
      <trkpt lat="37.017841022461653" lon="-4.553027004003525">
        <ele>484.16000000000003</ele>
        <time>2025-05-10T09:12:16Z</time>
      </trkpt>
      <trkpt lat="37.01766399666667" lon="-4.553150972351432">
        <ele>483.68000000000001</ele>
        <time>2025-05-10T09:12:18Z</time>
      </trkpt>
      <trkpt lat="37.017441038042307" lon="-4.553409973159432">
        <ele>484.63999999999999</ele>
        <time>2025-05-10T09:12:21Z</time>
      </trkpt>
      <trkpt lat="37.017367025837302" lon="-4.553499994799495">
        <ele>485.12</ele>
        <time>2025-05-10T09:12:22Z</time>
      </trkpt>
      <trkpt lat="37.01729997061193" lon="-4.553581969812512">
        <ele>485.60000000000002</ele>
        <time>2025-05-10T09:12:23Z</time>
      </trkpt>
      <trkpt lat="37.017197040840983" lon="-4.553729994222522">
        <ele>487.05000000000001</ele>
        <time>2025-05-10T09:12:25Z</time>
      </trkpt>
      <trkpt lat="37.017130991443992" lon="-4.553904002532363">
        <ele>488.49000000000001</ele>
        <time>2025-05-10T09:12:27Z</time>
      </trkpt>
      <trkpt lat="37.017114982008934" lon="-4.553998969495297">
        <ele>488.97000000000003</ele>
        <time>2025-05-10T09:12:28Z</time>
      </trkpt>
      <trkpt lat="37.017099978402257" lon="-4.554095026105642">
        <ele>489.44999999999999</ele>
        <time>2025-05-10T09:12:29Z</time>
      </trkpt>
      <trkpt lat="37.017083968967199" lon="-4.554190998896956">
        <ele>489.93000000000001</ele>
        <time>2025-05-10T09:12:30Z</time>
      </trkpt>
      <trkpt lat="37.017068965360522" lon="-4.55428596585989">
        <ele>490.41000000000003</ele>
        <time>2025-05-10T09:12:31Z</time>
      </trkpt>
      <trkpt lat="37.017052033916116" lon="-4.554390991106629">
        <ele>490.88999999999999</ele>
        <time>2025-05-10T09:12:32Z</time>
      </trkpt>
      <trkpt lat="37.017035018652678" lon="-4.554499033838511">
        <ele>490.88999999999999</ele>
        <time>2025-05-10T09:12:33Z</time>
      </trkpt>
      <trkpt lat="37.016930999234319" lon="-4.555352982133627">
        <ele>493.29000000000002</ele>
        <time>2025-05-10T09:12:41Z</time>
      </trkpt>
      <trkpt lat="37.016930999234319" lon="-4.555451972410083">
        <ele>493.76999999999998</ele>
        <time>2025-05-10T09:12:42Z</time>
      </trkpt>
      <trkpt lat="37.016995036974549" lon="-4.555694963783026">
        <ele>494.74000000000001</ele>
        <time>2025-05-10T09:12:45Z</time>
      </trkpt>
      <trkpt lat="37.017013980075717" lon="-4.555747015401721">
        <ele>494.74000000000001</ele>
        <time>2025-05-10T09:12:46Z</time>
      </trkpt>
      <trkpt lat="37.017026972025633" lon="-4.555784985423088">
        <ele>495.22000000000003</ele>
        <time>2025-05-10T09:12:47Z</time>
      </trkpt>
      <trkpt lat="37.017026972025633" lon="-4.555784985423088">
        <ele>495.22000000000003</ele>
        <time>2025-05-10T09:12:48Z</time>
      </trkpt>
      <trkpt lat="37.017026972025633" lon="-4.555784985423088">
        <ele>495.22000000000003</ele>
        <time>2025-05-10T09:12:49Z</time>
      </trkpt>
      <trkpt lat="37.017026972025633" lon="-4.555784985423088">
        <ele>496.18000000000001</ele>
        <time>2025-05-10T09:13:03Z</time>
      </trkpt>
      <trkpt lat="37.017065025866032" lon="-4.555890010669828">
        <ele>496.18000000000001</ele>
        <time>2025-05-10T09:13:06Z</time>
      </trkpt>
      <trkpt lat="37.017110036686063" lon="-4.555919012054801">
        <ele>496.18000000000001</ele>
        <time>2025-05-10T09:13:07Z</time>
      </trkpt>
      <trkpt lat="37.017139960080385" lon="-4.555900990962982">
        <ele>495.69999999999999</ele>
        <time>2025-05-10T09:13:08Z</time>
      </trkpt>
      <trkpt lat="37.017337018623948" lon="-4.555782973766327">
        <ele>494.25999999999999</ele>
        <time>2025-05-10T09:13:13Z</time>
      </trkpt>
      <trkpt lat="37.017634995281696" lon="-4.555604020133615">
        <ele>493.29000000000002</ele>
        <time>2025-05-10T09:13:20Z</time>
      </trkpt>
      <trkpt lat="37.017716970294714" lon="-4.555553980171681">
        <ele>492.81</ele>
        <time>2025-05-10T09:13:22Z</time>
      </trkpt>
      <trkpt lat="37.017758041620255" lon="-4.55553000792861">
        <ele>492.81</ele>
        <time>2025-05-10T09:13:23Z</time>
      </trkpt>
      <trkpt lat="37.017941018566489" lon="-4.555420037358999">
        <ele>492.81</ele>
        <time>2025-05-10T09:13:27Z</time>
      </trkpt>
      <trkpt lat="37.018083008006215" lon="-4.555324986577034">
        <ele>493.29000000000002</ele>
        <time>2025-05-10T09:13:30Z</time>
      </trkpt>
      <trkpt lat="37.018127012997866" lon="-4.555287016555667">
        <ele>492.81</ele>
        <time>2025-05-10T09:13:31Z</time>
      </trkpt>
      <trkpt lat="37.018207982182503" lon="-4.555215016007423">
        <ele>492.81</ele>
        <time>2025-05-10T09:13:33Z</time>
      </trkpt>
      <trkpt lat="37.018249975517392" lon="-4.555178973823786">
        <ele>492.32999999999998</ele>
        <time>2025-05-10T09:13:34Z</time>
      </trkpt>
      <trkpt lat="37.018488021567464" lon="-4.5549710188061">
        <ele>491.37</ele>
        <time>2025-05-10T09:13:42Z</time>
      </trkpt>
      <trkpt lat="37.018534038215876" lon="-4.554930031299591">
        <ele>490.88999999999999</ele>
        <time>2025-05-10T09:13:52Z</time>
      </trkpt>
      <trkpt lat="37.018591035157442" lon="-4.554956015199423">
        <ele>490.41000000000003</ele>
        <time>2025-05-10T09:13:53Z</time>
      </trkpt>
      <trkpt lat="37.01861098408699" lon="-4.554990967735648">
        <ele>489.93000000000001</ele>
        <time>2025-05-10T09:13:54Z</time>
      </trkpt>
      <trkpt lat="37.018626993522048" lon="-4.555017035454512">
        <ele>489.44999999999999</ele>
        <time>2025-05-10T09:13:55Z</time>
      </trkpt>
      <trkpt lat="37.018662029877305" lon="-4.555076966062188">
        <ele>488.97000000000003</ele>
        <time>2025-05-10T09:13:56Z</time>
      </trkpt>
      <trkpt lat="37.018706034868956" lon="-4.555152989923954">
        <ele>488.00999999999999</ele>
        <time>2025-05-10T09:13:57Z</time>
      </trkpt>
      <trkpt lat="37.018896974623203" lon="-4.555479967966676">
        <ele>486.56</ele>
        <time>2025-05-10T09:14:02Z</time>
      </trkpt>
      <trkpt lat="37.018922036513686" lon="-4.555522967129946">
        <ele>486.56</ele>
        <time>2025-05-10T09:14:03Z</time>
      </trkpt>
      <trkpt lat="37.018941985443234" lon="-4.555556997656822">
        <ele>486.07999999999998</ele>
        <time>2025-05-10T09:14:04Z</time>
      </trkpt>
      <trkpt lat="37.018959000706673" lon="-4.555585999041796">
        <ele>486.07999999999998</ele>
        <time>2025-05-10T09:14:05Z</time>
      </trkpt>
      <trkpt lat="37.018971992656589" lon="-4.555608965456486">
        <ele>485.60000000000002</ele>
        <time>2025-05-10T09:14:06Z</time>
      </trkpt>
      <trkpt lat="37.018988002091646" lon="-4.555636961013079">
        <ele>485.60000000000002</ele>
        <time>2025-05-10T09:14:11Z</time>
      </trkpt>
      <trkpt lat="37.019054973497987" lon="-4.555656993761659">
        <ele>485.60000000000002</ele>
        <time>2025-05-10T09:14:12Z</time>
      </trkpt>
      <trkpt lat="37.019115993753076" lon="-4.555605025961995">
        <ele>485.12</ele>
        <time>2025-05-10T09:14:13Z</time>
      </trkpt>
      <trkpt lat="37.01914600096643" lon="-4.555578958243132">
        <ele>485.12</ele>
        <time>2025-05-10T09:14:14Z</time>
      </trkpt>
      <trkpt lat="37.019175002351403" lon="-4.555553980171681">
        <ele>484.63999999999999</ele>
        <time>2025-05-10T09:14:15Z</time>
      </trkpt>
      <trkpt lat="37.019207021221519" lon="-4.555525984615088">
        <ele>484.63999999999999</ele>
        <time>2025-05-10T09:14:16Z</time>
      </trkpt>
      <trkpt lat="37.019658973440528" lon="-4.555178973823786">
        <ele>484.63999999999999</ele>
        <time>2025-05-10T09:14:29Z</time>
      </trkpt>
      <trkpt lat="37.019739020615816" lon="-4.555092975497246">
        <ele>485.12</ele>
        <time>2025-05-10T09:14:31Z</time>
      </trkpt>
      <trkpt lat="37.019779002293944" lon="-4.555048970505595">
        <ele>485.12</ele>
        <time>2025-05-10T09:14:32Z</time>
      </trkpt>
      <trkpt lat="37.019819989800453" lon="-4.555003959685564">
        <ele>485.12</ele>
        <time>2025-05-10T09:14:33Z</time>
      </trkpt>
      <trkpt lat="37.019890984520316" lon="-4.554911004379392">
        <ele>485.60000000000002</ele>
        <time>2025-05-10T09:14:35Z</time>
      </trkpt>
      <trkpt lat="37.019917974248528" lon="-4.554859036579728">
        <ele>485.60000000000002</ele>
        <time>2025-05-10T09:14:36Z</time>
      </trkpt>
      <trkpt lat="37.019946975633502" lon="-4.554805979132652">
        <ele>485.60000000000002</ele>
        <time>2025-05-10T09:14:37Z</time>
      </trkpt>
      <trkpt lat="37.019972959533334" lon="-4.554757028818131">
        <ele>486.07999999999998</ele>
        <time>2025-05-10T09:14:38Z</time>
      </trkpt>
      <trkpt lat="37.019995003938675" lon="-4.554716963320971">
        <ele>486.07999999999998</ele>
        <time>2025-05-10T09:14:39Z</time>
      </trkpt>
      <trkpt lat="37.020014030858874" lon="-4.554681004956365">
        <ele>486.07999999999998</ele>
        <time>2025-05-10T09:14:40Z</time>
      </trkpt>
      <trkpt lat="37.020028028637171" lon="-4.554655021056533">
        <ele>487.05000000000001</ele>
        <time>2025-05-10T09:14:41Z</time>
      </trkpt>
      <trkpt lat="37.020036997273564" lon="-4.554638005793095">
        <ele>487.52999999999997</ele>
        <time>2025-05-10T09:14:42Z</time>
      </trkpt>
      <trkpt lat="37.020042026415467" lon="-4.55462702549994">
        <ele>487.52999999999997</ele>
        <time>2025-05-10T09:14:43Z</time>
      </trkpt>
      <trkpt lat="37.020106986165047" lon="-4.55471302382648">
        <ele>488.00999999999999</ele>
        <time>2025-05-10T09:14:44Z</time>
      </trkpt>
      <trkpt lat="37.020106986165047" lon="-4.55471302382648">
        <ele>488.00999999999999</ele>
        <time>2025-05-10T09:14:45Z</time>
      </trkpt>
      <trkpt lat="37.020106986165047" lon="-4.55471302382648">
        <ele>487.52999999999997</ele>
        <time>2025-05-10T09:14:46Z</time>
      </trkpt>
      <trkpt lat="37.02015501447022" lon="-4.554788963869214">
        <ele>487.52999999999997</ele>
        <time>2025-05-10T09:14:47Z</time>
      </trkpt>
      <trkpt lat="37.020187033340335" lon="-4.554837998002768">
        <ele>487.52999999999997</ele>
        <time>2025-05-10T09:14:48Z</time>
      </trkpt>
      <trkpt lat="37.020217962563038" lon="-4.554886026307941">
        <ele>487.05000000000001</ele>
        <time>2025-05-10T09:14:49Z</time>
      </trkpt>
      <trkpt lat="37.020246963948011" lon="-4.554931959137321">
        <ele>486.56</ele>
        <time>2025-05-10T09:14:50Z</time>
      </trkpt>
      <trkpt lat="37.020275965332985" lon="-4.554976969957352">
        <ele>486.56</ele>
        <time>2025-05-10T09:14:51Z</time>
      </trkpt>
      <trkpt lat="37.020303960889578" lon="-4.555021980777383">
        <ele>486.56</ele>
        <time>2025-05-10T09:14:52Z</time>
      </trkpt>
      <trkpt lat="37.020332040265203" lon="-4.555064979940653">
        <ele>486.07999999999998</ele>
        <time>2025-05-10T09:14:53Z</time>
      </trkpt>
      <trkpt lat="37.020449973642826" lon="-4.555248962715268">
        <ele>485.60000000000002</ele>
        <time>2025-05-10T09:14:55Z</time>
      </trkpt>
      <trkpt lat="37.020412003621459" lon="-4.555189032107592">
        <ele>485.60000000000002</ele>
        <time>2025-05-10T09:14:56Z</time>
      </trkpt>
      <trkpt lat="37.020458020269871" lon="-4.555265977978706">
        <ele>485.12</ele>
        <time>2025-05-10T09:14:58Z</time>
      </trkpt>
      <trkpt lat="37.020482998341322" lon="-4.555317023769021">
        <ele>485.60000000000002</ele>
        <time>2025-05-10T09:14:59Z</time>
      </trkpt>
      <trkpt lat="37.020505964756012" lon="-4.555364968255162">
        <ele>485.60000000000002</ele>
        <time>2025-05-10T09:15:00Z</time>
      </trkpt>
      <trkpt lat="37.020528009161353" lon="-4.555409979075193">
        <ele>485.60000000000002</ele>
        <time>2025-05-10T09:15:01Z</time>
      </trkpt>
      <trkpt lat="37.020552987232804" lon="-4.555462030693889">
        <ele>485.60000000000002</ele>
        <time>2025-05-10T09:15:02Z</time>
      </trkpt>
      <trkpt lat="37.020576037466526" lon="-4.555510981008411">
        <ele>485.60000000000002</ele>
        <time>2025-05-10T09:15:03Z</time>
      </trkpt>
      <trkpt lat="37.020599003881216" lon="-4.555558003485203">
        <ele>485.60000000000002</ele>
        <time>2025-05-10T09:15:04Z</time>
      </trkpt>
      <trkpt lat="37.020625993609428" lon="-4.555613994598389">
        <ele>485.60000000000002</ele>
        <time>2025-05-10T09:15:05Z</time>
      </trkpt>
      <trkpt lat="37.020656000822783" lon="-4.555676020681858">
        <ele>485.60000000000002</ele>
        <time>2025-05-10T09:15:06Z</time>
      </trkpt>
      <trkpt lat="37.020685002207756" lon="-4.555736035108566">
        <ele>486.07999999999998</ele>
        <time>2025-05-10T09:15:07Z</time>
      </trkpt>
      <trkpt lat="37.020708974450827" lon="-4.555786997079849">
        <ele>486.07999999999998</ele>
        <time>2025-05-10T09:15:08Z</time>
      </trkpt>
      <trkpt lat="37.020733030512929" lon="-4.555835025385022">
        <ele>486.07999999999998</ele>
        <time>2025-05-10T09:15:09Z</time>
      </trkpt>
      <trkpt lat="37.020753985270858" lon="-4.55589503981173">
        <ele>486.07999999999998</ele>
        <time>2025-05-10T09:15:10Z</time>
      </trkpt>
      <trkpt lat="37.020764965564013" lon="-4.555958993732929">
        <ele>486.56</ele>
        <time>2025-05-10T09:15:11Z</time>
      </trkpt>
      <trkpt lat="37.020810982212424" lon="-4.556237021461129">
        <ele>486.56</ele>
        <time>2025-05-10T09:15:16Z</time>
      </trkpt>
      <trkpt lat="37.02082003466785" lon="-4.556288989260793">
        <ele>486.56</ele>
        <time>2025-05-10T09:15:17Z</time>
      </trkpt>
      <trkpt lat="37.020829003304243" lon="-4.556341040879488">
        <ele>487.05000000000001</ele>
        <time>2025-05-10T09:15:18Z</time>
      </trkpt>
      <trkpt lat="37.020837971940637" lon="-4.556395020335913">
        <ele>487.05000000000001</ele>
        <time>2025-05-10T09:15:19Z</time>
      </trkpt>
      <trkpt lat="37.020847024396062" lon="-4.556451011449099">
        <ele>486.56</ele>
        <time>2025-05-10T09:15:20Z</time>
      </trkpt>
      <trkpt lat="37.020856998860836" lon="-4.556513037532568">
        <ele>486.56</ele>
        <time>2025-05-10T09:15:21Z</time>
      </trkpt>
      <trkpt lat="37.02086697332561" lon="-4.556572968140245">
        <ele>486.56</ele>
        <time>2025-05-10T09:15:22Z</time>
      </trkpt>
      <trkpt lat="37.020877031609416" lon="-4.556629965081811">
        <ele>486.56</ele>
        <time>2025-05-10T09:15:23Z</time>
      </trkpt>
      <trkpt lat="37.020893963053823" lon="-4.556732978671789">
        <ele>486.56</ele>
        <time>2025-05-10T09:15:25Z</time>
      </trkpt>
      <trkpt lat="37.020901003852487" lon="-4.556772960349917">
        <ele>486.56</ele>
        <time>2025-05-10T09:15:26Z</time>
      </trkpt>
      <trkpt lat="37.020891029387712" lon="-4.55682098865509">
        <ele>486.56</ele>
        <time>2025-05-10T09:15:27Z</time>
      </trkpt>
      <trkpt lat="37.020921958610415" lon="-4.556944034993649">
        <ele>486.56</ele>
        <time>2025-05-10T09:15:28Z</time>
      </trkpt>
      <trkpt lat="37.020921958610415" lon="-4.556944034993649">
        <ele>486.56</ele>
        <time>2025-05-10T09:15:29Z</time>
      </trkpt>
      <trkpt lat="37.020944003015757" lon="-4.557107985019684">
        <ele>486.56</ele>
        <time>2025-05-10T09:15:32Z</time>
      </trkpt>
      <trkpt lat="37.02095196582377" lon="-4.557161964476109">
        <ele>486.56</ele>
        <time>2025-05-10T09:15:33Z</time>
      </trkpt>
      <trkpt lat="37.020959006622434" lon="-4.557216027751565">
        <ele>486.56</ele>
        <time>2025-05-10T09:15:34Z</time>
      </trkpt>
      <trkpt lat="37.020965041592717" lon="-4.557262966409326">
        <ele>486.56</ele>
        <time>2025-05-10T09:15:35Z</time>
      </trkpt>
      <trkpt lat="37.02097199857235" lon="-4.557310994714499">
        <ele>486.56</ele>
        <time>2025-05-10T09:15:36Z</time>
      </trkpt>
      <trkpt lat="37.020979039371014" lon="-4.557361034676433">
        <ele>486.56</ele>
        <time>2025-05-10T09:15:37Z</time>
      </trkpt>
      <trkpt lat="37.020987002179027" lon="-4.557416019961238">
        <ele>486.56</ele>
        <time>2025-05-10T09:15:38Z</time>
      </trkpt>
      <trkpt lat="37.021028995513916" lon="-4.557545017451048">
        <ele>487.05000000000001</ele>
        <time>2025-05-10T09:15:40Z</time>
      </trkpt>
      <trkpt lat="37.021028995513916" lon="-4.557545017451048">
        <ele>487.52999999999997</ele>
        <time>2025-05-10T09:15:41Z</time>
      </trkpt>
      <trkpt lat="37.021047016605735" lon="-4.557652976363897">
        <ele>488.00999999999999</ele>
        <time>2025-05-10T09:15:42Z</time>
      </trkpt>
      <trkpt lat="37.021068977192044" lon="-4.557782979682088">
        <ele>489.93000000000001</ele>
        <time>2025-05-10T09:15:44Z</time>
      </trkpt>
      <trkpt lat="37.021090015769005" lon="-4.557909965515137">
        <ele>491.85000000000002</ele>
        <time>2025-05-10T09:15:46Z</time>
      </trkpt>
      <trkpt lat="37.02110200189054" lon="-4.557966040447354">
        <ele>492.32999999999998</ele>
        <time>2025-05-10T09:15:47Z</time>
      </trkpt>
      <trkpt lat="37.021114993840456" lon="-4.558017002418637">
        <ele>492.32999999999998</ele>
        <time>2025-05-10T09:15:49Z</time>
      </trkpt>
      <trkpt lat="37.021137038245797" lon="-4.558133007958531">
        <ele>492.32999999999998</ele>
        <time>2025-05-10T09:15:50Z</time>
      </trkpt>
      <trkpt lat="37.021148018538952" lon="-4.558190004900098">
        <ele>492.32999999999998</ele>
        <time>2025-05-10T09:15:51Z</time>
      </trkpt>
      <trkpt lat="37.021158998832107" lon="-4.558244990184903">
        <ele>492.32999999999998</ele>
        <time>2025-05-10T09:15:52Z</time>
      </trkpt>
      <trkpt lat="37.021170984953642" lon="-4.558308022096753">
        <ele>492.32999999999998</ele>
        <time>2025-05-10T09:15:53Z</time>
      </trkpt>
      <trkpt lat="37.021181965246797" lon="-4.5583660248667">
        <ele>492.32999999999998</ele>
        <time>2025-05-10T09:15:54Z</time>
      </trkpt>
      <trkpt lat="37.021200992166996" lon="-4.558468032628298">
        <ele>492.32999999999998</ele>
        <time>2025-05-10T09:15:55Z</time>
      </trkpt>
      <trkpt lat="37.02120803296566" lon="-4.55849401652813">
        <ele>491.85000000000002</ele>
        <time>2025-05-10T09:15:56Z</time>
      </trkpt>
      <trkpt lat="37.021222030743957" lon="-4.558547995984554">
        <ele>491.85000000000002</ele>
        <time>2025-05-10T09:15:57Z</time>
      </trkpt>
      <trkpt lat="37.021236028522253" lon="-4.558600969612598">
        <ele>491.85000000000002</ele>
        <time>2025-05-10T09:15:58Z</time>
      </trkpt>
      <trkpt lat="37.021277016028762" lon="-4.558756034821272">
        <ele>491.85000000000002</ele>
        <time>2025-05-10T09:16:01Z</time>
      </trkpt>
      <trkpt lat="37.021291013807058" lon="-4.558810014277697">
        <ele>491.85000000000002</ele>
        <time>2025-05-10T09:16:02Z</time>
      </trkpt>
      <trkpt lat="37.021304005756974" lon="-4.55886097624898">
        <ele>491.85000000000002</ele>
        <time>2025-05-10T09:16:03Z</time>
      </trkpt>
      <trkpt lat="37.021372988820076" lon="-4.559069015085697">
        <ele>493.29000000000002</ele>
        <time>2025-05-10T09:16:06Z</time>
      </trkpt>
      <trkpt lat="37.021372988820076" lon="-4.559069015085697">
        <ele>493.76999999999998</ele>
        <time>2025-05-10T09:16:07Z</time>
      </trkpt>
      <trkpt lat="37.021378017961979" lon="-4.559099022299051">
        <ele>493.76999999999998</ele>
        <time>2025-05-10T09:16:08Z</time>
      </trkpt>
      <trkpt lat="37.021388998255134" lon="-4.559151995927095">
        <ele>494.25999999999999</ele>
        <time>2025-05-10T09:16:09Z</time>
      </trkpt>
      <trkpt lat="37.021398972719908" lon="-4.559206981211901">
        <ele>494.74000000000001</ele>
        <time>2025-05-10T09:16:10Z</time>
      </trkpt>
      <trkpt lat="37.021459992974997" lon="-4.559519039466977">
        <ele>495.69999999999999</ele>
        <time>2025-05-10T09:16:15Z</time>
      </trkpt>
      <trkpt lat="37.021482959389687" lon="-4.559519961476326">
        <ele>496.66000000000003</ele>
        <time>2025-05-10T09:16:16Z</time>
      </trkpt>
      <trkpt lat="37.021525958552957" lon="-4.55952599644661">
        <ele>497.13999999999999</ele>
        <time>2025-05-10T09:16:17Z</time>
      </trkpt>
      <trkpt lat="37.021568035706878" lon="-4.559532031416893">
        <ele>497.13999999999999</ele>
        <time>2025-05-10T09:16:18Z</time>
      </trkpt>
      <trkpt lat="37.021611034870148" lon="-4.559537982568145">
        <ele>497.13999999999999</ele>
        <time>2025-05-10T09:16:19Z</time>
      </trkpt>
      <trkpt lat="37.021655961871147" lon="-4.559544017538428">
        <ele>497.13999999999999</ele>
        <time>2025-05-10T09:16:20Z</time>
      </trkpt>
      <trkpt lat="37.02170399017632" lon="-4.559550974518061">
        <ele>497.13999999999999</ele>
        <time>2025-05-10T09:16:21Z</time>
      </trkpt>
      <trkpt lat="37.021753024309874" lon="-4.559558015316725">
        <ele>497.13999999999999</ele>
        <time>2025-05-10T09:16:22Z</time>
      </trkpt>
      <trkpt lat="37.021928038448095" lon="-4.559582993388176">
        <ele>497.62</ele>
        <time>2025-05-10T09:16:25Z</time>
      </trkpt>
      <trkpt lat="37.022117972373962" lon="-4.559609983116388">
        <ele>496.66000000000003</ele>
        <time>2025-05-10T09:16:33Z</time>
      </trkpt>
      <trkpt lat="37.022117972373962" lon="-4.559609983116388">
        <ele>496.66000000000003</ele>
        <time>2025-05-10T09:17:03Z</time>
      </trkpt>
      <trkpt lat="37.022243030369282" lon="-4.559629010036588">
        <ele>495.22000000000003</ele>
        <time>2025-05-10T09:17:32Z</time>
      </trkpt>
      <trkpt lat="37.022293992340565" lon="-4.559638984501362">
        <ele>494.74000000000001</ele>
        <time>2025-05-10T09:17:33Z</time>
      </trkpt>
      <trkpt lat="37.022463977336884" lon="-4.559648036956787">
        <ele>493.76999999999998</ele>
        <time>2025-05-10T09:17:36Z</time>
      </trkpt>
      <trkpt lat="37.022519968450069" lon="-4.559659017249942">
        <ele>493.29000000000002</ele>
        <time>2025-05-10T09:17:37Z</time>
      </trkpt>
      <trkpt lat="37.022576965391636" lon="-4.55967896617949">
        <ele>492.81</ele>
        <time>2025-05-10T09:17:38Z</time>
      </trkpt>
      <trkpt lat="37.022989019751549" lon="-4.559821961447597">
        <ele>490.88999999999999</ele>
        <time>2025-05-10T09:17:45Z</time>
      </trkpt>
      <trkpt lat="37.023075018078089" lon="-4.55985096283257">
        <ele>490.88999999999999</ele>
        <time>2025-05-10T09:17:47Z</time>
      </trkpt>
      <trkpt lat="37.023110976442695" lon="-4.559863032773137">
        <ele>490.88999999999999</ele>
        <time>2025-05-10T09:17:48Z</time>
      </trkpt>
      <trkpt lat="37.023175014182925" lon="-4.559820033609867">
        <ele>490.41000000000003</ele>
        <time>2025-05-10T09:17:49Z</time>
      </trkpt>
      <trkpt lat="37.023205021396279" lon="-4.559859009459615">
        <ele>489.93000000000001</ele>
        <time>2025-05-10T09:17:50Z</time>
      </trkpt>
      <trkpt lat="37.023236034438014" lon="-4.559899996966124">
        <ele>489.93000000000001</ele>
        <time>2025-05-10T09:17:51Z</time>
      </trkpt>
      <trkpt lat="37.023261012509465" lon="-4.560012985020876">
        <ele>489.93000000000001</ele>
        <time>2025-05-10T09:17:52Z</time>
      </trkpt>
      <trkpt lat="37.023308034986258" lon="-4.560090014711022">
        <ele>489.93000000000001</ele>
        <time>2025-05-10T09:17:54Z</time>
      </trkpt>
      <trkpt lat="37.023553038015962" lon="-4.560539033263922">
        <ele>488.00999999999999</ele>
        <time>2025-05-10T09:18:03Z</time>
      </trkpt>
      <trkpt lat="37.023578016087413" lon="-4.560583038255572">
        <ele>488.00999999999999</ele>
        <time>2025-05-10T09:18:04Z</time>
      </trkpt>
      <trkpt lat="37.023608023300767" lon="-4.560621008276939">
        <ele>488.00999999999999</ele>
        <time>2025-05-10T09:18:05Z</time>
      </trkpt>
      <trkpt lat="37.023639958351851" lon="-4.560657972469926">
        <ele>488.00999999999999</ele>
        <time>2025-05-10T09:18:06Z</time>
      </trkpt>
      <trkpt lat="37.023674994707108" lon="-4.560697032138705">
        <ele>488.00999999999999</ele>
        <time>2025-05-10T09:18:07Z</time>
      </trkpt>
      <trkpt lat="37.023711036890745" lon="-4.560739025473595">
        <ele>488.49000000000001</ele>
        <time>2025-05-10T09:18:08Z</time>
      </trkpt>
      <trkpt lat="37.023753030225635" lon="-4.560775989666581">
        <ele>488.49000000000001</ele>
        <time>2025-05-10T09:18:09Z</time>
      </trkpt>
      <trkpt lat="37.023804998025298" lon="-4.560809014365077">
        <ele>488.00999999999999</ele>
        <time>2025-05-10T09:18:10Z</time>
      </trkpt>
      <trkpt lat="37.023913962766528" lon="-4.560879003256559">
        <ele>488.00999999999999</ele>
        <time>2025-05-10T09:18:12Z</time>
      </trkpt>
      <trkpt lat="37.024042960256338" lon="-4.560957960784435">
        <ele>487.05000000000001</ele>
        <time>2025-05-10T09:18:14Z</time>
      </trkpt>
      <trkpt lat="37.024111021310091" lon="-4.560999032109976">
        <ele>486.56</ele>
        <time>2025-05-10T09:18:15Z</time>
      </trkpt>
      <trkpt lat="37.024180004373193" lon="-4.561041025444865">
        <ele>486.56</ele>
        <time>2025-05-10T09:18:16Z</time>
      </trkpt>
      <trkpt lat="37.024579988792539" lon="-4.561271024867892">
        <ele>483.19999999999999</ele>
        <time>2025-05-10T09:18:22Z</time>
      </trkpt>
      <trkpt lat="37.024866985157132" lon="-4.561448972672224">
        <ele>481.27999999999997</ele>
        <time>2025-05-10T09:18:27Z</time>
      </trkpt>
      <trkpt lat="37.024972010403872" lon="-4.5615020301193">
        <ele>480.31999999999999</ele>
        <time>2025-05-10T09:18:29Z</time>
      </trkpt>
      <trkpt lat="37.025094972923398" lon="-4.561571013182402">
        <ele>479.35000000000002</ele>
        <time>2025-05-10T09:18:31Z</time>
      </trkpt>
      <trkpt lat="37.025155993178487" lon="-4.561604959890246">
        <ele>479.35000000000002</ele>
        <time>2025-05-10T09:18:32Z</time>
      </trkpt>
      <trkpt lat="37.025260012596846" lon="-4.561678972095251">
        <ele>478.38999999999999</ele>
        <time>2025-05-10T09:18:34Z</time>
      </trkpt>
      <trkpt lat="37.026004996150732" lon="-4.562151962891221">
        <ele>475.50999999999999</ele>
        <time>2025-05-10T09:18:45Z</time>
      </trkpt>
      <trkpt lat="37.026748973876238" lon="-4.562807008624077">
        <ele>471.18000000000001</ele>
        <time>2025-05-10T09:18:56Z</time>
      </trkpt>
      <trkpt lat="37.026847964152694" lon="-4.56290197558701">
        <ele>470.22000000000003</ele>
        <time>2025-05-10T09:18:58Z</time>
      </trkpt>
      <trkpt lat="37.026978973299265" lon="-4.56302803941071">
        <ele>468.77999999999997</ele>
        <time>2025-05-10T09:19:01Z</time>
      </trkpt>
      <trkpt lat="37.027015015482903" lon="-4.563062991946936">
        <ele>468.30000000000001</ele>
        <time>2025-05-10T09:19:02Z</time>
      </trkpt>
      <trkpt lat="37.027045022696257" lon="-4.563091993331909">
        <ele>468.30000000000001</ele>
        <time>2025-05-10T09:19:03Z</time>
      </trkpt>
      <trkpt lat="37.027076035737991" lon="-4.563122000545263">
        <ele>467.81999999999999</ele>
        <time>2025-05-10T09:19:04Z</time>
      </trkpt>
      <trkpt lat="37.027105037122965" lon="-4.563149996101856">
        <ele>467.33999999999997</ele>
        <time>2025-05-10T09:19:05Z</time>
      </trkpt>
      <trkpt lat="37.027145018801093" lon="-4.563188971951604">
        <ele>466.86000000000001</ele>
        <time>2025-05-10T09:19:06Z</time>
      </trkpt>
      <trkpt lat="37.027167985215783" lon="-4.563205987215042">
        <ele>466.38</ele>
        <time>2025-05-10T09:19:07Z</time>
      </trkpt>
      <trkpt lat="37.027198998257518" lon="-4.563230965286493">
        <ele>465.89999999999998</ele>
        <time>2025-05-10T09:19:08Z</time>
      </trkpt>
      <trkpt lat="37.027227999642491" lon="-4.563253009691834">
        <ele>465.42000000000002</ele>
        <time>2025-05-10T09:19:09Z</time>
      </trkpt>
      <trkpt lat="37.02724602073431" lon="-4.563267007470131">
        <ele>465.42000000000002</ele>
        <time>2025-05-10T09:19:10Z</time>
      </trkpt>
      <trkpt lat="37.027261024340987" lon="-4.563278993591666">
        <ele>464.93000000000001</ele>
        <time>2025-05-10T09:19:11Z</time>
      </trkpt>
      <trkpt lat="37.027277033776045" lon="-4.563291985541582">
        <ele>464.44999999999999</ele>
        <time>2025-05-10T09:19:12Z</time>
      </trkpt>
      <trkpt lat="37.027292959392071" lon="-4.563303971663117">
        <ele>464.44999999999999</ele>
        <time>2025-05-10T09:19:13Z</time>
      </trkpt>
      <trkpt lat="37.027337970212102" lon="-4.563339008018374">
        <ele>464.93000000000001</ele>
        <time>2025-05-10T09:19:14Z</time>
      </trkpt>
      <trkpt lat="37.027337970212102" lon="-4.563339008018374">
        <ele>464.93000000000001</ele>
        <time>2025-05-10T09:19:29Z</time>
      </trkpt>
      <trkpt lat="37.027337970212102" lon="-4.563339008018374">
        <ele>465.42000000000002</ele>
        <time>2025-05-10T09:20:21Z</time>
      </trkpt>
      <trkpt lat="37.027337970212102" lon="-4.563339008018374">
        <ele>465.89999999999998</ele>
        <time>2025-05-10T09:21:17Z</time>
      </trkpt>
      <trkpt lat="37.027337970212102" lon="-4.563339008018374">
        <ele>466.86000000000001</ele>
        <time>2025-05-10T09:22:12Z</time>
      </trkpt>
      <trkpt lat="37.027337970212102" lon="-4.563339008018374">
        <ele>467.33999999999997</ele>
        <time>2025-05-10T09:22:55Z</time>
      </trkpt>
      <trkpt lat="37.027383986860514" lon="-4.563390975818038">
        <ele>468.30000000000001</ele>
        <time>2025-05-10T09:23:36Z</time>
      </trkpt>
      <trkpt lat="37.027450958266854" lon="-4.563468005508184">
        <ele>468.30000000000001</ele>
        <time>2025-05-10T09:23:39Z</time>
      </trkpt>
      <trkpt lat="37.027499992400408" lon="-4.563525002449751">
        <ele>468.30000000000001</ele>
        <time>2025-05-10T09:23:40Z</time>
      </trkpt>
      <trkpt lat="37.02789000235498" lon="-4.563934039324522">
        <ele>467.33999999999997</ele>
        <time>2025-05-10T09:23:46Z</time>
      </trkpt>
      <trkpt lat="37.027939036488533" lon="-4.564078962430358">
        <ele>466.86000000000001</ele>
        <time>2025-05-10T09:23:49Z</time>
      </trkpt>
      <trkpt lat="37.027939036488533" lon="-4.564180970191956">
        <ele>466.38</ele>
        <time>2025-05-10T09:23:50Z</time>
      </trkpt>
      <trkpt lat="37.027957979589701" lon="-4.565148996189237">
        <ele>465.89999999999998</ele>
        <time>2025-05-10T09:23:56Z</time>
      </trkpt>
      <trkpt lat="37.02797600068152" lon="-4.567049006000161">
        <ele>463.00999999999999</ele>
        <time>2025-05-10T09:24:04Z</time>
      </trkpt>
      <trkpt lat="37.028002990409732" lon="-4.570531016215682">
        <ele>458.20999999999998</ele>
        <time>2025-05-10T09:24:17Z</time>
      </trkpt>
      <trkpt lat="37.027865024283528" lon="-4.572708969935775">
        <ele>459.17000000000002</ele>
        <time>2025-05-10T09:24:26Z</time>
      </trkpt>
      <trkpt lat="37.027559000998735" lon="-4.574661031365395">
        <ele>458.69</ele>
        <time>2025-05-10T09:24:36Z</time>
      </trkpt>
      <trkpt lat="37.027420029044151" lon="-4.575342983007431">
        <ele>458.69</ele>
        <time>2025-05-10T09:24:41Z</time>
      </trkpt>
      <trkpt lat="37.027407037094235" lon="-4.575445996597409">
        <ele>459.17000000000002</ele>
        <time>2025-05-10T09:24:42Z</time>
      </trkpt>
      <trkpt lat="37.027416005730629" lon="-4.575552027672529">
        <ele>459.17000000000002</ele>
        <time>2025-05-10T09:24:43Z</time>
      </trkpt>
      <trkpt lat="37.027435032650828" lon="-4.575645988807082">
        <ele>459.17000000000002</ele>
        <time>2025-05-10T09:24:44Z</time>
      </trkpt>
      <trkpt lat="37.027425980195403" lon="-4.575746990740299">
        <ele>459.17000000000002</ele>
        <time>2025-05-10T09:24:45Z</time>
      </trkpt>
      <trkpt lat="37.027402007952332" lon="-4.575805999338627">
        <ele>459.17000000000002</ele>
        <time>2025-05-10T09:24:46Z</time>
      </trkpt>
      <trkpt lat="37.027333024889231" lon="-4.575846986845136">
        <ele>459.17000000000002</ele>
        <time>2025-05-10T09:24:47Z</time>
      </trkpt>
      <trkpt lat="37.027287008240819" lon="-4.575870037078857">
        <ele>459.17000000000002</ele>
        <time>2025-05-10T09:24:48Z</time>
      </trkpt>
      <trkpt lat="37.027231017127633" lon="-4.575870037078857">
        <ele>459.17000000000002</ele>
        <time>2025-05-10T09:24:49Z</time>
      </trkpt>
      <trkpt lat="37.027194974943995" lon="-4.575816979631782">
        <ele>459.17000000000002</ele>
        <time>2025-05-10T09:24:50Z</time>
      </trkpt>
      <trkpt lat="37.027172008529305" lon="-4.575757971033454">
        <ele>459.17000000000002</ele>
        <time>2025-05-10T09:24:51Z</time>
      </trkpt>
      <trkpt lat="37.027148036286235" lon="-4.57568496465683">
        <ele>459.17000000000002</ele>
        <time>2025-05-10T09:24:52Z</time>
      </trkpt>
      <trkpt lat="37.027123980224133" lon="-4.575611958280206">
        <ele>459.17000000000002</ele>
        <time>2025-05-10T09:24:53Z</time>
      </trkpt>
      <trkpt lat="37.027143007144332" lon="-4.575515985488892">
        <ele>459.17000000000002</ele>
        <time>2025-05-10T09:24:54Z</time>
      </trkpt>
      <trkpt lat="37.027252977713943" lon="-4.575438033789396">
        <ele>459.17000000000002</ele>
        <time>2025-05-10T09:24:55Z</time>
      </trkpt>
      <trkpt lat="37.0272880140692" lon="-4.575315993279219">
        <ele>458.69</ele>
        <time>2025-05-10T09:24:56Z</time>
      </trkpt>
      <trkpt lat="37.027323972433805" lon="-4.575188001617789">
        <ele>458.69</ele>
        <time>2025-05-10T09:24:57Z</time>
      </trkpt>
      <trkpt lat="37.027363032102585" lon="-4.575052969157696">
        <ele>458.69</ele>
        <time>2025-05-10T09:24:58Z</time>
      </trkpt>
      <trkpt lat="37.027666037902236" lon="-4.573504999279976">
        <ele>458.20999999999998</ele>
        <time>2025-05-10T09:25:07Z</time>
      </trkpt>
      <trkpt lat="37.027885979041457" lon="-4.570966036990285">
        <ele>457.72000000000003</ele>
        <time>2025-05-10T09:25:19Z</time>
      </trkpt>
      <trkpt lat="37.027907017618418" lon="-4.568665958940983">
        <ele>456.27999999999997</ele>
        <time>2025-05-10T09:25:29Z</time>
      </trkpt>
      <trkpt lat="37.027882039546967" lon="-4.566180976107717">
        <ele>458.20999999999998</ele>
        <time>2025-05-10T09:25:40Z</time>
      </trkpt>
      <trkpt lat="37.027855971828103" lon="-4.564783964306116">
        <ele>463.00999999999999</ele>
        <time>2025-05-10T09:25:48Z</time>
      </trkpt>
      <trkpt lat="37.027853038161993" lon="-4.564353972673416">
        <ele>465.89999999999998</ele>
        <time>2025-05-10T09:25:53Z</time>
      </trkpt>
      <trkpt lat="37.027853038161993" lon="-4.564299993216991">
        <ele>467.81999999999999</ele>
        <time>2025-05-10T09:26:03Z</time>
      </trkpt>
      <trkpt lat="37.027853038161993" lon="-4.564239978790283">
        <ele>467.81999999999999</ele>
        <time>2025-05-10T09:26:13Z</time>
      </trkpt>
      <trkpt lat="37.027853038161993" lon="-4.564251964911819">
        <ele>468.77999999999997</ele>
        <time>2025-05-10T09:26:14Z</time>
      </trkpt>
      <trkpt lat="37.027971977367997" lon="-4.564006961882114">
        <ele>470.69999999999999</ele>
        <time>2025-05-10T09:26:20Z</time>
      </trkpt>
      <trkpt lat="37.02799703925848" lon="-4.564025988802314">
        <ele>471.18000000000001</ele>
        <time>2025-05-10T09:26:21Z</time>
      </trkpt>
      <trkpt lat="37.028030985966325" lon="-4.564050966873765">
        <ele>471.18000000000001</ele>
        <time>2025-05-10T09:26:22Z</time>
      </trkpt>
      <trkpt lat="37.028070967644453" lon="-4.5640819799155">
        <ele>471.66000000000003</ele>
        <time>2025-05-10T09:26:23Z</time>
      </trkpt>
      <trkpt lat="37.028113966807723" lon="-4.564112992957234">
        <ele>471.66000000000003</ele>
        <time>2025-05-10T09:26:24Z</time>
      </trkpt>
      <trkpt lat="37.028439017012715" lon="-4.564207959920168">
        <ele>472.63</ele>
        <time>2025-05-10T09:26:31Z</time>
      </trkpt>
      <trkpt lat="37.028613025322556" lon="-4.564154986292124">
        <ele>473.11000000000001</ele>
        <time>2025-05-10T09:26:35Z</time>
      </trkpt>
      <trkpt lat="37.028662981465459" lon="-4.564116010442376">
        <ele>473.11000000000001</ele>
        <time>2025-05-10T09:26:36Z</time>
      </trkpt>
      <trkpt lat="37.028717966750264" lon="-4.564072005450726">
        <ele>472.63</ele>
        <time>2025-05-10T09:26:37Z</time>
      </trkpt>
      <trkpt lat="37.028777981176972" lon="-4.564019031822681">
        <ele>472.63</ele>
        <time>2025-05-10T09:26:38Z</time>
      </trkpt>
      <trkpt lat="37.028805976733565" lon="-4.563948959112167">
        <ele>472.13999999999999</ele>
        <time>2025-05-10T09:26:39Z</time>
      </trkpt>
      <trkpt lat="37.028871020302176" lon="-4.563788026571274">
        <ele>471.18000000000001</ele>
        <time>2025-05-10T09:26:41Z</time>
      </trkpt>
      <trkpt lat="37.028903961181641" lon="-4.563678978011012">
        <ele>470.69999999999999</ele>
        <time>2025-05-10T09:26:42Z</time>
      </trkpt>
      <trkpt lat="37.028903961181641" lon="-4.563545035198331">
        <ele>470.22000000000003</ele>
        <time>2025-05-10T09:26:43Z</time>
      </trkpt>
      <trkpt lat="37.028903961181641" lon="-4.561604959890246">
        <ele>463.00999999999999</ele>
        <time>2025-05-10T09:26:54Z</time>
      </trkpt>
      <trkpt lat="37.02892298810184" lon="-4.561448972672224">
        <ele>462.05000000000001</ele>
        <time>2025-05-10T09:26:55Z</time>
      </trkpt>
      <trkpt lat="37.028960036113858" lon="-4.561311006546021">
        <ele>461.56999999999999</ele>
        <time>2025-05-10T09:26:56Z</time>
      </trkpt>
      <trkpt lat="37.028999011963606" lon="-4.561172034591436">
        <ele>461.56999999999999</ele>
        <time>2025-05-10T09:26:57Z</time>
      </trkpt>
      <trkpt lat="37.029055003076792" lon="-4.561072960495949">
        <ele>461.08999999999997</ele>
        <time>2025-05-10T09:26:58Z</time>
      </trkpt>
      <trkpt lat="37.029135972261429" lon="-4.560969024896622">
        <ele>460.61000000000001</ele>
        <time>2025-05-10T09:26:59Z</time>
      </trkpt>
      <trkpt lat="37.029219958931208" lon="-4.560916973277926">
        <ele>460.13</ele>
        <time>2025-05-10T09:27:00Z</time>
      </trkpt>
      <trkpt lat="37.029336970299482" lon="-4.56088000908494">
        <ele>459.64999999999998</ele>
        <time>2025-05-10T09:27:01Z</time>
      </trkpt>
      <trkpt lat="37.029450964182615" lon="-4.560843966901302">
        <ele>458.69</ele>
        <time>2025-05-10T09:27:02Z</time>
      </trkpt>
      <trkpt lat="37.029569987207651" lon="-4.560807002708316">
        <ele>458.20999999999998</ele>
        <time>2025-05-10T09:27:03Z</time>
      </trkpt>
      <trkpt lat="37.029836028814316" lon="-4.560784958302975">
        <ele>455.80000000000001</ele>
        <time>2025-05-10T09:27:06Z</time>
      </trkpt>
      <trkpt lat="37.029918003827333" lon="-4.560784958302975">
        <ele>454.83999999999997</ele>
        <time>2025-05-10T09:27:07Z</time>
      </trkpt>
      <trkpt lat="37.030084971338511" lon="-4.560592006891966">
        <ele>453.39999999999998</ele>
        <time>2025-05-10T09:27:09Z</time>
      </trkpt>
      <trkpt lat="37.030154038220644" lon="-4.560578009113669">
        <ele>452.92000000000002</ele>
        <time>2025-05-10T09:27:10Z</time>
      </trkpt>
      <trkpt lat="37.030263002961874" lon="-4.560629976913333">
        <ele>452.44</ele>
        <time>2025-05-10T09:27:11Z</time>
      </trkpt>
      <trkpt lat="37.030321005731821" lon="-4.560678005218506">
        <ele>451.95999999999998</ele>
        <time>2025-05-10T09:27:12Z</time>
      </trkpt>
      <trkpt lat="37.03042795881629" lon="-4.560795016586781">
        <ele>451.48000000000002</ele>
        <time>2025-05-10T09:27:13Z</time>
      </trkpt>
      <trkpt lat="37.030531978234649" lon="-4.560805996879935">
        <ele>451</ele>
        <time>2025-05-10T09:27:14Z</time>
      </trkpt>
      <trkpt lat="37.030643038451672" lon="-4.560815971344709">
        <ele>450.51999999999998</ele>
        <time>2025-05-10T09:27:15Z</time>
      </trkpt>
      <trkpt lat="37.030761977657676" lon="-4.560826029628515">
        <ele>450.02999999999997</ele>
        <time>2025-05-10T09:27:16Z</time>
      </trkpt>
      <trkpt lat="37.032186985015869" lon="-4.560957038775086">
        <ele>443.31</ele>
        <time>2025-05-10T09:27:27Z</time>
      </trkpt>
      <trkpt lat="37.033925978466868" lon="-4.561106991022825">
        <ele>439.45999999999998</ele>
        <time>2025-05-10T09:27:40Z</time>
      </trkpt>
      <trkpt lat="37.035509990528226" lon="-4.561241017654538">
        <ele>435.61000000000001</ele>
        <time>2025-05-10T09:27:52Z</time>
      </trkpt>
      <trkpt lat="37.037081010639668" lon="-4.561360040679574">
        <ele>434.64999999999998</ele>
        <time>2025-05-10T09:28:03Z</time>
      </trkpt>
      <trkpt lat="37.038728976622224" lon="-4.561505969613791">
        <ele>434.17000000000002</ele>
        <time>2025-05-10T09:28:14Z</time>
      </trkpt>
      <trkpt lat="37.041127039119601" lon="-4.561709985136986">
        <ele>432.25</ele>
        <time>2025-05-10T09:28:28Z</time>
      </trkpt>
      <trkpt lat="37.04435097053647" lon="-4.561986001208425">
        <ele>431.76999999999998</ele>
        <time>2025-05-10T09:28:45Z</time>
      </trkpt>
      <trkpt lat="37.04720601439476" lon="-4.562246007844806">
        <ele>429.85000000000002</ele>
        <time>2025-05-10T09:29:00Z</time>
      </trkpt>
      <trkpt lat="37.049628971144557" lon="-4.562454968690872">
        <ele>426.95999999999998</ele>
        <time>2025-05-10T09:29:13Z</time>
      </trkpt>
      <trkpt lat="37.051977999508381" lon="-4.562640963122249">
        <ele>426.48000000000002</ele>
        <time>2025-05-10T09:29:26Z</time>
      </trkpt>
      <trkpt lat="37.052443027496338" lon="-4.562609028071165">
        <ele>425.51999999999998</ele>
        <time>2025-05-10T09:29:29Z</time>
      </trkpt>
      <trkpt lat="37.05257898196578" lon="-4.562568040564656">
        <ele>425.51999999999998</ele>
        <time>2025-05-10T09:29:30Z</time>
      </trkpt>
      <trkpt lat="37.054608995094895" lon="-4.56210401840508">
        <ele>427.44</ele>
        <time>2025-05-10T09:29:43Z</time>
      </trkpt>
      <trkpt lat="37.056264001876116" lon="-4.562348015606403">
        <ele>427.92000000000002</ele>
        <time>2025-05-10T09:29:52Z</time>
      </trkpt>
      <trkpt lat="37.0588309597224" lon="-4.562867023050785">
        <ele>426.48000000000002</ele>
        <time>2025-05-10T09:30:05Z</time>
      </trkpt>
      <trkpt lat="37.061149980872869" lon="-4.563339008018374">
        <ele>426</ele>
        <time>2025-05-10T09:30:16Z</time>
      </trkpt>
      <trkpt lat="37.062833989039063" lon="-4.563683001324534">
        <ele>426.95999999999998</ele>
        <time>2025-05-10T09:30:24Z</time>
      </trkpt>
      <trkpt lat="37.066232012584805" lon="-4.564377022907138">
        <ele>426.95999999999998</ele>
        <time>2025-05-10T09:30:41Z</time>
      </trkpt>
      <trkpt lat="37.068955041468143" lon="-4.564931988716126">
        <ele>426</ele>
        <time>2025-05-10T09:30:56Z</time>
      </trkpt>
      <trkpt lat="37.070469986647367" lon="-4.565248992294073">
        <ele>428.39999999999998</ele>
        <time>2025-05-10T09:31:06Z</time>
      </trkpt>
      <trkpt lat="37.070607030764222" lon="-4.565214039757848">
        <ele>428.88999999999999</ele>
        <time>2025-05-10T09:31:07Z</time>
      </trkpt>
      <trkpt lat="37.070737034082413" lon="-4.565181015059352">
        <ele>428.88999999999999</ele>
        <time>2025-05-10T09:31:08Z</time>
      </trkpt>
      <trkpt lat="37.070863014087081" lon="-4.565131980925798">
        <ele>429.37</ele>
        <time>2025-05-10T09:31:09Z</time>
      </trkpt>
      <trkpt lat="37.07099100574851" lon="-4.565055035054684">
        <ele>429.37</ele>
        <time>2025-05-10T09:31:11Z</time>
      </trkpt>
      <trkpt lat="37.071250006556511" lon="-4.564873985946178">
        <ele>429.37</ele>
        <time>2025-05-10T09:31:12Z</time>
      </trkpt>
      <trkpt lat="37.07137799821794" lon="-4.564765021204948">
        <ele>428.88999999999999</ele>
        <time>2025-05-10T09:31:13Z</time>
      </trkpt>
      <trkpt lat="37.071486040949821" lon="-4.564615990966559">
        <ele>428.39999999999998</ele>
        <time>2025-05-10T09:31:14Z</time>
      </trkpt>
      <trkpt lat="37.071587964892387" lon="-4.564451035112143">
        <ele>427.92000000000002</ele>
        <time>2025-05-10T09:31:15Z</time>
      </trkpt>
      <trkpt lat="37.07167798653245" lon="-4.564279038459063">
        <ele>426.95999999999998</ele>
        <time>2025-05-10T09:31:16Z</time>
      </trkpt>
      <trkpt lat="37.071777982637286" lon="-4.56408298574388">
        <ele>426.48000000000002</ele>
        <time>2025-05-10T09:31:17Z</time>
      </trkpt>
      <trkpt lat="37.071801032871008" lon="-4.563882993534207">
        <ele>426.48000000000002</ele>
        <time>2025-05-10T09:31:18Z</time>
      </trkpt>
      <trkpt lat="37.071825005114079" lon="-4.563678978011012">
        <ele>426</ele>
        <time>2025-05-10T09:31:19Z</time>
      </trkpt>
      <trkpt lat="37.07184998318553" lon="-4.563469011336565">
        <ele>426</ele>
        <time>2025-05-10T09:31:20Z</time>
      </trkpt>
      <trkpt lat="37.072195988148451" lon="-4.561141021549702">
        <ele>425.51999999999998</ele>
        <time>2025-05-10T09:31:30Z</time>
      </trkpt>
      <trkpt lat="37.072498993948102" lon="-4.558205008506775">
        <ele>427.92000000000002</ele>
        <time>2025-05-10T09:31:40Z</time>
      </trkpt>
      <trkpt lat="37.072872994467616" lon="-4.554201979190111">
        <ele>432.25</ele>
        <time>2025-05-10T09:31:53Z</time>
      </trkpt>
      <trkpt lat="37.072813985869288" lon="-4.551901984959841">
        <ele>433.69</ele>
        <time>2025-05-10T09:32:01Z</time>
      </trkpt>
      <trkpt lat="37.072403021156788" lon="-4.549121037125588">
        <ele>434.17000000000002</ele>
        <time>2025-05-10T09:32:11Z</time>
      </trkpt>
      <trkpt lat="37.071501966565847" lon="-4.545986037701368">
        <ele>436.57999999999998</ele>
        <time>2025-05-10T09:32:23Z</time>
      </trkpt>
      <trkpt lat="37.070574006065726" lon="-4.542623972520232">
        <ele>442.33999999999997</ele>
        <time>2025-05-10T09:32:36Z</time>
      </trkpt>
      <trkpt lat="37.070166980847716" lon="-4.539585029706359">
        <ele>449.55000000000001</ele>
        <time>2025-05-10T09:32:47Z</time>
      </trkpt>
      <trkpt lat="37.070189025253057" lon="-4.536796035245061">
        <ele>448.58999999999997</ele>
        <time>2025-05-10T09:32:57Z</time>
      </trkpt>
      <trkpt lat="37.070188019424677" lon="-4.534333012998104">
        <ele>444.75</ele>
        <time>2025-05-10T09:33:07Z</time>
      </trkpt>
      <trkpt lat="37.07013001665473" lon="-4.533444028347731">
        <ele>442.81999999999999</ele>
        <time>2025-05-10T09:33:12Z</time>
      </trkpt>
      <trkpt lat="37.069525010883808" lon="-4.531829003244638">
        <ele>442.81999999999999</ele>
        <time>2025-05-10T09:33:19Z</time>
      </trkpt>
      <trkpt lat="37.068198993802071" lon="-4.529072027653456">
        <ele>447.14999999999998</ele>
        <time>2025-05-10T09:33:32Z</time>
      </trkpt>
      <trkpt lat="37.068065972998738" lon="-4.528878992423415">
        <ele>447.14999999999998</ele>
        <time>2025-05-10T09:33:33Z</time>
      </trkpt>
      <trkpt lat="37.067905962467194" lon="-4.528709007427096">
        <ele>447.14999999999998</ele>
        <time>2025-05-10T09:33:34Z</time>
      </trkpt>
      <trkpt lat="37.067735977470875" lon="-4.528559977188706">
        <ele>447.14999999999998</ele>
        <time>2025-05-10T09:33:35Z</time>
      </trkpt>
      <trkpt lat="37.067560963332653" lon="-4.528421005234122">
        <ele>447.14999999999998</ele>
        <time>2025-05-10T09:33:36Z</time>
      </trkpt>
      <trkpt lat="37.067385027185082" lon="-4.528282033279538">
        <ele>447.14999999999998</ele>
        <time>2025-05-10T09:33:37Z</time>
      </trkpt>
      <trkpt lat="37.065250994637609" lon="-4.526576986536384">
        <ele>442.81999999999999</ele>
        <time>2025-05-10T09:33:49Z</time>
      </trkpt>
      <trkpt lat="37.063093995675445" lon="-4.52495601028204">
        <ele>441.86000000000001</ele>
        <time>2025-05-10T09:34:00Z</time>
      </trkpt>
      <trkpt lat="37.060536006465554" lon="-4.523243000730872">
        <ele>440.89999999999998</ele>
        <time>2025-05-10T09:34:12Z</time>
      </trkpt>
      <trkpt lat="37.058488978073001" lon="-4.521896028891206">
        <ele>441.38</ele>
        <time>2025-05-10T09:34:20Z</time>
      </trkpt>
      <trkpt lat="37.055608034133911" lon="-4.51984497718513">
        <ele>442.81999999999999</ele>
        <time>2025-05-10T09:34:32Z</time>
      </trkpt>
      <trkpt lat="37.053289012983441" lon="-4.518047980964184">
        <ele>445.70999999999998</ele>
        <time>2025-05-10T09:34:43Z</time>
      </trkpt>
      <trkpt lat="37.050757007673383" lon="-4.516005981713533">
        <ele>454.36000000000001</ele>
        <time>2025-05-10T09:34:55Z</time>
      </trkpt>
      <trkpt lat="37.048141015693545" lon="-4.513694001361728">
        <ele>467.81999999999999</ele>
        <time>2025-05-10T09:35:08Z</time>
      </trkpt>
      <trkpt lat="37.046542000025511" lon="-4.512208979576826">
        <ele>477.43000000000001</ele>
        <time>2025-05-10T09:35:17Z</time>
      </trkpt>
      <trkpt lat="37.045298041775823" lon="-4.51135603711009">
        <ele>483.19999999999999</ele>
        <time>2025-05-10T09:35:26Z</time>
      </trkpt>
      <trkpt lat="37.045098971575499" lon="-4.511258974671364">
        <ele>483.68000000000001</ele>
        <time>2025-05-10T09:35:28Z</time>
      </trkpt>
      <trkpt lat="37.045024959370494" lon="-4.511253023520112">
        <ele>483.68000000000001</ele>
        <time>2025-05-10T09:35:29Z</time>
      </trkpt>
      <trkpt lat="37.044961005449295" lon="-4.511246988549829">
        <ele>483.68000000000001</ele>
        <time>2025-05-10T09:35:30Z</time>
      </trkpt>
      <trkpt lat="37.044868972152472" lon="-4.511240031570196">
        <ele>483.68000000000001</ele>
        <time>2025-05-10T09:35:31Z</time>
      </trkpt>
      <trkpt lat="37.044835025444627" lon="-4.511286970227957">
        <ele>483.68000000000001</ele>
        <time>2025-05-10T09:35:32Z</time>
      </trkpt>
      <trkpt lat="37.044798983260989" lon="-4.511337010189891">
        <ele>484.16000000000003</ele>
        <time>2025-05-10T09:35:33Z</time>
      </trkpt>
      <trkpt lat="37.044802000746131" lon="-4.511471036821604">
        <ele>484.16000000000003</ele>
        <time>2025-05-10T09:35:34Z</time>
      </trkpt>
      <trkpt lat="37.044836031273007" lon="-4.511538008227944">
        <ele>484.16000000000003</ele>
        <time>2025-05-10T09:35:35Z</time>
      </trkpt>
      <trkpt lat="37.044892022386193" lon="-4.511598022654653">
        <ele>483.68000000000001</ele>
        <time>2025-05-10T09:35:36Z</time>
      </trkpt>
      <trkpt lat="37.044969974085689" lon="-4.511662982404232">
        <ele>483.19999999999999</ele>
        <time>2025-05-10T09:35:37Z</time>
      </trkpt>
      <trkpt lat="37.045059995725751" lon="-4.511736994609237">
        <ele>482.24000000000001</ele>
        <time>2025-05-10T09:35:38Z</time>
      </trkpt>
      <trkpt lat="37.045155968517065" lon="-4.511816035956144">
        <ele>481.75999999999999</ele>
        <time>2025-05-10T09:35:39Z</time>
      </trkpt>
      <trkpt lat="37.046251986175776" lon="-4.512718012556434">
        <ele>477.43000000000001</ele>
        <time>2025-05-10T09:35:48Z</time>
      </trkpt>
      <trkpt lat="37.048018975183368" lon="-4.514137990772724">
        <ele>472.63</ele>
        <time>2025-05-10T09:36:00Z</time>
      </trkpt>
      <trkpt lat="37.049816977232695" lon="-4.515574984252453">
        <ele>462.05000000000001</ele>
        <time>2025-05-10T09:36:11Z</time>
      </trkpt>
      <trkpt lat="37.052027033641934" lon="-4.517316995188594">
        <ele>454.83999999999997</ele>
        <time>2025-05-10T09:36:24Z</time>
      </trkpt>
      <trkpt lat="37.053968030959368" lon="-4.518849039450288">
        <ele>449.55000000000001</ele>
        <time>2025-05-10T09:36:35Z</time>
      </trkpt>
      <trkpt lat="37.056172974407673" lon="-4.520612005144358">
        <ele>444.75</ele>
        <time>2025-05-10T09:36:48Z</time>
      </trkpt>
      <trkpt lat="37.058546980842948" lon="-4.522510003298521">
        <ele>441.38</ele>
        <time>2025-05-10T09:37:02Z</time>
      </trkpt>
      <trkpt lat="37.0609359908849" lon="-4.524421999230981">
        <ele>442.33999999999997</ele>
        <time>2025-05-10T09:37:16Z</time>
      </trkpt>
      <trkpt lat="37.062616981565952" lon="-4.525780035182834">
        <ele>444.75</ele>
        <time>2025-05-10T09:37:26Z</time>
      </trkpt>
      <trkpt lat="37.063467996194959" lon="-4.526101984083653">
        <ele>445.70999999999998</ele>
        <time>2025-05-10T09:37:31Z</time>
      </trkpt>
      <trkpt lat="37.063610991463065" lon="-4.526201980188489">
        <ele>445.70999999999998</ele>
        <time>2025-05-10T09:37:32Z</time>
      </trkpt>
      <trkpt lat="37.063754992559552" lon="-4.526315974071622">
        <ele>445.70999999999998</ele>
        <time>2025-05-10T09:37:33Z</time>
      </trkpt>
      <trkpt lat="37.065077992156148" lon="-4.527351977303624">
        <ele>443.79000000000002</ele>
        <time>2025-05-10T09:37:41Z</time>
      </trkpt>
      <trkpt lat="37.066713972017169" lon="-4.528350010514259">
        <ele>444.26999999999998</ele>
        <time>2025-05-10T09:37:50Z</time>
      </trkpt>
      <trkpt lat="37.067705970257521" lon="-4.528948981314898">
        <ele>445.70999999999998</ele>
        <time>2025-05-10T09:37:56Z</time>
      </trkpt>
      <trkpt lat="37.067845026031137" lon="-4.529098011553288">
        <ele>445.70999999999998</ele>
        <time>2025-05-10T09:37:57Z</time>
      </trkpt>
      <trkpt lat="37.067978968843818" lon="-4.529243018478155">
        <ele>446.19</ele>
        <time>2025-05-10T09:37:58Z</time>
      </trkpt>
      <trkpt lat="37.068107966333628" lon="-4.529431024566293">
        <ele>446.19</ele>
        <time>2025-05-10T09:37:59Z</time>
      </trkpt>
      <trkpt lat="37.068232018500566" lon="-4.52962095849216">
        <ele>446.19</ele>
        <time>2025-05-10T09:38:00Z</time>
      </trkpt>
      <trkpt lat="37.068338971585035" lon="-4.529837965965271">
        <ele>446.19</ele>
        <time>2025-05-10T09:38:01Z</time>
      </trkpt>
      <trkpt lat="37.068446008488536" lon="-4.530054973438382">
        <ele>446.19</ele>
        <time>2025-05-10T09:38:02Z</time>
      </trkpt>
      <trkpt lat="37.06978602334857" lon="-4.532813038676977">
        <ele>444.75</ele>
        <time>2025-05-10T09:38:15Z</time>
      </trkpt>
      <trkpt lat="37.070018034428358" lon="-4.533673021942377">
        <ele>444.26999999999998</ele>
        <time>2025-05-10T09:38:19Z</time>
      </trkpt>
      <trkpt lat="37.070060027763247" lon="-4.533920036628842">
        <ele>444.26999999999998</ele>
        <time>2025-05-10T09:38:20Z</time>
      </trkpt>
      <trkpt lat="37.070075031369925" lon="-4.535462977364659">
        <ele>445.23000000000002</ele>
        <time>2025-05-10T09:38:28Z</time>
      </trkpt>
      <trkpt lat="37.070050975307822" lon="-4.536701990291476">
        <ele>445.70999999999998</ele>
        <time>2025-05-10T09:38:36Z</time>
      </trkpt>
      <trkpt lat="37.069973023608327" lon="-4.538023984059691">
        <ele>448.11000000000001</ele>
        <time>2025-05-10T09:38:46Z</time>
      </trkpt>
      <trkpt lat="37.069914015009999" lon="-4.538705013692379">
        <ele>450.02999999999997</ele>
        <time>2025-05-10T09:38:51Z</time>
      </trkpt>
      <trkpt lat="37.06993798725307" lon="-4.53900701366365">
        <ele>450.51999999999998</ele>
        <time>2025-05-10T09:38:53Z</time>
      </trkpt>
      <trkpt lat="37.070107972249389" lon="-4.540535034611821">
        <ele>448.58999999999997</ele>
        <time>2025-05-10T09:39:01Z</time>
      </trkpt>
      <trkpt lat="37.070504017174244" lon="-4.543385971337557">
        <ele>442.33999999999997</ele>
        <time>2025-05-10T09:39:13Z</time>
      </trkpt>
      <trkpt lat="37.071190997958183" lon="-4.545479016378522">
        <ele>439.45999999999998</ele>
        <time>2025-05-10T09:39:22Z</time>
      </trkpt>
      <trkpt lat="37.072192970663309" lon="-4.548791041597724">
        <ele>436.10000000000002</ele>
        <time>2025-05-10T09:39:36Z</time>
      </trkpt>
      <trkpt lat="37.072521960362792" lon="-4.550898000597954">
        <ele>436.10000000000002</ele>
        <time>2025-05-10T09:39:45Z</time>
      </trkpt>
      <trkpt lat="37.072570994496346" lon="-4.551881030201912">
        <ele>438.5</ele>
        <time>2025-05-10T09:39:51Z</time>
      </trkpt>
      <trkpt lat="37.072570994496346" lon="-4.552400037646294">
        <ele>440.42000000000002</ele>
        <time>2025-05-10T09:39:56Z</time>
      </trkpt>
      <trkpt lat="37.072570994496346" lon="-4.552474971860647">
        <ele>440.42000000000002</ele>
        <time>2025-05-10T09:39:57Z</time>
      </trkpt>
      <trkpt lat="37.072636960074306" lon="-4.552541021257639">
        <ele>440.89999999999998</ele>
        <time>2025-05-10T09:39:58Z</time>
      </trkpt>
      <trkpt lat="37.072683982551098" lon="-4.552538003772497">
        <ele>441.38</ele>
        <time>2025-05-10T09:39:59Z</time>
      </trkpt>
      <trkpt lat="37.072745002806187" lon="-4.552532974630594">
        <ele>441.86000000000001</ele>
        <time>2025-05-10T09:40:00Z</time>
      </trkpt>
      <trkpt lat="37.072811974212527" lon="-4.552528029307723">
        <ele>442.33999999999997</ele>
        <time>2025-05-10T09:40:01Z</time>
      </trkpt>
      <trkpt lat="37.07288196310401" lon="-4.55252199433744">
        <ele>442.33999999999997</ele>
        <time>2025-05-10T09:40:02Z</time>
      </trkpt>
      <trkpt lat="37.073039961978793" lon="-4.552498022094369">
        <ele>441.86000000000001</ele>
        <time>2025-05-10T09:40:04Z</time>
      </trkpt>
      <trkpt lat="37.073123026639223" lon="-4.552489975467324">
        <ele>441.86000000000001</ele>
        <time>2025-05-10T09:40:05Z</time>
      </trkpt>
      <trkpt lat="37.073195027187467" lon="-4.552482012659311">
        <ele>441.38</ele>
        <time>2025-05-10T09:40:06Z</time>
      </trkpt>
      <trkpt lat="37.073254035785794" lon="-4.552475977689028">
        <ele>440.89999999999998</ele>
        <time>2025-05-10T09:40:07Z</time>
      </trkpt>
      <trkpt lat="37.073304997757077" lon="-4.552471032366157">
        <ele>440.42000000000002</ele>
        <time>2025-05-10T09:40:08Z</time>
      </trkpt>
      <trkpt lat="37.073405999690294" lon="-4.552386961877346">
        <ele>439.94</ele>
        <time>2025-05-10T09:40:09Z</time>
      </trkpt>
      <trkpt lat="37.073403988033533" lon="-4.552337005734444">
        <ele>439.45999999999998</ele>
        <time>2025-05-10T09:40:10Z</time>
      </trkpt>
      <trkpt lat="37.073401976376772" lon="-4.552276991307735">
        <ele>438.98000000000002</ele>
        <time>2025-05-10T09:40:11Z</time>
      </trkpt>
      <trkpt lat="37.073399964720011" lon="-4.552202979102731">
        <ele>438.98000000000002</ele>
        <time>2025-05-10T09:40:12Z</time>
      </trkpt>
      <trkpt lat="37.073398036882281" lon="-4.55211597494781">
        <ele>438.5</ele>
        <time>2025-05-10T09:40:13Z</time>
      </trkpt>
      <trkpt lat="37.073394013568759" lon="-4.552010027691722">
        <ele>438.01999999999998</ele>
        <time>2025-05-10T09:40:14Z</time>
      </trkpt>
      <trkpt lat="37.073390996083617" lon="-4.551888993009925">
        <ele>437.54000000000002</ele>
        <time>2025-05-10T09:40:15Z</time>
      </trkpt>
      <trkpt lat="37.07339895889163" lon="-4.551633009687066">
        <ele>436.10000000000002</ele>
        <time>2025-05-10T09:40:17Z</time>
      </trkpt>
      <trkpt lat="37.07341798581183" lon="-4.551492026075721">
        <ele>435.61000000000001</ele>
        <time>2025-05-10T09:40:18Z</time>
      </trkpt>
      <trkpt lat="37.073451010510325" lon="-4.551351964473724">
        <ele>434.64999999999998</ele>
        <time>2025-05-10T09:40:19Z</time>
      </trkpt>
      <trkpt lat="37.073508007451892" lon="-4.551204023882747">
        <ele>434.17000000000002</ele>
        <time>2025-05-10T09:40:20Z</time>
      </trkpt>
      <trkpt lat="37.073584031313658" lon="-4.55106396228075">
        <ele>433.20999999999998</ele>
        <time>2025-05-10T09:40:21Z</time>
      </trkpt>
      <trkpt lat="37.073674974963069" lon="-4.550938988104463">
        <ele>432.73000000000002</ele>
        <time>2025-05-10T09:40:22Z</time>
      </trkpt>
      <trkpt lat="37.073797015473247" lon="-4.550839997828007">
        <ele>432.73000000000002</ele>
        <time>2025-05-10T09:40:23Z</time>
      </trkpt>
      <trkpt lat="37.073924001306295" lon="-4.550763973966241">
        <ele>432.25</ele>
        <time>2025-05-10T09:40:24Z</time>
      </trkpt>
      <trkpt lat="37.07406397908926" lon="-4.550686022266746">
        <ele>431.76999999999998</ele>
        <time>2025-05-10T09:40:25Z</time>
      </trkpt>
      <trkpt lat="37.075539026409388" lon="-4.550071964040399">
        <ele>434.17000000000002</ele>
        <time>2025-05-10T09:40:34Z</time>
      </trkpt>
      <trkpt lat="37.077915966510773" lon="-4.548722980543971">
        <ele>437.54000000000002</ele>
        <time>2025-05-10T09:40:47Z</time>
      </trkpt>
      <trkpt lat="37.079684967175126" lon="-4.547766018658876">
        <ele>437.54000000000002</ele>
        <time>2025-05-10T09:40:57Z</time>
      </trkpt>
      <trkpt lat="37.082031983882189" lon="-4.54661400988698">
        <ele>441.86000000000001</ele>
        <time>2025-05-10T09:41:10Z</time>
      </trkpt>
      <trkpt lat="37.083806013688445" lon="-4.545724019408226">
        <ele>445.70999999999998</ele>
        <time>2025-05-10T09:41:20Z</time>
      </trkpt>
      <trkpt lat="37.086505992338061" lon="-4.544376041740179">
        <ele>451.95999999999998</ele>
        <time>2025-05-10T09:41:35Z</time>
      </trkpt>
      <trkpt lat="37.088742032647133" lon="-4.543449003249407">
        <ele>453.39999999999998</ele>
        <time>2025-05-10T09:41:47Z</time>
      </trkpt>
      <trkpt lat="37.090511033311486" lon="-4.542714999988675">
        <ele>451.95999999999998</ele>
        <time>2025-05-10T09:41:56Z</time>
      </trkpt>
      <trkpt lat="37.092436021193862" lon="-4.541670028120279">
        <ele>456.27999999999997</ele>
        <time>2025-05-10T09:42:06Z</time>
      </trkpt>
      <trkpt lat="37.094811033457518" lon="-4.539975039660931">
        <ele>462.05000000000001</ele>
        <time>2025-05-10T09:42:19Z</time>
      </trkpt>
      <trkpt lat="37.097082026302814" lon="-4.538326989859343">
        <ele>470.69999999999999</ele>
        <time>2025-05-10T09:42:32Z</time>
      </trkpt>
      <trkpt lat="37.099233996123075" lon="-4.536349028348923">
        <ele>478.87</ele>
        <time>2025-05-10T09:42:45Z</time>
      </trkpt>
      <trkpt lat="37.100023990496993" lon="-4.535623993724585">
        <ele>481.75999999999999</ele>
        <time>2025-05-10T09:42:50Z</time>
      </trkpt>
      <trkpt lat="37.100152987986803" lon="-4.535439005121589">
        <ele>482.72000000000003</ele>
        <time>2025-05-10T09:42:51Z</time>
      </trkpt>
      <trkpt lat="37.100260024890304" lon="-4.535243958234787">
        <ele>483.19999999999999</ele>
        <time>2025-05-10T09:42:52Z</time>
      </trkpt>
      <trkpt lat="37.100358009338379" lon="-4.535025022923946">
        <ele>484.16000000000003</ele>
        <time>2025-05-10T09:42:53Z</time>
      </trkpt>
      <trkpt lat="37.100439984351397" lon="-4.534799968823791">
        <ele>485.12</ele>
        <time>2025-05-10T09:42:54Z</time>
      </trkpt>
      <trkpt lat="37.101458972319961" lon="-4.531994964927435">
        <ele>493.76999999999998</ele>
        <time>2025-05-10T09:43:06Z</time>
      </trkpt>
      <trkpt lat="37.10251098498702" lon="-4.529099017381668">
        <ele>510.12</ele>
        <time>2025-05-10T09:43:19Z</time>
      </trkpt>
      <trkpt lat="37.103466019034386" lon="-4.52630901709199">
        <ele>528.38</ele>
        <time>2025-05-10T09:43:31Z</time>
      </trkpt>
      <trkpt lat="37.10377698764205" lon="-4.524958021938801">
        <ele>537.50999999999999</ele>
        <time>2025-05-10T09:43:38Z</time>
      </trkpt>
      <trkpt lat="37.103999024257064" lon="-4.523972980678082">
        <ele>546.16999999999996</ele>
        <time>2025-05-10T09:43:45Z</time>
      </trkpt>
      <trkpt lat="37.104040011763573" lon="-4.523834008723497">
        <ele>547.61000000000001</ele>
        <time>2025-05-10T09:43:46Z</time>
      </trkpt>
      <trkpt lat="37.104091979563236" lon="-4.523702999576926">
        <ele>548.57000000000005</ele>
        <time>2025-05-10T09:43:47Z</time>
      </trkpt>
      <trkpt lat="37.104183007031679" lon="-4.523596968501806">
        <ele>549.52999999999997</ele>
        <time>2025-05-10T09:43:48Z</time>
      </trkpt>
      <trkpt lat="37.104276968166232" lon="-4.523486997932196">
        <ele>550.49000000000001</ele>
        <time>2025-05-10T09:43:49Z</time>
      </trkpt>
      <trkpt lat="37.104375036433339" lon="-4.523371998220682">
        <ele>551.45000000000005</ele>
        <time>2025-05-10T09:43:50Z</time>
      </trkpt>
      <trkpt lat="37.104475032538176" lon="-4.523255992680788">
        <ele>552.89999999999998</ele>
        <time>2025-05-10T09:43:51Z</time>
      </trkpt>
      <trkpt lat="37.104676030576229" lon="-4.523020964115858">
        <ele>554.34000000000003</ele>
        <time>2025-05-10T09:43:53Z</time>
      </trkpt>
      <trkpt lat="37.104776026681066" lon="-4.522904958575964">
        <ele>555.29999999999995</ele>
        <time>2025-05-10T09:43:54Z</time>
      </trkpt>
      <trkpt lat="37.104859007522464" lon="-4.522773027420044">
        <ele>556.25999999999999</ele>
        <time>2025-05-10T09:43:55Z</time>
      </trkpt>
      <trkpt lat="37.104906029999256" lon="-4.522616034373641">
        <ele>556.74000000000001</ele>
        <time>2025-05-10T09:43:56Z</time>
      </trkpt>
      <trkpt lat="37.104951962828636" lon="-4.522459963336587">
        <ele>557.22000000000003</ele>
        <time>2025-05-10T09:43:57Z</time>
      </trkpt>
      <trkpt lat="37.104994039982557" lon="-4.5223159622401">
        <ele>558.17999999999995</ele>
        <time>2025-05-10T09:43:58Z</time>
      </trkpt>
      <trkpt lat="37.10523602552712" lon="-4.521401999518275">
        <ele>561.54999999999995</ele>
        <time>2025-05-10T09:44:06Z</time>
      </trkpt>
      <trkpt lat="37.105265026912093" lon="-4.521300997585058">
        <ele>562.02999999999997</ele>
        <time>2025-05-10T09:44:07Z</time>
      </trkpt>
      <trkpt lat="37.10534499026835" lon="-4.521048031747341">
        <ele>562.50999999999999</ele>
        <time>2025-05-10T09:44:10Z</time>
      </trkpt>
      <trkpt lat="37.10536896251142" lon="-4.520973013713956">
        <ele>562.50999999999999</ele>
        <time>2025-05-10T09:44:11Z</time>
      </trkpt>
      <trkpt lat="37.105544982478023" lon="-4.520418969914317">
        <ele>563.47000000000003</ele>
        <time>2025-05-10T09:44:18Z</time>
      </trkpt>
      <trkpt lat="37.105573983862996" lon="-4.520327020436525">
        <ele>564.42999999999995</ele>
        <time>2025-05-10T09:44:19Z</time>
      </trkpt>
      <trkpt lat="37.105926023796201" lon="-4.519214993342757">
        <ele>567.32000000000005</ele>
        <time>2025-05-10T09:44:32Z</time>
      </trkpt>
      <trkpt lat="37.105956031009555" lon="-4.519121032208204">
        <ele>567.32000000000005</ele>
        <time>2025-05-10T09:44:33Z</time>
      </trkpt>
      <trkpt lat="37.106100032106042" lon="-4.518521977588534">
        <ele>565.38999999999999</ele>
        <time>2025-05-10T09:44:39Z</time>
      </trkpt>
      <trkpt lat="37.106106989085674" lon="-4.518420975655317">
        <ele>564.90999999999997</ele>
        <time>2025-05-10T09:44:40Z</time>
      </trkpt>
      <trkpt lat="37.106178989633918" lon="-4.517365023493767">
        <ele>559.13999999999999</ele>
        <time>2025-05-10T09:44:51Z</time>
      </trkpt>
      <trkpt lat="37.106210002675653" lon="-4.516913993284106">
        <ele>558.17999999999995</ele>
        <time>2025-05-10T09:44:55Z</time>
      </trkpt>
      <trkpt lat="37.106249984353781" lon="-4.516693968325853">
        <ele>557.70000000000005</ele>
        <time>2025-05-10T09:44:57Z</time>
      </trkpt>
      <trkpt lat="37.106275968253613" lon="-4.516595983877778">
        <ele>557.22000000000003</ele>
        <time>2025-05-10T09:44:58Z</time>
      </trkpt>
      <trkpt lat="37.106300024315715" lon="-4.516506968066096">
        <ele>556.74000000000001</ele>
        <time>2025-05-10T09:44:59Z</time>
      </trkpt>
      <trkpt lat="37.106735967099667" lon="-4.515420002862811">
        <ele>552.89999999999998</ele>
        <time>2025-05-10T09:45:12Z</time>
      </trkpt>
      <trkpt lat="37.107242988422513" lon="-4.514605030417442">
        <ele>547.13</ele>
        <time>2025-05-10T09:45:22Z</time>
      </trkpt>
      <trkpt lat="37.107395958155394" lon="-4.514390034601092">
        <ele>546.16999999999996</ele>
        <time>2025-05-10T09:45:25Z</time>
      </trkpt>
      <trkpt lat="37.107448009774089" lon="-4.514318034052849">
        <ele>545.69000000000005</ele>
        <time>2025-05-10T09:45:26Z</time>
      </trkpt>
      <trkpt lat="37.107937010005116" lon="-4.513585958629847">
        <ele>541.36000000000001</ele>
        <time>2025-05-10T09:45:36Z</time>
      </trkpt>
      <trkpt lat="37.108340011909604" lon="-4.512996962293983">
        <ele>538.48000000000002</ele>
        <time>2025-05-10T09:45:44Z</time>
      </trkpt>
      <trkpt lat="37.108632037416101" lon="-4.512662021443248">
        <ele>537.02999999999997</ele>
        <time>2025-05-10T09:45:49Z</time>
      </trkpt>
      <trkpt lat="37.108685011044145" lon="-4.512601001188159">
        <ele>536.07000000000005</ele>
        <time>2025-05-10T09:45:50Z</time>
      </trkpt>
      <trkpt lat="37.108737984672189" lon="-4.51253998093307">
        <ele>535.59000000000003</ele>
        <time>2025-05-10T09:45:51Z</time>
      </trkpt>
      <trkpt lat="37.10889196023345" lon="-4.512363038957119">
        <ele>534.14999999999998</ele>
        <time>2025-05-10T09:45:54Z</time>
      </trkpt>
      <trkpt lat="37.108922973275185" lon="-4.512293972074986">
        <ele>533.66999999999996</ele>
        <time>2025-05-10T09:45:55Z</time>
      </trkpt>
      <trkpt lat="37.108947029337287" lon="-4.512234041467309">
        <ele>533.66999999999996</ele>
        <time>2025-05-10T09:45:56Z</time>
      </trkpt>
      <trkpt lat="37.108969995751977" lon="-4.512176960706711">
        <ele>533.19000000000005</ele>
        <time>2025-05-10T09:45:57Z</time>
      </trkpt>
      <trkpt lat="37.108992040157318" lon="-4.512121975421906">
        <ele>532.71000000000004</ele>
        <time>2025-05-10T09:45:58Z</time>
      </trkpt>
      <trkpt lat="37.109011989086866" lon="-4.512072019279003">
        <ele>532.23000000000002</ele>
        <time>2025-05-10T09:45:59Z</time>
      </trkpt>
      <trkpt lat="37.109026992693543" lon="-4.512033965438604">
        <ele>532.23000000000002</ele>
        <time>2025-05-10T09:46:00Z</time>
      </trkpt>
      <trkpt lat="37.109015006572008" lon="-4.51198099181056">
        <ele>531.75</ele>
        <time>2025-05-10T09:46:01Z</time>
      </trkpt>
      <trkpt lat="37.109000002965331" lon="-4.511917037889361">
        <ele>531.26999999999998</ele>
        <time>2025-05-10T09:46:02Z</time>
      </trkpt>
      <trkpt lat="37.108984999358654" lon="-4.511854005977511">
        <ele>531.26999999999998</ele>
        <time>2025-05-10T09:46:03Z</time>
      </trkpt>
      <trkpt lat="37.108973013237119" lon="-4.511802038177848">
        <ele>530.78999999999996</ele>
        <time>2025-05-10T09:46:04Z</time>
      </trkpt>
      <trkpt lat="37.108942000195384" lon="-4.511669017374516">
        <ele>530.29999999999995</ele>
        <time>2025-05-10T09:46:10Z</time>
      </trkpt>
      <trkpt lat="37.108972007408738" lon="-4.51165996491909">
        <ele>529.82000000000005</ele>
        <time>2025-05-10T09:46:11Z</time>
      </trkpt>
      <trkpt lat="37.109014000743628" lon="-4.511647978797555">
        <ele>529.34000000000003</ele>
        <time>2025-05-10T09:46:12Z</time>
      </trkpt>
      <trkpt lat="37.109092036262155" lon="-4.511626018211246">
        <ele>529.34000000000003</ele>
        <time>2025-05-10T09:46:13Z</time>
      </trkpt>
      <trkpt lat="37.109146015718579" lon="-4.51163599267602">
        <ele>528.86000000000001</ele>
        <time>2025-05-10T09:46:14Z</time>
      </trkpt>
      <trkpt lat="37.109349025413394" lon="-4.511674968525767">
        <ele>527.89999999999998</ele>
        <time>2025-05-10T09:46:17Z</time>
      </trkpt>
      <trkpt lat="37.109418008476496" lon="-4.511688966304064">
        <ele>527.41999999999996</ele>
        <time>2025-05-10T09:46:18Z</time>
      </trkpt>
      <trkpt lat="37.10955798625946" lon="-4.511715034022927">
        <ele>527.89999999999998</ele>
        <time>2025-05-10T09:46:20Z</time>
      </trkpt>
      <trkpt lat="37.109624035656452" lon="-4.511728025972843">
        <ele>527.89999999999998</ele>
        <time>2025-05-10T09:46:21Z</time>
      </trkpt>
      <trkpt lat="37.109691007062793" lon="-4.511741017922759">
        <ele>527.89999999999998</ele>
        <time>2025-05-10T09:46:22Z</time>
      </trkpt>
      <trkpt lat="37.10974900983274" lon="-4.511751998215914">
        <ele>528.38</ele>
        <time>2025-05-10T09:46:23Z</time>
      </trkpt>
      <trkpt lat="37.109797960147262" lon="-4.511761972680688">
        <ele>528.38</ele>
        <time>2025-05-10T09:46:24Z</time>
      </trkpt>
      <trkpt lat="37.109840959310532" lon="-4.511770019307733">
        <ele>528.38</ele>
        <time>2025-05-10T09:46:25Z</time>
      </trkpt>
      <trkpt lat="37.109883036464453" lon="-4.511777982115746">
        <ele>528.86000000000001</ele>
        <time>2025-05-10T09:46:26Z</time>
      </trkpt>
      <trkpt lat="37.109933998435736" lon="-4.511788040399551">
        <ele>528.86000000000001</ele>
        <time>2025-05-10T09:46:27Z</time>
      </trkpt>
      <trkpt lat="37.109990995377302" lon="-4.511799020692706">
        <ele>529.34000000000003</ele>
        <time>2025-05-10T09:46:28Z</time>
      </trkpt>
      <trkpt lat="37.11005000397563" lon="-4.511810000985861">
        <ele>529.82000000000005</ele>
        <time>2025-05-10T09:46:29Z</time>
      </trkpt>
      <trkpt lat="37.110108006745577" lon="-4.511820981279016">
        <ele>529.82000000000005</ele>
        <time>2025-05-10T09:46:30Z</time>
      </trkpt>
      <trkpt lat="37.110154023393989" lon="-4.511830033734441">
        <ele>530.29999999999995</ele>
        <time>2025-05-10T09:46:31Z</time>
      </trkpt>
      <trkpt lat="37.110208002850413" lon="-4.511840008199215">
        <ele>530.29999999999995</ele>
        <time>2025-05-10T09:46:32Z</time>
      </trkpt>
      <trkpt lat="37.110217977315187" lon="-4.511837996542454">
        <ele>530.78999999999996</ele>
        <time>2025-05-10T09:46:33Z</time>
      </trkpt>
      <trkpt lat="37.110246978700161" lon="-4.511832967400551">
        <ele>530.78999999999996</ele>
        <time>2025-05-10T09:46:34Z</time>
      </trkpt>
      <trkpt lat="37.110246978700161" lon="-4.511832967400551">
        <ele>530.78999999999996</ele>
        <time>2025-05-10T09:46:46Z</time>
      </trkpt>
      <trkpt lat="37.110246978700161" lon="-4.511832967400551">
        <ele>531.75</ele>
        <time>2025-05-10T09:47:32Z</time>
      </trkpt>
      <trkpt lat="37.110144970938563" lon="-4.511647978797555">
        <ele>531.26999999999998</ele>
        <time>2025-05-10T10:26:54Z</time>
      </trkpt>
      <trkpt lat="37.110327025875449" lon="-4.51178502291441">
        <ele>524.53999999999996</ele>
        <time>2025-05-10T10:27:26Z</time>
      </trkpt>
      <trkpt lat="37.110298024490476" lon="-4.511776976287365">
        <ele>531.75</ele>
        <time>2025-05-10T10:27:54Z</time>
      </trkpt>
      <trkpt lat="37.110247984528542" lon="-4.511773036792874">
        <ele>542.79999999999995</ele>
        <time>2025-05-10T10:28:43Z</time>
      </trkpt>
      <trkpt lat="37.110273968428373" lon="-4.51182802207768">
        <ele>543.27999999999997</ele>
        <time>2025-05-10T10:29:11Z</time>
      </trkpt>
      <trkpt lat="37.110310010612011" lon="-4.511821987107396">
        <ele>543.27999999999997</ele>
        <time>2025-05-10T10:29:12Z</time>
      </trkpt>
      <trkpt lat="37.110353009775281" lon="-4.511814024299383">
        <ele>543.27999999999997</ele>
        <time>2025-05-10T10:29:13Z</time>
      </trkpt>
      <trkpt lat="37.110525006428361" lon="-4.511782005429268">
        <ele>543.75999999999999</ele>
        <time>2025-05-10T10:29:16Z</time>
      </trkpt>
      <trkpt lat="37.110706977546215" lon="-4.511747974902391">
        <ele>544.24000000000001</ele>
        <time>2025-05-10T10:29:19Z</time>
      </trkpt>
      <trkpt lat="37.110769003629684" lon="-4.511736994609237">
        <ele>544.24000000000001</ele>
        <time>2025-05-10T10:29:20Z</time>
      </trkpt>
      <trkpt lat="37.110829018056393" lon="-4.511726014316082">
        <ele>544.72000000000003</ele>
        <time>2025-05-10T10:29:21Z</time>
      </trkpt>
      <trkpt lat="37.110987016931176" lon="-4.511697012931109">
        <ele>543.75999999999999</ele>
        <time>2025-05-10T10:29:24Z</time>
      </trkpt>
      <trkpt lat="37.111046025529504" lon="-4.511686032637954">
        <ele>543.75999999999999</ele>
        <time>2025-05-10T10:29:25Z</time>
      </trkpt>
      <trkpt lat="37.111302008852363" lon="-4.511643033474684">
        <ele>543.27999999999997</ele>
        <time>2025-05-10T10:29:29Z</time>
      </trkpt>
      <trkpt lat="37.111485991626978" lon="-4.511612020432949">
        <ele>542.79999999999995</ele>
        <time>2025-05-10T10:29:32Z</time>
      </trkpt>
      <trkpt lat="37.111546006053686" lon="-4.511601962149143">
        <ele>542.79999999999995</ele>
        <time>2025-05-10T10:29:33Z</time>
      </trkpt>
      <trkpt lat="37.111611971631646" lon="-4.511589976027608">
        <ele>542.32000000000005</ele>
        <time>2025-05-10T10:29:34Z</time>
      </trkpt>
      <trkpt lat="37.111680032685399" lon="-4.511578995734453">
        <ele>542.32000000000005</ele>
        <time>2025-05-10T10:29:35Z</time>
      </trkpt>
      <trkpt lat="37.111742980778217" lon="-4.511568015441299">
        <ele>542.32000000000005</ele>
        <time>2025-05-10T10:29:36Z</time>
      </trkpt>
      <trkpt lat="37.111798971891403" lon="-4.511558962985873">
        <ele>541.84000000000003</ele>
        <time>2025-05-10T10:29:37Z</time>
      </trkpt>
      <trkpt lat="37.111860997974873" lon="-4.511547982692719">
        <ele>541.84000000000003</ele>
        <time>2025-05-10T10:29:38Z</time>
      </trkpt>
      <trkpt lat="37.112616961821914" lon="-4.511428959667683">
        <ele>541.36000000000001</ele>
        <time>2025-05-10T10:29:49Z</time>
      </trkpt>
      <trkpt lat="37.112914016470313" lon="-4.511384032666683">
        <ele>541.84000000000003</ele>
        <time>2025-05-10T10:29:53Z</time>
      </trkpt>
      <trkpt lat="37.112990040332079" lon="-4.511372968554497">
        <ele>542.32000000000005</ele>
        <time>2025-05-10T10:29:54Z</time>
      </trkpt>
      <trkpt lat="37.113066986203194" lon="-4.511363999918103">
        <ele>542.79999999999995</ele>
        <time>2025-05-10T10:29:55Z</time>
      </trkpt>
      <trkpt lat="37.113142004236579" lon="-4.51135603711009">
        <ele>543.27999999999997</ele>
        <time>2025-05-10T10:29:56Z</time>
      </trkpt>
      <trkpt lat="37.113233031705022" lon="-4.511346984654665">
        <ele>543.75999999999999</ele>
        <time>2025-05-10T10:29:57Z</time>
      </trkpt>
      <trkpt lat="37.11329597979784" lon="-4.51133600436151">
        <ele>544.24000000000001</ele>
        <time>2025-05-10T10:29:58Z</time>
      </trkpt>
      <trkpt lat="37.113368986174464" lon="-4.511324018239975">
        <ele>544.72000000000003</ele>
        <time>2025-05-10T10:29:59Z</time>
      </trkpt>
      <trkpt lat="37.11366000585258" lon="-4.511275989934802">
        <ele>546.64999999999998</ele>
        <time>2025-05-10T10:30:03Z</time>
      </trkpt>
      <trkpt lat="37.114443965256214" lon="-4.51129300519824">
        <ele>549.04999999999995</ele>
        <time>2025-05-10T10:30:11Z</time>
      </trkpt>
      <trkpt lat="37.115738969296217" lon="-4.511242965236306">
        <ele>545.69000000000005</ele>
        <time>2025-05-10T10:30:20Z</time>
      </trkpt>
      <trkpt lat="37.117516016587615" lon="-4.510778021067381">
        <ele>548.57000000000005</ele>
        <time>2025-05-10T10:30:30Z</time>
      </trkpt>
      <trkpt lat="37.120149023830891" lon="-4.510097997263074">
        <ele>562.50999999999999</ele>
        <time>2025-05-10T10:30:43Z</time>
      </trkpt>
      <trkpt lat="37.122380034998059" lon="-4.509626012295485">
        <ele>578.85000000000002</ele>
        <time>2025-05-10T10:30:54Z</time>
      </trkpt>
      <trkpt lat="37.123589040711522" lon="-4.509083032608032">
        <ele>580.28999999999996</ele>
        <time>2025-05-10T10:31:00Z</time>
      </trkpt>
      <trkpt lat="37.125718966126442" lon="-4.508322039619088">
        <ele>578.85000000000002</ele>
        <time>2025-05-10T10:31:10Z</time>
      </trkpt>
      <trkpt lat="37.127735987305641" lon="-4.508130010217428">
        <ele>581.25</ele>
        <time>2025-05-10T10:31:20Z</time>
      </trkpt>
      <trkpt lat="37.12915001437068" lon="-4.507871009409428">
        <ele>579.33000000000004</ele>
        <time>2025-05-10T10:31:28Z</time>
      </trkpt>
      <trkpt lat="37.130281990393996" lon="-4.507440011948347">
        <ele>575.97000000000003</ele>
        <time>2025-05-10T10:31:34Z</time>
      </trkpt>
      <trkpt lat="37.132430020719767" lon="-4.506545998156071">
        <ele>579.33000000000004</ele>
        <time>2025-05-10T10:31:45Z</time>
      </trkpt>
      <trkpt lat="37.13385502807796" lon="-4.506095973774791">
        <ele>587.98000000000002</ele>
        <time>2025-05-10T10:31:53Z</time>
      </trkpt>
      <trkpt lat="37.135411966592073" lon="-4.506245004013181">
        <ele>590.38999999999999</ele>
        <time>2025-05-10T10:32:02Z</time>
      </trkpt>
      <trkpt lat="37.135624028742313" lon="-4.506280962377787">
        <ele>589.42999999999995</ele>
        <time>2025-05-10T10:32:06Z</time>
      </trkpt>
      <trkpt lat="37.136094002053142" lon="-4.506394034251571">
        <ele>587.98000000000002</ele>
        <time>2025-05-10T10:32:14Z</time>
      </trkpt>
      <trkpt lat="37.137151965871453" lon="-4.506512973457575">
        <ele>586.05999999999995</ele>
        <time>2025-05-10T10:32:21Z</time>
      </trkpt>
      <trkpt lat="37.139186002314091" lon="-4.506742972880602">
        <ele>585.10000000000002</ele>
        <time>2025-05-10T10:32:31Z</time>
      </trkpt>
      <trkpt lat="37.141317017376423" lon="-4.507076991721988">
        <ele>592.30999999999995</ele>
        <time>2025-05-10T10:32:42Z</time>
      </trkpt>
      <trkpt lat="37.143234964460135" lon="-4.507277989760041">
        <ele>583.65999999999997</ele>
        <time>2025-05-10T10:32:51Z</time>
      </trkpt>
      <trkpt lat="37.14451102539897" lon="-4.507297016680241">
        <ele>570.20000000000005</ele>
        <time>2025-05-10T10:32:58Z</time>
      </trkpt>
      <trkpt lat="37.144599035382271" lon="-4.507299028337002">
        <ele>566.35000000000002</ele>
        <time>2025-05-10T10:33:02Z</time>
      </trkpt>
      <trkpt lat="37.144599035382271" lon="-4.507299028337002">
        <ele>566.35000000000002</ele>
        <time>2025-05-10T10:33:36Z</time>
      </trkpt>
      <trkpt lat="37.144643040373921" lon="-4.507299028337002">
        <ele>561.54999999999995</ele>
        <time>2025-05-10T10:33:57Z</time>
      </trkpt>
      <trkpt lat="37.145147966220975" lon="-4.507306991145015">
        <ele>560.59000000000003</ele>
        <time>2025-05-10T10:34:02Z</time>
      </trkpt>
      <trkpt lat="37.146325958892703" lon="-4.507301039993763">
        <ele>557.22000000000003</ele>
        <time>2025-05-10T10:34:09Z</time>
      </trkpt>
      <trkpt lat="37.148463008925319" lon="-4.50727597810328">
        <ele>552.89999999999998</ele>
        <time>2025-05-10T10:34:19Z</time>
      </trkpt>
      <trkpt lat="37.149276975542307" lon="-4.507440011948347">
        <ele>551.45000000000005</ele>
        <time>2025-05-10T10:34:23Z</time>
      </trkpt>
      <trkpt lat="37.149463975802064" lon="-4.507518969476223">
        <ele>550.97000000000003</ele>
        <time>2025-05-10T10:34:24Z</time>
      </trkpt>
      <trkpt lat="37.150542978197336" lon="-4.507966982200742">
        <ele>547.61000000000001</ele>
        <time>2025-05-10T10:34:31Z</time>
      </trkpt>
      <trkpt lat="37.150860987603664" lon="-4.508050968870521">
        <ele>544.72000000000003</ele>
        <time>2025-05-10T10:34:37Z</time>
      </trkpt>
      <trkpt lat="37.150947991758585" lon="-4.508074019104242">
        <ele>541.84000000000003</ele>
        <time>2025-05-10T10:34:48Z</time>
      </trkpt>
      <trkpt lat="37.150947991758585" lon="-4.508074019104242">
        <ele>540.39999999999998</ele>
        <time>2025-05-10T10:35:08Z</time>
      </trkpt>
      <trkpt lat="37.150947991758585" lon="-4.508074019104242">
        <ele>540.39999999999998</ele>
        <time>2025-05-10T10:36:01Z</time>
      </trkpt>
      <trkpt lat="37.150947991758585" lon="-4.508074019104242">
        <ele>540.39999999999998</ele>
        <time>2025-05-10T10:36:54Z</time>
      </trkpt>
      <trkpt lat="37.15119400061667" lon="-4.508139984682202">
        <ele>542.79999999999995</ele>
        <time>2025-05-10T10:37:16Z</time>
      </trkpt>
      <trkpt lat="37.1520109847188" lon="-4.508356992155314">
        <ele>541.84000000000003</ele>
        <time>2025-05-10T10:37:24Z</time>
      </trkpt>
      <trkpt lat="37.153159976005554" lon="-4.508390016853809">
        <ele>539.44000000000005</ele>
        <time>2025-05-10T10:37:31Z</time>
      </trkpt>
      <trkpt lat="37.154839038848877" lon="-4.507857011631131">
        <ele>535.59000000000003</ele>
        <time>2025-05-10T10:37:40Z</time>
      </trkpt>
      <trkpt lat="37.157827019691467" lon="-4.507013037800789">
        <ele>532.23000000000002</ele>
        <time>2025-05-10T10:37:55Z</time>
      </trkpt>
      <trkpt lat="37.160606039687991" lon="-4.506247015669942">
        <ele>529.82000000000005</ele>
        <time>2025-05-10T10:38:09Z</time>
      </trkpt>
      <trkpt lat="37.161226971074939" lon="-4.506075019016862">
        <ele>529.82000000000005</ele>
        <time>2025-05-10T10:38:14Z</time>
      </trkpt>
      <trkpt lat="37.161552021279931" lon="-4.50598600320518">
        <ele>529.34000000000003</ele>
        <time>2025-05-10T10:38:19Z</time>
      </trkpt>
      <trkpt lat="37.161642964929342" lon="-4.505958007648587">
        <ele>529.34000000000003</ele>
        <time>2025-05-10T10:38:20Z</time>
      </trkpt>
      <trkpt lat="37.16170197352767" lon="-4.505863962695003">
        <ele>529.34000000000003</ele>
        <time>2025-05-10T10:38:21Z</time>
      </trkpt>
      <trkpt lat="37.161762993782759" lon="-4.50575097464025">
        <ele>529.34000000000003</ele>
        <time>2025-05-10T10:38:22Z</time>
      </trkpt>
      <trkpt lat="37.161829965189099" lon="-4.505623988807201">
        <ele>529.82000000000005</ele>
        <time>2025-05-10T10:38:23Z</time>
      </trkpt>
      <trkpt lat="37.162494985386729" lon="-4.504365026950836">
        <ele>529.82000000000005</ele>
        <time>2025-05-10T10:38:30Z</time>
      </trkpt>
      <trkpt lat="37.163610029965639" lon="-4.501988003030419">
        <ele>530.78999999999996</ele>
        <time>2025-05-10T10:38:40Z</time>
      </trkpt>
      <trkpt lat="37.16488198377192" lon="-4.498643036931753">
        <ele>530.29999999999995</ele>
        <time>2025-05-10T10:38:53Z</time>
      </trkpt>
      <trkpt lat="37.16535396873951" lon="-4.496587039902806">
        <ele>531.75</ele>
        <time>2025-05-10T10:39:01Z</time>
      </trkpt>
      <trkpt lat="37.165438961237669" lon="-4.496055040508509">
        <ele>532.23000000000002</ele>
        <time>2025-05-10T10:39:03Z</time>
      </trkpt>
      <trkpt lat="37.165509033948183" lon="-4.495794028043747">
        <ele>531.75</ele>
        <time>2025-05-10T10:39:04Z</time>
      </trkpt>
      <trkpt lat="37.166586024686694" lon="-4.493047026917338">
        <ele>531.75</ele>
        <time>2025-05-10T10:39:15Z</time>
      </trkpt>
      <trkpt lat="37.168314037844539" lon="-4.488636972382665">
        <ele>531.75</ele>
        <time>2025-05-10T10:39:32Z</time>
      </trkpt>
      <trkpt lat="37.168848970904946" lon="-4.486379977315664">
        <ele>531.75</ele>
        <time>2025-05-10T10:39:40Z</time>
      </trkpt>
      <trkpt lat="37.169120963662863" lon="-4.482958987355232">
        <ele>533.66999999999996</ele>
        <time>2025-05-10T10:39:52Z</time>
      </trkpt>
      <trkpt lat="37.169171003624797" lon="-4.482709961012006">
        <ele>533.66999999999996</ele>
        <time>2025-05-10T10:39:53Z</time>
      </trkpt>
      <trkpt lat="37.169236969202757" lon="-4.482461018487811">
        <ele>533.66999999999996</ele>
        <time>2025-05-10T10:39:54Z</time>
      </trkpt>
      <trkpt lat="37.169330008327961" lon="-4.482217021286488">
        <ele>533.66999999999996</ele>
        <time>2025-05-10T10:39:55Z</time>
      </trkpt>
      <trkpt lat="37.17025101184845" lon="-4.479867992922664">
        <ele>530.29999999999995</ele>
        <time>2025-05-10T10:40:04Z</time>
      </trkpt>
      <trkpt lat="37.170695001259446" lon="-4.478536024689674">
        <ele>526.46000000000004</ele>
        <time>2025-05-10T10:40:09Z</time>
      </trkpt>
      <trkpt lat="37.170831961557269" lon="-4.478317005559802">
        <ele>525.98000000000002</ele>
        <time>2025-05-10T10:40:10Z</time>
      </trkpt>
      <trkpt lat="37.170967999845743" lon="-4.478101003915072">
        <ele>525.5</ele>
        <time>2025-05-10T10:40:11Z</time>
      </trkpt>
      <trkpt lat="37.171109989285469" lon="-4.477891959249973">
        <ele>525.01999999999998</ele>
        <time>2025-05-10T10:40:12Z</time>
      </trkpt>
      <trkpt lat="37.171286009252071" lon="-4.477733038365841">
        <ele>524.53999999999996</ele>
        <time>2025-05-10T10:40:13Z</time>
      </trkpt>
      <trkpt lat="37.171466974541545" lon="-4.477570010349155">
        <ele>524.05999999999995</ele>
        <time>2025-05-10T10:40:14Z</time>
      </trkpt>
      <trkpt lat="37.173946006223559" lon="-4.475393984466791">
        <ele>519.73000000000002</ele>
        <time>2025-05-10T10:40:27Z</time>
      </trkpt>
      <trkpt lat="37.176449010148644" lon="-4.473021989688277">
        <ele>516.85000000000002</ele>
        <time>2025-05-10T10:40:41Z</time>
      </trkpt>
      <trkpt lat="37.177242022007704" lon="-4.472121018916369">
        <ele>514.44000000000005</ele>
        <time>2025-05-10T10:40:46Z</time>
      </trkpt>
      <trkpt lat="37.177354004234076" lon="-4.471897976472974">
        <ele>514.44000000000005</ele>
        <time>2025-05-10T10:40:47Z</time>
      </trkpt>
      <trkpt lat="37.178573990240693" lon="-4.469215013086796">
        <ele>514.91999999999996</ele>
        <time>2025-05-10T10:40:58Z</time>
      </trkpt>
      <trkpt lat="37.179566994309425" lon="-4.467007974162698">
        <ele>516.37</ele>
        <time>2025-05-10T10:41:08Z</time>
      </trkpt>
      <trkpt lat="37.18000796623528" lon="-4.465996026992798">
        <ele>518.28999999999996</ele>
        <time>2025-05-10T10:41:14Z</time>
      </trkpt>
      <trkpt lat="37.18004803173244" lon="-4.465801985934377">
        <ele>518.76999999999998</ele>
        <time>2025-05-10T10:41:15Z</time>
      </trkpt>
      <trkpt lat="37.18009103089571" lon="-4.465599982067943">
        <ele>518.76999999999998</ele>
        <time>2025-05-10T10:41:16Z</time>
      </trkpt>
      <trkpt lat="37.180094970390201" lon="-4.465369982644916">
        <ele>519.25</ele>
        <time>2025-05-10T10:41:17Z</time>
      </trkpt>
      <trkpt lat="37.180088013410568" lon="-4.465137971565127">
        <ele>519.73000000000002</ele>
        <time>2025-05-10T10:41:18Z</time>
      </trkpt>
      <trkpt lat="37.180068986490369" lon="-4.464896991848946">
        <ele>519.73000000000002</ele>
        <time>2025-05-10T10:41:19Z</time>
      </trkpt>
      <trkpt lat="37.180039985105395" lon="-4.464655006304383">
        <ele>520.21000000000004</ele>
        <time>2025-05-10T10:41:20Z</time>
      </trkpt>
      <trkpt lat="37.179525000974536" lon="-4.462301032617688">
        <ele>525.01999999999998</ele>
        <time>2025-05-10T10:41:30Z</time>
      </trkpt>
      <trkpt lat="37.179238004609942" lon="-4.46056597866118">
        <ele>530.78999999999996</ele>
        <time>2025-05-10T10:41:37Z</time>
      </trkpt>
      <trkpt lat="37.17923297546804" lon="-4.458659011870623">
        <ele>536.54999999999995</ele>
        <time>2025-05-10T10:41:44Z</time>
      </trkpt>
      <trkpt lat="37.178942039608955" lon="-4.455921985208988">
        <ele>546.64999999999998</ele>
        <time>2025-05-10T10:41:55Z</time>
      </trkpt>
      <trkpt lat="37.178543983027339" lon="-4.454674003645778">
        <ele>552.89999999999998</ele>
        <time>2025-05-10T10:42:02Z</time>
      </trkpt>
      <trkpt lat="37.177709983661771" lon="-4.453283026814461">
        <ele>563.95000000000005</ele>
        <time>2025-05-10T10:42:11Z</time>
      </trkpt>
      <trkpt lat="37.177145965397358" lon="-4.451810996979475">
        <ele>567.32000000000005</ele>
        <time>2025-05-10T10:42:20Z</time>
      </trkpt>
      <trkpt lat="37.176965000107884" lon="-4.450392024591565">
        <ele>566.35000000000002</ele>
        <time>2025-05-10T10:42:28Z</time>
      </trkpt>
      <trkpt lat="37.176728965714574" lon="-4.448120025917888">
        <ele>568.75999999999999</ele>
        <time>2025-05-10T10:42:40Z</time>
      </trkpt>
      <trkpt lat="37.17674296349287" lon="-4.447960015386343">
        <ele>569.72000000000003</ele>
        <time>2025-05-10T10:42:41Z</time>
      </trkpt>
      <trkpt lat="37.17676199041307" lon="-4.44780201651156">
        <ele>570.20000000000005</ele>
        <time>2025-05-10T10:42:42Z</time>
      </trkpt>
      <trkpt lat="37.176798032596707" lon="-4.447666984051466">
        <ele>570.67999999999995</ele>
        <time>2025-05-10T10:42:43Z</time>
      </trkpt>
      <trkpt lat="37.176840025931597" lon="-4.447548966854811">
        <ele>571.15999999999997</ele>
        <time>2025-05-10T10:42:44Z</time>
      </trkpt>
      <trkpt lat="37.176875984296203" lon="-4.447448970749974">
        <ele>571.63999999999999</ele>
        <time>2025-05-10T10:42:45Z</time>
      </trkpt>
      <trkpt lat="37.176930969581008" lon="-4.447297006845474">
        <ele>573.08000000000004</ele>
        <time>2025-05-10T10:42:50Z</time>
      </trkpt>
      <trkpt lat="37.176938010379672" lon="-4.447277979925275">
        <ele>573.08000000000004</ele>
        <time>2025-05-10T10:42:55Z</time>
      </trkpt>
      <trkpt lat="37.176986960694194" lon="-4.447230035439134">
        <ele>573.08000000000004</ele>
        <time>2025-05-10T10:42:56Z</time>
      </trkpt>
      <trkpt lat="37.17702099122107" lon="-4.447258030995727">
        <ele>573.08000000000004</ele>
        <time>2025-05-10T10:42:57Z</time>
      </trkpt>
      <trkpt lat="37.17706399038434" lon="-4.447292983531952">
        <ele>573.55999999999995</ele>
        <time>2025-05-10T10:42:58Z</time>
      </trkpt>
      <trkpt lat="37.177115036174655" lon="-4.447333971038461">
        <ele>573.55999999999995</ele>
        <time>2025-05-10T10:42:59Z</time>
      </trkpt>
      <trkpt lat="37.177602024748921" lon="-4.44771601818502">
        <ele>572.60000000000002</ele>
        <time>2025-05-10T10:43:09Z</time>
      </trkpt>
      <trkpt lat="37.177656004205346" lon="-4.447754994034767">
        <ele>572.60000000000002</ele>
        <time>2025-05-10T10:43:10Z</time>
      </trkpt>
      <trkpt lat="37.177711995318532" lon="-4.447793969884515">
        <ele>572.12</ele>
        <time>2025-05-10T10:43:11Z</time>
      </trkpt>
      <trkpt lat="37.177768992260098" lon="-4.447832023724914">
        <ele>572.12</ele>
        <time>2025-05-10T10:43:12Z</time>
      </trkpt>
      <trkpt lat="37.177825989201665" lon="-4.4478689879179">
        <ele>572.12</ele>
        <time>2025-05-10T10:43:13Z</time>
      </trkpt>
      <trkpt lat="37.178045008331537" lon="-4.448009971529245">
        <ele>571.63999999999999</ele>
        <time>2025-05-10T10:43:17Z</time>
      </trkpt>
      <trkpt lat="37.178257992491126" lon="-4.4481470156461">
        <ele>571.63999999999999</ele>
        <time>2025-05-10T10:43:21Z</time>
      </trkpt>
      <trkpt lat="37.178753027692437" lon="-4.448327980935574">
        <ele>571.63999999999999</ele>
        <time>2025-05-10T10:43:30Z</time>
      </trkpt>
      <trkpt lat="37.178816981613636" lon="-4.448350025340915">
        <ele>571.63999999999999</ele>
        <time>2025-05-10T10:43:31Z</time>
      </trkpt>
      <trkpt lat="37.179108001291752" lon="-4.448453960940242">
        <ele>571.15999999999997</ele>
        <time>2025-05-10T10:43:35Z</time>
      </trkpt>
      <trkpt lat="37.179802022874355" lon="-4.448564015328884">
        <ele>569.72000000000003</ele>
        <time>2025-05-10T10:43:45Z</time>
      </trkpt>
      <trkpt lat="37.179866982623935" lon="-4.448589999228716">
        <ele>569.72000000000003</ele>
        <time>2025-05-10T10:43:46Z</time>
      </trkpt>
      <trkpt lat="37.180433012545109" lon="-4.448810024186969">
        <ele>573.08000000000004</ele>
        <time>2025-05-10T10:43:55Z</time>
      </trkpt>
      <trkpt lat="37.180982027202845" lon="-4.449037006124854">
        <ele>575.49000000000001</ele>
        <time>2025-05-10T10:44:04Z</time>
      </trkpt>
      <trkpt lat="37.181042041629553" lon="-4.449066007509828">
        <ele>575.97000000000003</ele>
        <time>2025-05-10T10:44:05Z</time>
      </trkpt>
      <trkpt lat="37.181104989722371" lon="-4.449094003066421">
        <ele>575.97000000000003</ele>
        <time>2025-05-10T10:44:06Z</time>
      </trkpt>
      <trkpt lat="37.181230969727039" lon="-4.449149994179606">
        <ele>576.45000000000005</ele>
        <time>2025-05-10T10:44:08Z</time>
      </trkpt>
      <trkpt lat="37.18129500746727" lon="-4.44917899556458">
        <ele>576.45000000000005</ele>
        <time>2025-05-10T10:44:09Z</time>
      </trkpt>
      <trkpt lat="37.181885009631515" lon="-4.449456017464399">
        <ele>578.85000000000002</ele>
        <time>2025-05-10T10:44:20Z</time>
      </trkpt>
      <trkpt lat="37.181935971602798" lon="-4.449482001364231">
        <ele>578.85000000000002</ele>
        <time>2025-05-10T10:44:21Z</time>
      </trkpt>
      <trkpt lat="37.181979976594448" lon="-4.449503961950541">
        <ele>578.37</ele>
        <time>2025-05-10T10:44:22Z</time>
      </trkpt>
      <trkpt lat="37.18206899240613" lon="-4.449548972770572">
        <ele>579.33000000000004</ele>
        <time>2025-05-10T10:44:24Z</time>
      </trkpt>
      <trkpt lat="37.182180974632502" lon="-4.449575040489435">
        <ele>579.33000000000004</ele>
        <time>2025-05-10T10:44:26Z</time>
      </trkpt>
      <trkpt lat="37.182485992088914" lon="-4.449627008289099">
        <ele>579.80999999999995</ele>
        <time>2025-05-10T10:44:31Z</time>
      </trkpt>
      <trkpt lat="37.183326026424766" lon="-4.449704037979245">
        <ele>575.97000000000003</ele>
        <time>2025-05-10T10:44:41Z</time>
      </trkpt>
      <trkpt lat="37.184102023020387" lon="-4.449739996343851">
        <ele>569.24000000000001</ele>
        <time>2025-05-10T10:44:50Z</time>
      </trkpt>
      <trkpt lat="37.184182992205024" lon="-4.449749970808625">
        <ele>568.27999999999997</ele>
        <time>2025-05-10T10:44:51Z</time>
      </trkpt>
      <trkpt lat="37.18449697829783" lon="-4.449762962758541">
        <ele>565.87</ele>
        <time>2025-05-10T10:44:55Z</time>
      </trkpt>
      <trkpt lat="37.184571996331215" lon="-4.449762962758541">
        <ele>565.87</ele>
        <time>2025-05-10T10:44:56Z</time>
      </trkpt>
      <trkpt lat="37.185293007642031" lon="-4.44982398301363">
        <ele>563.47000000000003</ele>
        <time>2025-05-10T10:45:06Z</time>
      </trkpt>
      <trkpt lat="37.186132958158851" lon="-4.449895983561873">
        <ele>560.11000000000001</ele>
        <time>2025-05-10T10:45:16Z</time>
      </trkpt>
      <trkpt lat="37.186820022761822" lon="-4.449977958574891">
        <ele>558.17999999999995</ele>
        <time>2025-05-10T10:45:24Z</time>
      </trkpt>
      <trkpt lat="37.187178013846278" lon="-4.449977958574891">
        <ele>556.74000000000001</ele>
        <time>2025-05-10T10:45:28Z</time>
      </trkpt>
      <trkpt lat="37.18726996332407" lon="-4.449977958574891">
        <ele>556.74000000000001</ele>
        <time>2025-05-10T10:45:29Z</time>
      </trkpt>
      <trkpt lat="37.187546985223889" lon="-4.449972007423639">
        <ele>555.77999999999997</ele>
        <time>2025-05-10T10:45:32Z</time>
      </trkpt>
      <trkpt lat="37.187641030177474" lon="-4.449967984110117">
        <ele>555.77999999999997</ele>
        <time>2025-05-10T10:45:33Z</time>
      </trkpt>
      <trkpt lat="37.187733985483646" lon="-4.449963960796595">
        <ele>555.77999999999997</ele>
        <time>2025-05-10T10:45:34Z</time>
      </trkpt>
      <trkpt lat="37.18782601878047" lon="-4.449961027130485">
        <ele>555.29999999999995</ele>
        <time>2025-05-10T10:45:35Z</time>
      </trkpt>
      <trkpt lat="37.187927020713687" lon="-4.449955997988582">
        <ele>555.29999999999995</ele>
        <time>2025-05-10T10:45:36Z</time>
      </trkpt>
      <trkpt lat="37.188589023426175" lon="-4.449916016310453">
        <ele>551.92999999999995</ele>
        <time>2025-05-10T10:45:43Z</time>
      </trkpt>
      <trkpt lat="37.189104007557034" lon="-4.449940994381905">
        <ele>545.69000000000005</ele>
        <time>2025-05-10T10:45:49Z</time>
      </trkpt>
      <trkpt lat="37.189190005883574" lon="-4.449948035180569">
        <ele>544.24000000000001</ele>
        <time>2025-05-10T10:45:50Z</time>
      </trkpt>
      <trkpt lat="37.189279021695256" lon="-4.449954992160201">
        <ele>543.27999999999997</ele>
        <time>2025-05-10T10:45:51Z</time>
      </trkpt>
      <trkpt lat="37.189368959516287" lon="-4.449972007423639">
        <ele>541.84000000000003</ele>
        <time>2025-05-10T10:45:52Z</time>
      </trkpt>
      <trkpt lat="37.189454035833478" lon="-4.449990028515458">
        <ele>540.39999999999998</ele>
        <time>2025-05-10T10:45:53Z</time>
      </trkpt>
      <trkpt lat="37.189494017511606" lon="-4.449998997151852">
        <ele>539.44000000000005</ele>
        <time>2025-05-10T10:45:54Z</time>
      </trkpt>
      <trkpt lat="37.189637012779713" lon="-4.450055994093418">
        <ele>537.99000000000001</ele>
        <time>2025-05-10T10:45:55Z</time>
      </trkpt>
      <trkpt lat="37.190516022965312" lon="-4.450123971328139">
        <ele>527.89999999999998</ele>
        <time>2025-05-10T10:46:04Z</time>
      </trkpt>
      <trkpt lat="37.190720038488507" lon="-4.450054988265038">
        <ele>524.05999999999995</ele>
        <time>2025-05-10T10:46:06Z</time>
      </trkpt>
      <trkpt lat="37.190822968259454" lon="-4.449975024908781">
        <ele>522.13</ele>
        <time>2025-05-10T10:46:07Z</time>
      </trkpt>
      <trkpt lat="37.190921036526561" lon="-4.449900006875396">
        <ele>520.21000000000004</ele>
        <time>2025-05-10T10:46:08Z</time>
      </trkpt>
      <trkpt lat="37.190970992669463" lon="-4.449792969971895">
        <ele>518.28999999999996</ele>
        <time>2025-05-10T10:46:09Z</time>
      </trkpt>
      <trkpt lat="37.191017009317875" lon="-4.449677970260382">
        <ele>516.85000000000002</ele>
        <time>2025-05-10T10:46:10Z</time>
      </trkpt>
      <trkpt lat="37.191009968519211" lon="-4.449569005519152">
        <ele>514.91999999999996</ele>
        <time>2025-05-10T10:46:11Z</time>
      </trkpt>
      <trkpt lat="37.191000999882817" lon="-4.449432967230678">
        <ele>513.48000000000002</ele>
        <time>2025-05-10T10:46:12Z</time>
      </trkpt>
      <trkpt lat="37.190991025418043" lon="-4.449289971962571">
        <ele>512.03999999999996</ele>
        <time>2025-05-10T10:46:13Z</time>
      </trkpt>
      <trkpt lat="37.190981972962618" lon="-4.449152005836368">
        <ele>510.60000000000002</ele>
        <time>2025-05-10T10:46:14Z</time>
      </trkpt>
      <trkpt lat="37.190974010154605" lon="-4.449033988639712">
        <ele>509.63999999999999</ele>
        <time>2025-05-10T10:46:15Z</time>
      </trkpt>
      <trkpt lat="37.191007034853101" lon="-4.448901973664761">
        <ele>508.67000000000002</ele>
        <time>2025-05-10T10:46:16Z</time>
      </trkpt>
      <trkpt lat="37.191034024581313" lon="-4.448795020580292">
        <ele>507.70999999999998</ele>
        <time>2025-05-10T10:46:17Z</time>
      </trkpt>
      <trkpt lat="37.191060008481145" lon="-4.448689995333552">
        <ele>507.23000000000002</ele>
        <time>2025-05-10T10:46:18Z</time>
      </trkpt>
      <trkpt lat="37.191142989322543" lon="-4.448669962584972">
        <ele>506.26999999999998</ele>
        <time>2025-05-10T10:46:19Z</time>
      </trkpt>
      <trkpt lat="37.191228987649083" lon="-4.448701981455088">
        <ele>505.79000000000002</ele>
        <time>2025-05-10T10:46:20Z</time>
      </trkpt>
      <trkpt lat="37.191327977925539" lon="-4.448738023638725">
        <ele>505.79000000000002</ele>
        <time>2025-05-10T10:46:21Z</time>
      </trkpt>
      <trkpt lat="37.191427974030375" lon="-4.448774987831712">
        <ele>505.79000000000002</ele>
        <time>2025-05-10T10:46:22Z</time>
      </trkpt>
      <trkpt lat="37.191511038690805" lon="-4.448789991438389">
        <ele>505.79000000000002</ele>
        <time>2025-05-10T10:46:23Z</time>
      </trkpt>
      <trkpt lat="37.191612040624022" lon="-4.448752021417022">
        <ele>506.26999999999998</ele>
        <time>2025-05-10T10:46:24Z</time>
      </trkpt>
      <trkpt lat="37.191714970394969" lon="-4.448693012818694">
        <ele>506.75</ele>
        <time>2025-05-10T10:46:25Z</time>
      </trkpt>
      <trkpt lat="37.191799962893128" lon="-4.448588993400335">
        <ele>507.23000000000002</ele>
        <time>2025-05-10T10:46:26Z</time>
      </trkpt>
      <trkpt lat="37.191876992583275" lon="-4.448472987860441">
        <ele>507.70999999999998</ele>
        <time>2025-05-10T10:46:27Z</time>
      </trkpt>
      <trkpt lat="37.191928960382938" lon="-4.448351031169295">
        <ele>508.19</ele>
        <time>2025-05-10T10:46:28Z</time>
      </trkpt>
      <trkpt lat="37.191953016445041" lon="-4.448214992880821">
        <ele>509.16000000000003</ele>
        <time>2025-05-10T10:46:29Z</time>
      </trkpt>
      <trkpt lat="37.191975982859731" lon="-4.44808398373425">
        <ele>509.63999999999999</ele>
        <time>2025-05-10T10:46:30Z</time>
      </trkpt>
      <trkpt lat="37.192015964537859" lon="-4.447980970144272">
        <ele>510.12</ele>
        <time>2025-05-10T10:46:31Z</time>
      </trkpt>
      <trkpt lat="37.192067010328174" lon="-4.447878962382674">
        <ele>510.60000000000002</ele>
        <time>2025-05-10T10:46:32Z</time>
      </trkpt>
      <trkpt lat="37.192128030583262" lon="-4.447776032611728">
        <ele>511.07999999999998</ele>
        <time>2025-05-10T10:46:33Z</time>
      </trkpt>
      <trkpt lat="37.192222997546196" lon="-4.447700008749962">
        <ele>511.56</ele>
        <time>2025-05-10T10:46:34Z</time>
      </trkpt>
      <trkpt lat="37.192316958680749" lon="-4.447624990716577">
        <ele>512.03999999999996</ele>
        <time>2025-05-10T10:46:35Z</time>
      </trkpt>
      <trkpt lat="37.192434975877404" lon="-4.447532035410404">
        <ele>512.51999999999998</ele>
        <time>2025-05-10T10:46:36Z</time>
      </trkpt>
      <trkpt lat="37.192542012780905" lon="-4.447549972683191">
        <ele>513.48000000000002</ele>
        <time>2025-05-10T10:46:37Z</time>
      </trkpt>
      <trkpt lat="37.192659024149179" lon="-4.447634965181351">
        <ele>513.96000000000004</ele>
        <time>2025-05-10T10:46:38Z</time>
      </trkpt>
      <trkpt lat="37.19276899471879" lon="-4.447729010134935">
        <ele>514.44000000000005</ele>
        <time>2025-05-10T10:46:39Z</time>
      </trkpt>
      <trkpt lat="37.192882988601923" lon="-4.44782598875463">
        <ele>515.39999999999998</ele>
        <time>2025-05-10T10:46:40Z</time>
      </trkpt>
      <trkpt lat="37.192991031333804" lon="-4.447918022051454">
        <ele>515.88</ele>
        <time>2025-05-10T10:46:41Z</time>
      </trkpt>
      <trkpt lat="37.193127991631627" lon="-4.447968984022737">
        <ele>516.85000000000002</ele>
        <time>2025-05-10T10:46:42Z</time>
      </trkpt>
      <trkpt lat="37.193239973857999" lon="-4.447976024821401">
        <ele>517.80999999999995</ele>
        <time>2025-05-10T10:46:43Z</time>
      </trkpt>
      <trkpt lat="37.193349022418261" lon="-4.447966972365975">
        <ele>518.76999999999998</ele>
        <time>2025-05-10T10:46:44Z</time>
      </trkpt>
      <trkpt lat="37.193421022966504" lon="-4.447958003729582">
        <ele>519.73000000000002</ele>
        <time>2025-05-10T10:46:45Z</time>
      </trkpt>
      <trkpt lat="37.193449018523097" lon="-4.447863958775997">
        <ele>520.21000000000004</ele>
        <time>2025-05-10T10:46:46Z</time>
      </trkpt>
      <trkpt lat="37.193484976887703" lon="-4.447746025398374">
        <ele>520.69000000000005</ele>
        <time>2025-05-10T10:46:47Z</time>
      </trkpt>
      <trkpt lat="37.193480031564832" lon="-4.447619961574674">
        <ele>521.16999999999996</ele>
        <time>2025-05-10T10:46:48Z</time>
      </trkpt>
      <trkpt lat="37.193475002422929" lon="-4.447466991841793">
        <ele>521.16999999999996</ele>
        <time>2025-05-10T10:46:49Z</time>
      </trkpt>
      <trkpt lat="37.193468967452645" lon="-4.447299018502235">
        <ele>521.16999999999996</ele>
        <time>2025-05-10T10:46:50Z</time>
      </trkpt>
      <trkpt lat="37.193465027958155" lon="-4.44711796939373">
        <ele>521.16999999999996</ele>
        <time>2025-05-10T10:46:51Z</time>
      </trkpt>
      <trkpt lat="37.193519007414579" lon="-4.446955025196075">
        <ele>521.16999999999996</ele>
        <time>2025-05-10T10:46:52Z</time>
      </trkpt>
      <trkpt lat="37.19364901073277" lon="-4.446468958631158">
        <ele>522.13</ele>
        <time>2025-05-10T10:46:55Z</time>
      </trkpt>
      <trkpt lat="37.193630989640951" lon="-4.446294028311968">
        <ele>522.61000000000001</ele>
        <time>2025-05-10T10:46:56Z</time>
      </trkpt>
      <trkpt lat="37.193596037104726" lon="-4.445941988378763">
        <ele>523.09000000000003</ele>
        <time>2025-05-10T10:46:58Z</time>
      </trkpt>
      <trkpt lat="37.1936060115695" lon="-4.445775020867586">
        <ele>523.58000000000004</ele>
        <time>2025-05-10T10:46:59Z</time>
      </trkpt>
      <trkpt lat="37.193658985197544" lon="-4.445620039477944">
        <ele>523.58000000000004</ele>
        <time>2025-05-10T10:47:00Z</time>
      </trkpt>
      <trkpt lat="37.194328028708696" lon="-4.444627035409212">
        <ele>518.28999999999996</ele>
        <time>2025-05-10T10:47:07Z</time>
      </trkpt>
      <trkpt lat="37.194599015638232" lon="-4.444252029061317">
        <ele>515.39999999999998</ele>
        <time>2025-05-10T10:47:10Z</time>
      </trkpt>
      <trkpt lat="37.194648971781135" lon="-4.444104004651308">
        <ele>514.44000000000005</ele>
        <time>2025-05-10T10:47:11Z</time>
      </trkpt>
      <trkpt lat="37.194689959287643" lon="-4.443951034918428">
        <ele>513.96000000000004</ele>
        <time>2025-05-10T10:47:12Z</time>
      </trkpt>
      <trkpt lat="37.194769000634551" lon="-4.4436139985919">
        <ele>511.56</ele>
        <time>2025-05-10T10:47:14Z</time>
      </trkpt>
      <trkpt lat="37.194807976484299" lon="-4.443448036909103">
        <ele>510.60000000000002</ele>
        <time>2025-05-10T10:47:15Z</time>
      </trkpt>
      <trkpt lat="37.194862039759755" lon="-4.443296995013952">
        <ele>509.16000000000003</ele>
        <time>2025-05-10T10:47:16Z</time>
      </trkpt>
      <trkpt lat="37.194964969530702" lon="-4.443175960332155">
        <ele>507.23000000000002</ele>
        <time>2025-05-10T10:47:17Z</time>
      </trkpt>
      <trkpt lat="37.195055996999145" lon="-4.443105971440673">
        <ele>505.79000000000002</ele>
        <time>2025-05-10T10:47:18Z</time>
      </trkpt>
      <trkpt lat="37.195155993103981" lon="-4.443029025569558">
        <ele>504.82999999999998</ele>
        <time>2025-05-10T10:47:19Z</time>
      </trkpt>
      <trkpt lat="37.195249032229185" lon="-4.442951995879412">
        <ele>503.38999999999999</ele>
        <time>2025-05-10T10:47:20Z</time>
      </trkpt>
      <trkpt lat="37.195308962836862" lon="-4.442832972854376">
        <ele>502.43000000000001</ele>
        <time>2025-05-10T10:47:21Z</time>
      </trkpt>
      <trkpt lat="37.195322038605809" lon="-4.442672962322831">
        <ele>501.94999999999999</ele>
        <time>2025-05-10T10:47:22Z</time>
      </trkpt>
      <trkpt lat="37.195336036384106" lon="-4.442500965669751">
        <ele>500.5</ele>
        <time>2025-05-10T10:47:23Z</time>
      </trkpt>
      <trkpt lat="37.195351039990783" lon="-4.442323017865419">
        <ele>499.54000000000002</ele>
        <time>2025-05-10T10:47:24Z</time>
      </trkpt>
      <trkpt lat="37.19534701667726" lon="-4.441968966275454">
        <ele>498.10000000000002</ele>
        <time>2025-05-10T10:47:26Z</time>
      </trkpt>
      <trkpt lat="37.195299994200468" lon="-4.441803004592657">
        <ele>497.13999999999999</ele>
        <time>2025-05-10T10:47:27Z</time>
      </trkpt>
      <trkpt lat="37.195201003924012" lon="-4.441445013508201">
        <ele>495.69999999999999</ele>
        <time>2025-05-10T10:47:29Z</time>
      </trkpt>
      <trkpt lat="37.195192035287619" lon="-4.441253989934921">
        <ele>494.25999999999999</ele>
        <time>2025-05-10T10:47:30Z</time>
      </trkpt>
      <trkpt lat="37.195164961740375" lon="-4.440681003034115">
        <ele>490.88999999999999</ele>
        <time>2025-05-10T10:47:33Z</time>
      </trkpt>
      <trkpt lat="37.195130009204149" lon="-4.440485034137964">
        <ele>489.44999999999999</ele>
        <time>2025-05-10T10:47:34Z</time>
      </trkpt>
      <trkpt lat="37.195066977292299" lon="-4.440321000292897">
        <ele>488.00999999999999</ele>
        <time>2025-05-10T10:47:35Z</time>
      </trkpt>
      <trkpt lat="37.195005035027862" lon="-4.440158978104591">
        <ele>486.56</ele>
        <time>2025-05-10T10:47:36Z</time>
      </trkpt>
      <trkpt lat="37.194944014772773" lon="-4.439999973401427">
        <ele>485.12</ele>
        <time>2025-05-10T10:47:37Z</time>
      </trkpt>
      <trkpt lat="37.194918030872941" lon="-4.43983300589025">
        <ele>483.68000000000001</ele>
        <time>2025-05-10T10:47:38Z</time>
      </trkpt>
      <trkpt lat="37.1948959864676" lon="-4.439657991752029">
        <ele>482.24000000000001</ele>
        <time>2025-05-10T10:47:39Z</time>
      </trkpt>
      <trkpt lat="37.19455299898982" lon="-4.437905000522733">
        <ele>479.83999999999997</ele>
        <time>2025-05-10T10:47:48Z</time>
      </trkpt>
      <trkpt lat="37.194521985948086" lon="-4.437693022191525">
        <ele>480.31999999999999</ele>
        <time>2025-05-10T10:47:49Z</time>
      </trkpt>
      <trkpt lat="37.19450999982655" lon="-4.437483977526426">
        <ele>480.80000000000001</ele>
        <time>2025-05-10T10:47:50Z</time>
      </trkpt>
      <trkpt lat="37.194502037018538" lon="-4.437271999195218">
        <ele>481.27999999999997</ele>
        <time>2025-05-10T10:47:51Z</time>
      </trkpt>
      <trkpt lat="37.194662969559431" lon="-4.435394033789635">
        <ele>490.41000000000003</ele>
        <time>2025-05-10T10:48:00Z</time>
      </trkpt>
      <trkpt lat="37.194739999249578" lon="-4.435194041579962">
        <ele>491.85000000000002</ele>
        <time>2025-05-10T10:48:01Z</time>
      </trkpt>
      <trkpt lat="37.195050967857242" lon="-4.434377979487181">
        <ele>496.18000000000001</ele>
        <time>2025-05-10T10:48:05Z</time>
      </trkpt>
      <trkpt lat="37.195136966183782" lon="-4.434230038896203">
        <ele>497.13999999999999</ele>
        <time>2025-05-10T10:48:06Z</time>
      </trkpt>
      <trkpt lat="37.195237968116999" lon="-4.434072962030768">
        <ele>497.62</ele>
        <time>2025-05-10T10:48:07Z</time>
      </trkpt>
      <trkpt lat="37.195437038317323" lon="-4.433813039213419">
        <ele>498.57999999999998</ele>
        <time>2025-05-10T10:48:09Z</time>
      </trkpt>
      <trkpt lat="37.195482971146703" lon="-4.433700973168016">
        <ele>499.06</ele>
        <time>2025-05-10T10:48:10Z</time>
      </trkpt>
      <trkpt lat="37.195491017773747" lon="-4.433568036183715">
        <ele>499.54000000000002</ele>
        <time>2025-05-10T10:48:11Z</time>
      </trkpt>
      <trkpt lat="37.195501998066902" lon="-4.433391010388732">
        <ele>500.01999999999998</ele>
        <time>2025-05-10T10:48:12Z</time>
      </trkpt>
      <trkpt lat="37.195429997518659" lon="-4.433291014283896">
        <ele>500.5</ele>
        <time>2025-05-10T10:48:13Z</time>
      </trkpt>
      <trkpt lat="37.195324972271919" lon="-4.433210967108607">
        <ele>501.45999999999998</ele>
        <time>2025-05-10T10:48:14Z</time>
      </trkpt>
      <trkpt lat="37.195221036672592" lon="-4.433180959895253">
        <ele>502.43000000000001</ele>
        <time>2025-05-10T10:48:15Z</time>
      </trkpt>
      <trkpt lat="37.195108970627189" lon="-4.433203004300594">
        <ele>502.91000000000003</ele>
        <time>2025-05-10T10:48:16Z</time>
      </trkpt>
      <trkpt lat="37.19498299062252" lon="-4.433228988200426">
        <ele>503.38999999999999</ele>
        <time>2025-05-10T10:48:17Z</time>
      </trkpt>
      <trkpt lat="37.194733964279294" lon="-4.43327902816236">
        <ele>504.35000000000002</ele>
        <time>2025-05-10T10:48:19Z</time>
      </trkpt>
      <trkpt lat="37.194617036730051" lon="-4.43330199457705">
        <ele>505.31</ele>
        <time>2025-05-10T10:48:20Z</time>
      </trkpt>
      <trkpt lat="37.194515028968453" lon="-4.433272993192077">
        <ele>505.79000000000002</ele>
        <time>2025-05-10T10:48:21Z</time>
      </trkpt>
      <trkpt lat="37.194418972358108" lon="-4.433232005685568">
        <ele>506.75</ele>
        <time>2025-05-10T10:48:22Z</time>
      </trkpt>
      <trkpt lat="37.194330962374806" lon="-4.433142989873886">
        <ele>507.70999999999998</ele>
        <time>2025-05-10T10:48:23Z</time>
      </trkpt>
      <trkpt lat="37.194263990968466" lon="-4.433022039011121">
        <ele>508.19</ele>
        <time>2025-05-10T10:48:24Z</time>
      </trkpt>
      <trkpt lat="37.194202970713377" lon="-4.432867979630828">
        <ele>509.16000000000003</ele>
        <time>2025-05-10T10:48:25Z</time>
      </trkpt>
      <trkpt lat="37.194135999307036" lon="-4.432702017948031">
        <ele>510.12</ele>
        <time>2025-05-10T10:48:26Z</time>
      </trkpt>
      <trkpt lat="37.193970959633589" lon="-4.432148979976773">
        <ele>513</ele>
        <time>2025-05-10T10:48:29Z</time>
      </trkpt>
      <trkpt lat="37.193943969905376" lon="-4.431938007473946">
        <ele>513.48000000000002</ele>
        <time>2025-05-10T10:48:30Z</time>
      </trkpt>
      <trkpt lat="37.193854032084346" lon="-4.430339997634292">
        <ele>522.61000000000001</ele>
        <time>2025-05-10T10:48:37Z</time>
      </trkpt>
      <trkpt lat="37.193876998499036" lon="-4.430123995989561">
        <ele>524.05999999999995</ele>
        <time>2025-05-10T10:48:38Z</time>
      </trkpt>
      <trkpt lat="37.193918991833925" lon="-4.429921992123127">
        <ele>525.5</ele>
        <time>2025-05-10T10:48:39Z</time>
      </trkpt>
      <trkpt lat="37.193957967683673" lon="-4.42973499186337">
        <ele>526.94000000000005</ele>
        <time>2025-05-10T10:48:40Z</time>
      </trkpt>
      <trkpt lat="37.194008007645607" lon="-4.429556960240006">
        <ele>528.38</ele>
        <time>2025-05-10T10:48:41Z</time>
      </trkpt>
      <trkpt lat="37.194088976830244" lon="-4.429401978850365">
        <ele>529.34000000000003</ele>
        <time>2025-05-10T10:48:42Z</time>
      </trkpt>
      <trkpt lat="37.194188972935081" lon="-4.429269963875413">
        <ele>530.78999999999996</ele>
        <time>2025-05-10T10:48:43Z</time>
      </trkpt>
      <trkpt lat="37.194297015666962" lon="-4.429151024669409">
        <ele>531.75</ele>
        <time>2025-05-10T10:48:44Z</time>
      </trkpt>
      <trkpt lat="37.194419978186488" lon="-4.429038036614656">
        <ele>532.71000000000004</ele>
        <time>2025-05-10T10:48:45Z</time>
      </trkpt>
      <trkpt lat="37.194630028679967" lon="-4.428765960037708">
        <ele>534.63</ele>
        <time>2025-05-10T10:48:47Z</time>
      </trkpt>
      <trkpt lat="37.194727007299662" lon="-4.428620031103492">
        <ele>535.59000000000003</ele>
        <time>2025-05-10T10:48:48Z</time>
      </trkpt>
      <trkpt lat="37.19479096122086" lon="-4.428457003086805">
        <ele>536.54999999999995</ele>
        <time>2025-05-10T10:48:49Z</time>
      </trkpt>
      <trkpt lat="37.195127997547388" lon="-4.427468022331595">
        <ele>538.96000000000004</ele>
        <time>2025-05-10T10:48:55Z</time>
      </trkpt>
      <trkpt lat="37.195225981995463" lon="-4.427342964336276">
        <ele>539.44000000000005</ele>
        <time>2025-05-10T10:48:56Z</time>
      </trkpt>
      <trkpt lat="37.196094011887908" lon="-4.426229009404779">
        <ele>541.84000000000003</ele>
        <time>2025-05-10T10:49:03Z</time>
      </trkpt>
      <trkpt lat="37.197552965953946" lon="-4.42416999489069">
        <ele>551.45000000000005</ele>
        <time>2025-05-10T10:49:14Z</time>
      </trkpt>
      <trkpt lat="37.198339020833373" lon="-4.422796033322811">
        <ele>559.13999999999999</ele>
        <time>2025-05-10T10:49:21Z</time>
      </trkpt>
      <trkpt lat="37.198991971090436" lon="-4.421296007931233">
        <ele>570.20000000000005</ele>
        <time>2025-05-10T10:49:29Z</time>
      </trkpt>
      <trkpt lat="37.199070006608963" lon="-4.421092998236418">
        <ele>571.63999999999999</ele>
        <time>2025-05-10T10:49:30Z</time>
      </trkpt>
      <trkpt lat="37.199119040742517" lon="-4.420866016298533">
        <ele>573.08000000000004</ele>
        <time>2025-05-10T10:49:31Z</time>
      </trkpt>
      <trkpt lat="37.199337976053357" lon="-4.419961022213101">
        <ele>578.85000000000002</ele>
        <time>2025-05-10T10:49:35Z</time>
      </trkpt>
      <trkpt lat="37.199412994086742" lon="-4.419745020568371">
        <ele>580.28999999999996</ele>
        <time>2025-05-10T10:49:36Z</time>
      </trkpt>
      <trkpt lat="37.199516007676721" lon="-4.419543016701937">
        <ele>582.22000000000003</ele>
        <time>2025-05-10T10:49:37Z</time>
      </trkpt>
      <trkpt lat="37.200277000665665" lon="-4.418119015172124">
        <ele>591.35000000000002</ele>
        <time>2025-05-10T10:49:45Z</time>
      </trkpt>
      <trkpt lat="37.200629040598869" lon="-4.417204968631268">
        <ele>596.63999999999999</ele>
        <time>2025-05-10T10:49:51Z</time>
      </trkpt>
      <trkpt lat="37.200770024210215" lon="-4.41669300198555">
        <ele>600</ele>
        <time>2025-05-10T10:49:54Z</time>
      </trkpt>
      <trkpt lat="37.200835989788175" lon="-4.416522011160851">
        <ele>601.44000000000005</ele>
        <time>2025-05-10T10:49:55Z</time>
      </trkpt>
      <trkpt lat="37.200986025854945" lon="-4.416168965399265">
        <ele>603.85000000000002</ele>
        <time>2025-05-10T10:49:57Z</time>
      </trkpt>
      <trkpt lat="37.201046962291002" lon="-4.415978025645018">
        <ele>604.80999999999995</ele>
        <time>2025-05-10T10:49:58Z</time>
      </trkpt>
      <trkpt lat="37.201520036906004" lon="-4.414186980575323">
        <ele>609.61000000000001</ele>
        <time>2025-05-10T10:50:07Z</time>
      </trkpt>
      <trkpt lat="37.201592959463596" lon="-4.41400702111423">
        <ele>609.61000000000001</ele>
        <time>2025-05-10T10:50:08Z</time>
      </trkpt>
      <trkpt lat="37.202241970226169" lon="-4.412364000454545">
        <ele>611.05999999999995</ele>
        <time>2025-05-10T10:50:16Z</time>
      </trkpt>
      <trkpt lat="37.203111005946994" lon="-4.41007599234581">
        <ele>612.5</ele>
        <time>2025-05-10T10:50:27Z</time>
      </trkpt>
      <trkpt lat="37.203223994001746" lon="-4.409920005127788">
        <ele>612.5</ele>
        <time>2025-05-10T10:50:28Z</time>
      </trkpt>
      <trkpt lat="37.20333999954164" lon="-4.409759994596243">
        <ele>612.01999999999998</ele>
        <time>2025-05-10T10:50:29Z</time>
      </trkpt>
      <trkpt lat="37.203663038089871" lon="-4.409273006021977">
        <ele>610.57000000000005</ele>
        <time>2025-05-10T10:50:32Z</time>
      </trkpt>
      <trkpt lat="37.203792035579681" lon="-4.409135961905122">
        <ele>610.09000000000003</ele>
        <time>2025-05-10T10:50:33Z</time>
      </trkpt>
      <trkpt lat="37.204182967543602" lon="-4.408746035769582">
        <ele>609.13</ele>
        <time>2025-05-10T10:50:36Z</time>
      </trkpt>
      <trkpt lat="37.20428204163909" lon="-4.408588036894798">
        <ele>608.16999999999996</ele>
        <time>2025-05-10T10:50:37Z</time>
      </trkpt>
      <trkpt lat="37.204364016652107" lon="-4.408403970301151">
        <ele>607.69000000000005</ele>
        <time>2025-05-10T10:50:38Z</time>
      </trkpt>
      <trkpt lat="37.204444985836744" lon="-4.408224010840058">
        <ele>607.21000000000004</ele>
        <time>2025-05-10T10:50:39Z</time>
      </trkpt>
      <trkpt lat="37.204525033012033" lon="-4.408045979216695">
        <ele>607.69000000000005</ele>
        <time>2025-05-10T10:50:40Z</time>
      </trkpt>
      <trkpt lat="37.20469300635159" lon="-4.407707015052438">
        <ele>607.21000000000004</ele>
        <time>2025-05-10T10:50:42Z</time>
      </trkpt>
      <trkpt lat="37.204782022163272" lon="-4.407544992864132">
        <ele>607.69000000000005</ele>
        <time>2025-05-10T10:50:43Z</time>
      </trkpt>
      <trkpt lat="37.204880006611347" lon="-4.407383976504207">
        <ele>607.69000000000005</ele>
        <time>2025-05-10T10:50:44Z</time>
      </trkpt>
      <trkpt lat="37.205009004101157" lon="-4.407257996499538">
        <ele>608.16999999999996</ele>
        <time>2025-05-10T10:50:45Z</time>
      </trkpt>
      <trkpt lat="37.205141019076109" lon="-4.40713101066649">
        <ele>608.16999999999996</ele>
        <time>2025-05-10T10:50:46Z</time>
      </trkpt>
      <trkpt lat="37.2052710223943" lon="-4.407005030661821">
        <ele>608.64999999999998</ele>
        <time>2025-05-10T10:50:47Z</time>
      </trkpt>
      <trkpt lat="37.2054039593786" lon="-4.406876033172011">
        <ele>609.13</ele>
        <time>2025-05-10T10:50:48Z</time>
      </trkpt>
      <trkpt lat="37.205564975738525" lon="-4.406719040125608">
        <ele>609.61000000000001</ele>
        <time>2025-05-10T10:50:49Z</time>
      </trkpt>
      <trkpt lat="37.207006998360157" lon="-4.404759015887976">
        <ele>612.98000000000002</ele>
        <time>2025-05-10T10:51:01Z</time>
      </trkpt>
      <trkpt lat="37.207121998071671" lon="-4.404595987871289">
        <ele>613.46000000000004</ele>
        <time>2025-05-10T10:51:02Z</time>
      </trkpt>
      <trkpt lat="37.207211013883352" lon="-4.404405970126391">
        <ele>613.94000000000005</ele>
        <time>2025-05-10T10:51:03Z</time>
      </trkpt>
      <trkpt lat="37.207574034109712" lon="-4.403469040989876">
        <ele>612.98000000000002</ele>
        <time>2025-05-10T10:51:08Z</time>
      </trkpt>
      <trkpt lat="37.207620972767472" lon="-4.403282962739468">
        <ele>612.5</ele>
        <time>2025-05-10T10:51:09Z</time>
      </trkpt>
      <trkpt lat="37.207661960273981" lon="-4.403117001056671">
        <ele>612.5</ele>
        <time>2025-05-10T10:51:10Z</time>
      </trkpt>
      <trkpt lat="37.207702025771141" lon="-4.402982974424958">
        <ele>612.01999999999998</ele>
        <time>2025-05-10T10:51:11Z</time>
      </trkpt>
      <trkpt lat="37.207756005227566" lon="-4.402874009683728">
        <ele>612.01999999999998</ele>
        <time>2025-05-10T10:51:12Z</time>
      </trkpt>
      <trkpt lat="37.207818031311035" lon="-4.402750041335821">
        <ele>612.01999999999998</ele>
        <time>2025-05-10T10:51:13Z</time>
      </trkpt>
      <trkpt lat="37.207907969132066" lon="-4.402708970010281">
        <ele>611.53999999999996</ele>
        <time>2025-05-10T10:51:14Z</time>
      </trkpt>
      <trkpt lat="37.208026992157102" lon="-4.402655996382237">
        <ele>611.05999999999995</ele>
        <time>2025-05-10T10:51:15Z</time>
      </trkpt>
      <trkpt lat="37.20828004181385" lon="-4.402526998892427">
        <ele>610.09000000000003</ele>
        <time>2025-05-10T10:51:17Z</time>
      </trkpt>
      <trkpt lat="37.208391018211842" lon="-4.402429014444351">
        <ele>609.61000000000001</ele>
        <time>2025-05-10T10:51:18Z</time>
      </trkpt>
      <trkpt lat="37.208464024588466" lon="-4.402304962277412">
        <ele>609.13</ele>
        <time>2025-05-10T10:51:19Z</time>
      </trkpt>
      <trkpt lat="37.208505012094975" lon="-4.402166996151209">
        <ele>608.64999999999998</ele>
        <time>2025-05-10T10:51:20Z</time>
      </trkpt>
      <trkpt lat="37.208548011258245" lon="-4.40201997756958">
        <ele>608.16999999999996</ele>
        <time>2025-05-10T10:51:21Z</time>
      </trkpt>
      <trkpt lat="37.208548011258245" lon="-4.401901038363576">
        <ele>608.16999999999996</ele>
        <time>2025-05-10T10:51:22Z</time>
      </trkpt>
      <trkpt lat="37.208548011258245" lon="-4.401748990640044">
        <ele>608.16999999999996</ele>
        <time>2025-05-10T10:51:23Z</time>
      </trkpt>
      <trkpt lat="37.208548011258245" lon="-4.401569031178951">
        <ele>608.16999999999996</ele>
        <time>2025-05-10T10:51:24Z</time>
      </trkpt>
      <trkpt lat="37.208577012643218" lon="-4.401469035074115">
        <ele>608.64999999999998</ele>
        <time>2025-05-10T10:51:25Z</time>
      </trkpt>
      <trkpt lat="37.208630992099643" lon="-4.401340037584305">
        <ele>609.61000000000001</ele>
        <time>2025-05-10T10:51:26Z</time>
      </trkpt>
      <trkpt lat="37.208768036216497" lon="-4.401064021512866">
        <ele>610.57000000000005</ele>
        <time>2025-05-10T10:51:28Z</time>
      </trkpt>
      <trkpt lat="37.208840036764741" lon="-4.40092203207314">
        <ele>611.05999999999995</ele>
        <time>2025-05-10T10:51:29Z</time>
      </trkpt>
      <trkpt lat="37.208887981250882" lon="-4.400765961036086">
        <ele>611.05999999999995</ele>
        <time>2025-05-10T10:51:30Z</time>
      </trkpt>
      <trkpt lat="37.209168020635843" lon="-4.399266019463539">
        <ele>612.98000000000002</ele>
        <time>2025-05-10T10:51:38Z</time>
      </trkpt>
      <trkpt lat="37.209436995908618" lon="-4.398236973211169">
        <ele>618.25999999999999</ele>
        <time>2025-05-10T10:51:44Z</time>
      </trkpt>
      <trkpt lat="37.209521988406777" lon="-4.398107975721359">
        <ele>619.23000000000002</ele>
        <time>2025-05-10T10:51:45Z</time>
      </trkpt>
      <trkpt lat="37.209609998390079" lon="-4.397995993494988">
        <ele>620.19000000000005</ele>
        <time>2025-05-10T10:51:46Z</time>
      </trkpt>
      <trkpt lat="37.209692979231477" lon="-4.397891974076629">
        <ele>621.14999999999998</ele>
        <time>2025-05-10T10:51:47Z</time>
      </trkpt>
      <trkpt lat="37.20976497977972" lon="-4.397799018770456">
        <ele>622.11000000000001</ele>
        <time>2025-05-10T10:51:48Z</time>
      </trkpt>
      <trkpt lat="37.209831029176712" lon="-4.397716959938407">
        <ele>623.07000000000005</ele>
        <time>2025-05-10T10:51:49Z</time>
      </trkpt>
      <trkpt lat="37.209945023059845" lon="-4.397572036832571">
        <ele>624.99000000000001</ele>
        <time>2025-05-10T10:51:51Z</time>
      </trkpt>
      <trkpt lat="37.210006965324283" lon="-4.397491989657283">
        <ele>625.96000000000004</ele>
        <time>2025-05-10T10:51:52Z</time>
      </trkpt>
      <trkpt lat="37.210006965324283" lon="-4.397408002987504">
        <ele>626.44000000000005</ele>
        <time>2025-05-10T10:51:53Z</time>
      </trkpt>
      <trkpt lat="37.209997996687889" lon="-4.397288979962468">
        <ele>626.91999999999996</ele>
        <time>2025-05-10T10:51:54Z</time>
      </trkpt>
      <trkpt lat="37.209967989474535" lon="-4.397182026877999">
        <ele>627.39999999999998</ele>
        <time>2025-05-10T10:51:55Z</time>
      </trkpt>
      <trkpt lat="37.209938988089561" lon="-4.39707700163126">
        <ele>628.36000000000001</ele>
        <time>2025-05-10T10:51:56Z</time>
      </trkpt>
      <trkpt lat="37.209908980876207" lon="-4.396969964727759">
        <ele>629.79999999999995</ele>
        <time>2025-05-10T10:51:57Z</time>
      </trkpt>
      <trkpt lat="37.209877967834473" lon="-4.396860999986529">
        <ele>630.27999999999997</ele>
        <time>2025-05-10T10:51:58Z</time>
      </trkpt>
      <trkpt lat="37.209755005314946" lon="-4.396360013633966">
        <ele>634.13</ele>
        <time>2025-05-10T10:52:04Z</time>
      </trkpt>
      <trkpt lat="37.209755005314946" lon="-4.396360013633966">
        <ele>635.57000000000005</ele>
        <time>2025-05-10T10:52:13Z</time>
      </trkpt>
      <trkpt lat="37.209746958687901" lon="-4.396315002813935">
        <ele>636.04999999999995</ele>
        <time>2025-05-10T10:52:49Z</time>
      </trkpt>
      <trkpt lat="37.209674036130309" lon="-4.395922981202602">
        <ele>638.45000000000005</ele>
        <time>2025-05-10T10:52:54Z</time>
      </trkpt>
      <trkpt lat="37.209387961775064" lon="-4.394938023760915">
        <ele>641.34000000000003</ele>
        <time>2025-05-10T10:53:03Z</time>
      </trkpt>
      <trkpt lat="37.209323002025485" lon="-4.394681034609675">
        <ele>642.29999999999995</ele>
        <time>2025-05-10T10:53:05Z</time>
      </trkpt>
      <trkpt lat="37.209297018125653" lon="-4.394535021856427">
        <ele>643.25999999999999</ele>
        <time>2025-05-10T10:53:06Z</time>
      </trkpt>
      <trkpt lat="37.20922602340579" lon="-4.39387402497232">
        <ele>645.17999999999995</ele>
        <time>2025-05-10T10:53:10Z</time>
      </trkpt>
      <trkpt lat="37.209148993715644" lon="-4.39338200725615">
        <ele>647.10000000000002</ele>
        <time>2025-05-10T10:53:13Z</time>
      </trkpt>
      <trkpt lat="37.209134995937347" lon="-4.39323297701776">
        <ele>648.07000000000005</ele>
        <time>2025-05-10T10:53:14Z</time>
      </trkpt>
      <trkpt lat="37.209145976230502" lon="-4.393084030598402">
        <ele>648.54999999999995</ele>
        <time>2025-05-10T10:53:15Z</time>
      </trkpt>
      <trkpt lat="37.209192998707294" lon="-4.392944974824786">
        <ele>649.50999999999999</ele>
        <time>2025-05-10T10:53:16Z</time>
      </trkpt>
      <trkpt lat="37.20926801674068" lon="-4.392804997041822">
        <ele>649.99000000000001</ele>
        <time>2025-05-10T10:53:17Z</time>
      </trkpt>
      <trkpt lat="37.209348985925317" lon="-4.392658984288573">
        <ele>650.47000000000003</ele>
        <time>2025-05-10T10:53:18Z</time>
      </trkpt>
      <trkpt lat="37.209432972595096" lon="-4.392513977363706">
        <ele>650.47000000000003</ele>
        <time>2025-05-10T10:53:19Z</time>
      </trkpt>
      <trkpt lat="37.209499021992087" lon="-4.392354972660542">
        <ele>650.95000000000005</ele>
        <time>2025-05-10T10:53:20Z</time>
      </trkpt>
      <trkpt lat="37.20954998396337" lon="-4.39217995852232">
        <ele>651.42999999999995</ele>
        <time>2025-05-10T10:53:21Z</time>
      </trkpt>
      <trkpt lat="37.209695996716619" lon="-4.391650976613164">
        <ele>652.38999999999999</ele>
        <time>2025-05-10T10:53:24Z</time>
      </trkpt>
      <trkpt lat="37.209706977009773" lon="-4.391471017152071">
        <ele>652.38999999999999</ele>
        <time>2025-05-10T10:53:25Z</time>
      </trkpt>
      <trkpt lat="37.209700020030141" lon="-4.391302037984133">
        <ele>652.38999999999999</ele>
        <time>2025-05-10T10:53:26Z</time>
      </trkpt>
      <trkpt lat="37.209665989503264" lon="-4.391144961118698">
        <ele>652.87</ele>
        <time>2025-05-10T10:53:27Z</time>
      </trkpt>
      <trkpt lat="37.209633970633149" lon="-4.390999032184482">
        <ele>653.35000000000002</ele>
        <time>2025-05-10T10:53:28Z</time>
      </trkpt>
      <trkpt lat="37.209603041410446" lon="-4.390857964754105">
        <ele>653.83000000000004</ele>
        <time>2025-05-10T10:53:29Z</time>
      </trkpt>
      <trkpt lat="37.209627013653517" lon="-4.390708012506366">
        <ele>654.30999999999995</ele>
        <time>2025-05-10T10:53:30Z</time>
      </trkpt>
      <trkpt lat="37.209659032523632" lon="-4.390557976439595">
        <ele>655.27999999999997</ele>
        <time>2025-05-10T10:53:31Z</time>
      </trkpt>
      <trkpt lat="37.209691973403096" lon="-4.390402995049954">
        <ele>655.75999999999999</ele>
        <time>2025-05-10T10:53:32Z</time>
      </trkpt>
      <trkpt lat="37.209963966161013" lon="-4.389211004599929">
        <ele>662.00999999999999</ele>
        <time>2025-05-10T10:53:39Z</time>
      </trkpt>
      <trkpt lat="37.210033033043146" lon="-4.389042025431991">
        <ele>662.97000000000003</ele>
        <time>2025-05-10T10:53:40Z</time>
      </trkpt>
      <trkpt lat="37.210307959467173" lon="-4.388566017150879">
        <ele>665.85000000000002</ele>
        <time>2025-05-10T10:53:43Z</time>
      </trkpt>
      <trkpt lat="37.210683971643448" lon="-4.387591034173966">
        <ele>665.37</ele>
        <time>2025-05-10T10:53:50Z</time>
      </trkpt>
      <trkpt lat="37.210785979405046" lon="-4.387313006445766">
        <ele>664.88999999999999</ele>
        <time>2025-05-10T10:53:53Z</time>
      </trkpt>
      <trkpt lat="37.210813974961638" lon="-4.387235976755619">
        <ele>664.40999999999997</ele>
        <time>2025-05-10T10:53:54Z</time>
      </trkpt>
      <trkpt lat="37.21083995886147" lon="-4.387166993692517">
        <ele>663.92999999999995</ele>
        <time>2025-05-10T10:53:55Z</time>
      </trkpt>
      <trkpt lat="37.210862003266811" lon="-4.387105973437429">
        <ele>663.45000000000005</ele>
        <time>2025-05-10T10:53:56Z</time>
      </trkpt>
      <trkpt lat="37.210882036015391" lon="-4.387052999809384">
        <ele>662.97000000000003</ele>
        <time>2025-05-10T10:53:57Z</time>
      </trkpt>
      <trkpt lat="37.210898967459798" lon="-4.387005977332592">
        <ele>662.49000000000001</ele>
        <time>2025-05-10T10:53:58Z</time>
      </trkpt>
      <trkpt lat="37.210932997986674" lon="-4.386915033683181">
        <ele>661.51999999999998</ele>
        <time>2025-05-10T10:54:00Z</time>
      </trkpt>
      <trkpt lat="37.210950013250113" lon="-4.386869017034769">
        <ele>661.51999999999998</ele>
        <time>2025-05-10T10:54:01Z</time>
      </trkpt>
      <trkpt lat="37.210972979664803" lon="-4.3868069909513">
        <ele>661.51999999999998</ele>
        <time>2025-05-10T10:54:02Z</time>
      </trkpt>
      <trkpt lat="37.210977002978325" lon="-4.386780001223087">
        <ele>661.51999999999998</ele>
        <time>2025-05-10T10:54:03Z</time>
      </trkpt>
      <trkpt lat="37.210986977443099" lon="-4.386715963482857">
        <ele>661.03999999999996</ele>
        <time>2025-05-10T10:54:04Z</time>
      </trkpt>
      <trkpt lat="37.210998963564634" lon="-4.386639017611742">
        <ele>661.03999999999996</ele>
        <time>2025-05-10T10:54:05Z</time>
      </trkpt>
      <trkpt lat="37.211013967171311" lon="-4.386542961001396">
        <ele>661.03999999999996</ele>
        <time>2025-05-10T10:54:06Z</time>
      </trkpt>
      <trkpt lat="37.211032994091511" lon="-4.386426033452153">
        <ele>661.51999999999998</ele>
        <time>2025-05-10T10:54:07Z</time>
      </trkpt>
      <trkpt lat="37.211065012961626" lon="-4.386306004598737">
        <ele>662.00999999999999</ele>
        <time>2025-05-10T10:54:08Z</time>
      </trkpt>
      <trkpt lat="37.211107006296515" lon="-4.386170972138643">
        <ele>662.97000000000003</ele>
        <time>2025-05-10T10:54:09Z</time>
      </trkpt>
      <trkpt lat="37.211314039304852" lon="-4.385311994701624">
        <ele>666.80999999999995</ele>
        <time>2025-05-10T10:54:14Z</time>
      </trkpt>
      <trkpt lat="37.21133298240602" lon="-4.385096998885274">
        <ele>667.28999999999996</ele>
        <time>2025-05-10T10:54:15Z</time>
      </trkpt>
      <trkpt lat="37.211252013221383" lon="-4.384009027853608">
        <ele>674.01999999999998</ele>
        <time>2025-05-10T10:54:21Z</time>
      </trkpt>
      <trkpt lat="37.211261987686157" lon="-4.383944990113378">
        <ele>675.46000000000004</ele>
        <time>2025-05-10T10:54:22Z</time>
      </trkpt>
      <trkpt lat="37.211312027648091" lon="-4.383908025920391">
        <ele>676.90999999999997</ele>
        <time>2025-05-10T10:54:23Z</time>
      </trkpt>
      <trkpt lat="37.211366007104516" lon="-4.383895033970475">
        <ele>678.35000000000002</ele>
        <time>2025-05-10T10:54:24Z</time>
      </trkpt>
      <trkpt lat="37.211442030966282" lon="-4.383913977071643">
        <ele>680.26999999999998</ele>
        <time>2025-05-10T10:54:25Z</time>
      </trkpt>
      <trkpt lat="37.211518976837397" lon="-4.383942978456616">
        <ele>681.71000000000004</ele>
        <time>2025-05-10T10:54:26Z</time>
      </trkpt>
      <trkpt lat="37.21158997155726" lon="-4.384025959298015">
        <ele>683.63</ele>
        <time>2025-05-10T10:54:27Z</time>
      </trkpt>
      <trkpt lat="37.211672030389309" lon="-4.384123021736741">
        <ele>685.55999999999995</ele>
        <time>2025-05-10T10:54:28Z</time>
      </trkpt>
      <trkpt lat="37.212366973981261" lon="-4.384973030537367">
        <ele>698.52999999999997</ele>
        <time>2025-05-10T10:54:36Z</time>
      </trkpt>
      <trkpt lat="37.212507035583258" lon="-4.385150978341699">
        <ele>700.46000000000004</ele>
        <time>2025-05-10T10:54:38Z</time>
      </trkpt>
      <trkpt lat="37.212567972019315" lon="-4.3852199614048">
        <ele>701.41999999999996</ele>
        <time>2025-05-10T10:54:39Z</time>
      </trkpt>
      <trkpt lat="37.212621029466391" lon="-4.385229013860226">
        <ele>702.38</ele>
        <time>2025-05-10T10:54:40Z</time>
      </trkpt>
      <trkpt lat="37.212662016972899" lon="-4.385234965011478">
        <ele>703.34000000000003</ele>
        <time>2025-05-10T10:54:41Z</time>
      </trkpt>
      <trkpt lat="37.212705016136169" lon="-4.385206969454885">
        <ele>704.29999999999995</ele>
        <time>2025-05-10T10:54:42Z</time>
      </trkpt>
      <trkpt lat="37.212731000036001" lon="-4.385147960856557">
        <ele>705.25999999999999</ele>
        <time>2025-05-10T10:54:43Z</time>
      </trkpt>
      <trkpt lat="37.212765030562878" lon="-4.385073026642203">
        <ele>705.75</ele>
        <time>2025-05-10T10:54:44Z</time>
      </trkpt>
      <trkpt lat="37.212801994755864" lon="-4.384992979466915">
        <ele>706.71000000000004</ele>
        <time>2025-05-10T10:54:45Z</time>
      </trkpt>
      <trkpt lat="37.212838036939502" lon="-4.384913016110659">
        <ele>707.66999999999996</ele>
        <time>2025-05-10T10:54:46Z</time>
      </trkpt>
      <trkpt lat="37.212901990860701" lon="-4.384772032499313">
        <ele>709.59000000000003</ele>
        <time>2025-05-10T10:54:48Z</time>
      </trkpt>
      <trkpt lat="37.213075999170542" lon="-4.384639011695981">
        <ele>713.91999999999996</ele>
        <time>2025-05-10T10:54:53Z</time>
      </trkpt>
      <trkpt lat="37.213160991668701" lon="-4.384596012532711">
        <ele>714.88</ele>
        <time>2025-05-10T10:54:55Z</time>
      </trkpt>
      <trkpt lat="37.213189993053675" lon="-4.384564999490976">
        <ele>715.84000000000003</ele>
        <time>2025-05-10T10:54:56Z</time>
      </trkpt>
      <trkpt lat="37.213666001334786" lon="-4.384056972339749">
        <ele>717.27999999999997</ele>
        <time>2025-05-10T10:55:04Z</time>
      </trkpt>
      <trkpt lat="37.213761974126101" lon="-4.384026965126395">
        <ele>716.79999999999995</ele>
        <time>2025-05-10T10:55:05Z</time>
      </trkpt>
      <trkpt lat="37.214712984859943" lon="-4.383739968761802">
        <ele>713.91999999999996</ele>
        <time>2025-05-10T10:55:13Z</time>
      </trkpt>
      <trkpt lat="37.215136019513011" lon="-4.383695041760802">
        <ele>713.44000000000005</ele>
        <time>2025-05-10T10:55:17Z</time>
      </trkpt>
      <trkpt lat="37.215223023667932" lon="-4.383695041760802">
        <ele>712.95000000000005</ele>
        <time>2025-05-10T10:55:18Z</time>
      </trkpt>
      <trkpt lat="37.215320002287626" lon="-4.383695041760802">
        <ele>712.95000000000005</ele>
        <time>2025-05-10T10:55:19Z</time>
      </trkpt>
      <trkpt lat="37.215508008375764" lon="-4.383682971820235">
        <ele>711.99000000000001</ele>
        <time>2025-05-10T10:55:21Z</time>
      </trkpt>
      <trkpt lat="37.215603981167078" lon="-4.383677020668984">
        <ele>711.99000000000001</ele>
        <time>2025-05-10T10:55:22Z</time>
      </trkpt>
      <trkpt lat="37.215700037777424" lon="-4.383647013455629">
        <ele>711.50999999999999</ele>
        <time>2025-05-10T10:55:23Z</time>
      </trkpt>
      <trkpt lat="37.21579902805388" lon="-4.383593033999205">
        <ele>711.02999999999997</ele>
        <time>2025-05-10T10:55:24Z</time>
      </trkpt>
      <trkpt lat="37.215902963653207" lon="-4.383536037057638">
        <ele>711.02999999999997</ele>
        <time>2025-05-10T10:55:25Z</time>
      </trkpt>
      <trkpt lat="37.216008994728327" lon="-4.383478034287691">
        <ele>710.54999999999995</ele>
        <time>2025-05-10T10:55:26Z</time>
      </trkpt>
      <trkpt lat="37.216572007164359" lon="-4.383122976869345">
        <ele>710.07000000000005</ele>
        <time>2025-05-10T10:55:31Z</time>
      </trkpt>
      <trkpt lat="37.216801000759006" lon="-4.382908986881375">
        <ele>711.02999999999997</ele>
        <time>2025-05-10T10:55:33Z</time>
      </trkpt>
      <trkpt lat="37.216900996863842" lon="-4.382774038240314">
        <ele>711.50999999999999</ele>
        <time>2025-05-10T10:55:34Z</time>
      </trkpt>
      <trkpt lat="37.216989006847143" lon="-4.382624002173543">
        <ele>711.99000000000001</ele>
        <time>2025-05-10T10:55:35Z</time>
      </trkpt>
      <trkpt lat="37.217602981254458" lon="-4.381506023928523">
        <ele>718.72000000000003</ele>
        <time>2025-05-10T10:55:42Z</time>
      </trkpt>
      <trkpt lat="37.217715969309211" lon="-4.381368979811668">
        <ele>719.67999999999995</ele>
        <time>2025-05-10T10:55:43Z</time>
      </trkpt>
      <trkpt lat="37.217818982899189" lon="-4.381244005635381">
        <ele>720.64999999999998</ele>
        <time>2025-05-10T10:55:44Z</time>
      </trkpt>
      <trkpt lat="37.217909004539251" lon="-4.381139986217022">
        <ele>721.61000000000001</ele>
        <time>2025-05-10T10:55:45Z</time>
      </trkpt>
      <trkpt lat="37.218027021735907" lon="-4.38109296374023">
        <ele>722.57000000000005</ele>
        <time>2025-05-10T10:55:46Z</time>
      </trkpt>
      <trkpt lat="37.21814202144742" lon="-4.381048958748579">
        <ele>723.52999999999997</ele>
        <time>2025-05-10T10:55:47Z</time>
      </trkpt>
      <trkpt lat="37.218477968126535" lon="-4.38094099983573">
        <ele>725.92999999999995</ele>
        <time>2025-05-10T10:55:50Z</time>
      </trkpt>
      <trkpt lat="37.218591962009668" lon="-4.380929013714194">
        <ele>726.88999999999999</ele>
        <time>2025-05-10T10:55:51Z</time>
      </trkpt>
      <trkpt lat="37.218698998913169" lon="-4.380952985957265">
        <ele>727.37</ele>
        <time>2025-05-10T10:55:52Z</time>
      </trkpt>
      <trkpt lat="37.218801006674767" lon="-4.380982993170619">
        <ele>728.34000000000003</ele>
        <time>2025-05-10T10:55:53Z</time>
      </trkpt>
      <trkpt lat="37.218902008607984" lon="-4.381013000383973">
        <ele>728.82000000000005</ele>
        <time>2025-05-10T10:55:54Z</time>
      </trkpt>
      <trkpt lat="37.219378016889095" lon="-4.381098998710513">
        <ele>730.74000000000001</ele>
        <time>2025-05-10T10:55:58Z</time>
      </trkpt>
      <trkpt lat="37.219505002722144" lon="-4.381080977618694">
        <ele>730.74000000000001</ele>
        <time>2025-05-10T10:55:59Z</time>
      </trkpt>
      <trkpt lat="37.219630982726812" lon="-4.381058011204004">
        <ele>731.22000000000003</ele>
        <time>2025-05-10T10:56:00Z</time>
      </trkpt>
      <trkpt lat="37.219742964953184" lon="-4.380988022312522">
        <ele>731.70000000000005</ele>
        <time>2025-05-10T10:56:01Z</time>
      </trkpt>
      <trkpt lat="37.219853019341826" lon="-4.380909986793995">
        <ele>732.17999999999995</ele>
        <time>2025-05-10T10:56:02Z</time>
      </trkpt>
      <trkpt lat="37.219953015446663" lon="-4.380818037316203">
        <ele>733.13999999999999</ele>
        <time>2025-05-10T10:56:03Z</time>
      </trkpt>
      <trkpt lat="37.220134986564517" lon="-4.380632964894176">
        <ele>735.07000000000005</ele>
        <time>2025-05-10T10:56:05Z</time>
      </trkpt>
      <trkpt lat="37.220204975455999" lon="-4.380515031516552">
        <ele>736.02999999999997</ele>
        <time>2025-05-10T10:56:06Z</time>
      </trkpt>
      <trkpt lat="37.220277981832623" lon="-4.380389973521233">
        <ele>736.50999999999999</ele>
        <time>2025-05-10T10:56:07Z</time>
      </trkpt>
      <trkpt lat="37.220342019572854" lon="-4.380256030708551">
        <ele>737.47000000000003</ele>
        <time>2025-05-10T10:56:08Z</time>
      </trkpt>
      <trkpt lat="37.220388958230615" lon="-4.380097026005387">
        <ele>737.95000000000005</ele>
        <time>2025-05-10T10:56:09Z</time>
      </trkpt>
      <trkpt lat="37.220436986535788" lon="-4.37993299216032">
        <ele>738.90999999999997</ele>
        <time>2025-05-10T10:56:10Z</time>
      </trkpt>
      <trkpt lat="37.221004022285342" lon="-4.37836498953402">
        <ele>746.12</ele>
        <time>2025-05-10T10:56:19Z</time>
      </trkpt>
      <trkpt lat="37.221079040318727" lon="-4.37819299288094">
        <ele>747.08000000000004</ele>
        <time>2025-05-10T10:56:20Z</time>
      </trkpt>
      <trkpt lat="37.221251036971807" lon="-4.377486985176802">
        <ele>750.45000000000005</ele>
        <time>2025-05-10T10:56:24Z</time>
      </trkpt>
      <trkpt lat="37.221251036971807" lon="-4.377300990745425">
        <ele>750.92999999999995</ele>
        <time>2025-05-10T10:56:25Z</time>
      </trkpt>
      <trkpt lat="37.221122039481997" lon="-4.376009004190564">
        <ele>758.13999999999999</ele>
        <time>2025-05-10T10:56:32Z</time>
      </trkpt>
      <trkpt lat="37.221126984804869" lon="-4.37584899365902">
        <ele>759.10000000000002</ele>
        <time>2025-05-10T10:56:33Z</time>
      </trkpt>
      <trkpt lat="37.221178030595183" lon="-4.375695018097758">
        <ele>760.05999999999995</ele>
        <time>2025-05-10T10:56:34Z</time>
      </trkpt>
      <trkpt lat="37.221404006704688" lon="-4.374837968498468">
        <ele>765.83000000000004</ele>
        <time>2025-05-10T10:56:39Z</time>
      </trkpt>
      <trkpt lat="37.221438959240913" lon="-4.374704025685787">
        <ele>766.30999999999995</ele>
        <time>2025-05-10T10:56:40Z</time>
      </trkpt>
      <trkpt lat="37.221399983391166" lon="-4.374571004882455">
        <ele>767.26999999999998</ele>
        <time>2025-05-10T10:56:41Z</time>
      </trkpt>
      <trkpt lat="37.221353966742754" lon="-4.374451981857419">
        <ele>767.75</ele>
        <time>2025-05-10T10:56:42Z</time>
      </trkpt>
      <trkpt lat="37.221303004771471" lon="-4.374321978539228">
        <ele>768.23000000000002</ele>
        <time>2025-05-10T10:56:43Z</time>
      </trkpt>
      <trkpt lat="37.221251958981156" lon="-4.374191975221038">
        <ele>768.71000000000004</ele>
        <time>2025-05-10T10:56:44Z</time>
      </trkpt>
      <trkpt lat="37.221251036971807" lon="-4.374056020751596">
        <ele>769.19000000000005</ele>
        <time>2025-05-10T10:56:45Z</time>
      </trkpt>
      <trkpt lat="37.221267968416214" lon="-4.373924005776644">
        <ele>769.66999999999996</ele>
        <time>2025-05-10T10:56:46Z</time>
      </trkpt>
      <trkpt lat="37.22130199894309" lon="-4.373776987195015">
        <ele>770.14999999999998</ele>
        <time>2025-05-10T10:56:47Z</time>
      </trkpt>
      <trkpt lat="37.221338041126728" lon="-4.373618988320231">
        <ele>770.63</ele>
        <time>2025-05-10T10:56:48Z</time>
      </trkpt>
      <trkpt lat="37.221378022804856" lon="-4.373446991667152">
        <ele>771.11000000000001</ele>
        <time>2025-05-10T10:56:49Z</time>
      </trkpt>
      <trkpt lat="37.221807008609176" lon="-4.371773041784763">
        <ele>776.88</ele>
        <time>2025-05-10T10:56:58Z</time>
      </trkpt>
      <trkpt lat="37.222146978601813" lon="-4.369448991492391">
        <ele>786.5</ele>
        <time>2025-05-10T10:57:09Z</time>
      </trkpt>
      <trkpt lat="37.222641007974744" lon="-4.368077963590622">
        <ele>794.19000000000005</ele>
        <time>2025-05-10T10:57:16Z</time>
      </trkpt>
      <trkpt lat="37.222688030451536" lon="-4.36790001578629">
        <ele>795.14999999999998</ele>
        <time>2025-05-10T10:57:17Z</time>
      </trkpt>
      <trkpt lat="37.222718959674239" lon="-4.367732964456081">
        <ele>796.11000000000001</ele>
        <time>2025-05-10T10:57:18Z</time>
      </trkpt>
      <trkpt lat="37.222723988816142" lon="-4.367573037743568">
        <ele>796.59000000000003</ele>
        <time>2025-05-10T10:57:19Z</time>
      </trkpt>
      <trkpt lat="37.222709991037846" lon="-4.367409003898501">
        <ele>797.54999999999995</ele>
        <time>2025-05-10T10:57:20Z</time>
      </trkpt>
      <trkpt lat="37.222669003531337" lon="-4.367267014458776">
        <ele>797.54999999999995</ele>
        <time>2025-05-10T10:57:21Z</time>
      </trkpt>
      <trkpt lat="37.222627010196447" lon="-4.367121001705527">
        <ele>798.02999999999997</ele>
        <time>2025-05-10T10:57:22Z</time>
      </trkpt>
      <trkpt lat="37.222517039626837" lon="-4.366598976776004">
        <ele>798.50999999999999</ele>
        <time>2025-05-10T10:57:27Z</time>
      </trkpt>
      <trkpt lat="37.222517039626837" lon="-4.366535022854805">
        <ele>798.50999999999999</ele>
        <time>2025-05-10T10:57:28Z</time>
      </trkpt>
      <trkpt lat="37.22252600826323" lon="-4.366033030673862">
        <ele>799.95000000000005</ele>
        <time>2025-05-10T10:57:34Z</time>
      </trkpt>
      <trkpt lat="37.222534976899624" lon="-4.365943009033799">
        <ele>799.47000000000003</ele>
        <time>2025-05-10T10:57:35Z</time>
      </trkpt>
      <trkpt lat="37.222554003819823" lon="-4.365747040137649">
        <ele>798.50999999999999</ele>
        <time>2025-05-10T10:57:38Z</time>
      </trkpt>
      <trkpt lat="37.222560038790107" lon="-4.365693982690573">
        <ele>798.50999999999999</ele>
        <time>2025-05-10T10:57:39Z</time>
      </trkpt>
      <trkpt lat="37.222580993548036" lon="-4.36557998880744">
        <ele>797.07000000000005</ele>
        <time>2025-05-10T10:57:48Z</time>
      </trkpt>
      <trkpt lat="37.222580993548036" lon="-4.36557998880744">
        <ele>797.07000000000005</ele>
        <time>2025-05-10T10:58:26Z</time>
      </trkpt>
      <trkpt lat="37.22265500575304" lon="-4.365178998559713">
        <ele>795.63</ele>
        <time>2025-05-10T10:58:38Z</time>
      </trkpt>
      <trkpt lat="37.222684007138014" lon="-4.365024017170072">
        <ele>795.14999999999998</ele>
        <time>2025-05-10T10:58:39Z</time>
      </trkpt>
      <trkpt lat="37.222716026008129" lon="-4.364854032173753">
        <ele>794.66999999999996</ele>
        <time>2025-05-10T10:58:40Z</time>
      </trkpt>
      <trkpt lat="37.222716026008129" lon="-4.364674994722009">
        <ele>793.71000000000004</ele>
        <time>2025-05-10T10:58:41Z</time>
      </trkpt>
      <trkpt lat="37.222684007138014" lon="-4.364472990855575">
        <ele>793.71000000000004</ele>
        <time>2025-05-10T10:58:42Z</time>
      </trkpt>
      <trkpt lat="37.222648970782757" lon="-4.364255983382464">
        <ele>793.22000000000003</ele>
        <time>2025-05-10T10:58:43Z</time>
      </trkpt>
      <trkpt lat="37.222320986911654" lon="-4.362281039357185">
        <ele>797.54999999999995</ele>
        <time>2025-05-10T10:58:52Z</time>
      </trkpt>
      <trkpt lat="37.222365997731686" lon="-4.360802974551916">
        <ele>799.95000000000005</ele>
        <time>2025-05-10T10:58:59Z</time>
      </trkpt>
      <trkpt lat="37.222424000501633" lon="-4.360436014831066">
        <ele>800.91999999999996</ele>
        <time>2025-05-10T10:59:01Z</time>
      </trkpt>
      <trkpt lat="37.222488038241863" lon="-4.360278015956283">
        <ele>800.91999999999996</ele>
        <time>2025-05-10T10:59:02Z</time>
      </trkpt>
      <trkpt lat="37.222566995769739" lon="-4.360120017081499">
        <ele>800.91999999999996</ele>
        <time>2025-05-10T10:59:03Z</time>
      </trkpt>
      <trkpt lat="37.222669003531337" lon="-4.359983978793025">
        <ele>800.91999999999996</ele>
        <time>2025-05-10T10:59:04Z</time>
      </trkpt>
      <trkpt lat="37.222775034606457" lon="-4.359853975474834">
        <ele>801.39999999999998</ele>
        <time>2025-05-10T10:59:05Z</time>
      </trkpt>
      <trkpt lat="37.222881987690926" lon="-4.359738975763321">
        <ele>801.39999999999998</ele>
        <time>2025-05-10T10:59:06Z</time>
      </trkpt>
      <trkpt lat="37.223006961867213" lon="-4.359680972993374">
        <ele>801.88</ele>
        <time>2025-05-10T10:59:07Z</time>
      </trkpt>
      <trkpt lat="37.223138976842165" lon="-4.359620036557317">
        <ele>801.88</ele>
        <time>2025-05-10T10:59:08Z</time>
      </trkpt>
      <trkpt lat="37.223266968503594" lon="-4.359620036557317">
        <ele>802.36000000000001</ele>
        <time>2025-05-10T10:59:09Z</time>
      </trkpt>
      <trkpt lat="37.223403006792068" lon="-4.359620036557317">
        <ele>802.36000000000001</ele>
        <time>2025-05-10T10:59:10Z</time>
      </trkpt>
      <trkpt lat="37.22353502176702" lon="-4.359676027670503">
        <ele>802.84000000000003</ele>
        <time>2025-05-10T10:59:11Z</time>
      </trkpt>
      <trkpt lat="37.223665025085211" lon="-4.35973796993494">
        <ele>803.32000000000005</ele>
        <time>2025-05-10T10:59:12Z</time>
      </trkpt>
      <trkpt lat="37.223796034231782" lon="-4.359802007675171">
        <ele>804.27999999999997</ele>
        <time>2025-05-10T10:59:13Z</time>
      </trkpt>
      <trkpt lat="37.223926959559321" lon="-4.359865039587021">
        <ele>804.27999999999997</ele>
        <time>2025-05-10T10:59:14Z</time>
      </trkpt>
      <trkpt lat="37.224040031433105" lon="-4.359920024871826">
        <ele>804.75999999999999</ele>
        <time>2025-05-10T10:59:15Z</time>
      </trkpt>
      <trkpt lat="37.224171040579677" lon="-4.35992899350822">
        <ele>804.75999999999999</ele>
        <time>2025-05-10T10:59:16Z</time>
      </trkpt>
      <trkpt lat="37.22428796812892" lon="-4.359937962144613">
        <ele>804.75999999999999</ele>
        <time>2025-05-10T10:59:17Z</time>
      </trkpt>
      <trkpt lat="37.224387964233756" lon="-4.359912984073162">
        <ele>804.75999999999999</ele>
        <time>2025-05-10T10:59:18Z</time>
      </trkpt>
      <trkpt lat="37.224496006965637" lon="-4.359846012666822">
        <ele>804.27999999999997</ele>
        <time>2025-05-10T10:59:19Z</time>
      </trkpt>
      <trkpt lat="37.224612012505531" lon="-4.359775017946959">
        <ele>804.27999999999997</ele>
        <time>2025-05-10T10:59:20Z</time>
      </trkpt>
      <trkpt lat="37.224706979468465" lon="-4.359657000750303">
        <ele>803.32000000000005</ele>
        <time>2025-05-10T10:59:21Z</time>
      </trkpt>
      <trkpt lat="37.224806975573301" lon="-4.359526997432113">
        <ele>802.84000000000003</ele>
        <time>2025-05-10T10:59:22Z</time>
      </trkpt>
      <trkpt lat="37.225725967437029" lon="-4.358418993651867">
        <ele>791.29999999999995</ele>
        <time>2025-05-10T10:59:30Z</time>
      </trkpt>
      <trkpt lat="37.225837027654052" lon="-4.358316985890269">
        <ele>789.38</ele>
        <time>2025-05-10T10:59:31Z</time>
      </trkpt>
      <trkpt lat="37.225953033193946" lon="-4.358283039182425">
        <ele>787.94000000000005</ele>
        <time>2025-05-10T10:59:32Z</time>
      </trkpt>
      <trkpt lat="37.226054035127163" lon="-4.358272980898619">
        <ele>786.5</ele>
        <time>2025-05-10T10:59:33Z</time>
      </trkpt>
      <trkpt lat="37.226154031231999" lon="-4.358284967020154">
        <ele>785.52999999999997</ele>
        <time>2025-05-10T10:59:34Z</time>
      </trkpt>
      <trkpt lat="37.22624103538692" lon="-4.35834095813334">
        <ele>785.04999999999995</ele>
        <time>2025-05-10T10:59:35Z</time>
      </trkpt>
      <trkpt lat="37.226340025663376" lon="-4.358436008915305">
        <ele>784.09000000000003</ele>
        <time>2025-05-10T10:59:36Z</time>
      </trkpt>
      <trkpt lat="37.226453013718128" lon="-4.358542961999774">
        <ele>783.13</ele>
        <time>2025-05-10T10:59:37Z</time>
      </trkpt>
      <trkpt lat="37.226842017844319" lon="-4.358871029689908">
        <ele>779.76999999999998</ele>
        <time>2025-05-10T10:59:40Z</time>
      </trkpt>
      <trkpt lat="37.226979983970523" lon="-4.358946969732642">
        <ele>778.32000000000005</ele>
        <time>2025-05-10T10:59:41Z</time>
      </trkpt>
      <trkpt lat="37.227118033915758" lon="-4.359004972502589">
        <ele>777.36000000000001</ele>
        <time>2025-05-10T10:59:42Z</time>
      </trkpt>
      <trkpt lat="37.227656990289688" lon="-4.359105974435806">
        <ele>774.48000000000002</ele>
        <time>2025-05-10T10:59:46Z</time>
      </trkpt>
      <trkpt lat="37.227774001657963" lon="-4.359126007184386">
        <ele>774</ele>
        <time>2025-05-10T10:59:47Z</time>
      </trkpt>
      <trkpt lat="37.227914985269308" lon="-4.359073033556342">
        <ele>773.51999999999998</ele>
        <time>2025-05-10T10:59:48Z</time>
      </trkpt>
      <trkpt lat="37.228704979643226" lon="-4.358731973916292">
        <ele>769.19000000000005</ele>
        <time>2025-05-10T10:59:54Z</time>
      </trkpt>
      <trkpt lat="37.228783015161753" lon="-4.358654022216797">
        <ele>768.71000000000004</ele>
        <time>2025-05-10T10:59:55Z</time>
      </trkpt>
      <trkpt lat="37.228814028203487" lon="-4.358507003635168">
        <ele>768.23000000000002</ele>
        <time>2025-05-10T10:59:56Z</time>
      </trkpt>
      <trkpt lat="37.228846969082952" lon="-4.358354033902288">
        <ele>766.78999999999996</ele>
        <time>2025-05-10T10:59:57Z</time>
      </trkpt>
      <trkpt lat="37.228825008496642" lon="-4.358254037797451">
        <ele>765.83000000000004</ele>
        <time>2025-05-10T10:59:58Z</time>
      </trkpt>
      <trkpt lat="37.228782009333372" lon="-4.358122022822499">
        <ele>764.38999999999999</ele>
        <time>2025-05-10T10:59:59Z</time>
      </trkpt>
      <trkpt lat="37.22871302627027" lon="-4.357998976483941">
        <ele>763.89999999999998</ele>
        <time>2025-05-10T11:00:00Z</time>
      </trkpt>
      <trkpt lat="37.228638008236885" lon="-4.35786503367126">
        <ele>762.94000000000005</ele>
        <time>2025-05-10T11:00:01Z</time>
      </trkpt>
      <trkpt lat="37.228051023557782" lon="-4.356843028217554">
        <ele>757.17999999999995</ele>
        <time>2025-05-10T11:00:08Z</time>
      </trkpt>
      <trkpt lat="37.227988997474313" lon="-4.356719981878996">
        <ele>756.69000000000005</ele>
        <time>2025-05-10T11:00:09Z</time>
      </trkpt>
      <trkpt lat="37.227977011352777" lon="-4.356575980782509">
        <ele>755.73000000000002</ele>
        <time>2025-05-10T11:00:10Z</time>
      </trkpt>
      <trkpt lat="37.227970976382494" lon="-4.356420999392867">
        <ele>754.76999999999998</ele>
        <time>2025-05-10T11:00:11Z</time>
      </trkpt>
      <trkpt lat="37.227996960282326" lon="-4.356252020224929">
        <ele>753.80999999999995</ele>
        <time>2025-05-10T11:00:12Z</time>
      </trkpt>
      <trkpt lat="37.228025961667299" lon="-4.356068037450314">
        <ele>753.33000000000004</ele>
        <time>2025-05-10T11:00:13Z</time>
      </trkpt>
      <trkpt lat="37.228137021884322" lon="-4.355320036411285">
        <ele>751.40999999999997</ele>
        <time>2025-05-10T11:00:17Z</time>
      </trkpt>
      <trkpt lat="37.228123024106026" lon="-4.355127001181245">
        <ele>750.45000000000005</ele>
        <time>2025-05-10T11:00:18Z</time>
      </trkpt>
      <trkpt lat="37.228031996637583" lon="-4.354104995727539">
        <ele>744.67999999999995</ele>
        <time>2025-05-10T11:00:23Z</time>
      </trkpt>
      <trkpt lat="37.227956978604198" lon="-4.353943979367614">
        <ele>743.24000000000001</ele>
        <time>2025-05-10T11:00:24Z</time>
      </trkpt>
      <trkpt lat="37.227549031376839" lon="-4.35290303081274">
        <ele>739.38999999999999</ele>
        <time>2025-05-10T11:00:30Z</time>
      </trkpt>
      <trkpt lat="37.227528998628259" lon="-4.352744026109576">
        <ele>739.87</ele>
        <time>2025-05-10T11:00:31Z</time>
      </trkpt>
      <trkpt lat="37.227524975314736" lon="-4.352573035284877">
        <ele>739.87</ele>
        <time>2025-05-10T11:00:32Z</time>
      </trkpt>
      <trkpt lat="37.227548025548458" lon="-4.35238896869123">
        <ele>740.35000000000002</ele>
        <time>2025-05-10T11:00:33Z</time>
      </trkpt>
      <trkpt lat="37.227570991963148" lon="-4.352196017280221">
        <ele>740.35000000000002</ele>
        <time>2025-05-10T11:00:34Z</time>
      </trkpt>
      <trkpt lat="37.227638969197869" lon="-4.351816987618804">
        <ele>740.83000000000004</ele>
        <time>2025-05-10T11:00:36Z</time>
      </trkpt>
      <trkpt lat="37.227694038301706" lon="-4.35163602232933">
        <ele>740.83000000000004</ele>
        <time>2025-05-10T11:00:37Z</time>
      </trkpt>
      <trkpt lat="37.227750029414892" lon="-4.351451033726335">
        <ele>740.83000000000004</ele>
        <time>2025-05-10T11:00:38Z</time>
      </trkpt>
      <trkpt lat="37.227804008871317" lon="-4.35127099044621">
        <ele>740.83000000000004</ele>
        <time>2025-05-10T11:00:39Z</time>
      </trkpt>
      <trkpt lat="37.2278549708426" lon="-4.351103017106652">
        <ele>740.83000000000004</ele>
        <time>2025-05-10T11:00:40Z</time>
      </trkpt>
      <trkpt lat="37.227881038561463" lon="-4.350923979654908">
        <ele>740.83000000000004</ele>
        <time>2025-05-10T11:00:41Z</time>
      </trkpt>
      <trkpt lat="37.227881038561463" lon="-4.350722981616855">
        <ele>740.83000000000004</ele>
        <time>2025-05-10T11:00:42Z</time>
      </trkpt>
      <trkpt lat="37.227881038561463" lon="-4.35051703825593">
        <ele>740.83000000000004</ele>
        <time>2025-05-10T11:00:43Z</time>
      </trkpt>
      <trkpt lat="37.227881038561463" lon="-4.349519005045295">
        <ele>737.95000000000005</ele>
        <time>2025-05-10T11:00:48Z</time>
      </trkpt>
      <trkpt lat="37.22791800275445" lon="-4.349333010613918">
        <ele>736.99000000000001</ele>
        <time>2025-05-10T11:00:49Z</time>
      </trkpt>
      <trkpt lat="37.227958990260959" lon="-4.349135030061007">
        <ele>736.02999999999997</ele>
        <time>2025-05-10T11:00:50Z</time>
      </trkpt>
      <trkpt lat="37.228000983595848" lon="-4.348931014537811">
        <ele>735.07000000000005</ele>
        <time>2025-05-10T11:00:51Z</time>
      </trkpt>
      <trkpt lat="37.228031996637583" lon="-4.348717024549842">
        <ele>734.10000000000002</ele>
        <time>2025-05-10T11:00:52Z</time>
      </trkpt>
      <trkpt lat="37.228031996637583" lon="-4.348508985713124">
        <ele>732.65999999999997</ele>
        <time>2025-05-10T11:00:53Z</time>
      </trkpt>
      <trkpt lat="37.228031996637583" lon="-4.348309999331832">
        <ele>731.70000000000005</ele>
        <time>2025-05-10T11:00:54Z</time>
      </trkpt>
      <trkpt lat="37.22800500690937" lon="-4.348130039870739">
        <ele>730.25999999999999</ele>
        <time>2025-05-10T11:00:55Z</time>
      </trkpt>
      <trkpt lat="37.227959996089339" lon="-4.347970029339194">
        <ele>729.29999999999995</ele>
        <time>2025-05-10T11:00:56Z</time>
      </trkpt>
      <trkpt lat="37.227912973612547" lon="-4.347800966352224">
        <ele>727.86000000000001</ele>
        <time>2025-05-10T11:00:57Z</time>
      </trkpt>
      <trkpt lat="37.227862011641264" lon="-4.347620001062751">
        <ele>726.88999999999999</ele>
        <time>2025-05-10T11:00:58Z</time>
      </trkpt>
      <trkpt lat="37.22780903801322" lon="-4.347431994974613">
        <ele>726.40999999999997</ele>
        <time>2025-05-10T11:00:59Z</time>
      </trkpt>
      <trkpt lat="37.227755980566144" lon="-4.347242983058095">
        <ele>725.45000000000005</ele>
        <time>2025-05-10T11:01:00Z</time>
      </trkpt>
      <trkpt lat="37.227590018883348" lon="-4.346507973968983">
        <ele>722.57000000000005</ele>
        <time>2025-05-10T11:01:04Z</time>
      </trkpt>
      <trkpt lat="37.227570991963148" lon="-4.346321979537606">
        <ele>721.61000000000001</ele>
        <time>2025-05-10T11:01:05Z</time>
      </trkpt>
      <trkpt lat="37.227504020556808" lon="-4.345752010121942">
        <ele>719.67999999999995</ele>
        <time>2025-05-10T11:01:08Z</time>
      </trkpt>
      <trkpt lat="37.227173019200563" lon="-4.344509979709983">
        <ele>714.39999999999998</ele>
        <time>2025-05-10T11:01:15Z</time>
      </trkpt>
      <trkpt lat="37.227173019200563" lon="-4.344382993876934">
        <ele>713.91999999999996</ele>
        <time>2025-05-10T11:01:16Z</time>
      </trkpt>
      <trkpt lat="37.227193973958492" lon="-4.344274029135704">
        <ele>713.44000000000005</ele>
        <time>2025-05-10T11:01:17Z</time>
      </trkpt>
      <trkpt lat="37.227233033627272" lon="-4.344146037474275">
        <ele>712.95000000000005</ele>
        <time>2025-05-10T11:01:18Z</time>
      </trkpt>
      <trkpt lat="37.227277038618922" lon="-4.344002958387137">
        <ele>711.99000000000001</ele>
        <time>2025-05-10T11:01:19Z</time>
      </trkpt>
      <trkpt lat="37.227412993088365" lon="-4.343511024489999">
        <ele>709.59000000000003</ele>
        <time>2025-05-10T11:01:22Z</time>
      </trkpt>
      <trkpt lat="37.227436965331435" lon="-4.343100981786847">
        <ele>707.19000000000005</ele>
        <time>2025-05-10T11:01:24Z</time>
      </trkpt>
      <trkpt lat="37.22761700861156" lon="-4.341588970273733">
        <ele>698.52999999999997</ele>
        <time>2025-05-10T11:01:31Z</time>
      </trkpt>
      <trkpt lat="37.227623965591192" lon="-4.341401970013976">
        <ele>697.09000000000003</ele>
        <time>2025-05-10T11:01:32Z</time>
      </trkpt>
      <trkpt lat="37.227581972256303" lon="-4.341199966147542">
        <ele>696.13</ele>
        <time>2025-05-10T11:01:33Z</time>
      </trkpt>
      <trkpt lat="37.227541990578175" lon="-4.341006008908153">
        <ele>695.16999999999996</ele>
        <time>2025-05-10T11:01:34Z</time>
      </trkpt>
      <trkpt lat="37.227306040003896" lon="-4.339492991566658">
        <ele>686.03999999999996</ele>
        <time>2025-05-10T11:01:41Z</time>
      </trkpt>
      <trkpt lat="37.227328000590205" lon="-4.339290987700224">
        <ele>685.55999999999995</ele>
        <time>2025-05-10T11:01:42Z</time>
      </trkpt>
      <trkpt lat="37.227431014180183" lon="-4.338716994971037">
        <ele>682.19000000000005</ele>
        <time>2025-05-10T11:01:45Z</time>
      </trkpt>
      <trkpt lat="37.228041971102357" lon="-4.337066011503339">
        <ele>676.90999999999997</ele>
        <time>2025-05-10T11:01:54Z</time>
      </trkpt>
      <trkpt lat="37.22830499522388" lon="-4.336599977687001">
        <ele>675.94000000000005</ele>
        <time>2025-05-10T11:01:57Z</time>
      </trkpt>
      <trkpt lat="37.228365009650588" lon="-4.336436027660966">
        <ele>675.46000000000004</ele>
        <time>2025-05-10T11:01:58Z</time>
      </trkpt>
      <trkpt lat="37.22841395996511" lon="-4.336263025179505">
        <ele>674.98000000000002</ele>
        <time>2025-05-10T11:01:59Z</time>
      </trkpt>
      <trkpt lat="37.228567013517022" lon="-4.335718033835292">
        <ele>672.10000000000002</ele>
        <time>2025-05-10T11:02:02Z</time>
      </trkpt>
      <trkpt lat="37.228644965216517" lon="-4.335561962798238">
        <ele>671.13999999999999</ele>
        <time>2025-05-10T11:02:03Z</time>
      </trkpt>
      <trkpt lat="37.228721994906664" lon="-4.335406981408596">
        <ele>670.17999999999995</ele>
        <time>2025-05-10T11:02:04Z</time>
      </trkpt>
      <trkpt lat="37.229205965995789" lon="-4.334083981812">
        <ele>658.63999999999999</ele>
        <time>2025-05-10T11:02:12Z</time>
      </trkpt>
      <trkpt lat="37.229212000966072" lon="-4.333896981552243">
        <ele>657.20000000000005</ele>
        <time>2025-05-10T11:02:13Z</time>
      </trkpt>
      <trkpt lat="37.229212000966072" lon="-4.333711992949247">
        <ele>655.27999999999997</ele>
        <time>2025-05-10T11:02:14Z</time>
      </trkpt>
      <trkpt lat="37.229195991531014" lon="-4.333531027659774">
        <ele>653.83000000000004</ele>
        <time>2025-05-10T11:02:15Z</time>
      </trkpt>
      <trkpt lat="37.229153998196125" lon="-4.333365987986326">
        <ele>652.38999999999999</ele>
        <time>2025-05-10T11:02:16Z</time>
      </trkpt>
      <trkpt lat="37.229113010689616" lon="-4.333204971626401">
        <ele>651.42999999999995</ele>
        <time>2025-05-10T11:02:17Z</time>
      </trkpt>
      <trkpt lat="37.229074034839869" lon="-4.33305200189352">
        <ele>649.99000000000001</ele>
        <time>2025-05-10T11:02:18Z</time>
      </trkpt>
      <trkpt lat="37.228888962417841" lon="-4.33227801695466">
        <ele>644.70000000000005</ele>
        <time>2025-05-10T11:02:24Z</time>
      </trkpt>
      <trkpt lat="37.228876976296306" lon="-4.332169974222779">
        <ele>644.22000000000003</ele>
        <time>2025-05-10T11:02:25Z</time>
      </trkpt>
      <trkpt lat="37.228868007659912" lon="-4.332089005038142">
        <ele>643.74000000000001</ele>
        <time>2025-05-10T11:02:26Z</time>
      </trkpt>
      <trkpt lat="37.228825008496642" lon="-4.331974005326629">
        <ele>643.25999999999999</ele>
        <time>2025-05-10T11:02:27Z</time>
      </trkpt>
      <trkpt lat="37.228785026818514" lon="-4.33189001865685">
        <ele>642.77999999999997</ele>
        <time>2025-05-10T11:02:28Z</time>
      </trkpt>
      <trkpt lat="37.228717971593142" lon="-4.331789016723633">
        <ele>642.29999999999995</ele>
        <time>2025-05-10T11:02:29Z</time>
      </trkpt>
      <trkpt lat="37.228657035157084" lon="-4.331743000075221">
        <ele>642.29999999999995</ele>
        <time>2025-05-10T11:02:30Z</time>
      </trkpt>
      <trkpt lat="37.227732008323073" lon="-4.331184010952711">
        <ele>640.86000000000001</ele>
        <time>2025-05-10T11:02:41Z</time>
      </trkpt>
      <trkpt lat="37.227611979469657" lon="-4.331160960718989">
        <ele>641.34000000000003</ele>
        <time>2025-05-10T11:02:42Z</time>
      </trkpt>
      <trkpt lat="37.22748901695013" lon="-4.331137994304299">
        <ele>641.82000000000005</ele>
        <time>2025-05-10T11:02:43Z</time>
      </trkpt>
      <trkpt lat="37.227244013920426" lon="-4.331089965999126">
        <ele>643.74000000000001</ele>
        <time>2025-05-10T11:02:45Z</time>
      </trkpt>
      <trkpt lat="37.227121973410249" lon="-4.331101030111313">
        <ele>644.70000000000005</ele>
        <time>2025-05-10T11:02:46Z</time>
      </trkpt>
      <trkpt lat="37.227000016719103" lon="-4.331133970990777">
        <ele>645.17999999999995</ele>
        <time>2025-05-10T11:02:47Z</time>
      </trkpt>
      <trkpt lat="37.226880993694067" lon="-4.331195997074246">
        <ele>646.13999999999999</ele>
        <time>2025-05-10T11:02:48Z</time>
      </trkpt>
      <trkpt lat="37.226766999810934" lon="-4.331269003450871">
        <ele>646.62</ele>
        <time>2025-05-10T11:02:49Z</time>
      </trkpt>
      <trkpt lat="37.226652000099421" lon="-4.331344021484256">
        <ele>647.59000000000003</ele>
        <time>2025-05-10T11:02:50Z</time>
      </trkpt>
      <trkpt lat="37.226254027336836" lon="-4.331601010635495">
        <ele>649.99000000000001</ele>
        <time>2025-05-10T11:02:54Z</time>
      </trkpt>
      <trkpt lat="37.226184960454702" lon="-4.331590030342341">
        <ele>650.47000000000003</ele>
        <time>2025-05-10T11:02:55Z</time>
      </trkpt>
      <trkpt lat="37.226122012361884" lon="-4.331549964845181">
        <ele>650.95000000000005</ele>
        <time>2025-05-10T11:02:56Z</time>
      </trkpt>
      <trkpt lat="37.226055040955544" lon="-4.331505037844181">
        <ele>650.95000000000005</ele>
        <time>2025-05-10T11:02:57Z</time>
      </trkpt>
      <trkpt lat="37.226008018478751" lon="-4.331409987062216">
        <ele>650.95000000000005</ele>
        <time>2025-05-10T11:02:58Z</time>
      </trkpt>
      <trkpt lat="37.225958984345198" lon="-4.331304961815476">
        <ele>650.95000000000005</ele>
        <time>2025-05-10T11:02:59Z</time>
      </trkpt>
      <trkpt lat="37.225912967696786" lon="-4.331187028437853">
        <ele>650.95000000000005</ele>
        <time>2025-05-10T11:03:00Z</time>
      </trkpt>
      <trkpt lat="37.225821018218994" lon="-4.330951999872923">
        <ele>650.95000000000005</ele>
        <time>2025-05-10T11:03:02Z</time>
      </trkpt>
      <trkpt lat="37.225741976872087" lon="-4.330858960747719">
        <ele>650.95000000000005</ele>
        <time>2025-05-10T11:03:03Z</time>
      </trkpt>
      <trkpt lat="37.225672993808985" lon="-4.330775979906321">
        <ele>650.47000000000003</ele>
        <time>2025-05-10T11:03:04Z</time>
      </trkpt>
      <trkpt lat="37.225605016574264" lon="-4.330697022378445">
        <ele>649.99000000000001</ele>
        <time>2025-05-10T11:03:05Z</time>
      </trkpt>
      <trkpt lat="37.225511977449059" lon="-4.330672966316342">
        <ele>649.50999999999999</ele>
        <time>2025-05-10T11:03:06Z</time>
      </trkpt>
      <trkpt lat="37.225392032414675" lon="-4.330672966316342">
        <ele>649.50999999999999</ele>
        <time>2025-05-10T11:03:07Z</time>
      </trkpt>
      <trkpt lat="37.225325983017683" lon="-4.330723006278276">
        <ele>649.02999999999997</ele>
        <time>2025-05-10T11:03:08Z</time>
      </trkpt>
      <trkpt lat="37.225230010226369" lon="-4.33079500682652">
        <ele>648.54999999999995</ele>
        <time>2025-05-10T11:03:09Z</time>
      </trkpt>
      <trkpt lat="37.225130014121532" lon="-4.330857032909989">
        <ele>648.07000000000005</ele>
        <time>2025-05-10T11:03:10Z</time>
      </trkpt>
      <trkpt lat="37.225032029673457" lon="-4.330915035679936">
        <ele>648.07000000000005</ele>
        <time>2025-05-10T11:03:11Z</time>
      </trkpt>
      <trkpt lat="37.224939996376634" lon="-4.330913024023175">
        <ele>648.07000000000005</ele>
        <time>2025-05-10T11:03:12Z</time>
      </trkpt>
      <trkpt lat="37.224829019978642" lon="-4.330883016809821">
        <ele>647.59000000000003</ele>
        <time>2025-05-10T11:03:13Z</time>
      </trkpt>
      <trkpt lat="37.224727012217045" lon="-4.330823002383113">
        <ele>647.59000000000003</ele>
        <time>2025-05-10T11:03:14Z</time>
      </trkpt>
      <trkpt lat="37.224617963656783" lon="-4.330714959651232">
        <ele>647.10000000000002</ele>
        <time>2025-05-10T11:03:15Z</time>
      </trkpt>
      <trkpt lat="37.224490977823734" lon="-4.330586967989802">
        <ele>647.10000000000002</ele>
        <time>2025-05-10T11:03:16Z</time>
      </trkpt>
      <trkpt lat="37.224102979525924" lon="-4.330069972202182">
        <ele>644.22000000000003</ele>
        <time>2025-05-10T11:03:20Z</time>
      </trkpt>
      <trkpt lat="37.223992003127933" lon="-4.329958995804191">
        <ele>643.74000000000001</ele>
        <time>2025-05-10T11:03:21Z</time>
      </trkpt>
      <trkpt lat="37.223863005638123" lon="-4.329900993034244">
        <ele>642.77999999999997</ele>
        <time>2025-05-10T11:03:22Z</time>
      </trkpt>
      <trkpt lat="37.22372998483479" lon="-4.329900993034244">
        <ele>642.29999999999995</ele>
        <time>2025-05-10T11:03:23Z</time>
      </trkpt>
      <trkpt lat="37.223593024536967" lon="-4.329946003854275">
        <ele>641.34000000000003</ele>
        <time>2025-05-10T11:03:24Z</time>
      </trkpt>
      <trkpt lat="37.223452040925622" lon="-4.329997971653938">
        <ele>640.86000000000001</ele>
        <time>2025-05-10T11:03:25Z</time>
      </trkpt>
      <trkpt lat="37.223166972398758" lon="-4.330071983858943">
        <ele>639.40999999999997</ele>
        <time>2025-05-10T11:03:27Z</time>
      </trkpt>
      <trkpt lat="37.22302095964551" lon="-4.330071983858943">
        <ele>638.92999999999995</ele>
        <time>2025-05-10T11:03:28Z</time>
      </trkpt>
      <trkpt lat="37.222888022661209" lon="-4.330008029937744">
        <ele>637.97000000000003</ele>
        <time>2025-05-10T11:03:29Z</time>
      </trkpt>
      <trkpt lat="37.222746033221483" lon="-4.329917002469301">
        <ele>637.00999999999999</ele>
        <time>2025-05-10T11:03:30Z</time>
      </trkpt>
      <trkpt lat="37.222601026296616" lon="-4.329823963344097">
        <ele>636.04999999999995</ele>
        <time>2025-05-10T11:03:31Z</time>
      </trkpt>
      <trkpt lat="37.222453001886606" lon="-4.329730002209544">
        <ele>635.09000000000003</ele>
        <time>2025-05-10T11:03:32Z</time>
      </trkpt>
      <trkpt lat="37.222309000790119" lon="-4.329637968912721">
        <ele>634.13</ele>
        <time>2025-05-10T11:03:33Z</time>
      </trkpt>
      <trkpt lat="37.222162988036871" lon="-4.329565968364477">
        <ele>633.16999999999996</ele>
        <time>2025-05-10T11:03:34Z</time>
      </trkpt>
      <trkpt lat="37.222005994990468" lon="-4.329529004171491">
        <ele>631.72000000000003</ele>
        <time>2025-05-10T11:03:35Z</time>
      </trkpt>
      <trkpt lat="37.221852019429207" lon="-4.329492961987853">
        <ele>630.75999999999999</ele>
        <time>2025-05-10T11:03:36Z</time>
      </trkpt>
      <trkpt lat="37.221671976149082" lon="-4.32952699251473">
        <ele>629.79999999999995</ele>
        <time>2025-05-10T11:03:37Z</time>
      </trkpt>
      <trkpt lat="37.221500985324383" lon="-4.329560017213225">
        <ele>628.36000000000001</ele>
        <time>2025-05-10T11:03:38Z</time>
      </trkpt>
      <trkpt lat="37.221338963136077" lon="-4.329626988619566">
        <ele>627.39999999999998</ele>
        <time>2025-05-10T11:03:39Z</time>
      </trkpt>
      <trkpt lat="37.221180964261293" lon="-4.329691026359797">
        <ele>626.44000000000005</ele>
        <time>2025-05-10T11:03:40Z</time>
      </trkpt>
      <trkpt lat="37.219941029325128" lon="-4.330180026590824">
        <ele>618.75</ele>
        <time>2025-05-10T11:03:49Z</time>
      </trkpt>
      <trkpt lat="37.219815971329808" lon="-4.330197041854262">
        <ele>618.25999999999999</ele>
        <time>2025-05-10T11:03:50Z</time>
      </trkpt>
      <trkpt lat="37.219687979668379" lon="-4.330167034640908">
        <ele>617.77999999999997</ele>
        <time>2025-05-10T11:03:51Z</time>
      </trkpt>
      <trkpt lat="37.219555964693427" lon="-4.330136021599174">
        <ele>616.82000000000005</ele>
        <time>2025-05-10T11:03:52Z</time>
      </trkpt>
      <trkpt lat="37.219426967203617" lon="-4.330094028264284">
        <ele>616.34000000000003</ele>
        <time>2025-05-10T11:03:53Z</time>
      </trkpt>
      <trkpt lat="37.218923969194293" lon="-4.329757997766137">
        <ele>612.5</ele>
        <time>2025-05-10T11:03:59Z</time>
      </trkpt>
      <trkpt lat="37.218711990863085" lon="-4.329823041334748">
        <ele>611.53999999999996</ele>
        <time>2025-05-10T11:04:04Z</time>
      </trkpt>
      <trkpt lat="37.218644013628364" lon="-4.329843996092677">
        <ele>611.05999999999995</ele>
        <time>2025-05-10T11:04:05Z</time>
      </trkpt>
      <trkpt lat="37.218562038615346" lon="-4.329868974164128">
        <ele>611.53999999999996</ele>
        <time>2025-05-10T11:04:06Z</time>
      </trkpt>
      <trkpt lat="37.21833698451519" lon="-4.329938041046262">
        <ele>611.05999999999995</ele>
        <time>2025-05-10T11:04:09Z</time>
      </trkpt>
      <trkpt lat="37.218286022543907" lon="-4.329952960833907">
        <ele>610.57000000000005</ele>
        <time>2025-05-10T11:04:10Z</time>
      </trkpt>
      <trkpt lat="37.218220978975296" lon="-4.329888001084328">
        <ele>610.57000000000005</ele>
        <time>2025-05-10T11:04:11Z</time>
      </trkpt>
      <trkpt lat="37.218199018388987" lon="-4.329821029677987">
        <ele>610.57000000000005</ele>
        <time>2025-05-10T11:04:12Z</time>
      </trkpt>
      <trkpt lat="37.218170017004013" lon="-4.329734025523067">
        <ele>610.57000000000005</ele>
        <time>2025-05-10T11:04:13Z</time>
      </trkpt>
      <trkpt lat="37.218136992305517" lon="-4.32963402941823">
        <ele>610.57000000000005</ele>
        <time>2025-05-10T11:04:14Z</time>
      </trkpt>
      <trkpt lat="37.217803979292512" lon="-4.328600959852338">
        <ele>607.21000000000004</ele>
        <time>2025-05-10T11:04:21Z</time>
      </trkpt>
      <trkpt lat="37.217656038701534" lon="-4.328070972114801">
        <ele>604.80999999999995</ele>
        <time>2025-05-10T11:04:24Z</time>
      </trkpt>
      <trkpt lat="37.217637011781335" lon="-4.327896041795611">
        <ele>604.33000000000004</ele>
        <time>2025-05-10T11:04:25Z</time>
      </trkpt>
      <trkpt lat="37.217632988467813" lon="-4.327742988243699">
        <ele>603.85000000000002</ele>
        <time>2025-05-10T11:04:26Z</time>
      </trkpt>
      <trkpt lat="37.217672970145941" lon="-4.327591024339199">
        <ele>603.36000000000001</ele>
        <time>2025-05-10T11:04:27Z</time>
      </trkpt>
      <trkpt lat="37.21771496348083" lon="-4.327432019636035">
        <ele>602.88</ele>
        <time>2025-05-10T11:04:28Z</time>
      </trkpt>
      <trkpt lat="37.21777799539268" lon="-4.327274020761251">
        <ele>602.39999999999998</ele>
        <time>2025-05-10T11:04:29Z</time>
      </trkpt>
      <trkpt lat="37.218320975080132" lon="-4.326088987290859">
        <ele>595.66999999999996</ele>
        <time>2025-05-10T11:04:36Z</time>
      </trkpt>
      <trkpt lat="37.218324998393655" lon="-4.325933000072837">
        <ele>594.71000000000004</ele>
        <time>2025-05-10T11:04:37Z</time>
      </trkpt>
      <trkpt lat="37.218316029757261" lon="-4.32579000480473">
        <ele>593.75</ele>
        <time>2025-05-10T11:04:38Z</time>
      </trkpt>
      <trkpt lat="37.218274036422372" lon="-4.325663018971682">
        <ele>592.78999999999996</ele>
        <time>2025-05-10T11:04:39Z</time>
      </trkpt>
      <trkpt lat="37.218198012560606" lon="-4.325552964583039">
        <ele>591.35000000000002</ele>
        <time>2025-05-10T11:04:40Z</time>
      </trkpt>
      <trkpt lat="37.218117965385318" lon="-4.325437964871526">
        <ele>590.38999999999999</ele>
        <time>2025-05-10T11:04:41Z</time>
      </trkpt>
      <trkpt lat="37.218020986765623" lon="-4.325410975143313">
        <ele>589.42999999999995</ele>
        <time>2025-05-10T11:04:42Z</time>
      </trkpt>
      <trkpt lat="37.217882014811039" lon="-4.325373005121946">
        <ele>588.95000000000005</ele>
        <time>2025-05-10T11:04:43Z</time>
      </trkpt>
      <trkpt lat="37.2177769895643" lon="-4.325380967929959">
        <ele>587.98000000000002</ele>
        <time>2025-05-10T11:04:44Z</time>
      </trkpt>
      <trkpt lat="37.217633994296193" lon="-4.325392032042146">
        <ele>587.5</ele>
        <time>2025-05-10T11:04:45Z</time>
      </trkpt>
      <trkpt lat="37.216606959700584" lon="-4.325486999005079">
        <ele>584.13999999999999</ele>
        <time>2025-05-10T11:04:51Z</time>
      </trkpt>
      <trkpt lat="37.216431023553014" lon="-4.325555982068181">
        <ele>583.65999999999997</ele>
        <time>2025-05-10T11:04:52Z</time>
      </trkpt>
      <trkpt lat="37.216259026899934" lon="-4.325628988444805">
        <ele>583.17999999999995</ele>
        <time>2025-05-10T11:04:53Z</time>
      </trkpt>
      <trkpt lat="37.215356966480613" lon="-4.326202981173992">
        <ele>576.92999999999995</ele>
        <time>2025-05-10T11:04:59Z</time>
      </trkpt>
      <trkpt lat="37.21524003893137" lon="-4.326320998370647">
        <ele>575.49000000000001</ele>
        <time>2025-05-10T11:05:00Z</time>
      </trkpt>
      <trkpt lat="37.215126967057586" lon="-4.326444966718555">
        <ele>574.52999999999997</ele>
        <time>2025-05-10T11:05:01Z</time>
      </trkpt>
      <trkpt lat="37.214934015646577" lon="-4.326716037467122">
        <ele>572.60000000000002</ele>
        <time>2025-05-10T11:05:03Z</time>
      </trkpt>
      <trkpt lat="37.214846005663276" lon="-4.326838999986649">
        <ele>571.63999999999999</ele>
        <time>2025-05-10T11:05:04Z</time>
      </trkpt>
      <trkpt lat="37.214741986244917" lon="-4.326893985271454">
        <ele>570.67999999999995</ele>
        <time>2025-05-10T11:05:05Z</time>
      </trkpt>
      <trkpt lat="37.21464199014008" lon="-4.326909994706512">
        <ele>569.72000000000003</ele>
        <time>2025-05-10T11:05:06Z</time>
      </trkpt>
      <trkpt lat="37.21453302539885" lon="-4.326888034120202">
        <ele>568.75999999999999</ele>
        <time>2025-05-10T11:05:07Z</time>
      </trkpt>
      <trkpt lat="37.214422971010208" lon="-4.32684101164341">
        <ele>567.79999999999995</ele>
        <time>2025-05-10T11:05:08Z</time>
      </trkpt>
      <trkpt lat="37.214305037632585" lon="-4.326754007488489">
        <ele>566.35000000000002</ele>
        <time>2025-05-10T11:05:09Z</time>
      </trkpt>
      <trkpt lat="37.214174028486013" lon="-4.326657028868794">
        <ele>565.38999999999999</ele>
        <time>2025-05-10T11:05:10Z</time>
      </trkpt>
      <trkpt lat="37.212973991408944" lon="-4.32568296790123">
        <ele>555.29999999999995</ele>
        <time>2025-05-10T11:05:18Z</time>
      </trkpt>
      <trkpt lat="37.212841976433992" lon="-4.325558999553323">
        <ele>554.34000000000003</ele>
        <time>2025-05-10T11:05:19Z</time>
      </trkpt>
      <trkpt lat="37.212737035006285" lon="-4.325401000678539">
        <ele>553.38</ele>
        <time>2025-05-10T11:05:20Z</time>
      </trkpt>
      <trkpt lat="37.212627986446023" lon="-4.325238978490233">
        <ele>552.40999999999997</ele>
        <time>2025-05-10T11:05:21Z</time>
      </trkpt>
      <trkpt lat="37.212002025917172" lon="-4.324282016605139">
        <ele>547.13</ele>
        <time>2025-05-10T11:05:27Z</time>
      </trkpt>
      <trkpt lat="37.211900018155575" lon="-4.324162993580103">
        <ele>547.13</ele>
        <time>2025-05-10T11:05:28Z</time>
      </trkpt>
      <trkpt lat="37.211789963766932" lon="-4.324065009132028">
        <ele>547.13</ele>
        <time>2025-05-10T11:05:29Z</time>
      </trkpt>
      <trkpt lat="37.211663983762264" lon="-4.323982028290629">
        <ele>546.64999999999998</ele>
        <time>2025-05-10T11:05:30Z</time>
      </trkpt>
      <trkpt lat="37.211530962958932" lon="-4.323893012478948">
        <ele>546.64999999999998</ele>
        <time>2025-05-10T11:05:31Z</time>
      </trkpt>
      <trkpt lat="37.211400959640741" lon="-4.323823023587465">
        <ele>546.64999999999998</ele>
        <time>2025-05-10T11:05:32Z</time>
      </trkpt>
      <trkpt lat="37.211257964372635" lon="-4.323745993897319">
        <ele>546.16999999999996</ele>
        <time>2025-05-10T11:05:33Z</time>
      </trkpt>
      <trkpt lat="37.211114969104528" lon="-4.323668964207172">
        <ele>546.16999999999996</ele>
        <time>2025-05-10T11:05:34Z</time>
      </trkpt>
      <trkpt lat="37.210229001939297" lon="-4.32316797785461">
        <ele>544.72000000000003</ele>
        <time>2025-05-10T11:05:40Z</time>
      </trkpt>
      <trkpt lat="37.210087012499571" lon="-4.323070999234915">
        <ele>544.72000000000003</ele>
        <time>2025-05-10T11:05:41Z</time>
      </trkpt>
      <trkpt lat="37.209488963708282" lon="-4.322506980970502">
        <ele>543.75999999999999</ele>
        <time>2025-05-10T11:05:46Z</time>
      </trkpt>
      <trkpt lat="37.209379998967052" lon="-4.322508992627263">
        <ele>543.75999999999999</ele>
        <time>2025-05-10T11:05:47Z</time>
      </trkpt>
      <trkpt lat="37.209278997033834" lon="-4.322529025375843">
        <ele>543.27999999999997</ele>
        <time>2025-05-10T11:05:48Z</time>
      </trkpt>
      <trkpt lat="37.209181012585759" lon="-4.322577975690365">
        <ele>543.27999999999997</ele>
        <time>2025-05-10T11:05:49Z</time>
      </trkpt>
      <trkpt lat="37.209080010652542" lon="-4.32262902148068">
        <ele>543.27999999999997</ele>
        <time>2025-05-10T11:05:50Z</time>
      </trkpt>
      <trkpt lat="37.208856968209147" lon="-4.322731029242277">
        <ele>543.75999999999999</ele>
        <time>2025-05-10T11:05:52Z</time>
      </trkpt>
      <trkpt lat="37.208738029003143" lon="-4.322771010920405">
        <ele>543.75999999999999</ele>
        <time>2025-05-10T11:05:53Z</time>
      </trkpt>
      <trkpt lat="37.208615988492966" lon="-4.322785008698702">
        <ele>543.75999999999999</ele>
        <time>2025-05-10T11:05:54Z</time>
      </trkpt>
      <trkpt lat="37.208490008488297" lon="-4.322743015363812">
        <ele>543.75999999999999</ele>
        <time>2025-05-10T11:05:55Z</time>
      </trkpt>
      <trkpt lat="37.208363022655249" lon="-4.322701022028923">
        <ele>543.27999999999997</ele>
        <time>2025-05-10T11:05:56Z</time>
      </trkpt>
      <trkpt lat="37.208123970776796" lon="-4.322573030367494">
        <ele>542.79999999999995</ele>
        <time>2025-05-10T11:05:58Z</time>
      </trkpt>
      <trkpt lat="37.207998996600509" lon="-4.322488959878683">
        <ele>542.32000000000005</ele>
        <time>2025-05-10T11:05:59Z</time>
      </trkpt>
      <trkpt lat="37.207888020202518" lon="-4.322384018450975">
        <ele>542.32000000000005</ele>
        <time>2025-05-10T11:06:00Z</time>
      </trkpt>
      <trkpt lat="37.2076799813658" lon="-4.322134992107749">
        <ele>541.84000000000003</ele>
        <time>2025-05-10T11:06:02Z</time>
      </trkpt>
      <trkpt lat="37.207564981654286" lon="-4.322045976296067">
        <ele>541.36000000000001</ele>
        <time>2025-05-10T11:06:03Z</time>
      </trkpt>
      <trkpt lat="37.207454005256295" lon="-4.322003982961178">
        <ele>540.88</ele>
        <time>2025-05-10T11:06:04Z</time>
      </trkpt>
      <trkpt lat="37.207330036908388" lon="-4.322024015709758">
        <ele>540.39999999999998</ele>
        <time>2025-05-10T11:06:05Z</time>
      </trkpt>
      <trkpt lat="37.207197016105056" lon="-4.322044970467687">
        <ele>539.91999999999996</ele>
        <time>2025-05-10T11:06:06Z</time>
      </trkpt>
      <trkpt lat="37.207045974209905" lon="-4.322069026529789">
        <ele>538.96000000000004</ele>
        <time>2025-05-10T11:06:07Z</time>
      </trkpt>
      <trkpt lat="37.206924017518759" lon="-4.32213700376451">
        <ele>538.48000000000002</ele>
        <time>2025-05-10T11:06:08Z</time>
      </trkpt>
      <trkpt lat="37.206787979230285" lon="-4.322213027626276">
        <ele>537.50999999999999</ele>
        <time>2025-05-10T11:06:09Z</time>
      </trkpt>
      <trkpt lat="37.206665016710758" lon="-4.322282010689378">
        <ele>536.07000000000005</ele>
        <time>2025-05-10T11:06:10Z</time>
      </trkpt>
      <trkpt lat="37.206556973978877" lon="-4.322342025116086">
        <ele>535.11000000000001</ele>
        <time>2025-05-10T11:06:11Z</time>
      </trkpt>
      <trkpt lat="37.206452032551169" lon="-4.322369014844298">
        <ele>533.66999999999996</ele>
        <time>2025-05-10T11:06:12Z</time>
      </trkpt>
      <trkpt lat="37.206343989819288" lon="-4.322369014844298">
        <ele>532.23000000000002</ele>
        <time>2025-05-10T11:06:13Z</time>
      </trkpt>
      <trkpt lat="37.206238964572549" lon="-4.322316963225603">
        <ele>531.26999999999998</ele>
        <time>2025-05-10T11:06:14Z</time>
      </trkpt>
      <trkpt lat="37.206127988174558" lon="-4.322241023182869">
        <ele>529.82000000000005</ele>
        <time>2025-05-10T11:06:15Z</time>
      </trkpt>
      <trkpt lat="37.206006031483412" lon="-4.32215896435082">
        <ele>528.86000000000001</ele>
        <time>2025-05-10T11:06:16Z</time>
      </trkpt>
      <trkpt lat="37.20587401650846" lon="-4.322069026529789">
        <ele>527.89999999999998</ele>
        <time>2025-05-10T11:06:17Z</time>
      </trkpt>
      <trkpt lat="37.204622011631727" lon="-4.321165038272739">
        <ele>518.76999999999998</ele>
        <time>2025-05-10T11:06:26Z</time>
      </trkpt>
      <trkpt lat="37.204512963071465" lon="-4.321074010804296">
        <ele>517.80999999999995</ele>
        <time>2025-05-10T11:06:27Z</time>
      </trkpt>
      <trkpt lat="37.20443501137197" lon="-4.320966973900795">
        <ele>517.33000000000004</ele>
        <time>2025-05-10T11:06:28Z</time>
      </trkpt>
      <trkpt lat="37.204379020258784" lon="-4.320853985846043">
        <ele>516.37</ele>
        <time>2025-05-10T11:06:29Z</time>
      </trkpt>
      <trkpt lat="37.204338032752275" lon="-4.320729011669755">
        <ele>515.88</ele>
        <time>2025-05-10T11:06:30Z</time>
      </trkpt>
      <trkpt lat="37.204324034973979" lon="-4.320581993088126">
        <ele>515.39999999999998</ele>
        <time>2025-05-10T11:06:31Z</time>
      </trkpt>
      <trkpt lat="37.204325962811708" lon="-4.320421982556582">
        <ele>515.39999999999998</ele>
        <time>2025-05-10T11:06:32Z</time>
      </trkpt>
      <trkpt lat="37.204334009438753" lon="-4.320253003388643">
        <ele>514.91999999999996</ele>
        <time>2025-05-10T11:06:33Z</time>
      </trkpt>
      <trkpt lat="37.204340966418386" lon="-4.320083018392324">
        <ele>514.44000000000005</ele>
        <time>2025-05-10T11:06:34Z</time>
      </trkpt>
      <trkpt lat="37.204374996945262" lon="-4.319918984547257">
        <ele>514.44000000000005</ele>
        <time>2025-05-10T11:06:35Z</time>
      </trkpt>
      <trkpt lat="37.204407015815377" lon="-4.31979401037097">
        <ele>514.44000000000005</ele>
        <time>2025-05-10T11:06:36Z</time>
      </trkpt>
      <trkpt lat="37.204501982778311" lon="-4.319659983739257">
        <ele>514.44000000000005</ele>
        <time>2025-05-10T11:06:37Z</time>
      </trkpt>
      <trkpt lat="37.204575994983315" lon="-4.319555964320898">
        <ele>514.91999999999996</ele>
        <time>2025-05-10T11:06:38Z</time>
      </trkpt>
      <trkpt lat="37.204652018845081" lon="-4.319449011236429">
        <ele>514.44000000000005</ele>
        <time>2025-05-10T11:06:39Z</time>
      </trkpt>
      <trkpt lat="37.204732988029718" lon="-4.319335017353296">
        <ele>514.44000000000005</ele>
        <time>2025-05-10T11:06:40Z</time>
      </trkpt>
      <trkpt lat="37.204815968871117" lon="-4.319218005985022">
        <ele>514.44000000000005</ele>
        <time>2025-05-10T11:06:41Z</time>
      </trkpt>
      <trkpt lat="37.20488402992487" lon="-4.319091020151973">
        <ele>514.44000000000005</ele>
        <time>2025-05-10T11:06:42Z</time>
      </trkpt>
      <trkpt lat="37.204903978854418" lon="-4.318938972428441">
        <ele>514.91999999999996</ele>
        <time>2025-05-10T11:06:43Z</time>
      </trkpt>
      <trkpt lat="37.204944966360927" lon="-4.318631021305919">
        <ele>515.39999999999998</ele>
        <time>2025-05-10T11:06:45Z</time>
      </trkpt>
      <trkpt lat="37.204964999109507" lon="-4.318485008552671">
        <ele>515.88</ele>
        <time>2025-05-10T11:06:46Z</time>
      </trkpt>
      <trkpt lat="37.205040017142892" lon="-4.318352993577719">
        <ele>515.88</ele>
        <time>2025-05-10T11:06:47Z</time>
      </trkpt>
      <trkpt lat="37.20512199215591" lon="-4.318209998309612">
        <ele>514.91999999999996</ele>
        <time>2025-05-10T11:06:48Z</time>
      </trkpt>
      <trkpt lat="37.205206984654069" lon="-4.318060968071222">
        <ele>514.44000000000005</ele>
        <time>2025-05-10T11:06:49Z</time>
      </trkpt>
      <trkpt lat="37.205298012122512" lon="-4.317901963368058">
        <ele>513.96000000000004</ele>
        <time>2025-05-10T11:06:50Z</time>
      </trkpt>
      <trkpt lat="37.205393984913826" lon="-4.317733990028501">
        <ele>513.48000000000002</ele>
        <time>2025-05-10T11:06:51Z</time>
      </trkpt>
      <trkpt lat="37.205446036532521" lon="-4.317555958405137">
        <ele>513</ele>
        <time>2025-05-10T11:06:52Z</time>
      </trkpt>
      <trkpt lat="37.205716017633677" lon="-4.316639984026551">
        <ele>510.60000000000002</ele>
        <time>2025-05-10T11:06:57Z</time>
      </trkpt>
      <trkpt lat="37.205720040947199" lon="-4.316440997645259">
        <ele>510.12</ele>
        <time>2025-05-10T11:06:58Z</time>
      </trkpt>
      <trkpt lat="37.205722974613309" lon="-4.31414402090013">
        <ele>513.96000000000004</ele>
        <time>2025-05-10T11:07:09Z</time>
      </trkpt>
      <trkpt lat="37.205716017633677" lon="-4.313515964895487">
        <ele>517.33000000000004</ele>
        <time>2025-05-10T11:07:12Z</time>
      </trkpt>
      <trkpt lat="37.205736972391605" lon="-4.313319995999336">
        <ele>518.28999999999996</ele>
        <time>2025-05-10T11:07:13Z</time>
      </trkpt>
      <trkpt lat="37.205841997638345" lon="-4.312579035758972">
        <ele>523.09000000000003</ele>
        <time>2025-05-10T11:07:17Z</time>
      </trkpt>
      <trkpt lat="37.205863036215305" lon="-4.312413996085525">
        <ele>524.53999999999996</ele>
        <time>2025-05-10T11:07:18Z</time>
      </trkpt>
      <trkpt lat="37.205827999860048" lon="-4.312250968068838">
        <ele>525.5</ele>
        <time>2025-05-10T11:07:19Z</time>
      </trkpt>
      <trkpt lat="37.205772008746862" lon="-4.312105039134622">
        <ele>526.94000000000005</ele>
        <time>2025-05-10T11:07:20Z</time>
      </trkpt>
      <trkpt lat="37.205693973228335" lon="-4.31197302415967">
        <ele>528.38</ele>
        <time>2025-05-10T11:07:21Z</time>
      </trkpt>
      <trkpt lat="37.205619039013982" lon="-4.311845032498241">
        <ele>529.82000000000005</ele>
        <time>2025-05-10T11:07:22Z</time>
      </trkpt>
      <trkpt lat="37.205564975738525" lon="-4.311725003644824">
        <ele>531.75</ele>
        <time>2025-05-10T11:07:23Z</time>
      </trkpt>
      <trkpt lat="37.205520970746875" lon="-4.311592988669872">
        <ele>533.19000000000005</ele>
        <time>2025-05-10T11:07:24Z</time>
      </trkpt>
      <trkpt lat="37.205514013767242" lon="-4.311452005058527">
        <ele>534.63</ele>
        <time>2025-05-10T11:07:25Z</time>
      </trkpt>
      <trkpt lat="37.205539997667074" lon="-4.311288977041841">
        <ele>536.07000000000005</ele>
        <time>2025-05-10T11:07:26Z</time>
      </trkpt>
      <trkpt lat="37.205566987395287" lon="-4.311116980388761">
        <ele>537.50999999999999</ele>
        <time>2025-05-10T11:07:27Z</time>
      </trkpt>
      <trkpt lat="37.20559598878026" lon="-4.310932997614145">
        <ele>538.96000000000004</ele>
        <time>2025-05-10T11:07:28Z</time>
      </trkpt>
      <trkpt lat="37.206024974584579" lon="-4.309325013309717">
        <ele>550.97000000000003</ele>
        <time>2025-05-10T11:07:36Z</time>
      </trkpt>
      <trkpt lat="37.206609025597572" lon="-4.307874022051692">
        <ele>563.95000000000005</ele>
        <time>2025-05-10T11:07:44Z</time>
      </trkpt>
      <trkpt lat="37.206785967573524" lon="-4.307379992678762">
        <ele>568.75999999999999</ele>
        <time>2025-05-10T11:07:47Z</time>
      </trkpt>
      <trkpt lat="37.206817986443639" lon="-4.307207996025682">
        <ele>570.20000000000005</ele>
        <time>2025-05-10T11:07:48Z</time>
      </trkpt>
      <trkpt lat="37.206846987828612" lon="-4.307057959958911">
        <ele>571.63999999999999</ele>
        <time>2025-05-10T11:07:49Z</time>
      </trkpt>
      <trkpt lat="37.2068199981004" lon="-4.306928962469101">
        <ele>573.08000000000004</ele>
        <time>2025-05-10T11:07:50Z</time>
      </trkpt>
      <trkpt lat="37.206767024472356" lon="-4.306769035756588">
        <ele>574.52999999999997</ele>
        <time>2025-05-10T11:07:51Z</time>
      </trkpt>
      <trkpt lat="37.206700975075364" lon="-4.30671296082437">
        <ele>575.49000000000001</ele>
        <time>2025-05-10T11:07:52Z</time>
      </trkpt>
      <trkpt lat="37.20658496953547" lon="-4.306629979982972">
        <ele>576.45000000000005</ele>
        <time>2025-05-10T11:07:53Z</time>
      </trkpt>
      <trkpt lat="37.20645597204566" lon="-4.306586980819702">
        <ele>577.40999999999997</ele>
        <time>2025-05-10T11:07:54Z</time>
      </trkpt>
      <trkpt lat="37.206327980384231" lon="-4.306544987484813">
        <ele>578.37</ele>
        <time>2025-05-10T11:07:55Z</time>
      </trkpt>
      <trkpt lat="37.205135989934206" lon="-4.306233013048768">
        <ele>589.42999999999995</ele>
        <time>2025-05-10T11:08:05Z</time>
      </trkpt>
      <trkpt lat="37.205029036849737" lon="-4.306165035814047">
        <ele>590.87</ele>
        <time>2025-05-10T11:08:06Z</time>
      </trkpt>
      <trkpt lat="37.204943038523197" lon="-4.30610996671021">
        <ele>591.83000000000004</ele>
        <time>2025-05-10T11:08:07Z</time>
      </trkpt>
      <trkpt lat="37.204881012439728" lon="-4.306047018617392">
        <ele>593.26999999999998</ele>
        <time>2025-05-10T11:08:08Z</time>
      </trkpt>
      <trkpt lat="37.204828960821033" lon="-4.305951967835426">
        <ele>594.23000000000002</ele>
        <time>2025-05-10T11:08:09Z</time>
      </trkpt>
      <trkpt lat="37.204771041870117" lon="-4.305846020579338">
        <ele>595.19000000000005</ele>
        <time>2025-05-10T11:08:10Z</time>
      </trkpt>
      <trkpt lat="37.20475897192955" lon="-4.305716017261148">
        <ele>596.14999999999998</ele>
        <time>2025-05-10T11:08:11Z</time>
      </trkpt>
      <trkpt lat="37.204745979979634" lon="-4.305576961487532">
        <ele>597.60000000000002</ele>
        <time>2025-05-10T11:08:12Z</time>
      </trkpt>
      <trkpt lat="37.204613965004683" lon="-4.304413972422481">
        <ele>604.33000000000004</ele>
        <time>2025-05-10T11:08:19Z</time>
      </trkpt>
      <trkpt lat="37.204603990539908" lon="-4.304267037659884">
        <ele>605.28999999999996</ele>
        <time>2025-05-10T11:08:20Z</time>
      </trkpt>
      <trkpt lat="37.204618994146585" lon="-4.304130999371409">
        <ele>606.25</ele>
        <time>2025-05-10T11:08:21Z</time>
      </trkpt>
      <trkpt lat="37.204673979431391" lon="-4.304033014923334">
        <ele>607.21000000000004</ele>
        <time>2025-05-10T11:08:22Z</time>
      </trkpt>
      <trkpt lat="37.204740028828382" lon="-4.303937964141369">
        <ele>608.16999999999996</ele>
        <time>2025-05-10T11:08:23Z</time>
      </trkpt>
      <trkpt lat="37.204824015498161" lon="-4.303864035755396">
        <ele>608.64999999999998</ele>
        <time>2025-05-10T11:08:24Z</time>
      </trkpt>
      <trkpt lat="37.204935997724533" lon="-4.303803015500307">
        <ele>609.61000000000001</ele>
        <time>2025-05-10T11:08:25Z</time>
      </trkpt>
      <trkpt lat="37.20505896024406" lon="-4.303756998851895">
        <ele>610.57000000000005</ele>
        <time>2025-05-10T11:08:26Z</time>
      </trkpt>
      <trkpt lat="37.205174965783954" lon="-4.303712993860245">
        <ele>611.53999999999996</ele>
        <time>2025-05-10T11:08:27Z</time>
      </trkpt>
      <trkpt lat="37.205264987424016" lon="-4.303679969161749">
        <ele>612.5</ele>
        <time>2025-05-10T11:08:28Z</time>
      </trkpt>
      <trkpt lat="37.205335982143879" lon="-4.303565975278616">
        <ele>613.46000000000004</ele>
        <time>2025-05-10T11:08:29Z</time>
      </trkpt>
      <trkpt lat="37.205389039590955" lon="-4.303458016365767">
        <ele>614.89999999999998</ele>
        <time>2025-05-10T11:08:30Z</time>
      </trkpt>
      <trkpt lat="37.205436984077096" lon="-4.30331502109766">
        <ele>615.86000000000001</ele>
        <time>2025-05-10T11:08:31Z</time>
      </trkpt>
      <trkpt lat="37.20546598546207" lon="-4.303169008344412">
        <ele>617.29999999999995</ele>
        <time>2025-05-10T11:08:32Z</time>
      </trkpt>
      <trkpt lat="37.205570004880428" lon="-4.302726024761796">
        <ele>620.19000000000005</ele>
        <time>2025-05-10T11:08:35Z</time>
      </trkpt>
      <trkpt lat="37.205625995993614" lon="-4.302614964544773">
        <ele>621.63</ele>
        <time>2025-05-10T11:08:36Z</time>
      </trkpt>
      <trkpt lat="37.205691961571574" lon="-4.3025410361588">
        <ele>622.59000000000003</ele>
        <time>2025-05-10T11:08:37Z</time>
      </trkpt>
      <trkpt lat="37.205772008746862" lon="-4.302495019510388">
        <ele>623.54999999999995</ele>
        <time>2025-05-10T11:08:38Z</time>
      </trkpt>
      <trkpt lat="37.205848032608628" lon="-4.302466018125415">
        <ele>624.50999999999999</ele>
        <time>2025-05-10T11:08:39Z</time>
      </trkpt>
      <trkpt lat="37.205922966822982" lon="-4.302438022568822">
        <ele>624.99000000000001</ele>
        <time>2025-05-10T11:08:40Z</time>
      </trkpt>
      <trkpt lat="37.205985998734832" lon="-4.302407009527087">
        <ele>625.47000000000003</ele>
        <time>2025-05-10T11:08:41Z</time>
      </trkpt>
      <trkpt lat="37.206050958484411" lon="-4.302374990656972">
        <ele>626.44000000000005</ele>
        <time>2025-05-10T11:08:42Z</time>
      </trkpt>
      <trkpt lat="37.206119019538164" lon="-4.302340960130096">
        <ele>626.91999999999996</ele>
        <time>2025-05-10T11:08:43Z</time>
      </trkpt>
      <trkpt lat="37.206178028136492" lon="-4.302292009815574">
        <ele>627.88</ele>
        <time>2025-05-10T11:08:44Z</time>
      </trkpt>
      <trkpt lat="37.206234019249678" lon="-4.302230989560485">
        <ele>628.36000000000001</ele>
        <time>2025-05-10T11:08:45Z</time>
      </trkpt>
      <trkpt lat="37.206290010362864" lon="-4.302169969305396">
        <ele>628.36000000000001</ele>
        <time>2025-05-10T11:08:46Z</time>
      </trkpt>
      <trkpt lat="37.206607013940811" lon="-4.30176897905767">
        <ele>631.72000000000003</ele>
        <time>2025-05-10T11:08:52Z</time>
      </trkpt>
      <trkpt lat="37.206653030589223" lon="-4.301689015701413">
        <ele>633.16999999999996</ele>
        <time>2025-05-10T11:08:53Z</time>
      </trkpt>
      <trkpt lat="37.206698041409254" lon="-4.301591031253338">
        <ele>634.13</ele>
        <time>2025-05-10T11:08:54Z</time>
      </trkpt>
      <trkpt lat="37.206729976460338" lon="-4.301487011834979">
        <ele>635.09000000000003</ele>
        <time>2025-05-10T11:08:55Z</time>
      </trkpt>
      <trkpt lat="37.206752020865679" lon="-4.30138198658824">
        <ele>636.04999999999995</ele>
        <time>2025-05-10T11:08:56Z</time>
      </trkpt>
      <trkpt lat="37.206774987280369" lon="-4.301276039332151">
        <ele>637.00999999999999</ele>
        <time>2025-05-10T11:08:57Z</time>
      </trkpt>
      <trkpt lat="37.207061983644962" lon="-4.300036020576954">
        <ele>642.29999999999995</ele>
        <time>2025-05-10T11:09:08Z</time>
      </trkpt>
      <trkpt lat="37.207202967256308" lon="-4.299464961513877">
        <ele>645.65999999999997</ele>
        <time>2025-05-10T11:09:13Z</time>
      </trkpt>
      <trkpt lat="37.207215959206223" lon="-4.299349039793015">
        <ele>646.62</ele>
        <time>2025-05-10T11:09:14Z</time>
      </trkpt>
      <trkpt lat="37.207202967256308" lon="-4.299237979575992">
        <ele>648.07000000000005</ele>
        <time>2025-05-10T11:09:15Z</time>
      </trkpt>
      <trkpt lat="37.207070030272007" lon="-4.298224020749331">
        <ele>654.30999999999995</ele>
        <time>2025-05-10T11:09:25Z</time>
      </trkpt>
      <trkpt lat="37.207076987251639" lon="-4.298096029087901">
        <ele>655.27999999999997</ele>
        <time>2025-05-10T11:09:26Z</time>
      </trkpt>
      <trkpt lat="37.207086961716413" lon="-4.297968037426472">
        <ele>655.27999999999997</ele>
        <time>2025-05-10T11:09:27Z</time>
      </trkpt>
      <trkpt lat="37.207119986414909" lon="-4.297847002744675">
        <ele>655.75999999999999</ele>
        <time>2025-05-10T11:09:28Z</time>
      </trkpt>
      <trkpt lat="37.207156028598547" lon="-4.297724962234497">
        <ele>656.24000000000001</ele>
        <time>2025-05-10T11:09:29Z</time>
      </trkpt>
      <trkpt lat="37.207189975306392" lon="-4.297606023028493">
        <ele>656.24000000000001</ele>
        <time>2025-05-10T11:09:30Z</time>
      </trkpt>
      <trkpt lat="37.207221994176507" lon="-4.297494040802121">
        <ele>656.72000000000003</ele>
        <time>2025-05-10T11:09:31Z</time>
      </trkpt>
      <trkpt lat="37.207223000004888" lon="-4.297372000291944">
        <ele>657.20000000000005</ele>
        <time>2025-05-10T11:09:32Z</time>
      </trkpt>
      <trkpt lat="37.207195004448295" lon="-4.297260018065572">
        <ele>657.67999999999995</ele>
        <time>2025-05-10T11:09:33Z</time>
      </trkpt>
      <trkpt lat="37.207167008891702" lon="-4.297139989212155">
        <ele>658.15999999999997</ele>
        <time>2025-05-10T11:09:34Z</time>
      </trkpt>
      <trkpt lat="37.207113029435277" lon="-4.29686900228262">
        <ele>659.60000000000002</ele>
        <time>2025-05-10T11:09:36Z</time>
      </trkpt>
      <trkpt lat="37.207124009728432" lon="-4.296721983700991">
        <ele>660.08000000000004</ele>
        <time>2025-05-10T11:09:37Z</time>
      </trkpt>
      <trkpt lat="37.207147981971502" lon="-4.296575970947743">
        <ele>661.03999999999996</ele>
        <time>2025-05-10T11:09:38Z</time>
      </trkpt>
      <trkpt lat="37.207183018326759" lon="-4.296428030356765">
        <ele>661.51999999999998</ele>
        <time>2025-05-10T11:09:39Z</time>
      </trkpt>
      <trkpt lat="37.207218976691365" lon="-4.296279000118375">
        <ele>662.00999999999999</ele>
        <time>2025-05-10T11:09:40Z</time>
      </trkpt>
      <trkpt lat="37.207348980009556" lon="-4.295908017084003">
        <ele>663.92999999999995</ele>
        <time>2025-05-10T11:09:43Z</time>
      </trkpt>
      <trkpt lat="37.207407988607883" lon="-4.295810032635927">
        <ele>664.40999999999997</ele>
        <time>2025-05-10T11:09:44Z</time>
      </trkpt>
      <trkpt lat="37.207491975277662" lon="-4.295757981017232">
        <ele>664.40999999999997</ele>
        <time>2025-05-10T11:09:45Z</time>
      </trkpt>
      <trkpt lat="37.207578979432583" lon="-4.295719005167484">
        <ele>664.88999999999999</ele>
        <time>2025-05-10T11:09:46Z</time>
      </trkpt>
      <trkpt lat="37.207685010507703" lon="-4.295719005167484">
        <ele>665.37</ele>
        <time>2025-05-10T11:09:47Z</time>
      </trkpt>
      <trkpt lat="37.20778601244092" lon="-4.295725962147117">
        <ele>666.33000000000004</ele>
        <time>2025-05-10T11:09:48Z</time>
      </trkpt>
      <trkpt lat="37.207893971353769" lon="-4.2957510240376">
        <ele>666.80999999999995</ele>
        <time>2025-05-10T11:09:49Z</time>
      </trkpt>
      <trkpt lat="37.208119025453925" lon="-4.295805003494024">
        <ele>667.76999999999998</ele>
        <time>2025-05-10T11:09:51Z</time>
      </trkpt>
      <trkpt lat="37.208321029320359" lon="-4.295920003205538">
        <ele>668.25</ele>
        <time>2025-05-10T11:09:53Z</time>
      </trkpt>
      <trkpt lat="37.208427982404828" lon="-4.295986974611878">
        <ele>668.73000000000002</ele>
        <time>2025-05-10T11:09:54Z</time>
      </trkpt>
      <trkpt lat="37.208723025396466" lon="-4.296084037050605">
        <ele>670.17999999999995</ele>
        <time>2025-05-10T11:09:57Z</time>
      </trkpt>
      <trkpt lat="37.20881899818778" lon="-4.29609602317214">
        <ele>670.65999999999997</ele>
        <time>2025-05-10T11:09:58Z</time>
      </trkpt>
      <trkpt lat="37.20901396125555" lon="-4.296064004302025">
        <ele>672.10000000000002</ele>
        <time>2025-05-10T11:10:00Z</time>
      </trkpt>
      <trkpt lat="37.209123009815812" lon="-4.296027962118387">
        <ele>673.05999999999995</ele>
        <time>2025-05-10T11:10:01Z</time>
      </trkpt>
      <trkpt lat="37.209237003698945" lon="-4.29598999209702">
        <ele>673.53999999999996</ele>
        <time>2025-05-10T11:10:02Z</time>
      </trkpt>
      <trkpt lat="37.209344962611794" lon="-4.295928971841931">
        <ele>674.01999999999998</ele>
        <time>2025-05-10T11:10:03Z</time>
      </trkpt>
      <trkpt lat="37.209456022828817" lon="-4.295853031799197">
        <ele>674.5</ele>
        <time>2025-05-10T11:10:04Z</time>
      </trkpt>
      <trkpt lat="37.209557024762034" lon="-4.295782959088683">
        <ele>674.5</ele>
        <time>2025-05-10T11:10:05Z</time>
      </trkpt>
      <trkpt lat="37.2096779756248" lon="-4.295650022104383">
        <ele>674.5</ele>
        <time>2025-05-10T11:10:06Z</time>
      </trkpt>
      <trkpt lat="37.209790963679552" lon="-4.295525969937444">
        <ele>674.5</ele>
        <time>2025-05-10T11:10:07Z</time>
      </trkpt>
      <trkpt lat="37.209902023896575" lon="-4.295405019074678">
        <ele>673.53999999999996</ele>
        <time>2025-05-10T11:10:08Z</time>
      </trkpt>
      <trkpt lat="37.210009982809424" lon="-4.295283984392881">
        <ele>673.05999999999995</ele>
        <time>2025-05-10T11:10:09Z</time>
      </trkpt>
      <trkpt lat="37.210079971700907" lon="-4.295143000781536">
        <ele>672.58000000000004</ele>
        <time>2025-05-10T11:10:10Z</time>
      </trkpt>
      <trkpt lat="37.210116013884544" lon="-4.29498097859323">
        <ele>671.62</ele>
        <time>2025-05-10T11:10:11Z</time>
      </trkpt>
      <trkpt lat="37.210132023319602" lon="-4.294811999425292">
        <ele>671.62</ele>
        <time>2025-05-10T11:10:12Z</time>
      </trkpt>
      <trkpt lat="37.210116013884544" lon="-4.294638996943831">
        <ele>671.62</ele>
        <time>2025-05-10T11:10:13Z</time>
      </trkpt>
      <trkpt lat="37.210098998621106" lon="-4.294459037482739">
        <ele>671.62</ele>
        <time>2025-05-10T11:10:14Z</time>
      </trkpt>
      <trkpt lat="37.210134034976363" lon="-4.292919030413032">
        <ele>674.01999999999998</ele>
        <time>2025-05-10T11:10:22Z</time>
      </trkpt>
      <trkpt lat="37.210207041352987" lon="-4.292468000203371">
        <ele>676.90999999999997</ele>
        <time>2025-05-10T11:10:25Z</time>
      </trkpt>
      <trkpt lat="37.210266971960664" lon="-4.292361969128251">
        <ele>677.87</ele>
        <time>2025-05-10T11:10:26Z</time>
      </trkpt>
      <trkpt lat="37.21034299582243" lon="-4.292273037135601">
        <ele>678.83000000000004</ele>
        <time>2025-05-10T11:10:27Z</time>
      </trkpt>
      <trkpt lat="37.210432011634111" lon="-4.292217968031764">
        <ele>679.30999999999995</ele>
        <time>2025-05-10T11:10:28Z</time>
      </trkpt>
      <trkpt lat="37.21053603105247" lon="-4.292179998010397">
        <ele>680.26999999999998</ele>
        <time>2025-05-10T11:10:29Z</time>
      </trkpt>
      <trkpt lat="37.2106640227139" lon="-4.292186032980681">
        <ele>681.71000000000004</ele>
        <time>2025-05-10T11:10:30Z</time>
      </trkpt>
      <trkpt lat="37.210792014375329" lon="-4.292191984131932">
        <ele>682.66999999999996</ele>
        <time>2025-05-10T11:10:31Z</time>
      </trkpt>
      <trkpt lat="37.210910031571984" lon="-4.292198019102216">
        <ele>683.63</ele>
        <time>2025-05-10T11:10:32Z</time>
      </trkpt>
      <trkpt lat="37.211015978828073" lon="-4.292160971090198">
        <ele>684.12</ele>
        <time>2025-05-10T11:10:33Z</time>
      </trkpt>
      <trkpt lat="37.211111029610038" lon="-4.292103974148631">
        <ele>684.60000000000002</ele>
        <time>2025-05-10T11:10:34Z</time>
      </trkpt>
      <trkpt lat="37.211185963824391" lon="-4.292029961943626">
        <ele>685.08000000000004</ele>
        <time>2025-05-10T11:10:35Z</time>
      </trkpt>
      <trkpt lat="37.211238015443087" lon="-4.29192703217268">
        <ele>685.55999999999995</ele>
        <time>2025-05-10T11:10:36Z</time>
      </trkpt>
      <trkpt lat="37.211263999342918" lon="-4.291808009147644">
        <ele>686.03999999999996</ele>
        <time>2025-05-10T11:10:37Z</time>
      </trkpt>
      <trkpt lat="37.211283026263118" lon="-4.291667025536299">
        <ele>686.51999999999998</ele>
        <time>2025-05-10T11:10:38Z</time>
      </trkpt>
      <trkpt lat="37.211302975192666" lon="-4.29152000695467">
        <ele>687.48000000000002</ele>
        <time>2025-05-10T11:10:39Z</time>
      </trkpt>
      <trkpt lat="37.211345974355936" lon="-4.291206020861864">
        <ele>688.91999999999996</ele>
        <time>2025-05-10T11:10:41Z</time>
      </trkpt>
      <trkpt lat="37.211368018761277" lon="-4.291046010330319">
        <ele>689.88</ele>
        <time>2025-05-10T11:10:42Z</time>
      </trkpt>
      <trkpt lat="37.211487041786313" lon="-4.290740992873907">
        <ele>692.28999999999996</ele>
        <time>2025-05-10T11:10:44Z</time>
      </trkpt>
      <trkpt lat="37.21156801097095" lon="-4.29059598594904">
        <ele>692.76999999999998</ele>
        <time>2025-05-10T11:10:45Z</time>
      </trkpt>
      <trkpt lat="37.211680999025702" lon="-4.290482997894287">
        <ele>693.73000000000002</ele>
        <time>2025-05-10T11:10:46Z</time>
      </trkpt>
      <trkpt lat="37.211778983473778" lon="-4.290371015667915">
        <ele>694.69000000000005</ele>
        <time>2025-05-10T11:10:47Z</time>
      </trkpt>
      <trkpt lat="37.211856013163924" lon="-4.290248975157738">
        <ele>695.64999999999998</ele>
        <time>2025-05-10T11:10:48Z</time>
      </trkpt>
      <trkpt lat="37.211909992620349" lon="-4.290115032345057">
        <ele>696.61000000000001</ele>
        <time>2025-05-10T11:10:49Z</time>
      </trkpt>
      <trkpt lat="37.211917033419013" lon="-4.289961978793144">
        <ele>697.57000000000005</ele>
        <time>2025-05-10T11:10:50Z</time>
      </trkpt>
      <trkpt lat="37.211904963478446" lon="-4.28980004042387">
        <ele>698.04999999999995</ele>
        <time>2025-05-10T11:10:51Z</time>
      </trkpt>
      <trkpt lat="37.211872022598982" lon="-4.2896309774369">
        <ele>698.52999999999997</ele>
        <time>2025-05-10T11:10:52Z</time>
      </trkpt>
      <trkpt lat="37.211837992072105" lon="-4.289453029632568">
        <ele>699.01999999999998</ele>
        <time>2025-05-10T11:10:53Z</time>
      </trkpt>
      <trkpt lat="37.21180496737361" lon="-4.289281032979488">
        <ele>699.98000000000002</ele>
        <time>2025-05-10T11:10:54Z</time>
      </trkpt>
      <trkpt lat="37.211793987080455" lon="-4.289110964164138">
        <ele>700.94000000000005</ele>
        <time>2025-05-10T11:10:55Z</time>
      </trkpt>
      <trkpt lat="37.21180597320199" lon="-4.288932010531426">
        <ele>701.89999999999998</ele>
        <time>2025-05-10T11:10:56Z</time>
      </trkpt>
      <trkpt lat="37.21184603869915" lon="-4.288755990564823">
        <ele>702.86000000000001</ele>
        <time>2025-05-10T11:10:57Z</time>
      </trkpt>
      <trkpt lat="37.211898006498814" lon="-4.288582988083363">
        <ele>703.82000000000005</ele>
        <time>2025-05-10T11:10:58Z</time>
      </trkpt>
      <trkpt lat="37.211949974298477" lon="-4.288414008915424">
        <ele>704.77999999999997</ele>
        <time>2025-05-10T11:10:59Z</time>
      </trkpt>
      <trkpt lat="37.212001020088792" lon="-4.288248969241977">
        <ele>705.75</ele>
        <time>2025-05-10T11:11:00Z</time>
      </trkpt>
      <trkpt lat="37.212046030908823" lon="-4.288101028650999">
        <ele>706.71000000000004</ele>
        <time>2025-05-10T11:11:01Z</time>
      </trkpt>
      <trkpt lat="37.212119037285447" lon="-4.287963984534144">
        <ele>707.66999999999996</ele>
        <time>2025-05-10T11:11:02Z</time>
      </trkpt>
      <trkpt lat="37.212179973721504" lon="-4.287852002307773">
        <ele>708.14999999999998</ele>
        <time>2025-05-10T11:11:03Z</time>
      </trkpt>
      <trkpt lat="37.212247028946877" lon="-4.287787964567542">
        <ele>709.11000000000001</ele>
        <time>2025-05-10T11:11:04Z</time>
      </trkpt>
      <trkpt lat="37.212332021445036" lon="-4.287731973454356">
        <ele>709.11000000000001</ele>
        <time>2025-05-10T11:11:05Z</time>
      </trkpt>
      <trkpt lat="37.212425982579589" lon="-4.287689980119467">
        <ele>709.59000000000003</ele>
        <time>2025-05-10T11:11:06Z</time>
      </trkpt>
      <trkpt lat="37.212541988119483" lon="-4.287677993997932">
        <ele>710.07000000000005</ele>
        <time>2025-05-10T11:11:07Z</time>
      </trkpt>
      <trkpt lat="37.212672997266054" lon="-4.287665002048016">
        <ele>710.07000000000005</ele>
        <time>2025-05-10T11:11:08Z</time>
      </trkpt>
      <trkpt lat="37.212821021676064" lon="-4.287651004269719">
        <ele>710.54999999999995</ele>
        <time>2025-05-10T11:11:09Z</time>
      </trkpt>
      <trkpt lat="37.21412600018084" lon="-4.287642035633326">
        <ele>704.77999999999997</ele>
        <time>2025-05-10T11:11:16Z</time>
      </trkpt>
      <trkpt lat="37.215652009472251" lon="-4.287648992612958">
        <ele>702.38</ele>
        <time>2025-05-10T11:11:24Z</time>
      </trkpt>
      <trkpt lat="37.215804979205132" lon="-4.287687968462706">
        <ele>702.86000000000001</ele>
        <time>2025-05-10T11:11:25Z</time>
      </trkpt>
      <trkpt lat="37.2163160238415" lon="-4.287832975387573">
        <ele>704.77999999999997</ele>
        <time>2025-05-10T11:11:29Z</time>
      </trkpt>
      <trkpt lat="37.216414008289576" lon="-4.287809003144503">
        <ele>705.25999999999999</ele>
        <time>2025-05-10T11:11:30Z</time>
      </trkpt>
      <trkpt lat="37.216491037979722" lon="-4.287754017859697">
        <ele>706.23000000000002</ele>
        <time>2025-05-10T11:11:31Z</time>
      </trkpt>
      <trkpt lat="37.216564966365695" lon="-4.287681011483073">
        <ele>706.71000000000004</ele>
        <time>2025-05-10T11:11:32Z</time>
      </trkpt>
      <trkpt lat="37.21661701798439" lon="-4.287595013156533">
        <ele>707.66999999999996</ele>
        <time>2025-05-10T11:11:33Z</time>
      </trkpt>
      <trkpt lat="37.216665968298912" lon="-4.287470960989595">
        <ele>708.63</ele>
        <time>2025-05-10T11:11:34Z</time>
      </trkpt>
      <trkpt lat="37.216721959412098" lon="-4.287332994863391">
        <ele>709.59000000000003</ele>
        <time>2025-05-10T11:11:35Z</time>
      </trkpt>
      <trkpt lat="37.216782979667187" lon="-4.287192011252046">
        <ele>710.54999999999995</ele>
        <time>2025-05-10T11:11:36Z</time>
      </trkpt>
      <trkpt lat="37.216855986043811" lon="-4.287058990448713">
        <ele>711.50999999999999</ele>
        <time>2025-05-10T11:11:37Z</time>
      </trkpt>
      <trkpt lat="37.216951958835125" lon="-4.286940973252058">
        <ele>712.47000000000003</ele>
        <time>2025-05-10T11:11:38Z</time>
      </trkpt>
      <trkpt lat="37.217055978253484" lon="-4.286825973540545">
        <ele>713.44000000000005</ele>
        <time>2025-05-10T11:11:39Z</time>
      </trkpt>
      <trkpt lat="37.217177012935281" lon="-4.286733018234372">
        <ele>714.39999999999998</ele>
        <time>2025-05-10T11:11:40Z</time>
      </trkpt>
      <trkpt lat="37.217297041788697" lon="-4.286645008251071">
        <ele>714.88</ele>
        <time>2025-05-10T11:11:41Z</time>
      </trkpt>
      <trkpt lat="37.217682022601366" lon="-4.286346025764942">
        <ele>719.67999999999995</ele>
        <time>2025-05-10T11:11:45Z</time>
      </trkpt>
      <trkpt lat="37.217839015647769" lon="-4.286221973598003">
        <ele>721.61000000000001</ele>
        <time>2025-05-10T11:11:47Z</time>
      </trkpt>
      <trkpt lat="37.217984022572637" lon="-4.286089958623052">
        <ele>723.52999999999997</ele>
        <time>2025-05-10T11:11:49Z</time>
      </trkpt>
      <trkpt lat="37.218059040606022" lon="-4.286011001095176">
        <ele>724.49000000000001</ele>
        <time>2025-05-10T11:11:50Z</time>
      </trkpt>
      <trkpt lat="37.218347964808345" lon="-4.285573968663812">
        <ele>729.29999999999995</ele>
        <time>2025-05-10T11:11:55Z</time>
      </trkpt>
      <trkpt lat="37.218817016109824" lon="-4.284812975674868">
        <ele>735.54999999999995</ele>
        <time>2025-05-10T11:12:05Z</time>
      </trkpt>
      <trkpt lat="37.218968980014324" lon="-4.284585993736982">
        <ele>737.47000000000003</ele>
        <time>2025-05-10T11:12:08Z</time>
      </trkpt>
      <trkpt lat="37.219601981341839" lon="-4.283632971346378">
        <ele>744.20000000000005</ele>
        <time>2025-05-10T11:12:18Z</time>
      </trkpt>
      <trkpt lat="37.22039801068604" lon="-4.282460007816553">
        <ele>755.25</ele>
        <time>2025-05-10T11:12:27Z</time>
      </trkpt>
      <trkpt lat="37.220495995134115" lon="-4.28236797451973">
        <ele>756.69000000000005</ele>
        <time>2025-05-10T11:12:28Z</time>
      </trkpt>
      <trkpt lat="37.220590962097049" lon="-4.282277030870318">
        <ele>758.13999999999999</ele>
        <time>2025-05-10T11:12:29Z</time>
      </trkpt>
      <trkpt lat="37.220690958201885" lon="-4.28219597786665">
        <ele>760.05999999999995</ele>
        <time>2025-05-10T11:12:30Z</time>
      </trkpt>
      <trkpt lat="37.220810987055302" lon="-4.282168988138437">
        <ele>761.5</ele>
        <time>2025-05-10T11:12:31Z</time>
      </trkpt>
      <trkpt lat="37.220940990373492" lon="-4.282170999795198">
        <ele>762.94000000000005</ele>
        <time>2025-05-10T11:12:32Z</time>
      </trkpt>
      <trkpt lat="37.221071999520063" lon="-4.282193966209889">
        <ele>764.38999999999999</ele>
        <time>2025-05-10T11:12:33Z</time>
      </trkpt>
      <trkpt lat="37.221206026151776" lon="-4.282218022271991">
        <ele>765.83000000000004</ele>
        <time>2025-05-10T11:12:34Z</time>
      </trkpt>
      <trkpt lat="37.221466032788157" lon="-4.282264960929751">
        <ele>768.23000000000002</ele>
        <time>2025-05-10T11:12:36Z</time>
      </trkpt>
      <trkpt lat="37.2215829603374" lon="-4.282235959544778">
        <ele>769.66999999999996</ele>
        <time>2025-05-10T11:12:37Z</time>
      </trkpt>
      <trkpt lat="37.221684968098998" lon="-4.282186003401876">
        <ele>770.63</ele>
        <time>2025-05-10T11:12:38Z</time>
      </trkpt>
      <trkpt lat="37.221784964203835" lon="-4.28211098536849">
        <ele>771.60000000000002</ele>
        <time>2025-05-10T11:12:39Z</time>
      </trkpt>
      <trkpt lat="37.221867023035884" lon="-4.281999003142119">
        <ele>772.55999999999995</ele>
        <time>2025-05-10T11:12:40Z</time>
      </trkpt>
      <trkpt lat="37.221944974735379" lon="-4.28187201730907">
        <ele>773.03999999999996</ele>
        <time>2025-05-10T11:12:41Z</time>
      </trkpt>
      <trkpt lat="37.222002977505326" lon="-4.281726004555821">
        <ele>773.51999999999998</ele>
        <time>2025-05-10T11:12:42Z</time>
      </trkpt>
      <trkpt lat="37.222042959183455" lon="-4.281563982367516">
        <ele>774</ele>
        <time>2025-05-10T11:12:43Z</time>
      </trkpt>
      <trkpt lat="37.222080007195473" lon="-4.281415035948157">
        <ele>774</ele>
        <time>2025-05-10T11:12:44Z</time>
      </trkpt>
      <trkpt lat="37.222143039107323" lon="-4.28129299543798">
        <ele>774</ele>
        <time>2025-05-10T11:12:45Z</time>
      </trkpt>
      <trkpt lat="37.222212022170424" lon="-4.281177995726466">
        <ele>773.51999999999998</ele>
        <time>2025-05-10T11:12:46Z</time>
      </trkpt>
      <trkpt lat="37.222305983304977" lon="-4.281095014885068">
        <ele>773.03999999999996</ele>
        <time>2025-05-10T11:12:47Z</time>
      </trkpt>
      <trkpt lat="37.222410002723336" lon="-4.281005999073386">
        <ele>773.03999999999996</ele>
        <time>2025-05-10T11:12:48Z</time>
      </trkpt>
      <trkpt lat="37.222519973292947" lon="-4.280912959948182">
        <ele>772.55999999999995</ele>
        <time>2025-05-10T11:12:49Z</time>
      </trkpt>
      <trkpt lat="37.222821973264217" lon="-4.280655970796943">
        <ele>771.60000000000002</ele>
        <time>2025-05-10T11:12:52Z</time>
      </trkpt>
      <trkpt lat="37.222924986854196" lon="-4.280569972470403">
        <ele>771.11000000000001</ele>
        <time>2025-05-10T11:12:53Z</time>
      </trkpt>
      <trkpt lat="37.222962034866214" lon="-4.280470982193947">
        <ele>770.63</ele>
        <time>2025-05-10T11:12:54Z</time>
      </trkpt>
      <trkpt lat="37.222991958260536" lon="-4.280340978875756">
        <ele>770.14999999999998</ele>
        <time>2025-05-10T11:12:55Z</time>
      </trkpt>
      <trkpt lat="37.223000004887581" lon="-4.280203012749553">
        <ele>769.66999999999996</ele>
        <time>2025-05-10T11:12:56Z</time>
      </trkpt>
      <trkpt lat="37.223007967695594" lon="-4.280058005824685">
        <ele>769.19000000000005</ele>
        <time>2025-05-10T11:12:57Z</time>
      </trkpt>
      <trkpt lat="37.223017020151019" lon="-4.279907969757915">
        <ele>769.19000000000005</ele>
        <time>2025-05-10T11:12:58Z</time>
      </trkpt>
      <trkpt lat="37.223025988787413" lon="-4.279755000025034">
        <ele>769.19000000000005</ele>
        <time>2025-05-10T11:12:59Z</time>
      </trkpt>
      <trkpt lat="37.223048033192754" lon="-4.279605969786644">
        <ele>769.19000000000005</ele>
        <time>2025-05-10T11:13:00Z</time>
      </trkpt>
      <trkpt lat="37.223103018477559" lon="-4.279462974518538">
        <ele>769.19000000000005</ele>
        <time>2025-05-10T11:13:01Z</time>
      </trkpt>
      <trkpt lat="37.223164960741997" lon="-4.279327020049095">
        <ele>769.19000000000005</ele>
        <time>2025-05-10T11:13:02Z</time>
      </trkpt>
      <trkpt lat="37.223239978775382" lon="-4.279201962053776">
        <ele>769.19000000000005</ele>
        <time>2025-05-10T11:13:03Z</time>
      </trkpt>
      <trkpt lat="37.223313990980387" lon="-4.279083022847772">
        <ele>769.66999999999996</ele>
        <time>2025-05-10T11:13:04Z</time>
      </trkpt>
      <trkpt lat="37.223391020670533" lon="-4.278966011479497">
        <ele>770.14999999999998</ele>
        <time>2025-05-10T11:13:05Z</time>
      </trkpt>
      <trkpt lat="37.223496967926621" lon="-4.278875989839435">
        <ele>770.63</ele>
        <time>2025-05-10T11:13:06Z</time>
      </trkpt>
      <trkpt lat="37.223615990951657" lon="-4.278790997341275">
        <ele>771.11000000000001</ele>
        <time>2025-05-10T11:13:07Z</time>
      </trkpt>
      <trkpt lat="37.223740965127945" lon="-4.278701981529594">
        <ele>771.60000000000002</ele>
        <time>2025-05-10T11:13:08Z</time>
      </trkpt>
      <trkpt lat="37.22387901507318" lon="-4.278634004294872">
        <ele>772.08000000000004</ele>
        <time>2025-05-10T11:13:09Z</time>
      </trkpt>
      <trkpt lat="37.225054996088147" lon="-4.278057999908924">
        <ele>777.36000000000001</ele>
        <time>2025-05-10T11:13:17Z</time>
      </trkpt>
      <trkpt lat="37.225823029875755" lon="-4.277621973305941">
        <ele>781.21000000000004</ele>
        <time>2025-05-10T11:13:23Z</time>
      </trkpt>
      <trkpt lat="37.225896958261728" lon="-4.277530023828149">
        <ele>782.16999999999996</ele>
        <time>2025-05-10T11:13:24Z</time>
      </trkpt>
      <trkpt lat="37.225964013487101" lon="-4.277431033551693">
        <ele>783.13</ele>
        <time>2025-05-10T11:13:25Z</time>
      </trkpt>
      <trkpt lat="37.226424012333155" lon="-4.276769030839205">
        <ele>785.52999999999997</ele>
        <time>2025-05-10T11:13:33Z</time>
      </trkpt>
      <trkpt lat="37.22649903036654" lon="-4.2766950186342">
        <ele>786.01999999999998</ele>
        <time>2025-05-10T11:13:34Z</time>
      </trkpt>
      <trkpt lat="37.226577987894416" lon="-4.276635004207492">
        <ele>786.01999999999998</ele>
        <time>2025-05-10T11:13:35Z</time>
      </trkpt>
      <trkpt lat="37.226668009534478" lon="-4.276607008650899">
        <ele>786.01999999999998</ele>
        <time>2025-05-10T11:13:36Z</time>
      </trkpt>
      <trkpt lat="37.226760964840651" lon="-4.276578007265925">
        <ele>786.01999999999998</ele>
        <time>2025-05-10T11:13:37Z</time>
      </trkpt>
      <trkpt lat="37.226850986480713" lon="-4.276559986174107">
        <ele>786.01999999999998</ele>
        <time>2025-05-10T11:13:38Z</time>
      </trkpt>
      <trkpt lat="37.226940002292395" lon="-4.276572978124023">
        <ele>786.01999999999998</ele>
        <time>2025-05-10T11:13:39Z</time>
      </trkpt>
      <trkpt lat="37.227021977305412" lon="-4.276585970073938">
        <ele>786.01999999999998</ele>
        <time>2025-05-10T11:13:40Z</time>
      </trkpt>
      <trkpt lat="37.227098001167178" lon="-4.276597034186125">
        <ele>786.01999999999998</ele>
        <time>2025-05-10T11:13:41Z</time>
      </trkpt>
      <trkpt lat="37.227353984490037" lon="-4.276601979508996">
        <ele>786.01999999999998</ele>
        <time>2025-05-10T11:13:48Z</time>
      </trkpt>
      <trkpt lat="37.227388015016913" lon="-4.276596028357744">
        <ele>785.52999999999997</ele>
        <time>2025-05-10T11:14:00Z</time>
      </trkpt>
      <trkpt lat="37.227388015016913" lon="-4.276596028357744">
        <ele>785.52999999999997</ele>
        <time>2025-05-10T11:14:41Z</time>
      </trkpt>
      <trkpt lat="37.227455992251635" lon="-4.276582030579448">
        <ele>785.04999999999995</ele>
        <time>2025-05-10T11:14:42Z</time>
      </trkpt>
      <trkpt lat="37.227536961436272" lon="-4.276516987010837">
        <ele>783.61000000000001</ele>
        <time>2025-05-10T11:14:44Z</time>
      </trkpt>
      <trkpt lat="37.227585995569825" lon="-4.276468958705664">
        <ele>783.13</ele>
        <time>2025-05-10T11:14:45Z</time>
      </trkpt>
      <trkpt lat="37.22793904133141" lon="-4.276125971227884">
        <ele>781.21000000000004</ele>
        <time>2025-05-10T11:14:52Z</time>
      </trkpt>
      <trkpt lat="37.228060998022556" lon="-4.27600895985961">
        <ele>780.25</ele>
        <time>2025-05-10T11:14:55Z</time>
      </trkpt>
      <trkpt lat="37.228193012997508" lon="-4.2758799623698">
        <ele>779.76999999999998</ele>
        <time>2025-05-10T11:14:58Z</time>
      </trkpt>
      <trkpt lat="37.228280017152429" lon="-4.275840986520052">
        <ele>779.28999999999996</ele>
        <time>2025-05-10T11:15:06Z</time>
      </trkpt>
      <trkpt lat="37.228280017152429" lon="-4.275840986520052">
        <ele>778.80999999999995</ele>
        <time>2025-05-10T11:15:50Z</time>
      </trkpt>
      <trkpt lat="37.228280017152429" lon="-4.275840986520052">
        <ele>778.80999999999995</ele>
        <time>2025-05-10T11:16:41Z</time>
      </trkpt>
      <trkpt lat="37.228516973555088" lon="-4.275696985423565">
        <ele>779.28999999999996</ele>
        <time>2025-05-10T11:16:55Z</time>
      </trkpt>
      <trkpt lat="37.229109993204474" lon="-4.275329019874334">
        <ele>777.36000000000001</ele>
        <time>2025-05-10T11:17:01Z</time>
      </trkpt>
      <trkpt lat="37.229184005409479" lon="-4.275215025991201">
        <ele>776.88</ele>
        <time>2025-05-10T11:17:02Z</time>
      </trkpt>
      <trkpt lat="37.229219041764736" lon="-4.275087034329772">
        <ele>775.91999999999996</ele>
        <time>2025-05-10T11:17:03Z</time>
      </trkpt>
      <trkpt lat="37.229225998744369" lon="-4.274950996041298">
        <ele>774.96000000000004</ele>
        <time>2025-05-10T11:17:04Z</time>
      </trkpt>
      <trkpt lat="37.229212000966072" lon="-4.274797020480037">
        <ele>774</ele>
        <time>2025-05-10T11:17:05Z</time>
      </trkpt>
      <trkpt lat="37.229170007631183" lon="-4.274665005505085">
        <ele>773.03999999999996</ele>
        <time>2025-05-10T11:17:06Z</time>
      </trkpt>
      <trkpt lat="37.229124996811152" lon="-4.274521004408598">
        <ele>772.08000000000004</ele>
        <time>2025-05-10T11:17:07Z</time>
      </trkpt>
      <trkpt lat="37.229030029848218" lon="-4.274216992780566">
        <ele>770.14999999999998</ele>
        <time>2025-05-10T11:17:09Z</time>
      </trkpt>
      <trkpt lat="37.228999016806483" lon="-4.274063017219305">
        <ele>769.19000000000005</ele>
        <time>2025-05-10T11:17:10Z</time>
      </trkpt>
      <trkpt lat="37.229004967957735" lon="-4.273890014737845">
        <ele>767.75</ele>
        <time>2025-05-10T11:17:11Z</time>
      </trkpt>
      <trkpt lat="37.229027012363076" lon="-4.272696012631059">
        <ele>761.5</ele>
        <time>2025-05-10T11:17:17Z</time>
      </trkpt>
      <trkpt lat="37.228932967409492" lon="-4.271020973101258">
        <ele>759.10000000000002</ele>
        <time>2025-05-10T11:17:25Z</time>
      </trkpt>
      <trkpt lat="37.228873036801815" lon="-4.27085098810494">
        <ele>760.05999999999995</ele>
        <time>2025-05-10T11:17:26Z</time>
      </trkpt>
      <trkpt lat="37.228818973526359" lon="-4.270698018372059">
        <ele>760.53999999999996</ele>
        <time>2025-05-10T11:17:27Z</time>
      </trkpt>
      <trkpt lat="37.228738004341722" lon="-4.270568015053868">
        <ele>761.01999999999998</ele>
        <time>2025-05-10T11:17:28Z</time>
      </trkpt>
      <trkpt lat="37.22864898853004" lon="-4.270448992028832">
        <ele>761.5</ele>
        <time>2025-05-10T11:17:29Z</time>
      </trkpt>
      <trkpt lat="37.228211034089327" lon="-4.26983904093504">
        <ele>762.46000000000004</ele>
        <time>2025-05-10T11:17:34Z</time>
      </trkpt>
      <trkpt lat="37.228174991905689" lon="-4.26966997794807">
        <ele>761.98000000000002</ele>
        <time>2025-05-10T11:17:35Z</time>
      </trkpt>
      <trkpt lat="37.228140039369464" lon="-4.269506027922034">
        <ele>761.01999999999998</ele>
        <time>2025-05-10T11:17:36Z</time>
      </trkpt>
      <trkpt lat="37.228078013285995" lon="-4.269211990758777">
        <ele>759.10000000000002</ele>
        <time>2025-05-10T11:17:38Z</time>
      </trkpt>
      <trkpt lat="37.228008024394512" lon="-4.26909196190536">
        <ele>758.13999999999999</ele>
        <time>2025-05-10T11:17:39Z</time>
      </trkpt>
      <trkpt lat="37.227921020239592" lon="-4.268953995779157">
        <ele>757.17999999999995</ele>
        <time>2025-05-10T11:17:40Z</time>
      </trkpt>
      <trkpt lat="37.227560011669993" lon="-4.268382014706731">
        <ele>752.37</ele>
        <time>2025-05-10T11:17:44Z</time>
      </trkpt>
      <trkpt lat="37.227498991414905" lon="-4.268199037760496">
        <ele>750.92999999999995</ele>
        <time>2025-05-10T11:17:45Z</time>
      </trkpt>
      <trkpt lat="37.227455992251635" lon="-4.268041960895062">
        <ele>749.97000000000003</ele>
        <time>2025-05-10T11:17:46Z</time>
      </trkpt>
      <trkpt lat="37.227483987808228" lon="-4.26788697950542">
        <ele>748.51999999999998</ele>
        <time>2025-05-10T11:17:47Z</time>
      </trkpt>
      <trkpt lat="37.227545008063316" lon="-4.267756976187229">
        <ele>747.08000000000004</ele>
        <time>2025-05-10T11:17:48Z</time>
      </trkpt>
      <trkpt lat="37.227634023874998" lon="-4.267638036981225">
        <ele>745.63999999999999</ele>
        <time>2025-05-10T11:17:49Z</time>
      </trkpt>
      <trkpt lat="37.22772697918117" lon="-4.267551032826304">
        <ele>744.20000000000005</ele>
        <time>2025-05-10T11:17:50Z</time>
      </trkpt>
      <trkpt lat="37.227859999984503" lon="-4.267498981207609">
        <ele>742.75999999999999</ele>
        <time>2025-05-10T11:17:51Z</time>
      </trkpt>
      <trkpt lat="37.228001989424229" lon="-4.267441984266043">
        <ele>741.78999999999996</ele>
        <time>2025-05-10T11:17:52Z</time>
      </trkpt>
      <trkpt lat="37.229639980942011" lon="-4.26681300625205">
        <ele>730.74000000000001</ele>
        <time>2025-05-10T11:18:03Z</time>
      </trkpt>
      <trkpt lat="37.22976696677506" lon="-4.266719967126846">
        <ele>730.25999999999999</ele>
        <time>2025-05-10T11:18:04Z</time>
      </trkpt>
      <trkpt lat="37.229864029213786" lon="-4.266601027920842">
        <ele>729.77999999999997</ele>
        <time>2025-05-10T11:18:05Z</time>
      </trkpt>
      <trkpt lat="37.229949021711946" lon="-4.266460966318846">
        <ele>728.82000000000005</ele>
        <time>2025-05-10T11:18:06Z</time>
      </trkpt>
      <trkpt lat="37.230038959532976" lon="-4.266314031556249">
        <ele>728.34000000000003</ele>
        <time>2025-05-10T11:18:07Z</time>
      </trkpt>
      <trkpt lat="37.231117961928248" lon="-4.264484010636807">
        <ele>721.61000000000001</ele>
        <time>2025-05-10T11:18:18Z</time>
      </trkpt>
      <trkpt lat="37.231649961322546" lon="-4.263377012684941">
        <ele>714.88</ele>
        <time>2025-05-10T11:18:25Z</time>
      </trkpt>
      <trkpt lat="37.231666976585984" lon="-4.263204010203481">
        <ele>713.44000000000005</ele>
        <time>2025-05-10T11:18:26Z</time>
      </trkpt>
      <trkpt lat="37.23167703486979" lon="-4.263040982186794">
        <ele>711.99000000000001</ele>
        <time>2025-05-10T11:18:27Z</time>
      </trkpt>
      <trkpt lat="37.231456004083157" lon="-4.261469962075353">
        <ele>699.5</ele>
        <time>2025-05-10T11:18:35Z</time>
      </trkpt>
      <trkpt lat="37.231213012710214" lon="-4.259446989744902">
        <ele>688.91999999999996</ele>
        <time>2025-05-10T11:18:45Z</time>
      </trkpt>
      <trkpt lat="37.231216030195355" lon="-4.259273987263441">
        <ele>688.44000000000005</ele>
        <time>2025-05-10T11:18:46Z</time>
      </trkpt>
      <trkpt lat="37.231229022145271" lon="-4.259111965075135">
        <ele>687.48000000000002</ele>
        <time>2025-05-10T11:18:47Z</time>
      </trkpt>
      <trkpt lat="37.231275960803032" lon="-4.258952960371971">
        <ele>686.51999999999998</ele>
        <time>2025-05-10T11:18:48Z</time>
      </trkpt>
      <trkpt lat="37.231323989108205" lon="-4.258786998689175">
        <ele>685.08000000000004</ele>
        <time>2025-05-10T11:18:49Z</time>
      </trkpt>
      <trkpt lat="37.231419961899519" lon="-4.258461026474834">
        <ele>683.63</ele>
        <time>2025-05-10T11:18:51Z</time>
      </trkpt>
      <trkpt lat="37.231443012133241" lon="-4.258296992629767">
        <ele>682.66999999999996</ele>
        <time>2025-05-10T11:18:52Z</time>
      </trkpt>
      <trkpt lat="37.231443012133241" lon="-4.258139999583364">
        <ele>681.71000000000004</ele>
        <time>2025-05-10T11:18:53Z</time>
      </trkpt>
      <trkpt lat="37.231404036283493" lon="-4.257973032072187">
        <ele>681.23000000000002</ele>
        <time>2025-05-10T11:18:54Z</time>
      </trkpt>
      <trkpt lat="37.231353996321559" lon="-4.2578100040555">
        <ele>680.75</ele>
        <time>2025-05-10T11:18:55Z</time>
      </trkpt>
      <trkpt lat="37.230916963890195" lon="-4.256396982818842">
        <ele>675.94000000000005</ele>
        <time>2025-05-10T11:19:03Z</time>
      </trkpt>
      <trkpt lat="37.230843035504222" lon="-4.256279971450567">
        <ele>675.46000000000004</ele>
        <time>2025-05-10T11:19:04Z</time>
      </trkpt>
      <trkpt lat="37.230724012479186" lon="-4.256187016144395">
        <ele>674.98000000000002</ele>
        <time>2025-05-10T11:19:05Z</time>
      </trkpt>
      <trkpt lat="37.230618987232447" lon="-4.256124990060926">
        <ele>674.01999999999998</ele>
        <time>2025-05-10T11:19:06Z</time>
      </trkpt>
      <trkpt lat="37.230501975864172" lon="-4.256107974797487">
        <ele>673.53999999999996</ele>
        <time>2025-05-10T11:19:07Z</time>
      </trkpt>
      <trkpt lat="37.230364009737968" lon="-4.256149968132377">
        <ele>673.05999999999995</ele>
        <time>2025-05-10T11:19:08Z</time>
      </trkpt>
      <trkpt lat="37.230220008641481" lon="-4.256193973124027">
        <ele>672.58000000000004</ele>
        <time>2025-05-10T11:19:09Z</time>
      </trkpt>
      <trkpt lat="37.229469995945692" lon="-4.256407963111997">
        <ele>670.17999999999995</ele>
        <time>2025-05-10T11:19:14Z</time>
      </trkpt>
      <trkpt lat="37.229322977364063" lon="-4.256378961727023">
        <ele>669.22000000000003</ele>
        <time>2025-05-10T11:19:15Z</time>
      </trkpt>
      <trkpt lat="37.229171013459563" lon="-4.256322970613837">
        <ele>668.73000000000002</ele>
        <time>2025-05-10T11:19:16Z</time>
      </trkpt>
      <trkpt lat="37.229017959907651" lon="-4.256245018914342">
        <ele>667.76999999999998</ele>
        <time>2025-05-10T11:19:17Z</time>
      </trkpt>
      <trkpt lat="37.228855015709996" lon="-4.256161032244563">
        <ele>667.28999999999996</ele>
        <time>2025-05-10T11:19:18Z</time>
      </trkpt>
      <trkpt lat="37.227035975083709" lon="-4.255180014297366">
        <ele>656.72000000000003</ele>
        <time>2025-05-10T11:19:28Z</time>
      </trkpt>
      <trkpt lat="37.225567968562245" lon="-4.25437199883163">
        <ele>649.50999999999999</ele>
        <time>2025-05-10T11:19:37Z</time>
      </trkpt>
      <trkpt lat="37.225496973842382" lon="-4.254235960543156">
        <ele>649.02999999999997</ele>
        <time>2025-05-10T11:19:38Z</time>
      </trkpt>
      <trkpt lat="37.225431008264422" lon="-4.254092965275049">
        <ele>648.54999999999995</ele>
        <time>2025-05-10T11:19:39Z</time>
      </trkpt>
      <trkpt lat="37.225388009101152" lon="-4.253910994157195">
        <ele>648.07000000000005</ele>
        <time>2025-05-10T11:19:40Z</time>
      </trkpt>
      <trkpt lat="37.22534098662436" lon="-4.253700021654367">
        <ele>647.10000000000002</ele>
        <time>2025-05-10T11:19:41Z</time>
      </trkpt>
      <trkpt lat="37.224956005811691" lon="-4.251750977709889">
        <ele>638.45000000000005</ele>
        <time>2025-05-10T11:19:49Z</time>
      </trkpt>
      <trkpt lat="37.224533976987004" lon="-4.249380994588137">
        <ele>627.39999999999998</ele>
        <time>2025-05-10T11:19:59Z</time>
      </trkpt>
      <trkpt lat="37.224533976987004" lon="-4.249196005985141">
        <ele>626.44000000000005</ele>
        <time>2025-05-10T11:20:00Z</time>
      </trkpt>
      <trkpt lat="37.224570019170642" lon="-4.249020991846919">
        <ele>625.47000000000003</ele>
        <time>2025-05-10T11:20:01Z</time>
      </trkpt>
      <trkpt lat="37.224620981141925" lon="-4.248828962445259">
        <ele>624.99000000000001</ele>
        <time>2025-05-10T11:20:02Z</time>
      </trkpt>
      <trkpt lat="37.225274015218019" lon="-4.24702500924468">
        <ele>616.34000000000003</ele>
        <time>2025-05-10T11:20:10Z</time>
      </trkpt>
      <trkpt lat="37.226259978488088" lon="-4.244298962876201">
        <ele>599.51999999999998</ele>
        <time>2025-05-10T11:20:22Z</time>
      </trkpt>
      <trkpt lat="37.226876970380545" lon="-4.242436001077294">
        <ele>589.42999999999995</ele>
        <time>2025-05-10T11:20:30Z</time>
      </trkpt>
      <trkpt lat="37.226907983422279" lon="-4.242226034402847">
        <ele>589.42999999999995</ele>
        <time>2025-05-10T11:20:31Z</time>
      </trkpt>
      <trkpt lat="37.226934973150492" lon="-4.242023024708033">
        <ele>588.95000000000005</ele>
        <time>2025-05-10T11:20:32Z</time>
      </trkpt>
      <trkpt lat="37.226888034492731" lon="-4.24182403832674">
        <ele>588.95000000000005</ele>
        <time>2025-05-10T11:20:33Z</time>
      </trkpt>
      <trkpt lat="37.226833971217275" lon="-4.241618011146784">
        <ele>588.46000000000004</ele>
        <time>2025-05-10T11:20:34Z</time>
      </trkpt>
      <trkpt lat="37.22675995901227" lon="-4.241420030593872">
        <ele>588.95000000000005</ele>
        <time>2025-05-10T11:20:35Z</time>
      </trkpt>
      <trkpt lat="37.226685024797916" lon="-4.241217020899057">
        <ele>589.42999999999995</ele>
        <time>2025-05-10T11:20:36Z</time>
      </trkpt>
      <trkpt lat="37.22660799510777" lon="-4.241006970405579">
        <ele>589.90999999999997</ele>
        <time>2025-05-10T11:20:37Z</time>
      </trkpt>
      <trkpt lat="37.225825041532516" lon="-4.238705970346928">
        <ele>588.46000000000004</ele>
        <time>2025-05-10T11:20:48Z</time>
      </trkpt>
      <trkpt lat="37.225656984373927" lon="-4.238328030332923">
        <ele>587.01999999999998</ele>
        <time>2025-05-10T11:20:50Z</time>
      </trkpt>
      <trkpt lat="37.225550031289458" lon="-4.238161984831095">
        <ele>587.01999999999998</ele>
        <time>2025-05-10T11:20:51Z</time>
      </trkpt>
      <trkpt lat="37.225439976900816" lon="-4.238010020926595">
        <ele>586.53999999999996</ele>
        <time>2025-05-10T11:20:52Z</time>
      </trkpt>
      <trkpt lat="37.22529698163271" lon="-4.237926034256816">
        <ele>586.53999999999996</ele>
        <time>2025-05-10T11:20:53Z</time>
      </trkpt>
      <trkpt lat="37.225155998021364" lon="-4.237866019830108">
        <ele>586.53999999999996</ele>
        <time>2025-05-10T11:20:54Z</time>
      </trkpt>
      <trkpt lat="37.224999004974961" lon="-4.237855039536953">
        <ele>586.53999999999996</ele>
        <time>2025-05-10T11:20:55Z</time>
      </trkpt>
      <trkpt lat="37.224835976958275" lon="-4.237842969596386">
        <ele>586.53999999999996</ele>
        <time>2025-05-10T11:20:56Z</time>
      </trkpt>
      <trkpt lat="37.224513022229075" lon="-4.237791001796722">
        <ele>586.53999999999996</ele>
        <time>2025-05-10T11:20:58Z</time>
      </trkpt>
      <trkpt lat="37.224376983940601" lon="-4.237734004855156">
        <ele>586.53999999999996</ele>
        <time>2025-05-10T11:20:59Z</time>
      </trkpt>
      <trkpt lat="37.224274976179004" lon="-4.237643983215094">
        <ele>586.53999999999996</ele>
        <time>2025-05-10T11:21:00Z</time>
      </trkpt>
      <trkpt lat="37.224184032529593" lon="-4.237534012645483">
        <ele>586.05999999999995</ele>
        <time>2025-05-10T11:21:01Z</time>
      </trkpt>
      <trkpt lat="37.224114965647459" lon="-4.237395962700248">
        <ele>586.05999999999995</ele>
        <time>2025-05-10T11:21:02Z</time>
      </trkpt>
      <trkpt lat="37.224044976755977" lon="-4.237255984917283">
        <ele>586.05999999999995</ele>
        <time>2025-05-10T11:21:03Z</time>
      </trkpt>
      <trkpt lat="37.223971970379353" lon="-4.237109972164035">
        <ele>586.53999999999996</ele>
        <time>2025-05-10T11:21:04Z</time>
      </trkpt>
      <trkpt lat="37.223153980448842" lon="-4.236106993630529">
        <ele>589.42999999999995</ele>
        <time>2025-05-10T11:21:11Z</time>
      </trkpt>
      <trkpt lat="37.221525041386485" lon="-4.234759015962482">
        <ele>597.12</ele>
        <time>2025-05-10T11:21:22Z</time>
      </trkpt>
      <trkpt lat="37.221370982006192" lon="-4.2346700001508">
        <ele>597.60000000000002</ele>
        <time>2025-05-10T11:21:23Z</time>
      </trkpt>
      <trkpt lat="37.221218012273312" lon="-4.234638987109065">
        <ele>598.08000000000004</ele>
        <time>2025-05-10T11:21:24Z</time>
      </trkpt>
      <trkpt lat="37.221055990085006" lon="-4.234629012644291">
        <ele>598.55999999999995</ele>
        <time>2025-05-10T11:21:25Z</time>
      </trkpt>
      <trkpt lat="37.220864966511726" lon="-4.234629012644291">
        <ele>599.03999999999996</ele>
        <time>2025-05-10T11:21:26Z</time>
      </trkpt>
      <trkpt lat="37.220715014263988" lon="-4.234668994322419">
        <ele>599.51999999999998</ele>
        <time>2025-05-10T11:21:27Z</time>
      </trkpt>
      <trkpt lat="37.220532959327102" lon="-4.234720962122083">
        <ele>600</ele>
        <time>2025-05-10T11:21:28Z</time>
      </trkpt>
      <trkpt lat="37.220371020957828" lon="-4.234818024560809">
        <ele>600.48000000000002</ele>
        <time>2025-05-10T11:21:29Z</time>
      </trkpt>
      <trkpt lat="37.220208998769522" lon="-4.234915003180504">
        <ele>600.96000000000004</ele>
        <time>2025-05-10T11:21:30Z</time>
      </trkpt>
      <trkpt lat="37.2188959736377" lon="-4.235669039189816">
        <ele>602.39999999999998</ele>
        <time>2025-05-10T11:21:38Z</time>
      </trkpt>
      <trkpt lat="37.218734035268426" lon="-4.235713966190815">
        <ele>602.39999999999998</ele>
        <time>2025-05-10T11:21:39Z</time>
      </trkpt>
      <trkpt lat="37.218567989766598" lon="-4.235759982839227">
        <ele>601.91999999999996</ele>
        <time>2025-05-10T11:21:40Z</time>
      </trkpt>
      <trkpt lat="37.218395993113518" lon="-4.235758977010846">
        <ele>601.91999999999996</ele>
        <time>2025-05-10T11:21:41Z</time>
      </trkpt>
      <trkpt lat="37.218215027824044" lon="-4.235751014202833">
        <ele>601.44000000000005</ele>
        <time>2025-05-10T11:21:42Z</time>
      </trkpt>
      <trkpt lat="37.218036996200681" lon="-4.235735004767776">
        <ele>601.44000000000005</ele>
        <time>2025-05-10T11:21:43Z</time>
      </trkpt>
      <trkpt lat="37.217857958748937" lon="-4.235689993947744">
        <ele>601.44000000000005</ele>
        <time>2025-05-10T11:21:44Z</time>
      </trkpt>
      <trkpt lat="37.217355966567993" lon="-4.235484972596169">
        <ele>601.44000000000005</ele>
        <time>2025-05-10T11:21:47Z</time>
      </trkpt>
      <trkpt lat="37.217205008491874" lon="-4.235361004248262">
        <ele>600.96000000000004</ele>
        <time>2025-05-10T11:21:48Z</time>
      </trkpt>
      <trkpt lat="37.217049021273851" lon="-4.235233012586832">
        <ele>600.96000000000004</ele>
        <time>2025-05-10T11:21:49Z</time>
      </trkpt>
      <trkpt lat="37.215482024475932" lon="-4.233637014403939">
        <ele>597.12</ele>
        <time>2025-05-10T11:21:59Z</time>
      </trkpt>
      <trkpt lat="37.213947968557477" lon="-4.232057025656104">
        <ele>591.35000000000002</ele>
        <time>2025-05-10T11:22:09Z</time>
      </trkpt>
      <trkpt lat="37.21257702447474" lon="-4.230644004419446">
        <ele>587.98000000000002</ele>
        <time>2025-05-10T11:22:18Z</time>
      </trkpt>
      <trkpt lat="37.211108012124896" lon="-4.229494007304311">
        <ele>584.13999999999999</ele>
        <time>2025-05-10T11:22:27Z</time>
      </trkpt>
      <trkpt lat="37.209194004535675" lon="-4.228721028193831">
        <ele>579.80999999999995</ele>
        <time>2025-05-10T11:22:38Z</time>
      </trkpt>
      <trkpt lat="37.208501994609833" lon="-4.228464039042592">
        <ele>581.73000000000002</ele>
        <time>2025-05-10T11:22:42Z</time>
      </trkpt>
      <trkpt lat="37.20832304097712" lon="-4.228449035435915">
        <ele>582.22000000000003</ele>
        <time>2025-05-10T11:22:43Z</time>
      </trkpt>
      <trkpt lat="37.208144003525376" lon="-4.228455992415547">
        <ele>583.17999999999995</ele>
        <time>2025-05-10T11:22:44Z</time>
      </trkpt>
      <trkpt lat="37.207973012700677" lon="-4.228478036820889">
        <ele>584.13999999999999</ele>
        <time>2025-05-10T11:22:45Z</time>
      </trkpt>
      <trkpt lat="37.207819959148765" lon="-4.228515001013875">
        <ele>585.58000000000004</ele>
        <time>2025-05-10T11:22:46Z</time>
      </trkpt>
      <trkpt lat="37.207677969709039" lon="-4.228593036532402">
        <ele>587.01999999999998</ele>
        <time>2025-05-10T11:22:47Z</time>
      </trkpt>
      <trkpt lat="37.207556013017893" lon="-4.228725973516703">
        <ele>587.98000000000002</ele>
        <time>2025-05-10T11:22:48Z</time>
      </trkpt>
      <trkpt lat="37.207431960850954" lon="-4.228881038725376">
        <ele>589.42999999999995</ele>
        <time>2025-05-10T11:22:49Z</time>
      </trkpt>
      <trkpt lat="37.207310004159808" lon="-4.229050017893314">
        <ele>590.38999999999999</ele>
        <time>2025-05-10T11:22:50Z</time>
      </trkpt>
      <trkpt lat="37.206771969795227" lon="-4.22977396287024">
        <ele>594.23000000000002</ele>
        <time>2025-05-10T11:22:55Z</time>
      </trkpt>
      <trkpt lat="37.206681026145816" lon="-4.229864990338683">
        <ele>594.71000000000004</ele>
        <time>2025-05-10T11:22:56Z</time>
      </trkpt>
      <trkpt lat="37.206546999514103" lon="-4.229904972016811">
        <ele>595.19000000000005</ele>
        <time>2025-05-10T11:22:57Z</time>
      </trkpt>
      <trkpt lat="37.206413978710771" lon="-4.229944031685591">
        <ele>595.66999999999996</ele>
        <time>2025-05-10T11:22:58Z</time>
      </trkpt>
      <trkpt lat="37.206279030069709" lon="-4.229960963129997">
        <ele>596.14999999999998</ele>
        <time>2025-05-10T11:22:59Z</time>
      </trkpt>
      <trkpt lat="37.206128994002938" lon="-4.229913018643856">
        <ele>597.12</ele>
        <time>2025-05-10T11:23:00Z</time>
      </trkpt>
      <trkpt lat="37.205969989299774" lon="-4.229862978681922">
        <ele>597.12</ele>
        <time>2025-05-10T11:23:01Z</time>
      </trkpt>
      <trkpt lat="37.205815007910132" lon="-4.229801036417484">
        <ele>597.60000000000002</ele>
        <time>2025-05-10T11:23:02Z</time>
      </trkpt>
      <trkpt lat="37.205031970515847" lon="-4.229458970949054">
        <ele>598.55999999999995</ele>
        <time>2025-05-10T11:23:08Z</time>
      </trkpt>
      <trkpt lat="37.20372598618269" lon="-4.228901993483305">
        <ele>599.03999999999996</ele>
        <time>2025-05-10T11:23:19Z</time>
      </trkpt>
      <trkpt lat="37.203655997291207" lon="-4.228856982663274">
        <ele>598.55999999999995</ele>
        <time>2025-05-10T11:23:20Z</time>
      </trkpt>
      <trkpt lat="37.20351199619472" lon="-4.228803003206849">
        <ele>599.03999999999996</ele>
        <time>2025-05-10T11:23:22Z</time>
      </trkpt>
      <trkpt lat="37.203243020921946" lon="-4.228677023202181">
        <ele>600</ele>
        <time>2025-05-10T11:23:26Z</time>
      </trkpt>
      <trkpt lat="37.203165991231799" lon="-4.228646010160446">
        <ele>600</ele>
        <time>2025-05-10T11:23:27Z</time>
      </trkpt>
      <trkpt lat="37.202748991549015" lon="-4.228473007678986">
        <ele>600.48000000000002</ele>
        <time>2025-05-10T11:23:32Z</time>
      </trkpt>
      <trkpt lat="37.202689982950687" lon="-4.228449035435915">
        <ele>600</ele>
        <time>2025-05-10T11:23:33Z</time>
      </trkpt>
      <trkpt lat="37.202068967744708" lon="-4.228259017691016">
        <ele>597.12</ele>
        <time>2025-05-10T11:23:40Z</time>
      </trkpt>
      <trkpt lat="37.201981963589787" lon="-4.228256000205874">
        <ele>596.63999999999999</ele>
        <time>2025-05-10T11:23:41Z</time>
      </trkpt>
      <trkpt lat="37.201862018555403" lon="-4.228298999369144">
        <ele>595.66999999999996</ele>
        <time>2025-05-10T11:23:42Z</time>
      </trkpt>
      <trkpt lat="37.201759004965425" lon="-4.228335041552782">
        <ele>595.19000000000005</ele>
        <time>2025-05-10T11:23:43Z</time>
      </trkpt>
      <trkpt lat="37.201652973890305" lon="-4.228383991867304">
        <ele>594.71000000000004</ele>
        <time>2025-05-10T11:23:44Z</time>
      </trkpt>
      <trkpt lat="37.201550966128707" lon="-4.22846102155745">
        <ele>594.23000000000002</ele>
        <time>2025-05-10T11:23:45Z</time>
      </trkpt>
      <trkpt lat="37.20144703052938" lon="-4.228538973256946">
        <ele>593.75</ele>
        <time>2025-05-10T11:23:46Z</time>
      </trkpt>
      <trkpt lat="37.200284041464329" lon="-4.229446984827519">
        <ele>589.42999999999995</ele>
        <time>2025-05-10T11:23:56Z</time>
      </trkpt>
      <trkpt lat="37.199632013216615" lon="-4.22994302585721">
        <ele>589.90999999999997</ele>
        <time>2025-05-10T11:24:01Z</time>
      </trkpt>
      <trkpt lat="37.199507961049676" lon="-4.229982001706958">
        <ele>589.42999999999995</ele>
        <time>2025-05-10T11:24:02Z</time>
      </trkpt>
      <trkpt lat="37.199394972994924" lon="-4.229976972565055">
        <ele>589.42999999999995</ele>
        <time>2025-05-10T11:24:03Z</time>
      </trkpt>
      <trkpt lat="37.199278967455029" lon="-4.229918969795108">
        <ele>589.42999999999995</ele>
        <time>2025-05-10T11:24:04Z</time>
      </trkpt>
      <trkpt lat="37.199151981621981" lon="-4.22985602170229">
        <ele>589.42999999999995</ele>
        <time>2025-05-10T11:24:05Z</time>
      </trkpt>
      <trkpt lat="37.199045028537512" lon="-4.229756025597453">
        <ele>589.42999999999995</ele>
        <time>2025-05-10T11:24:06Z</time>
      </trkpt>
      <trkpt lat="37.198932962492108" lon="-4.229639014229178">
        <ele>589.42999999999995</ele>
        <time>2025-05-10T11:24:07Z</time>
      </trkpt>
      <trkpt lat="37.198242964223027" lon="-4.228852037340403">
        <ele>589.42999999999995</ele>
        <time>2025-05-10T11:24:13Z</time>
      </trkpt>
      <trkpt lat="37.19818202778697" lon="-4.228709964081645">
        <ele>589.42999999999995</ele>
        <time>2025-05-10T11:24:14Z</time>
      </trkpt>
      <trkpt lat="37.198166018351912" lon="-4.228578032925725">
        <ele>589.42999999999995</ele>
        <time>2025-05-10T11:24:15Z</time>
      </trkpt>
      <trkpt lat="37.198172975331545" lon="-4.228405030444264">
        <ele>589.42999999999995</ele>
        <time>2025-05-10T11:24:16Z</time>
      </trkpt>
      <trkpt lat="37.198180016130209" lon="-4.228220963850617">
        <ele>589.42999999999995</ele>
        <time>2025-05-10T11:24:17Z</time>
      </trkpt>
      <trkpt lat="37.198212035000324" lon="-4.228047961369157">
        <ele>589.90999999999997</ele>
        <time>2025-05-10T11:24:18Z</time>
      </trkpt>
      <trkpt lat="37.198281018063426" lon="-4.227855009958148">
        <ele>589.42999999999995</ele>
        <time>2025-05-10T11:24:19Z</time>
      </trkpt>
      <trkpt lat="37.19835301861167" lon="-4.227650994434953">
        <ele>589.42999999999995</ele>
        <time>2025-05-10T11:24:20Z</time>
      </trkpt>
      <trkpt lat="37.19884897582233" lon="-4.226255994290113">
        <ele>588.95000000000005</ele>
        <time>2025-05-10T11:24:27Z</time>
      </trkpt>
      <trkpt lat="37.198889963328838" lon="-4.226100007072091">
        <ele>588.95000000000005</ele>
        <time>2025-05-10T11:24:28Z</time>
      </trkpt>
      <trkpt lat="37.198914019390941" lon="-4.225980984047055">
        <ele>588.46000000000004</ele>
        <time>2025-05-10T11:24:29Z</time>
      </trkpt>
      <trkpt lat="37.198873031884432" lon="-4.22584000043571">
        <ele>587.98000000000002</ele>
        <time>2025-05-10T11:24:30Z</time>
      </trkpt>
      <trkpt lat="37.198817040771246" lon="-4.225741010159254">
        <ele>587.5</ele>
        <time>2025-05-10T11:24:31Z</time>
      </trkpt>
      <trkpt lat="37.198734981939197" lon="-4.225695999339223">
        <ele>587.5</ele>
        <time>2025-05-10T11:24:32Z</time>
      </trkpt>
      <trkpt lat="37.198649989441037" lon="-4.225692981854081">
        <ele>587.01999999999998</ele>
        <time>2025-05-10T11:24:33Z</time>
      </trkpt>
      <trkpt lat="37.198544964194298" lon="-4.225718965753913">
        <ele>586.53999999999996</ele>
        <time>2025-05-10T11:24:34Z</time>
      </trkpt>
      <trkpt lat="37.198430970311165" lon="-4.225747967138887">
        <ele>586.53999999999996</ele>
        <time>2025-05-10T11:24:35Z</time>
      </trkpt>
      <trkpt lat="37.198314964771271" lon="-4.22577696852386">
        <ele>586.05999999999995</ele>
        <time>2025-05-10T11:24:36Z</time>
      </trkpt>
      <trkpt lat="37.19820398837328" lon="-4.225804964080453">
        <ele>585.58000000000004</ele>
        <time>2025-05-10T11:24:37Z</time>
      </trkpt>
      <trkpt lat="37.19809896312654" lon="-4.225809993222356">
        <ele>585.10000000000002</ele>
        <time>2025-05-10T11:24:38Z</time>
      </trkpt>
      <trkpt lat="37.197995027527213" lon="-4.22579700127244">
        <ele>584.13999999999999</ele>
        <time>2025-05-10T11:24:39Z</time>
      </trkpt>
      <trkpt lat="37.197913974523544" lon="-4.225740004330874">
        <ele>583.65999999999997</ele>
        <time>2025-05-10T11:24:40Z</time>
      </trkpt>
      <trkpt lat="37.197847003117204" lon="-4.22566800378263">
        <ele>583.17999999999995</ele>
        <time>2025-05-10T11:24:41Z</time>
      </trkpt>
      <trkpt lat="37.197810960933566" lon="-4.225587034597993">
        <ele>582.70000000000005</ele>
        <time>2025-05-10T11:24:42Z</time>
      </trkpt>
      <trkpt lat="37.197777014225721" lon="-4.225512016564608">
        <ele>582.22000000000003</ele>
        <time>2025-05-10T11:24:43Z</time>
      </trkpt>
      <trkpt lat="37.197747007012367" lon="-4.225444039329886">
        <ele>581.73000000000002</ele>
        <time>2025-05-10T11:24:44Z</time>
      </trkpt>
      <trkpt lat="37.197718005627394" lon="-4.225378995761275">
        <ele>581.73000000000002</ele>
        <time>2025-05-10T11:24:45Z</time>
      </trkpt>
      <trkpt lat="37.19768799841404" lon="-4.225301966071129">
        <ele>581.73000000000002</ele>
        <time>2025-05-10T11:24:46Z</time>
      </trkpt>
      <trkpt lat="37.197675006464124" lon="-4.22521797940135">
        <ele>581.25</ele>
        <time>2025-05-10T11:24:47Z</time>
      </trkpt>
      <trkpt lat="37.197580961510539" lon="-4.224643986672163">
        <ele>578.37</ele>
        <time>2025-05-10T11:24:54Z</time>
      </trkpt>
      <trkpt lat="37.197568975389004" lon="-4.224567040801048">
        <ele>577.88999999999999</ele>
        <time>2025-05-10T11:24:55Z</time>
      </trkpt>
      <trkpt lat="37.197537962347269" lon="-4.224495962262154">
        <ele>577.40999999999997</ele>
        <time>2025-05-10T11:24:56Z</time>
      </trkpt>
      <trkpt lat="37.197492029517889" lon="-4.22444298863411">
        <ele>577.40999999999997</ele>
        <time>2025-05-10T11:24:57Z</time>
      </trkpt>
      <trkpt lat="37.197446012869477" lon="-4.224390015006065">
        <ele>576.92999999999995</ele>
        <time>2025-05-10T11:24:58Z</time>
      </trkpt>
      <trkpt lat="37.197393039241433" lon="-4.224349027499557">
        <ele>576.45000000000005</ele>
        <time>2025-05-10T11:24:59Z</time>
      </trkpt>
      <trkpt lat="37.197334030643106" lon="-4.224342992529273">
        <ele>576.45000000000005</ele>
        <time>2025-05-10T11:25:00Z</time>
      </trkpt>
      <trkpt lat="37.197267981246114" lon="-4.224336035549641">
        <ele>575.97000000000003</ele>
        <time>2025-05-10T11:25:01Z</time>
      </trkpt>
      <trkpt lat="37.197196986526251" lon="-4.224328994750977">
        <ele>575.49000000000001</ele>
        <time>2025-05-10T11:25:02Z</time>
      </trkpt>
      <trkpt lat="37.197122974321246" lon="-4.224368976429105">
        <ele>575.49000000000001</ele>
        <time>2025-05-10T11:25:03Z</time>
      </trkpt>
      <trkpt lat="37.197032030671835" lon="-4.224419016391039">
        <ele>575.49000000000001</ele>
        <time>2025-05-10T11:25:04Z</time>
      </trkpt>
      <trkpt lat="37.196928011253476" lon="-4.224476013332605">
        <ele>575.49000000000001</ele>
        <time>2025-05-10T11:25:05Z</time>
      </trkpt>
      <trkpt lat="37.196818040683866" lon="-4.224535021930933">
        <ele>575.00999999999999</ele>
        <time>2025-05-10T11:25:06Z</time>
      </trkpt>
      <trkpt lat="37.19669901765883" lon="-4.224582966417074">
        <ele>575.00999999999999</ele>
        <time>2025-05-10T11:25:07Z</time>
      </trkpt>
      <trkpt lat="37.196579994633794" lon="-4.224568968638778">
        <ele>574.52999999999997</ele>
        <time>2025-05-10T11:25:08Z</time>
      </trkpt>
      <trkpt lat="37.196448985487223" lon="-4.224552037194371">
        <ele>574.52999999999997</ele>
        <time>2025-05-10T11:25:09Z</time>
      </trkpt>
      <trkpt lat="37.196317976340652" lon="-4.224511971697211">
        <ele>574.52999999999997</ele>
        <time>2025-05-10T11:25:10Z</time>
      </trkpt>
      <trkpt lat="37.196190990507603" lon="-4.224449023604393">
        <ele>574.03999999999996</ele>
        <time>2025-05-10T11:25:11Z</time>
      </trkpt>
      <trkpt lat="37.196073979139328" lon="-4.224342992529273">
        <ele>574.03999999999996</ele>
        <time>2025-05-10T11:25:12Z</time>
      </trkpt>
      <trkpt lat="37.195989992469549" lon="-4.22418599948287">
        <ele>574.52999999999997</ele>
        <time>2025-05-10T11:25:13Z</time>
      </trkpt>
      <trkpt lat="37.195917991921306" lon="-4.224007967859507">
        <ele>575.00999999999999</ele>
        <time>2025-05-10T11:25:14Z</time>
      </trkpt>
      <trkpt lat="37.195849008858204" lon="-4.223833959549666">
        <ele>575.00999999999999</ele>
        <time>2025-05-10T11:25:15Z</time>
      </trkpt>
      <trkpt lat="37.195786982774734" lon="-4.223678978160024">
        <ele>575.49000000000001</ele>
        <time>2025-05-10T11:25:16Z</time>
      </trkpt>
      <trkpt lat="37.195708025246859" lon="-4.223555009812117">
        <ele>575.97000000000003</ele>
        <time>2025-05-10T11:25:17Z</time>
      </trkpt>
      <trkpt lat="37.195598976686597" lon="-4.223487032577395">
        <ele>576.45000000000005</ele>
        <time>2025-05-10T11:25:18Z</time>
      </trkpt>
      <trkpt lat="37.195466961711645" lon="-4.223420983180404">
        <ele>576.92999999999995</ele>
        <time>2025-05-10T11:25:19Z</time>
      </trkpt>
      <trkpt lat="37.195317009463906" lon="-4.223345965147018">
        <ele>577.40999999999997</ele>
        <time>2025-05-10T11:25:20Z</time>
      </trkpt>
      <trkpt lat="37.195166973397136" lon="-4.223250998184085">
        <ele>577.88999999999999</ele>
        <time>2025-05-10T11:25:21Z</time>
      </trkpt>
      <trkpt lat="37.195040993392467" lon="-4.223115965723991">
        <ele>578.37</ele>
        <time>2025-05-10T11:25:22Z</time>
      </trkpt>
      <trkpt lat="37.19493898563087" lon="-4.222942963242531">
        <ele>578.85000000000002</ele>
        <time>2025-05-10T11:25:23Z</time>
      </trkpt>
      <trkpt lat="37.194832032546401" lon="-4.222760992124677">
        <ele>578.85000000000002</ele>
        <time>2025-05-10T11:25:24Z</time>
      </trkpt>
      <trkpt lat="37.194722983986139" lon="-4.22257399186492">
        <ele>578.85000000000002</ele>
        <time>2025-05-10T11:25:25Z</time>
      </trkpt>
      <trkpt lat="37.19371497631073" lon="-4.22076903283596">
        <ele>579.33000000000004</ele>
        <time>2025-05-10T11:25:35Z</time>
      </trkpt>
      <trkpt lat="37.193206027150154" lon="-4.220016002655029">
        <ele>579.80999999999995</ele>
        <time>2025-05-10T11:25:40Z</time>
      </trkpt>
      <trkpt lat="37.193085998296738" lon="-4.219895973801613">
        <ele>579.80999999999995</ele>
        <time>2025-05-10T11:25:41Z</time>
      </trkpt>
      <trkpt lat="37.192964041605592" lon="-4.219784997403622">
        <ele>580.28999999999996</ele>
        <time>2025-05-10T11:25:42Z</time>
      </trkpt>
      <trkpt lat="37.192689031362534" lon="-4.219617024064064">
        <ele>580.76999999999998</ele>
        <time>2025-05-10T11:25:44Z</time>
      </trkpt>
      <trkpt lat="37.192552993074059" lon="-4.219547035172582">
        <ele>580.76999999999998</ele>
        <time>2025-05-10T11:25:45Z</time>
      </trkpt>
      <trkpt lat="37.192416032776237" lon="-4.219496995210648">
        <ele>580.76999999999998</ele>
        <time>2025-05-10T11:25:46Z</time>
      </trkpt>
      <trkpt lat="37.192279994487762" lon="-4.219447039067745">
        <ele>580.76999999999998</ele>
        <time>2025-05-10T11:25:47Z</time>
      </trkpt>
      <trkpt lat="37.192132975906134" lon="-4.219393981620669">
        <ele>580.28999999999996</ele>
        <time>2025-05-10T11:25:48Z</time>
      </trkpt>
      <trkpt lat="37.191999033093452" lon="-4.219405967742205">
        <ele>580.28999999999996</ele>
        <time>2025-05-10T11:25:49Z</time>
      </trkpt>
      <trkpt lat="37.191207027062774" lon="-4.219476040452719">
        <ele>580.28999999999996</ele>
        <time>2025-05-10T11:25:54Z</time>
      </trkpt>
      <trkpt lat="37.191053973510861" lon="-4.219459025189281">
        <ele>580.28999999999996</ele>
        <time>2025-05-10T11:25:55Z</time>
      </trkpt>
      <trkpt lat="37.190915001556277" lon="-4.219422983005643">
        <ele>579.80999999999995</ele>
        <time>2025-05-10T11:25:56Z</time>
      </trkpt>
      <trkpt lat="37.190809976309538" lon="-4.219335978850722">
        <ele>579.80999999999995</ele>
        <time>2025-05-10T11:25:57Z</time>
      </trkpt>
      <trkpt lat="37.190731018781662" lon="-4.219217039644718">
        <ele>579.80999999999995</ele>
        <time>2025-05-10T11:25:58Z</time>
      </trkpt>
      <trkpt lat="37.190648959949613" lon="-4.219083013013005">
        <ele>579.80999999999995</ele>
        <time>2025-05-10T11:25:59Z</time>
      </trkpt>
      <trkpt lat="37.190600009635091" lon="-4.218911016359925">
        <ele>579.80999999999995</ele>
        <time>2025-05-10T11:26:00Z</time>
      </trkpt>
      <trkpt lat="37.190548963844776" lon="-4.218730973079801">
        <ele>580.28999999999996</ele>
        <time>2025-05-10T11:26:01Z</time>
      </trkpt>
      <trkpt lat="37.190451985225081" lon="-4.218391003087163">
        <ele>580.28999999999996</ele>
        <time>2025-05-10T11:26:03Z</time>
      </trkpt>
      <trkpt lat="37.190369004383683" lon="-4.218262005597353">
        <ele>580.76999999999998</ele>
        <time>2025-05-10T11:26:04Z</time>
      </trkpt>
      <trkpt lat="37.190258027985692" lon="-4.218167038634419">
        <ele>581.25</ele>
        <time>2025-05-10T11:26:05Z</time>
      </trkpt>
      <trkpt lat="37.190129030495882" lon="-4.218101995065808">
        <ele>581.25</ele>
        <time>2025-05-10T11:26:06Z</time>
      </trkpt>
      <trkpt lat="37.18999701552093" lon="-4.218036029487848">
        <ele>581.73000000000002</ele>
        <time>2025-05-10T11:26:07Z</time>
      </trkpt>
      <trkpt lat="37.18986801803112" lon="-4.217966040596366">
        <ele>581.73000000000002</ele>
        <time>2025-05-10T11:26:08Z</time>
      </trkpt>
      <trkpt lat="37.189768021926284" lon="-4.217857997864485">
        <ele>581.73000000000002</ele>
        <time>2025-05-10T11:26:09Z</time>
      </trkpt>
      <trkpt lat="37.189707001671195" lon="-4.217711985111237">
        <ele>581.73000000000002</ele>
        <time>2025-05-10T11:26:10Z</time>
      </trkpt>
      <trkpt lat="37.189641036093235" lon="-4.217552980408073">
        <ele>581.73000000000002</ele>
        <time>2025-05-10T11:26:11Z</time>
      </trkpt>
      <trkpt lat="37.189512038603425" lon="-4.21724402345717">
        <ele>581.25</ele>
        <time>2025-05-10T11:26:13Z</time>
      </trkpt>
      <trkpt lat="37.189415981993079" lon="-4.217117037624121">
        <ele>581.25</ele>
        <time>2025-05-10T11:26:14Z</time>
      </trkpt>
      <trkpt lat="37.189310034736991" lon="-4.21698703430593">
        <ele>580.76999999999998</ele>
        <time>2025-05-10T11:26:15Z</time>
      </trkpt>
      <trkpt lat="37.189164021983743" lon="-4.216945040971041">
        <ele>580.28999999999996</ele>
        <time>2025-05-10T11:26:16Z</time>
      </trkpt>
      <trkpt lat="37.18900803476572" lon="-4.216899024322629">
        <ele>579.80999999999995</ele>
        <time>2025-05-10T11:26:17Z</time>
      </trkpt>
      <trkpt lat="37.188845006749034" lon="-4.216852001845837">
        <ele>579.33000000000004</ele>
        <time>2025-05-10T11:26:18Z</time>
      </trkpt>
      <trkpt lat="37.187315979972482" lon="-4.216427961364389">
        <ele>573.55999999999995</ele>
        <time>2025-05-10T11:26:26Z</time>
      </trkpt>
      <trkpt lat="37.186561021953821" lon="-4.216234004124999">
        <ele>570.20000000000005</ele>
        <time>2025-05-10T11:26:30Z</time>
      </trkpt>
      <trkpt lat="37.186377039179206" lon="-4.216186981648207">
        <ele>569.24000000000001</ele>
        <time>2025-05-10T11:26:31Z</time>
      </trkpt>
      <trkpt lat="37.184846000745893" lon="-4.215812981128693">
        <ele>566.35000000000002</ele>
        <time>2025-05-10T11:26:40Z</time>
      </trkpt>
      <trkpt lat="37.184701999649405" lon="-4.215777022764087">
        <ele>566.83000000000004</ele>
        <time>2025-05-10T11:26:41Z</time>
      </trkpt>
      <trkpt lat="37.184592029079795" lon="-4.215700998902321">
        <ele>567.32000000000005</ele>
        <time>2025-05-10T11:26:42Z</time>
      </trkpt>
      <trkpt lat="37.184491027146578" lon="-4.215609971433878">
        <ele>568.27999999999997</ele>
        <time>2025-05-10T11:26:43Z</time>
      </trkpt>
      <trkpt lat="37.184420032426715" lon="-4.215481979772449">
        <ele>568.75999999999999</ele>
        <time>2025-05-10T11:26:44Z</time>
      </trkpt>
      <trkpt lat="37.184381978586316" lon="-4.215325992554426">
        <ele>569.24000000000001</ele>
        <time>2025-05-10T11:26:45Z</time>
      </trkpt>
      <trkpt lat="37.18436798080802" lon="-4.215150978416205">
        <ele>569.72000000000003</ele>
        <time>2025-05-10T11:26:46Z</time>
      </trkpt>
      <trkpt lat="37.184350965544581" lon="-4.214957021176815">
        <ele>570.20000000000005</ele>
        <time>2025-05-10T11:26:47Z</time>
      </trkpt>
      <trkpt lat="37.184407962486148" lon="-4.213922023773193">
        <ele>572.12</ele>
        <time>2025-05-10T11:26:52Z</time>
      </trkpt>
      <trkpt lat="37.184448027983308" lon="-4.213737035170198">
        <ele>572.12</ele>
        <time>2025-05-10T11:26:53Z</time>
      </trkpt>
      <trkpt lat="37.184983966872096" lon="-4.211450032889843">
        <ele>564.42999999999995</ele>
        <time>2025-05-10T11:27:03Z</time>
      </trkpt>
      <trkpt lat="37.185352016240358" lon="-4.209796031937003">
        <ele>554.82000000000005</ele>
        <time>2025-05-10T11:27:11Z</time>
      </trkpt>
      <trkpt lat="37.185313040390611" lon="-4.209669968113303">
        <ele>553.38</ele>
        <time>2025-05-10T11:27:12Z</time>
      </trkpt>
      <trkpt lat="37.185265012085438" lon="-4.209565026685596">
        <ele>552.89999999999998</ele>
        <time>2025-05-10T11:27:13Z</time>
      </trkpt>
      <trkpt lat="37.185179013758898" lon="-4.209479028359056">
        <ele>551.45000000000005</ele>
        <time>2025-05-10T11:27:14Z</time>
      </trkpt>
      <trkpt lat="37.185063008219004" lon="-4.209410967305303">
        <ele>550.97000000000003</ele>
        <time>2025-05-10T11:27:15Z</time>
      </trkpt>
      <trkpt lat="37.184929987415671" lon="-4.209343995898962">
        <ele>549.52999999999997</ele>
        <time>2025-05-10T11:27:16Z</time>
      </trkpt>
      <trkpt lat="37.184777017682791" lon="-4.209292028099299">
        <ele>548.09000000000003</ele>
        <time>2025-05-10T11:27:17Z</time>
      </trkpt>
      <trkpt lat="37.1833570394665" lon="-4.208825994282961">
        <ele>535.11000000000001</ele>
        <time>2025-05-10T11:27:25Z</time>
      </trkpt>
      <trkpt lat="37.18294900842011" lon="-4.208646034821868">
        <ele>530.78999999999996</ele>
        <time>2025-05-10T11:27:28Z</time>
      </trkpt>
      <trkpt lat="37.18286301009357" lon="-4.208578979596496">
        <ele>529.34000000000003</ele>
        <time>2025-05-10T11:27:29Z</time>
      </trkpt>
      <trkpt lat="37.182824034243822" lon="-4.208488035947084">
        <ele>527.89999999999998</ele>
        <time>2025-05-10T11:27:30Z</time>
      </trkpt>
      <trkpt lat="37.182805007323623" lon="-4.208383010700345">
        <ele>526.94000000000005</ele>
        <time>2025-05-10T11:27:31Z</time>
      </trkpt>
      <trkpt lat="37.18282101675868" lon="-4.208249989897013">
        <ele>525.98000000000002</ele>
        <time>2025-05-10T11:27:32Z</time>
      </trkpt>
      <trkpt lat="37.182838032022119" lon="-4.208118980750442">
        <ele>524.53999999999996</ele>
        <time>2025-05-10T11:27:33Z</time>
      </trkpt>
      <trkpt lat="37.182801989838481" lon="-4.208014961332083">
        <ele>523.58000000000004</ele>
        <time>2025-05-10T11:27:34Z</time>
      </trkpt>
      <trkpt lat="37.182751027867198" lon="-4.20792100019753">
        <ele>522.61000000000001</ele>
        <time>2025-05-10T11:27:35Z</time>
      </trkpt>
      <trkpt lat="37.182678021490574" lon="-4.207894010469317">
        <ele>521.64999999999998</ele>
        <time>2025-05-10T11:27:36Z</time>
      </trkpt>
      <trkpt lat="37.182568972930312" lon="-4.207896022126079">
        <ele>520.69000000000005</ele>
        <time>2025-05-10T11:27:37Z</time>
      </trkpt>
      <trkpt lat="37.18243402428925" lon="-4.20789903961122">
        <ele>519.73000000000002</ele>
        <time>2025-05-10T11:27:38Z</time>
      </trkpt>
      <trkpt lat="37.18114597722888" lon="-4.207947989925742">
        <ele>509.63999999999999</ele>
        <time>2025-05-10T11:27:46Z</time>
      </trkpt>
      <trkpt lat="37.180913966149092" lon="-4.207912031561136">
        <ele>507.70999999999998</ele>
        <time>2025-05-10T11:27:48Z</time>
      </trkpt>
      <trkpt lat="37.180856969207525" lon="-4.207828966900706">
        <ele>506.75</ele>
        <time>2025-05-10T11:27:49Z</time>
      </trkpt>
      <trkpt lat="37.180826039984822" lon="-4.207741040736437">
        <ele>505.79000000000002</ele>
        <time>2025-05-10T11:27:50Z</time>
      </trkpt>
      <trkpt lat="37.180832996964455" lon="-4.207611959427595">
        <ele>504.35000000000002</ele>
        <time>2025-05-10T11:27:51Z</time>
      </trkpt>
      <trkpt lat="37.180840959772468" lon="-4.207461001351476">
        <ele>503.38999999999999</ele>
        <time>2025-05-10T11:27:52Z</time>
      </trkpt>
      <trkpt lat="37.180828973650932" lon="-4.207305014133453">
        <ele>501.94999999999999</ele>
        <time>2025-05-10T11:27:53Z</time>
      </trkpt>
      <trkpt lat="37.180764013901353" lon="-4.207180039957166">
        <ele>500.98000000000002</ele>
        <time>2025-05-10T11:27:54Z</time>
      </trkpt>
      <trkpt lat="37.180678015574813" lon="-4.207077026367188">
        <ele>500.01999999999998</ele>
        <time>2025-05-10T11:27:55Z</time>
      </trkpt>
      <trkpt lat="37.180585982277989" lon="-4.206966971978545">
        <ele>499.06</ele>
        <time>2025-05-10T11:27:56Z</time>
      </trkpt>
      <trkpt lat="37.180497972294688" lon="-4.206861024722457">
        <ele>498.10000000000002</ele>
        <time>2025-05-10T11:27:57Z</time>
      </trkpt>
      <trkpt lat="37.180425971746445" lon="-4.206751976162195">
        <ele>497.13999999999999</ele>
        <time>2025-05-10T11:27:58Z</time>
      </trkpt>
      <trkpt lat="37.180374003946781" lon="-4.206668995320797">
        <ele>496.18000000000001</ele>
        <time>2025-05-10T11:27:59Z</time>
      </trkpt>
      <trkpt lat="37.180394036695361" lon="-4.206527005881071">
        <ele>495.22000000000003</ele>
        <time>2025-05-10T11:28:00Z</time>
      </trkpt>
      <trkpt lat="37.180411973968148" lon="-4.206402031704783">
        <ele>494.25999999999999</ele>
        <time>2025-05-10T11:28:01Z</time>
      </trkpt>
      <trkpt lat="37.180480035021901" lon="-4.206297006458044">
        <ele>493.76999999999998</ele>
        <time>2025-05-10T11:28:02Z</time>
      </trkpt>
      <trkpt lat="37.180578019469976" lon="-4.206189969554544">
        <ele>492.81</ele>
        <time>2025-05-10T11:28:03Z</time>
      </trkpt>
      <trkpt lat="37.180702993646264" lon="-4.206097014248371">
        <ele>492.32999999999998</ele>
        <time>2025-05-10T11:28:04Z</time>
      </trkpt>
      <trkpt lat="37.180836014449596" lon="-4.205999029800296">
        <ele>491.85000000000002</ele>
        <time>2025-05-10T11:28:05Z</time>
      </trkpt>
      <trkpt lat="37.180966017767787" lon="-4.20590297318995">
        <ele>491.37</ele>
        <time>2025-05-10T11:28:06Z</time>
      </trkpt>
      <trkpt lat="37.181089986115694" lon="-4.205782022327185">
        <ele>490.41000000000003</ele>
        <time>2025-05-10T11:28:07Z</time>
      </trkpt>
      <trkpt lat="37.181186964735389" lon="-4.205611031502485">
        <ele>489.44999999999999</ele>
        <time>2025-05-10T11:28:08Z</time>
      </trkpt>
      <trkpt lat="37.181349992752075" lon="-4.20521398074925">
        <ele>487.52999999999997</ele>
        <time>2025-05-10T11:28:10Z</time>
      </trkpt>
      <trkpt lat="37.181399026885629" lon="-4.204995967447758">
        <ele>486.56</ele>
        <time>2025-05-10T11:28:11Z</time>
      </trkpt>
      <trkpt lat="37.181426016613841" lon="-4.204778037965298">
        <ele>485.60000000000002</ele>
        <time>2025-05-10T11:28:12Z</time>
      </trkpt>
      <trkpt lat="37.181444959715009" lon="-4.204571004956961">
        <ele>484.16000000000003</ele>
        <time>2025-05-10T11:28:13Z</time>
      </trkpt>
      <trkpt lat="37.181431967765093" lon="-4.204373024404049">
        <ele>482.72000000000003</ele>
        <time>2025-05-10T11:28:14Z</time>
      </trkpt>
      <trkpt lat="37.18140103854239" lon="-4.204179989174008">
        <ele>481.27999999999997</ele>
        <time>2025-05-10T11:28:15Z</time>
      </trkpt>
      <trkpt lat="37.181348986923695" lon="-4.203998018056154">
        <ele>480.31999999999999</ele>
        <time>2025-05-10T11:28:16Z</time>
      </trkpt>
      <trkpt lat="37.181269023567438" lon="-4.203844964504242">
        <ele>478.87</ele>
        <time>2025-05-10T11:28:17Z</time>
      </trkpt>
      <trkpt lat="37.181183025240898" lon="-4.203699035570025">
        <ele>477.91000000000003</ele>
        <time>2025-05-10T11:28:18Z</time>
      </trkpt>
      <trkpt lat="37.180613977834582" lon="-4.202942987903953">
        <ele>471.18000000000001</ele>
        <time>2025-05-10T11:28:24Z</time>
      </trkpt>
      <trkpt lat="37.180419014766812" lon="-4.202794963493943">
        <ele>469.74000000000001</ele>
        <time>2025-05-10T11:28:26Z</time>
      </trkpt>
      <trkpt lat="37.180060017853975" lon="-4.202579967677593">
        <ele>467.33999999999997</ele>
        <time>2025-05-10T11:28:30Z</time>
      </trkpt>
      <trkpt lat="37.179990028962493" lon="-4.202521964907646">
        <ele>466.86000000000001</ele>
        <time>2025-05-10T11:28:31Z</time>
      </trkpt>
      <trkpt lat="37.179930014535785" lon="-4.202438984066248">
        <ele>466.38</ele>
        <time>2025-05-10T11:28:32Z</time>
      </trkpt>
      <trkpt lat="37.179892966523767" lon="-4.202347034588456">
        <ele>465.89999999999998</ele>
        <time>2025-05-10T11:28:33Z</time>
      </trkpt>
      <trkpt lat="37.179901013150811" lon="-4.202236980199814">
        <ele>465.42000000000002</ele>
        <time>2025-05-10T11:28:34Z</time>
      </trkpt>
      <trkpt lat="37.179960021749139" lon="-4.202138995751739">
        <ele>464.93000000000001</ele>
        <time>2025-05-10T11:28:35Z</time>
      </trkpt>
      <trkpt lat="37.180024981498718" lon="-4.202029025182128">
        <ele>464.44999999999999</ele>
        <time>2025-05-10T11:28:36Z</time>
      </trkpt>
      <trkpt lat="37.180096982046962" lon="-4.201910002157092">
        <ele>464.44999999999999</ele>
        <time>2025-05-10T11:28:37Z</time>
      </trkpt>
      <trkpt lat="37.180179040879011" lon="-4.201788967475295">
        <ele>463.97000000000003</ele>
        <time>2025-05-10T11:28:38Z</time>
      </trkpt>
      <trkpt lat="37.180267972871661" lon="-4.201673967763782">
        <ele>463.49000000000001</ele>
        <time>2025-05-10T11:28:39Z</time>
      </trkpt>
      <trkpt lat="37.180677009746432" lon="-4.201212963089347">
        <ele>461.08999999999997</ele>
        <time>2025-05-10T11:28:44Z</time>
      </trkpt>
      <trkpt lat="37.180769965052605" lon="-4.201148003339768">
        <ele>460.61000000000001</ele>
        <time>2025-05-10T11:28:45Z</time>
      </trkpt>
      <trkpt lat="37.180869961157441" lon="-4.201096035540104">
        <ele>460.13</ele>
        <time>2025-05-10T11:28:46Z</time>
      </trkpt>
      <trkpt lat="37.181117981672287" lon="-4.200936025008559">
        <ele>459.17000000000002</ele>
        <time>2025-05-10T11:28:49Z</time>
      </trkpt>
      <trkpt lat="37.181171039119363" lon="-4.200865030288696">
        <ele>458.69</ele>
        <time>2025-05-10T11:28:50Z</time>
      </trkpt>
      <trkpt lat="37.181208003312349" lon="-4.200780959799886">
        <ele>458.69</ele>
        <time>2025-05-10T11:28:51Z</time>
      </trkpt>
      <trkpt lat="37.181198028847575" lon="-4.200685992836952">
        <ele>458.20999999999998</ele>
        <time>2025-05-10T11:28:52Z</time>
      </trkpt>
      <trkpt lat="37.181183025240898" lon="-4.200582979246974">
        <ele>458.20999999999998</ele>
        <time>2025-05-10T11:28:53Z</time>
      </trkpt>
      <trkpt lat="37.181132985278964" lon="-4.200483988970518">
        <ele>457.72000000000003</ele>
        <time>2025-05-10T11:28:54Z</time>
      </trkpt>
      <trkpt lat="37.1810810174793" lon="-4.200379969552159">
        <ele>457.72000000000003</ele>
        <time>2025-05-10T11:28:55Z</time>
      </trkpt>
      <trkpt lat="37.180918995290995" lon="-4.200056008994579">
        <ele>456.75999999999999</ele>
        <time>2025-05-10T11:28:58Z</time>
      </trkpt>
      <trkpt lat="37.180866021662951" lon="-4.199949977919459">
        <ele>456.27999999999997</ele>
        <time>2025-05-10T11:28:59Z</time>
      </trkpt>
      <trkpt lat="37.180780023336411" lon="-4.199865991249681">
        <ele>456.27999999999997</ele>
        <time>2025-05-10T11:29:00Z</time>
      </trkpt>
      <trkpt lat="37.180677009746432" lon="-4.199817040935159">
        <ele>456.27999999999997</ele>
        <time>2025-05-10T11:29:01Z</time>
      </trkpt>
      <trkpt lat="37.180570978671312" lon="-4.199794996529818">
        <ele>456.75999999999999</ele>
        <time>2025-05-10T11:29:02Z</time>
      </trkpt>
      <trkpt lat="37.180447010323405" lon="-4.199791979044676">
        <ele>456.75999999999999</ele>
        <time>2025-05-10T11:29:03Z</time>
      </trkpt>
      <trkpt lat="37.180323963984847" lon="-4.199817040935159">
        <ele>457.24000000000001</ele>
        <time>2025-05-10T11:29:04Z</time>
      </trkpt>
      <trkpt lat="37.180194966495037" lon="-4.199843024834991">
        <ele>457.24000000000001</ele>
        <time>2025-05-10T11:29:05Z</time>
      </trkpt>
      <trkpt lat="37.180065969005227" lon="-4.199869008734822">
        <ele>457.72000000000003</ele>
        <time>2025-05-10T11:29:06Z</time>
      </trkpt>
      <trkpt lat="37.179935965687037" lon="-4.199903961271048">
        <ele>457.72000000000003</ele>
        <time>2025-05-10T11:29:07Z</time>
      </trkpt>
      <trkpt lat="37.179803028702736" lon="-4.199938997626305">
        <ele>457.72000000000003</ele>
        <time>2025-05-10T11:29:08Z</time>
      </trkpt>
      <trkpt lat="37.179666990414262" lon="-4.199959030374885">
        <ele>457.72000000000003</ele>
        <time>2025-05-10T11:29:09Z</time>
      </trkpt>
      <trkpt lat="37.178734000772238" lon="-4.199884012341499">
        <ele>461.56999999999999</ele>
        <time>2025-05-10T11:29:16Z</time>
      </trkpt>
      <trkpt lat="37.178637022152543" lon="-4.199835984036326">
        <ele>462.05000000000001</ele>
        <time>2025-05-10T11:29:17Z</time>
      </trkpt>
      <trkpt lat="37.178553035482764" lon="-4.199762977659702">
        <ele>463.00999999999999</ele>
        <time>2025-05-10T11:29:18Z</time>
      </trkpt>
      <trkpt lat="37.178469970822334" lon="-4.199679996818304">
        <ele>463.49000000000001</ele>
        <time>2025-05-10T11:29:19Z</time>
      </trkpt>
      <trkpt lat="37.178386989980936" lon="-4.199590981006622">
        <ele>463.97000000000003</ele>
        <time>2025-05-10T11:29:20Z</time>
      </trkpt>
      <trkpt lat="37.178252041339874" lon="-4.199401969090104">
        <ele>465.42000000000002</ele>
        <time>2025-05-10T11:29:22Z</time>
      </trkpt>
      <trkpt lat="37.177970996126533" lon="-4.199009025469422">
        <ele>467.81999999999999</ele>
        <time>2025-05-10T11:29:26Z</time>
      </trkpt>
      <trkpt lat="37.177878962829709" lon="-4.198931995779276">
        <ele>468.30000000000001</ele>
        <time>2025-05-10T11:29:27Z</time>
      </trkpt>
      <trkpt lat="37.17779103666544" lon="-4.198856977745891">
        <ele>468.77999999999997</ele>
        <time>2025-05-10T11:29:28Z</time>
      </trkpt>
      <trkpt lat="37.177515020594001" lon="-4.198666960000992">
        <ele>470.22000000000003</ele>
        <time>2025-05-10T11:29:31Z</time>
      </trkpt>
      <trkpt lat="37.17689199373126" lon="-4.198461016640067">
        <ele>472.63</ele>
        <time>2025-05-10T11:29:37Z</time>
      </trkpt>
      <trkpt lat="37.176801972091198" lon="-4.19840200804174">
        <ele>473.11000000000001</ele>
        <time>2025-05-10T11:29:38Z</time>
      </trkpt>
      <trkpt lat="37.176722008734941" lon="-4.198323972523212">
        <ele>473.58999999999997</ele>
        <time>2025-05-10T11:29:39Z</time>
      </trkpt>
      <trkpt lat="37.17665595933795" lon="-4.198218025267124">
        <ele>473.58999999999997</ele>
        <time>2025-05-10T11:29:40Z</time>
      </trkpt>
      <trkpt lat="37.176603991538286" lon="-4.198099002242088">
        <ele>474.06999999999999</ele>
        <time>2025-05-10T11:29:41Z</time>
      </trkpt>
      <trkpt lat="37.176555963233113" lon="-4.197975033894181">
        <ele>474.55000000000001</ele>
        <time>2025-05-10T11:29:42Z</time>
      </trkpt>
      <trkpt lat="37.176357982680202" lon="-4.197489973157644">
        <ele>475.02999999999997</ele>
        <time>2025-05-10T11:29:47Z</time>
      </trkpt>
      <trkpt lat="37.176325041800737" lon="-4.197417972609401">
        <ele>475.02999999999997</ele>
        <time>2025-05-10T11:29:48Z</time>
      </trkpt>
      <trkpt lat="37.176189003512263" lon="-4.197319988161326">
        <ele>475.02999999999997</ele>
        <time>2025-05-10T11:29:50Z</time>
      </trkpt>
      <trkpt lat="37.176147010177374" lon="-4.197248993441463">
        <ele>475.50999999999999</ele>
        <time>2025-05-10T11:29:51Z</time>
      </trkpt>
      <trkpt lat="37.176147010177374" lon="-4.196906005963683">
        <ele>475.99000000000001</ele>
        <time>2025-05-10T11:29:54Z</time>
      </trkpt>
      <trkpt lat="37.176066040992737" lon="-4.196795029565692">
        <ele>476.47000000000003</ele>
        <time>2025-05-10T11:29:55Z</time>
      </trkpt>
      <trkpt lat="37.175845010206103" lon="-4.19649101793766">
        <ele>477.43000000000001</ele>
        <time>2025-05-10T11:29:58Z</time>
      </trkpt>
      <trkpt lat="37.175781978294253" lon="-4.196363026276231">
        <ele>477.43000000000001</ele>
        <time>2025-05-10T11:29:59Z</time>
      </trkpt>
      <trkpt lat="37.175738979130983" lon="-4.196219025179744">
        <ele>477.91000000000003</ele>
        <time>2025-05-10T11:30:00Z</time>
      </trkpt>
      <trkpt lat="37.175707966089249" lon="-4.196046022698283">
        <ele>478.38999999999999</ele>
        <time>2025-05-10T11:30:01Z</time>
      </trkpt>
      <trkpt lat="37.175677036866546" lon="-4.195876959711313">
        <ele>478.87</ele>
        <time>2025-05-10T11:30:02Z</time>
      </trkpt>
      <trkpt lat="37.175460029393435" lon="-4.194180965423584">
        <ele>484.63999999999999</ele>
        <time>2025-05-10T11:30:11Z</time>
      </trkpt>
      <trkpt lat="37.175490958616138" lon="-4.193986002355814">
        <ele>485.60000000000002</ele>
        <time>2025-05-10T11:30:12Z</time>
      </trkpt>
      <trkpt lat="37.175520965829492" lon="-4.193799002096057">
        <ele>486.56</ele>
        <time>2025-05-10T11:30:13Z</time>
      </trkpt>
      <trkpt lat="37.175564970821142" lon="-4.193607978522778">
        <ele>487.05000000000001</ele>
        <time>2025-05-10T11:30:14Z</time>
      </trkpt>
      <trkpt lat="37.175651974976063" lon="-4.19344000518322">
        <ele>487.52999999999997</ele>
        <time>2025-05-10T11:30:15Z</time>
      </trkpt>
      <trkpt lat="37.175741996616125" lon="-4.193264991044998">
        <ele>488.49000000000001</ele>
        <time>2025-05-10T11:30:16Z</time>
      </trkpt>
      <trkpt lat="37.175835035741329" lon="-4.193083019927144">
        <ele>489.44999999999999</ele>
        <time>2025-05-10T11:30:17Z</time>
      </trkpt>
      <trkpt lat="37.176024969667196" lon="-4.192687980830669">
        <ele>490.88999999999999</ele>
        <time>2025-05-10T11:30:19Z</time>
      </trkpt>
      <trkpt lat="37.176287993788719" lon="-4.191751973703504">
        <ele>492.32999999999998</ele>
        <time>2025-05-10T11:30:23Z</time>
      </trkpt>
      <trkpt lat="37.176316995173693" lon="-4.191489033401012">
        <ele>493.29000000000002</ele>
        <time>2025-05-10T11:30:24Z</time>
      </trkpt>
      <trkpt lat="37.176511036232114" lon="-4.189032968133688">
        <ele>494.25999999999999</ele>
        <time>2025-05-10T11:30:34Z</time>
      </trkpt>
      <trkpt lat="37.176702981814742" lon="-4.18624397367239">
        <ele>491.37</ele>
        <time>2025-05-10T11:30:46Z</time>
      </trkpt>
      <trkpt lat="37.176842959597707" lon="-4.184205997735262">
        <ele>490.88999999999999</ele>
        <time>2025-05-10T11:30:54Z</time>
      </trkpt>
      <trkpt lat="37.177015962079167" lon="-4.18205201625824">
        <ele>488.49000000000001</ele>
        <time>2025-05-10T11:31:03Z</time>
      </trkpt>
      <trkpt lat="37.177145965397358" lon="-4.181468971073628">
        <ele>488.00999999999999</ele>
        <time>2025-05-10T11:31:06Z</time>
      </trkpt>
      <trkpt lat="37.177216960117221" lon="-4.181296974420548">
        <ele>488.00999999999999</ele>
        <time>2025-05-10T11:31:07Z</time>
      </trkpt>
      <trkpt lat="37.177294995635748" lon="-4.181137969717383">
        <ele>488.00999999999999</ele>
        <time>2025-05-10T11:31:08Z</time>
      </trkpt>
      <trkpt lat="37.177389040589333" lon="-4.180989023298025">
        <ele>487.52999999999997</ele>
        <time>2025-05-10T11:31:09Z</time>
      </trkpt>
      <trkpt lat="37.17749297618866" lon="-4.180824989452958">
        <ele>487.52999999999997</ele>
        <time>2025-05-10T11:31:10Z</time>
      </trkpt>
      <trkpt lat="37.17757998034358" lon="-4.18065601028502">
        <ele>488.00999999999999</ele>
        <time>2025-05-10T11:31:11Z</time>
      </trkpt>
      <trkpt lat="37.177844010293484" lon="-4.180141026154161">
        <ele>489.93000000000001</ele>
        <time>2025-05-10T11:31:14Z</time>
      </trkpt>
      <trkpt lat="37.177910981699824" lon="-4.179955031722784">
        <ele>490.88999999999999</ele>
        <time>2025-05-10T11:31:15Z</time>
      </trkpt>
      <trkpt lat="37.177960015833378" lon="-4.17975302785635">
        <ele>491.85000000000002</ele>
        <time>2025-05-10T11:31:16Z</time>
      </trkpt>
      <trkpt lat="37.177983988076448" lon="-4.179550018161535">
        <ele>492.81</ele>
        <time>2025-05-10T11:31:17Z</time>
      </trkpt>
      <trkpt lat="37.17800703831017" lon="-4.179343990981579">
        <ele>493.76999999999998</ele>
        <time>2025-05-10T11:31:18Z</time>
      </trkpt>
      <trkpt lat="37.178024975582957" lon="-4.179135030135512">
        <ele>493.76999999999998</ele>
        <time>2025-05-10T11:31:19Z</time>
      </trkpt>
      <trkpt lat="37.178023969754577" lon="-4.178911987692118">
        <ele>494.25999999999999</ele>
        <time>2025-05-10T11:31:20Z</time>
      </trkpt>
      <trkpt lat="37.177993040531874" lon="-4.178693974390626">
        <ele>494.25999999999999</ele>
        <time>2025-05-10T11:31:21Z</time>
      </trkpt>
      <trkpt lat="37.177937971428037" lon="-4.178473027423024">
        <ele>494.74000000000001</ele>
        <time>2025-05-10T11:31:22Z</time>
      </trkpt>
      <trkpt lat="37.177862031385303" lon="-4.178260965272784">
        <ele>494.25999999999999</ele>
        <time>2025-05-10T11:31:23Z</time>
      </trkpt>
      <trkpt lat="37.177776033058763" lon="-4.178054016083479">
        <ele>493.76999999999998</ele>
        <time>2025-05-10T11:31:24Z</time>
      </trkpt>
      <trkpt lat="37.177681988105178" lon="-4.177850000560284">
        <ele>493.76999999999998</ele>
        <time>2025-05-10T11:31:25Z</time>
      </trkpt>
      <trkpt lat="37.177461041137576" lon="-4.177205013111234">
        <ele>490.88999999999999</ele>
        <time>2025-05-10T11:31:28Z</time>
      </trkpt>
      <trkpt lat="37.1774079836905" lon="-4.1769839823246">
        <ele>489.93000000000001</ele>
        <time>2025-05-10T11:31:29Z</time>
      </trkpt>
      <trkpt lat="37.177390968427062" lon="-4.176762029528618">
        <ele>489.44999999999999</ele>
        <time>2025-05-10T11:31:30Z</time>
      </trkpt>
      <trkpt lat="37.177390968427062" lon="-4.176549967378378">
        <ele>488.49000000000001</ele>
        <time>2025-05-10T11:31:31Z</time>
      </trkpt>
      <trkpt lat="37.177390968427062" lon="-4.176346035674214">
        <ele>488.00999999999999</ele>
        <time>2025-05-10T11:31:32Z</time>
      </trkpt>
      <trkpt lat="37.177518960088491" lon="-4.174710977822542">
        <ele>490.88999999999999</ele>
        <time>2025-05-10T11:31:41Z</time>
      </trkpt>
      <trkpt lat="37.177648041397333" lon="-4.172561019659042">
        <ele>496.18000000000001</ele>
        <time>2025-05-10T11:31:52Z</time>
      </trkpt>
      <trkpt lat="37.177603030577302" lon="-4.172361027449369">
        <ele>496.18000000000001</ele>
        <time>2025-05-10T11:31:53Z</time>
      </trkpt>
      <trkpt lat="37.177553996443748" lon="-4.17216899804771">
        <ele>495.69999999999999</ele>
        <time>2025-05-10T11:31:54Z</time>
      </trkpt>
      <trkpt lat="37.177464980632067" lon="-4.171999013051391">
        <ele>496.18000000000001</ele>
        <time>2025-05-10T11:31:55Z</time>
      </trkpt>
      <trkpt lat="37.177379988133907" lon="-4.171834979206324">
        <ele>496.18000000000001</ele>
        <time>2025-05-10T11:31:56Z</time>
      </trkpt>
      <trkpt lat="37.177301030606031" lon="-4.171682009473443">
        <ele>495.69999999999999</ele>
        <time>2025-05-10T11:31:57Z</time>
      </trkpt>
      <trkpt lat="37.176713040098548" lon="-4.170742984861136">
        <ele>496.18000000000001</ele>
        <time>2025-05-10T11:32:05Z</time>
      </trkpt>
      <trkpt lat="37.17592497356236" lon="-4.169590976089239">
        <ele>500.5</ele>
        <time>2025-05-10T11:32:16Z</time>
      </trkpt>
      <trkpt lat="37.175827994942665" lon="-4.169487962499261">
        <ele>500.98000000000002</ele>
        <time>2025-05-10T11:32:17Z</time>
      </trkpt>
      <trkpt lat="37.175725987181067" lon="-4.16939701884985">
        <ele>501.45999999999998</ele>
        <time>2025-05-10T11:32:18Z</time>
      </trkpt>
      <trkpt lat="37.17562498524785" lon="-4.169306997209787">
        <ele>501.94999999999999</ele>
        <time>2025-05-10T11:32:19Z</time>
      </trkpt>
      <trkpt lat="37.175514008849859" lon="-4.169239019975066">
        <ele>502.43000000000001</ele>
        <time>2025-05-10T11:32:20Z</time>
      </trkpt>
      <trkpt lat="37.174858963117003" lon="-4.168840041384101">
        <ele>505.31</ele>
        <time>2025-05-10T11:32:25Z</time>
      </trkpt>
      <trkpt lat="37.174685960635543" lon="-4.168759994208813">
        <ele>505.79000000000002</ele>
        <time>2025-05-10T11:32:26Z</time>
      </trkpt>
      <trkpt lat="37.174504995346069" lon="-4.168715989217162">
        <ele>505.79000000000002</ele>
        <time>2025-05-10T11:32:27Z</time>
      </trkpt>
      <trkpt lat="37.174329981207848" lon="-4.168675001710653">
        <ele>506.26999999999998</ele>
        <time>2025-05-10T11:32:28Z</time>
      </trkpt>
      <trkpt lat="37.174153961241245" lon="-4.168679025024176">
        <ele>506.75</ele>
        <time>2025-05-10T11:32:29Z</time>
      </trkpt>
      <trkpt lat="37.173979030922055" lon="-4.16870903223753">
        <ele>507.23000000000002</ele>
        <time>2025-05-10T11:32:30Z</time>
      </trkpt>
      <trkpt lat="37.17381801456213" lon="-4.168782038614154">
        <ele>507.23000000000002</ele>
        <time>2025-05-10T11:32:31Z</time>
      </trkpt>
      <trkpt lat="37.172948978841305" lon="-4.169344967231154">
        <ele>507.70999999999998</ele>
        <time>2025-05-10T11:32:37Z</time>
      </trkpt>
      <trkpt lat="37.172846971079707" lon="-4.169472036883235">
        <ele>507.23000000000002</ele>
        <time>2025-05-10T11:32:38Z</time>
      </trkpt>
      <trkpt lat="37.172020012512803" lon="-4.170291032642126">
        <ele>504.35000000000002</ele>
        <time>2025-05-10T11:32:46Z</time>
      </trkpt>
      <trkpt lat="37.171277962625027" lon="-4.171011038124561">
        <ele>503.87</ele>
        <time>2025-05-10T11:32:54Z</time>
      </trkpt>
      <trkpt lat="37.171176038682461" lon="-4.171040961518884">
        <ele>503.38999999999999</ele>
        <time>2025-05-10T11:32:55Z</time>
      </trkpt>
      <trkpt lat="37.171085011214018" lon="-4.171036016196013">
        <ele>502.91000000000003</ele>
        <time>2025-05-10T11:32:56Z</time>
      </trkpt>
      <trkpt lat="37.170997001230717" lon="-4.171007014811039">
        <ele>502.91000000000003</ele>
        <time>2025-05-10T11:32:57Z</time>
      </trkpt>
      <trkpt lat="37.17093899846077" lon="-4.170925039798021">
        <ele>502.91000000000003</ele>
        <time>2025-05-10T11:32:58Z</time>
      </trkpt>
      <trkpt lat="37.170889964327216" lon="-4.170856978744268">
        <ele>502.91000000000003</ele>
        <time>2025-05-10T11:32:59Z</time>
      </trkpt>
      <trkpt lat="37.17085400596261" lon="-4.170723035931587">
        <ele>502.43000000000001</ele>
        <time>2025-05-10T11:33:00Z</time>
      </trkpt>
      <trkpt lat="37.170803966000676" lon="-4.17053502984345">
        <ele>501.94999999999999</ele>
        <time>2025-05-10T11:33:01Z</time>
      </trkpt>
      <trkpt lat="37.170807989314198" lon="-4.170445008203387">
        <ele>501.94999999999999</ele>
        <time>2025-05-10T11:33:02Z</time>
      </trkpt>
      <trkpt lat="37.170815030112863" lon="-4.170278962701559">
        <ele>501.45999999999998</ele>
        <time>2025-05-10T11:33:03Z</time>
      </trkpt>
      <trkpt lat="37.170822992920876" lon="-4.170106966048479">
        <ele>500.98000000000002</ele>
        <time>2025-05-10T11:33:04Z</time>
      </trkpt>
      <trkpt lat="37.170802960172296" lon="-4.169920971617103">
        <ele>500.98000000000002</ele>
        <time>2025-05-10T11:33:05Z</time>
      </trkpt>
      <trkpt lat="37.17076700180769" lon="-4.169728020206094">
        <ele>500.5</ele>
        <time>2025-05-10T11:33:06Z</time>
      </trkpt>
      <trkpt lat="37.170696007087827" lon="-4.16954898275435">
        <ele>500.5</ele>
        <time>2025-05-10T11:33:07Z</time>
      </trkpt>
      <trkpt lat="37.170619983226061" lon="-4.169375980272889">
        <ele>500.01999999999998</ele>
        <time>2025-05-10T11:33:08Z</time>
      </trkpt>
      <trkpt lat="37.170505989342928" lon="-4.169233990833163">
        <ele>500.01999999999998</ele>
        <time>2025-05-10T11:33:09Z</time>
      </trkpt>
      <trkpt lat="37.170366011559963" lon="-4.169141035526991">
        <ele>500.01999999999998</ele>
        <time>2025-05-10T11:33:10Z</time>
      </trkpt>
      <trkpt lat="37.170219998806715" lon="-4.169078003615141">
        <ele>499.54000000000002</ele>
        <time>2025-05-10T11:33:11Z</time>
      </trkpt>
      <trkpt lat="37.170066023245454" lon="-4.16903299279511">
        <ele>499.54000000000002</ele>
        <time>2025-05-10T11:33:12Z</time>
      </trkpt>
      <trkpt lat="37.169912969693542" lon="-4.16903299279511">
        <ele>499.06</ele>
        <time>2025-05-10T11:33:13Z</time>
      </trkpt>
      <trkpt lat="37.169767040759325" lon="-4.169067023321986">
        <ele>498.57999999999998</ele>
        <time>2025-05-10T11:33:14Z</time>
      </trkpt>
      <trkpt lat="37.169633014127612" lon="-4.169117985293269">
        <ele>498.57999999999998</ele>
        <time>2025-05-10T11:33:15Z</time>
      </trkpt>
      <trkpt lat="37.169509967789054" lon="-4.169164001941681">
        <ele>498.10000000000002</ele>
        <time>2025-05-10T11:33:16Z</time>
      </trkpt>
      <trkpt lat="37.169401003047824" lon="-4.16920498944819">
        <ele>498.10000000000002</ele>
        <time>2025-05-10T11:33:17Z</time>
      </trkpt>
      <trkpt lat="37.169306958094239" lon="-4.16922602802515">
        <ele>498.10000000000002</ele>
        <time>2025-05-10T11:33:18Z</time>
      </trkpt>
      <trkpt lat="37.169235963374376" lon="-4.16922602802515">
        <ele>498.10000000000002</ele>
        <time>2025-05-10T11:33:19Z</time>
      </trkpt>
      <trkpt lat="37.16917997226119" lon="-4.169215969741345">
        <ele>498.10000000000002</ele>
        <time>2025-05-10T11:33:20Z</time>
      </trkpt>
      <trkpt lat="37.16917997226119" lon="-4.169215969741345">
        <ele>498.10000000000002</ele>
        <time>2025-05-10T11:33:26Z</time>
      </trkpt>
      <trkpt lat="37.169131021946669" lon="-4.16918596252799">
        <ele>498.10000000000002</ele>
        <time>2025-05-10T11:33:35Z</time>
      </trkpt>
      <trkpt lat="37.169083999469876" lon="-4.169156039133668">
        <ele>498.10000000000002</ele>
        <time>2025-05-10T11:33:36Z</time>
      </trkpt>
      <trkpt lat="37.169018033891916" lon="-4.169107005000114">
        <ele>498.57999999999998</ele>
        <time>2025-05-10T11:33:37Z</time>
      </trkpt>
      <trkpt lat="37.168976040557027" lon="-4.16901396587491">
        <ele>498.57999999999998</ele>
        <time>2025-05-10T11:33:38Z</time>
      </trkpt>
      <trkpt lat="37.168926000595093" lon="-4.16890500113368">
        <ele>498.57999999999998</ele>
        <time>2025-05-10T11:33:39Z</time>
      </trkpt>
      <trkpt lat="37.168900016695261" lon="-4.168762005865574">
        <ele>498.57999999999998</ele>
        <time>2025-05-10T11:33:40Z</time>
      </trkpt>
      <trkpt lat="37.1688789781183" lon="-4.16860300116241">
        <ele>498.57999999999998</ele>
        <time>2025-05-10T11:33:41Z</time>
      </trkpt>
      <trkpt lat="37.168858023360372" lon="-4.168439973145723">
        <ele>498.57999999999998</ele>
        <time>2025-05-10T11:33:42Z</time>
      </trkpt>
      <trkpt lat="37.16887503862381" lon="-4.168293038383126">
        <ele>497.62</ele>
        <time>2025-05-10T11:33:43Z</time>
      </trkpt>
      <trkpt lat="37.168908985331655" lon="-4.168157000094652">
        <ele>497.62</ele>
        <time>2025-05-10T11:33:44Z</time>
      </trkpt>
      <trkpt lat="37.168973023071885" lon="-4.168060021474958">
        <ele>497.13999999999999</ele>
        <time>2025-05-10T11:33:45Z</time>
      </trkpt>
      <trkpt lat="37.169045023620129" lon="-4.167948039248586">
        <ele>496.66000000000003</ele>
        <time>2025-05-10T11:33:46Z</time>
      </trkpt>
      <trkpt lat="37.169115012511611" lon="-4.167825998738408">
        <ele>496.66000000000003</ele>
        <time>2025-05-10T11:33:47Z</time>
      </trkpt>
      <trkpt lat="37.169173015281558" lon="-4.167693983763456">
        <ele>496.18000000000001</ele>
        <time>2025-05-10T11:33:48Z</time>
      </trkpt>
      <trkpt lat="37.169173015281558" lon="-4.167534979060292">
        <ele>495.69999999999999</ele>
        <time>2025-05-10T11:33:49Z</time>
      </trkpt>
      <trkpt lat="37.169173015281558" lon="-4.16735895909369">
        <ele>495.22000000000003</ele>
        <time>2025-05-10T11:33:50Z</time>
      </trkpt>
      <trkpt lat="37.169173015281558" lon="-4.167173970490694">
        <ele>494.74000000000001</ele>
        <time>2025-05-10T11:33:51Z</time>
      </trkpt>
      <trkpt lat="37.169187013059855" lon="-4.166989987716079">
        <ele>494.74000000000001</ele>
        <time>2025-05-10T11:33:52Z</time>
      </trkpt>
      <trkpt lat="37.169223977252841" lon="-4.166804999113083">
        <ele>494.74000000000001</ele>
        <time>2025-05-10T11:33:53Z</time>
      </trkpt>
      <trkpt lat="37.169259013608098" lon="-4.166628979146481">
        <ele>494.74000000000001</ele>
        <time>2025-05-10T11:33:54Z</time>
      </trkpt>
      <trkpt lat="37.169337971135974" lon="-4.166477015241981">
        <ele>494.74000000000001</ele>
        <time>2025-05-10T11:33:55Z</time>
      </trkpt>
      <trkpt lat="37.16941500082612" lon="-4.166327985003591">
        <ele>495.22000000000003</ele>
        <time>2025-05-10T11:33:56Z</time>
      </trkpt>
      <trkpt lat="37.169707026332617" lon="-4.165619965642691">
        <ele>496.18000000000001</ele>
        <time>2025-05-10T11:34:01Z</time>
      </trkpt>
      <trkpt lat="37.169699985533953" lon="-4.165478982031345">
        <ele>496.66000000000003</ele>
        <time>2025-05-10T11:34:02Z</time>
      </trkpt>
      <trkpt lat="37.16969302855432" lon="-4.165334980934858">
        <ele>496.66000000000003</ele>
        <time>2025-05-10T11:34:03Z</time>
      </trkpt>
      <trkpt lat="37.169670984148979" lon="-4.165190979838371">
        <ele>496.66000000000003</ele>
        <time>2025-05-10T11:34:04Z</time>
      </trkpt>
      <trkpt lat="37.169622033834457" lon="-4.165061982348561">
        <ele>497.13999999999999</ele>
        <time>2025-05-10T11:34:05Z</time>
      </trkpt>
      <trkpt lat="37.169576017186046" lon="-4.164947988465428">
        <ele>497.13999999999999</ele>
        <time>2025-05-10T11:34:06Z</time>
      </trkpt>
      <trkpt lat="37.169524971395731" lon="-4.164869030937553">
        <ele>497.13999999999999</ele>
        <time>2025-05-10T11:34:07Z</time>
      </trkpt>
      <trkpt lat="37.169487001374364" lon="-4.164810022339225">
        <ele>497.13999999999999</ele>
        <time>2025-05-10T11:34:08Z</time>
      </trkpt>
      <trkpt lat="37.169442996382713" lon="-4.164741961285472">
        <ele>497.62</ele>
        <time>2025-05-10T11:34:14Z</time>
      </trkpt>
      <trkpt lat="37.16937200166285" lon="-4.164634002372623">
        <ele>498.10000000000002</ele>
        <time>2025-05-10T11:34:20Z</time>
      </trkpt>
      <trkpt lat="37.169341994449496" lon="-4.164587985724211">
        <ele>498.57999999999998</ele>
        <time>2025-05-10T11:34:21Z</time>
      </trkpt>
      <trkpt lat="37.16926496475935" lon="-4.164519002661109">
        <ele>499.06</ele>
        <time>2025-05-10T11:34:23Z</time>
      </trkpt>
      <trkpt lat="37.169223977252841" lon="-4.164482038468123">
        <ele>499.06</ele>
        <time>2025-05-10T11:34:24Z</time>
      </trkpt>
      <trkpt lat="37.169188018888235" lon="-4.164450019598007">
        <ele>499.54000000000002</ele>
        <time>2025-05-10T11:34:25Z</time>
      </trkpt>
      <trkpt lat="37.169022979214787" lon="-4.164526965469122">
        <ele>500.01999999999998</ele>
        <time>2025-05-10T11:34:27Z</time>
      </trkpt>
      <trkpt lat="37.169021973386407" lon="-4.164525959640741">
        <ele>500.01999999999998</ele>
        <time>2025-05-10T11:34:28Z</time>
      </trkpt>
      <trkpt lat="37.168976040557027" lon="-4.164514979347587">
        <ele>500.01999999999998</ele>
        <time>2025-05-10T11:34:29Z</time>
      </trkpt>
      <trkpt lat="37.168909991160035" lon="-4.164437027648091">
        <ele>500.5</ele>
        <time>2025-05-10T11:34:30Z</time>
      </trkpt>
      <trkpt lat="37.168893981724977" lon="-4.164397967979312">
        <ele>500.5</ele>
        <time>2025-05-10T11:34:31Z</time>
      </trkpt>
      <trkpt lat="37.168959025293589" lon="-4.164225971326232">
        <ele>500.98000000000002</ele>
        <time>2025-05-10T11:34:32Z</time>
      </trkpt>
      <trkpt lat="37.168948967009783" lon="-4.164194036275148">
        <ele>500.98000000000002</ele>
        <time>2025-05-10T11:34:33Z</time>
      </trkpt>
      <trkpt lat="37.168928012251854" lon="-4.164126981049776">
        <ele>501.45999999999998</ele>
        <time>2025-05-10T11:34:34Z</time>
      </trkpt>
      <trkpt lat="37.168861040845513" lon="-4.163912991061807">
        <ele>501.45999999999998</ele>
        <time>2025-05-10T11:34:37Z</time>
      </trkpt>
      <trkpt lat="37.168830027803779" lon="-4.163840990513563">
        <ele>501.94999999999999</ele>
        <time>2025-05-10T11:34:38Z</time>
      </trkpt>
      <trkpt lat="37.16879197396338" lon="-4.16376898996532">
        <ele>501.94999999999999</ele>
        <time>2025-05-10T11:34:39Z</time>
      </trkpt>
      <trkpt lat="37.168751992285252" lon="-4.163691960275173">
        <ele>501.94999999999999</ele>
        <time>2025-05-10T11:34:40Z</time>
      </trkpt>
      <trkpt lat="37.168712010607123" lon="-4.163616020232439">
        <ele>501.94999999999999</ele>
        <time>2025-05-10T11:34:41Z</time>
      </trkpt>
      <trkpt lat="37.168636992573738" lon="-4.163472019135952">
        <ele>502.43000000000001</ele>
        <time>2025-05-10T11:34:43Z</time>
      </trkpt>
      <trkpt lat="37.168214963749051" lon="-4.162755031138659">
        <ele>504.82999999999998</ele>
        <time>2025-05-10T11:34:54Z</time>
      </trkpt>
      <trkpt lat="37.168079009279609" lon="-4.162509022280574">
        <ele>504.82999999999998</ele>
        <time>2025-05-10T11:34:59Z</time>
      </trkpt>
      <trkpt lat="37.168079009279609" lon="-4.162509022280574">
        <ele>504.82999999999998</ele>
        <time>2025-05-10T11:35:00Z</time>
      </trkpt>
      <trkpt lat="37.16799602843821" lon="-4.162469962611795">
        <ele>504.82999999999998</ele>
        <time>2025-05-10T11:35:01Z</time>
      </trkpt>
      <trkpt lat="37.168001979589462" lon="-4.162426963448525">
        <ele>504.82999999999998</ele>
        <time>2025-05-10T11:35:02Z</time>
      </trkpt>
      <trkpt lat="37.168009020388126" lon="-4.162379018962383">
        <ele>504.82999999999998</ele>
        <time>2025-05-10T11:35:03Z</time>
      </trkpt>
      <trkpt lat="37.168013965710998" lon="-4.162338031455874">
        <ele>504.82999999999998</ele>
        <time>2025-05-10T11:35:04Z</time>
      </trkpt>
      <trkpt lat="37.168113961815834" lon="-4.162325961515307">
        <ele>504.82999999999998</ele>
        <time>2025-05-10T11:35:05Z</time>
      </trkpt>
      <trkpt lat="37.168314037844539" lon="-4.161823969334364">
        <ele>502.43000000000001</ele>
        <time>2025-05-10T11:35:16Z</time>
      </trkpt>
      <trkpt lat="37.168314037844539" lon="-4.161823969334364">
        <ele>502.43000000000001</ele>
        <time>2025-05-10T11:35:37Z</time>
      </trkpt>
      <trkpt lat="37.168327029794455" lon="-4.161798991262913">
        <ele>502.43000000000001</ele>
        <time>2025-05-10T11:35:40Z</time>
      </trkpt>
      <trkpt lat="37.16846901923418" lon="-4.161430019885302">
        <ele>498.10000000000002</ele>
        <time>2025-05-10T11:35:47Z</time>
      </trkpt>
      <trkpt lat="37.168487040325999" lon="-4.161365982145071">
        <ele>497.13999999999999</ele>
        <time>2025-05-10T11:35:48Z</time>
      </trkpt>
      <trkpt lat="37.16849097982049" lon="-4.161293981596828">
        <ele>496.18000000000001</ele>
        <time>2025-05-10T11:35:49Z</time>
      </trkpt>
      <trkpt lat="37.168501038104296" lon="-4.161147968843579">
        <ele>494.25999999999999</ele>
        <time>2025-05-10T11:35:51Z</time>
      </trkpt>
      <trkpt lat="37.168504977598786" lon="-4.161069011315703">
        <ele>493.76999999999998</ele>
        <time>2025-05-10T11:35:52Z</time>
      </trkpt>
      <trkpt lat="37.168559040874243" lon="-4.160738009959459">
        <ele>490.41000000000003</ele>
        <time>2025-05-10T11:35:56Z</time>
      </trkpt>
      <trkpt lat="37.168645039200783" lon="-4.160528965294361">
        <ele>488.00999999999999</ele>
        <time>2025-05-10T11:35:59Z</time>
      </trkpt>
      <trkpt lat="37.168779987841845" lon="-4.160209028050304">
        <ele>484.16000000000003</ele>
        <time>2025-05-10T11:36:05Z</time>
      </trkpt>
      <trkpt lat="37.168787028640509" lon="-4.160133004188538">
        <ele>483.19999999999999</ele>
        <time>2025-05-10T11:36:06Z</time>
      </trkpt>
      <trkpt lat="37.168787028640509" lon="-4.160020016133785">
        <ele>482.72000000000003</ele>
        <time>2025-05-10T11:36:07Z</time>
      </trkpt>
      <trkpt lat="37.168691977858543" lon="-4.159735031425953">
        <ele>480.80000000000001</ele>
        <time>2025-05-10T11:36:11Z</time>
      </trkpt>
      <trkpt lat="37.168655013665557" lon="-4.159649033099413">
        <ele>480.31999999999999</ele>
        <time>2025-05-10T11:36:12Z</time>
      </trkpt>
      <trkpt lat="37.168572032824159" lon="-4.159482987597585">
        <ele>479.83999999999997</ele>
        <time>2025-05-10T11:36:14Z</time>
      </trkpt>
      <trkpt lat="37.168528027832508" lon="-4.159418027848005">
        <ele>479.83999999999997</ele>
        <time>2025-05-10T11:36:15Z</time>
      </trkpt>
      <trkpt lat="37.168497014790773" lon="-4.159378968179226">
        <ele>479.35000000000002</ele>
        <time>2025-05-10T11:36:16Z</time>
      </trkpt>
      <trkpt lat="37.168477987870574" lon="-4.159356001764536">
        <ele>479.35000000000002</ele>
        <time>2025-05-10T11:36:17Z</time>
      </trkpt>
      <trkpt lat="37.168477987870574" lon="-4.159356001764536">
        <ele>478.38999999999999</ele>
        <time>2025-05-10T11:36:28Z</time>
      </trkpt>
      <trkpt lat="37.168477987870574" lon="-4.159356001764536">
        <ele>478.38999999999999</ele>
        <time>2025-05-10T11:37:07Z</time>
      </trkpt>
      <trkpt lat="37.168458960950375" lon="-4.159332029521465">
        <ele>478.38999999999999</ele>
        <time>2025-05-10T11:37:15Z</time>
      </trkpt>
      <trkpt lat="37.168430965393782" lon="-4.159296993166208">
        <ele>477.91000000000003</ele>
        <time>2025-05-10T11:37:16Z</time>
      </trkpt>
      <trkpt lat="37.168396012857556" lon="-4.159252988174558">
        <ele>477.91000000000003</ele>
        <time>2025-05-10T11:37:17Z</time>
      </trkpt>
      <trkpt lat="37.168099964037538" lon="-4.158904971554875">
        <ele>474.55000000000001</ele>
        <time>2025-05-10T11:37:23Z</time>
      </trkpt>
      <trkpt lat="37.168001979589462" lon="-4.158785026520491">
        <ele>471.18000000000001</ele>
        <time>2025-05-10T11:37:29Z</time>
      </trkpt>
      <trkpt lat="37.168001979589462" lon="-4.158785026520491">
        <ele>469.74000000000001</ele>
        <time>2025-05-10T11:38:11Z</time>
      </trkpt>
      <trkpt lat="37.167984964326024" lon="-4.158768011257052">
        <ele>468.30000000000001</ele>
        <time>2025-05-10T11:38:18Z</time>
      </trkpt>
      <trkpt lat="37.167958980426192" lon="-4.158742027357221">
        <ele>468.77999999999997</ele>
        <time>2025-05-10T11:38:19Z</time>
      </trkpt>
      <trkpt lat="37.167605012655258" lon="-4.158430974930525">
        <ele>473.11000000000001</ele>
        <time>2025-05-10T11:38:28Z</time>
      </trkpt>
      <trkpt lat="37.167303012683988" lon="-4.158193012699485">
        <ele>472.63</ele>
        <time>2025-05-10T11:38:33Z</time>
      </trkpt>
      <trkpt lat="37.167250039055943" lon="-4.158153031021357">
        <ele>472.13999999999999</ele>
        <time>2025-05-10T11:38:34Z</time>
      </trkpt>
      <trkpt lat="37.166985003277659" lon="-4.157959995791316">
        <ele>470.69999999999999</ele>
        <time>2025-05-10T11:38:39Z</time>
      </trkpt>
      <trkpt lat="37.166878972202539" lon="-4.157943986356258">
        <ele>470.69999999999999</ele>
        <time>2025-05-10T11:38:40Z</time>
      </trkpt>
      <trkpt lat="37.166942004114389" lon="-4.157809959724546">
        <ele>470.22000000000003</ele>
        <time>2025-05-10T11:38:41Z</time>
      </trkpt>
      <trkpt lat="37.166945021599531" lon="-4.157761009410024">
        <ele>470.22000000000003</ele>
        <time>2025-05-10T11:38:42Z</time>
      </trkpt>
      <trkpt lat="37.166950972750783" lon="-4.157676016911864">
        <ele>469.74000000000001</ele>
        <time>2025-05-10T11:38:43Z</time>
      </trkpt>
      <trkpt lat="37.166956001892686" lon="-4.157595969736576">
        <ele>469.74000000000001</ele>
        <time>2025-05-10T11:38:44Z</time>
      </trkpt>
      <trkpt lat="37.166979974135756" lon="-4.157434031367302">
        <ele>468.77999999999997</ele>
        <time>2025-05-10T11:38:46Z</time>
      </trkpt>
      <trkpt lat="37.167049963027239" lon="-4.157209983095527">
        <ele>468.30000000000001</ele>
        <time>2025-05-10T11:38:49Z</time>
      </trkpt>
      <trkpt lat="37.167130010202527" lon="-4.156990963965654">
        <ele>468.30000000000001</ele>
        <time>2025-05-10T11:38:52Z</time>
      </trkpt>
      <trkpt lat="37.167160017415881" lon="-4.156911000609398">
        <ele>469.25999999999999</ele>
        <time>2025-05-10T11:38:53Z</time>
      </trkpt>
      <trkpt lat="37.167270993813872" lon="-4.156624004244804">
        <ele>471.66000000000003</ele>
        <time>2025-05-10T11:38:57Z</time>
      </trkpt>
      <trkpt lat="37.167283985763788" lon="-4.156556027010083">
        <ele>471.66000000000003</ele>
        <time>2025-05-10T11:38:58Z</time>
      </trkpt>
      <trkpt lat="37.167281974107027" lon="-4.156482014805079">
        <ele>472.13999999999999</ele>
        <time>2025-05-10T11:38:59Z</time>
      </trkpt>
      <trkpt lat="37.167279040440917" lon="-4.15640096180141">
        <ele>472.13999999999999</ele>
        <time>2025-05-10T11:39:00Z</time>
      </trkpt>
      <trkpt lat="37.167277028784156" lon="-4.156323010101914">
        <ele>472.13999999999999</ele>
        <time>2025-05-10T11:39:01Z</time>
      </trkpt>
      <trkpt lat="37.167275017127395" lon="-4.156242962926626">
        <ele>472.13999999999999</ele>
        <time>2025-05-10T11:39:02Z</time>
      </trkpt>
      <trkpt lat="37.167271999642253" lon="-4.156155958771706">
        <ele>472.13999999999999</ele>
        <time>2025-05-10T11:39:03Z</time>
      </trkpt>
      <trkpt lat="37.167264958843589" lon="-4.155916990712285">
        <ele>472.13999999999999</ele>
        <time>2025-05-10T11:39:06Z</time>
      </trkpt>
      <trkpt lat="37.167263031005859" lon="-4.155838033184409">
        <ele>472.13999999999999</ele>
        <time>2025-05-10T11:39:07Z</time>
      </trkpt>
      <trkpt lat="37.167263031005859" lon="-4.155752034857869">
        <ele>472.13999999999999</ele>
        <time>2025-05-10T11:39:08Z</time>
      </trkpt>
      <trkpt lat="37.167263031005859" lon="-4.155642986297607">
        <ele>472.13999999999999</ele>
        <time>2025-05-10T11:39:09Z</time>
      </trkpt>
      <trkpt lat="37.167255990207195" lon="-4.155577020719647">
        <ele>472.63</ele>
        <time>2025-05-10T11:39:10Z</time>
      </trkpt>
      <trkpt lat="37.167245009914041" lon="-4.155483981594443">
        <ele>472.63</ele>
        <time>2025-05-10T11:39:11Z</time>
      </trkpt>
      <trkpt lat="37.167234029620886" lon="-4.155384991317987">
        <ele>472.63</ele>
        <time>2025-05-10T11:39:12Z</time>
      </trkpt>
      <trkpt lat="37.167222965508699" lon="-4.155290024355054">
        <ele>472.63</ele>
        <time>2025-05-10T11:39:13Z</time>
      </trkpt>
      <trkpt lat="37.167211985215545" lon="-4.155198996886611">
        <ele>472.63</ele>
        <time>2025-05-10T11:39:14Z</time>
      </trkpt>
      <trkpt lat="37.167202010750771" lon="-4.155109981074929">
        <ele>472.63</ele>
        <time>2025-05-10T11:39:15Z</time>
      </trkpt>
      <trkpt lat="37.167198993265629" lon="-4.155085003003478">
        <ele>472.63</ele>
        <time>2025-05-10T11:39:16Z</time>
      </trkpt>
      <trkpt lat="37.167068989947438" lon="-4.154817033559084">
        <ele>473.11000000000001</ele>
        <time>2025-05-10T11:39:19Z</time>
      </trkpt>
      <trkpt lat="37.166928006336093" lon="-4.154526013880968">
        <ele>473.58999999999997</ele>
        <time>2025-05-10T11:39:23Z</time>
      </trkpt>
      <trkpt lat="37.166766989976168" lon="-4.154132986441255">
        <ele>474.06999999999999</ele>
        <time>2025-05-10T11:39:28Z</time>
      </trkpt>
      <trkpt lat="37.166738994419575" lon="-4.154052017256618">
        <ele>474.06999999999999</ele>
        <time>2025-05-10T11:39:29Z</time>
      </trkpt>
      <trkpt lat="37.166680991649628" lon="-4.153884965926409">
        <ele>474.06999999999999</ele>
        <time>2025-05-10T11:39:31Z</time>
      </trkpt>
      <trkpt lat="37.166652996093035" lon="-4.153803996741772">
        <ele>474.55000000000001</ele>
        <time>2025-05-10T11:39:32Z</time>
      </trkpt>
      <trkpt lat="37.166627012193203" lon="-4.153728978708386">
        <ele>475.02999999999997</ele>
        <time>2025-05-10T11:39:33Z</time>
      </trkpt>
      <trkpt lat="37.166601028293371" lon="-4.153653960675001">
        <ele>475.02999999999997</ele>
        <time>2025-05-10T11:39:34Z</time>
      </trkpt>
      <trkpt lat="37.166575966402888" lon="-4.153578020632267">
        <ele>475.50999999999999</ele>
        <time>2025-05-10T11:39:35Z</time>
      </trkpt>
      <trkpt lat="37.166552999988198" lon="-4.153503002598882">
        <ele>475.50999999999999</ele>
        <time>2025-05-10T11:39:36Z</time>
      </trkpt>
      <trkpt lat="37.166528021916747" lon="-4.153425972908735">
        <ele>475.50999999999999</ele>
        <time>2025-05-10T11:39:37Z</time>
      </trkpt>
      <trkpt lat="37.166395001113415" lon="-4.153003022074699">
        <ele>475.50999999999999</ele>
        <time>2025-05-10T11:39:43Z</time>
      </trkpt>
      <trkpt lat="37.166373962536454" lon="-4.152937978506088">
        <ele>475.99000000000001</ele>
        <time>2025-05-10T11:39:44Z</time>
      </trkpt>
      <trkpt lat="37.166352001950145" lon="-4.152866983786225">
        <ele>476.47000000000003</ele>
        <time>2025-05-10T11:39:45Z</time>
      </trkpt>
      <trkpt lat="37.166258962824941" lon="-4.15255299769342">
        <ele>477.43000000000001</ele>
        <time>2025-05-10T11:39:53Z</time>
      </trkpt>
      <trkpt lat="37.166232978925109" lon="-4.152330961078405">
        <ele>476.47000000000003</ele>
        <time>2025-05-10T11:40:10Z</time>
      </trkpt>
      <trkpt lat="37.166232978925109" lon="-4.152267007157207">
        <ele>476.94999999999999</ele>
        <time>2025-05-10T11:40:20Z</time>
      </trkpt>
      <trkpt lat="37.166232978925109" lon="-4.152267007157207">
        <ele>476.47000000000003</ele>
        <time>2025-05-10T11:41:03Z</time>
      </trkpt>
      <trkpt lat="37.166232978925109" lon="-4.151991996914148">
        <ele>477.43000000000001</ele>
        <time>2025-05-10T11:41:26Z</time>
      </trkpt>
      <trkpt lat="37.166237002238631" lon="-4.151537027209997">
        <ele>468.77999999999997</ele>
        <time>2025-05-10T11:41:36Z</time>
      </trkpt>
      <trkpt lat="37.166230967268348" lon="-4.151496039703488">
        <ele>467.81999999999999</ele>
        <time>2025-05-10T11:41:37Z</time>
      </trkpt>
      <trkpt lat="37.166195008903742" lon="-4.15139595977962">
        <ele>465.89999999999998</ele>
        <time>2025-05-10T11:41:39Z</time>
      </trkpt>
      <trkpt lat="37.166174976155162" lon="-4.151339968666434">
        <ele>464.93000000000001</ele>
        <time>2025-05-10T11:41:40Z</time>
      </trkpt>
      <trkpt lat="37.166155027225614" lon="-4.151284983381629">
        <ele>463.97000000000003</ele>
        <time>2025-05-10T11:41:41Z</time>
      </trkpt>
      <trkpt lat="37.16614798642695" lon="-4.151266040280461">
        <ele>463.00999999999999</ele>
        <time>2025-05-10T11:41:42Z</time>
      </trkpt>
      <trkpt lat="37.166122002527118" lon="-4.151213988661766">
        <ele>461.56999999999999</ele>
        <time>2025-05-10T11:41:43Z</time>
      </trkpt>
      <trkpt lat="37.16610599309206" lon="-4.151182975620031">
        <ele>460.61000000000001</ele>
        <time>2025-05-10T11:41:44Z</time>
      </trkpt>
      <trkpt lat="37.16601898893714" lon="-4.15096303448081">
        <ele>456.75999999999999</ele>
        <time>2025-05-10T11:41:49Z</time>
      </trkpt>
      <trkpt lat="37.16601898893714" lon="-4.150888016447425">
        <ele>455.80000000000001</ele>
        <time>2025-05-10T11:41:50Z</time>
      </trkpt>
      <trkpt lat="37.166048996150494" lon="-4.150647958740592">
        <ele>452.92000000000002</ele>
        <time>2025-05-10T11:41:53Z</time>
      </trkpt>
      <trkpt lat="37.166115967556834" lon="-4.150471016764641">
        <ele>449.55000000000001</ele>
        <time>2025-05-10T11:41:57Z</time>
      </trkpt>
      <trkpt lat="37.16614798642695" lon="-4.150386024266481">
        <ele>449.06999999999999</ele>
        <time>2025-05-10T11:41:58Z</time>
      </trkpt>
      <trkpt lat="37.166161984205246" lon="-4.150357022881508">
        <ele>448.58999999999997</ele>
        <time>2025-05-10T11:41:59Z</time>
      </trkpt>
      <trkpt lat="37.166178999468684" lon="-4.150314023718238">
        <ele>447.63</ele>
        <time>2025-05-10T11:42:00Z</time>
      </trkpt>
      <trkpt lat="37.166202971711755" lon="-4.150245962664485">
        <ele>447.14999999999998</ele>
        <time>2025-05-10T11:42:01Z</time>
      </trkpt>
      <trkpt lat="37.166230967268348" lon="-4.150171028450131">
        <ele>446.19</ele>
        <time>2025-05-10T11:42:02Z</time>
      </trkpt>
      <trkpt lat="37.16625502333045" lon="-4.15010598488152">
        <ele>445.23000000000002</ele>
        <time>2025-05-10T11:42:03Z</time>
      </trkpt>
      <trkpt lat="37.16627798974514" lon="-4.150042030960321">
        <ele>443.79000000000002</ele>
        <time>2025-05-10T11:42:04Z</time>
      </trkpt>
      <trkpt lat="37.166304979473352" lon="-4.149971036240459">
        <ele>442.81999999999999</ele>
        <time>2025-05-10T11:42:05Z</time>
      </trkpt>
      <trkpt lat="37.166329035535455" lon="-4.149906998500228">
        <ele>441.86000000000001</ele>
        <time>2025-05-10T11:42:06Z</time>
      </trkpt>
      <trkpt lat="37.166348984465003" lon="-4.149852013215423">
        <ele>440.89999999999998</ele>
        <time>2025-05-10T11:42:07Z</time>
      </trkpt>
      <trkpt lat="37.166365999728441" lon="-4.149805996567011">
        <ele>439.94</ele>
        <time>2025-05-10T11:42:08Z</time>
      </trkpt>
      <trkpt lat="37.166383014991879" lon="-4.149759979918599">
        <ele>438.5</ele>
        <time>2025-05-10T11:42:09Z</time>
      </trkpt>
      <trkpt lat="37.166401036083698" lon="-4.149713041260839">
        <ele>437.54000000000002</ele>
        <time>2025-05-10T11:42:10Z</time>
      </trkpt>
      <trkpt lat="37.166422996670008" lon="-4.149655038490892">
        <ele>436.57999999999998</ele>
        <time>2025-05-10T11:42:11Z</time>
      </trkpt>
      <trkpt lat="37.166443029418588" lon="-4.149600975215435">
        <ele>435.61000000000001</ele>
        <time>2025-05-10T11:42:12Z</time>
      </trkpt>
      <trkpt lat="37.166465995833278" lon="-4.149539032950997">
        <ele>434.64999999999998</ele>
        <time>2025-05-10T11:42:13Z</time>
      </trkpt>
      <trkpt lat="37.166486028581858" lon="-4.149483041837812">
        <ele>434.17000000000002</ele>
        <time>2025-05-10T11:42:14Z</time>
      </trkpt>
      <trkpt lat="37.166502960026264" lon="-4.14943995885551">
        <ele>433.20999999999998</ele>
        <time>2025-05-10T11:42:15Z</time>
      </trkpt>
      <trkpt lat="37.166517041623592" lon="-4.149401988834143">
        <ele>432.73000000000002</ele>
        <time>2025-05-10T11:42:16Z</time>
      </trkpt>
      <trkpt lat="37.166533973067999" lon="-4.149355972185731">
        <ele>431.76999999999998</ele>
        <time>2025-05-10T11:42:17Z</time>
      </trkpt>
      <trkpt lat="37.166548976674676" lon="-4.149296963587403">
        <ele>430.81</ele>
        <time>2025-05-10T11:42:18Z</time>
      </trkpt>
      <trkpt lat="37.166562974452972" lon="-4.14924499578774">
        <ele>429.85000000000002</ele>
        <time>2025-05-10T11:42:19Z</time>
      </trkpt>
      <trkpt lat="37.166575966402888" lon="-4.149195039644837">
        <ele>428.88999999999999</ele>
        <time>2025-05-10T11:42:20Z</time>
      </trkpt>
      <trkpt lat="37.166647966951132" lon="-4.148917011916637">
        <ele>423.60000000000002</ele>
        <time>2025-05-10T11:42:26Z</time>
      </trkpt>
      <trkpt lat="37.166732037439942" lon="-4.148784996941686">
        <ele>422.63999999999999</ele>
        <time>2025-05-10T11:42:27Z</time>
      </trkpt>
      <trkpt lat="37.166762966662645" lon="-4.148791031911969">
        <ele>421.68000000000001</ele>
        <time>2025-05-10T11:42:28Z</time>
      </trkpt>
      <trkpt lat="37.166962036862969" lon="-4.148904019966722">
        <ele>414.94999999999999</ele>
        <time>2025-05-10T11:42:37Z</time>
      </trkpt>
      <trkpt lat="37.166962958872318" lon="-4.148905025795102">
        <ele>415.43000000000001</ele>
        <time>2025-05-10T11:42:38Z</time>
      </trkpt>
      <trkpt lat="37.166962958872318" lon="-4.148905025795102">
        <ele>413.98000000000002</ele>
        <time>2025-05-10T11:42:40Z</time>
      </trkpt>
      <trkpt lat="37.166962036862969" lon="-4.148909971117973">
        <ele>413.5</ele>
        <time>2025-05-10T11:42:41Z</time>
      </trkpt>
      <trkpt lat="37.166949966922402" lon="-4.148960011079907">
        <ele>412.06</ele>
        <time>2025-05-10T11:42:42Z</time>
      </trkpt>
      <trkpt lat="37.166938986629248" lon="-4.14900803938508">
        <ele>411.10000000000002</ele>
        <time>2025-05-10T11:42:43Z</time>
      </trkpt>
      <trkpt lat="37.166927000507712" lon="-4.149061013013125">
        <ele>410.13999999999999</ele>
        <time>2025-05-10T11:42:44Z</time>
      </trkpt>
      <trkpt lat="37.166865980252624" lon="-4.149319007992744">
        <ele>406.29000000000002</ele>
        <time>2025-05-10T11:42:48Z</time>
      </trkpt>
      <trkpt lat="37.166813006624579" lon="-4.149549007415772">
        <ele>405.81</ele>
        <time>2025-05-10T11:42:49Z</time>
      </trkpt>
      <trkpt lat="37.166813006624579" lon="-4.149549007415772">
        <ele>407.74000000000001</ele>
        <time>2025-05-10T11:42:50Z</time>
      </trkpt>
      <trkpt lat="37.166833039373159" lon="-4.149465020745993">
        <ele>408.22000000000003</ele>
        <time>2025-05-10T11:42:51Z</time>
      </trkpt>
      <trkpt lat="37.166819963604212" lon="-4.149516988545656">
        <ele>408.22000000000003</ele>
        <time>2025-05-10T11:42:52Z</time>
      </trkpt>
      <trkpt lat="37.166820969432592" lon="-4.149598963558674">
        <ele>409.18000000000001</ele>
        <time>2025-05-10T11:42:53Z</time>
      </trkpt>
      <trkpt lat="37.166873021051288" lon="-4.149722009897232">
        <ele>409.66000000000003</ele>
        <time>2025-05-10T11:42:54Z</time>
      </trkpt>
      <trkpt lat="37.166981985792518" lon="-4.149837009608746">
        <ele>409.66000000000003</ele>
        <time>2025-05-10T11:42:56Z</time>
      </trkpt>
      <trkpt lat="37.166987014934421" lon="-4.149840027093887">
        <ele>412.06</ele>
        <time>2025-05-10T11:42:57Z</time>
      </trkpt>
      <trkpt lat="37.166974022984505" lon="-4.149832986295223">
        <ele>413.98000000000002</ele>
        <time>2025-05-10T11:42:58Z</time>
      </trkpt>
      <trkpt lat="37.167139984667301" lon="-4.149746987968683">
        <ele>413.98000000000002</ele>
        <time>2025-05-10T11:42:59Z</time>
      </trkpt>
      <trkpt lat="37.167148031294346" lon="-4.149725027382374">
        <ele>413.98000000000002</ele>
        <time>2025-05-10T11:43:00Z</time>
      </trkpt>
      <trkpt lat="37.167149959132075" lon="-4.14971899241209">
        <ele>415.43000000000001</ele>
        <time>2025-05-10T11:43:01Z</time>
      </trkpt>
      <trkpt lat="37.167159011587501" lon="-4.149690996855497">
        <ele>415.43000000000001</ele>
        <time>2025-05-10T11:43:02Z</time>
      </trkpt>
      <trkpt lat="37.167165968567133" lon="-4.149670964106917">
        <ele>415.91000000000003</ele>
        <time>2025-05-10T11:43:03Z</time>
      </trkpt>
      <trkpt lat="37.167169991880655" lon="-4.149656966328621">
        <ele>416.87</ele>
        <time>2025-05-10T11:43:04Z</time>
      </trkpt>
      <trkpt lat="37.167176026850939" lon="-4.149639029055834">
        <ele>417.82999999999998</ele>
        <time>2025-05-10T11:43:05Z</time>
      </trkpt>
      <trkpt lat="37.167179966345429" lon="-4.149626959115267">
        <ele>418.79000000000002</ele>
        <time>2025-05-10T11:43:06Z</time>
      </trkpt>
      <trkpt lat="37.167182983830571" lon="-4.149618996307254">
        <ele>420.70999999999998</ele>
        <time>2025-05-10T11:43:07Z</time>
      </trkpt>
      <trkpt lat="37.167191030457616" lon="-4.149596029892564">
        <ele>421.68000000000001</ele>
        <time>2025-05-10T11:43:08Z</time>
      </trkpt>
      <trkpt lat="37.167205028235912" lon="-4.149552024900913">
        <ele>422.63999999999999</ele>
        <time>2025-05-10T11:43:09Z</time>
      </trkpt>
      <trkpt lat="37.167224977165461" lon="-4.149493016302586">
        <ele>423.12</ele>
        <time>2025-05-10T11:43:10Z</time>
      </trkpt>
      <trkpt lat="37.167246015742421" lon="-4.149429984390736">
        <ele>424.56</ele>
        <time>2025-05-10T11:43:11Z</time>
      </trkpt>
      <trkpt lat="37.167265964671969" lon="-4.149369969964027">
        <ele>425.04000000000002</ele>
        <time>2025-05-10T11:43:12Z</time>
      </trkpt>
      <trkpt lat="37.167284991592169" lon="-4.149313978850842">
        <ele>426</ele>
        <time>2025-05-10T11:43:13Z</time>
      </trkpt>
      <trkpt lat="37.167310975492001" lon="-4.149234015494585">
        <ele>426.48000000000002</ele>
        <time>2025-05-10T11:43:14Z</time>
      </trkpt>
      <trkpt lat="37.167349029332399" lon="-4.149120021611452">
        <ele>427.92000000000002</ele>
        <time>2025-05-10T11:43:15Z</time>
      </trkpt>
      <trkpt lat="37.167362021282315" lon="-4.149110969156027">
        <ele>428.88999999999999</ele>
        <time>2025-05-10T11:43:16Z</time>
      </trkpt>
      <trkpt lat="37.167408959940076" lon="-4.149077022448182">
        <ele>429.85000000000002</ele>
        <time>2025-05-10T11:43:17Z</time>
      </trkpt>
      <trkpt lat="37.167454976588488" lon="-4.149043997749686">
        <ele>430.32999999999998</ele>
        <time>2025-05-10T11:43:18Z</time>
      </trkpt>
      <trkpt lat="37.167506022378802" lon="-4.149011978879571">
        <ele>431.76999999999998</ele>
        <time>2025-05-10T11:43:19Z</time>
      </trkpt>
      <trkpt lat="37.167534017935395" lon="-4.14900803938508">
        <ele>432.25</ele>
        <time>2025-05-10T11:43:20Z</time>
      </trkpt>
      <trkpt lat="37.167568970471621" lon="-4.149003010243177">
        <ele>432.73000000000002</ele>
        <time>2025-05-10T11:43:21Z</time>
      </trkpt>
      <trkpt lat="37.167606018483639" lon="-4.148998986929655">
        <ele>432.73000000000002</ele>
        <time>2025-05-10T11:43:22Z</time>
      </trkpt>
      <trkpt lat="37.167638959363103" lon="-4.148994041606784">
        <ele>433.20999999999998</ele>
        <time>2025-05-10T11:43:23Z</time>
      </trkpt>
      <trkpt lat="37.167680030688643" lon="-4.148989012464881">
        <ele>433.20999999999998</ele>
        <time>2025-05-10T11:43:24Z</time>
      </trkpt>
      <trkpt lat="37.167821014299989" lon="-4.148969985544682">
        <ele>433.69</ele>
        <time>2025-05-10T11:43:25Z</time>
      </trkpt>
      <trkpt lat="37.167821014299989" lon="-4.148969985544682">
        <ele>434.17000000000002</ele>
        <time>2025-05-10T11:43:26Z</time>
      </trkpt>
      <trkpt lat="37.167950011789799" lon="-4.148926986381412">
        <ele>434.64999999999998</ele>
        <time>2025-05-10T11:43:27Z</time>
      </trkpt>
      <trkpt lat="37.168045984581113" lon="-4.148905025795102">
        <ele>435.61000000000001</ele>
        <time>2025-05-10T11:43:30Z</time>
      </trkpt>
      <trkpt lat="37.16810499317944" lon="-4.148891028016806">
        <ele>436.10000000000002</ele>
        <time>2025-05-10T11:43:31Z</time>
      </trkpt>
      <trkpt lat="37.168156038969755" lon="-4.148879963904619">
        <ele>436.57999999999998</ele>
        <time>2025-05-10T11:43:32Z</time>
      </trkpt>
      <trkpt lat="37.168228961527348" lon="-4.148862026631832">
        <ele>437.06</ele>
        <time>2025-05-10T11:43:33Z</time>
      </trkpt>
      <trkpt lat="37.168240025639534" lon="-4.148851968348026">
        <ele>437.06</ele>
        <time>2025-05-10T11:43:34Z</time>
      </trkpt>
      <trkpt lat="37.16827698983252" lon="-4.148813998326659">
        <ele>438.5</ele>
        <time>2025-05-10T11:43:35Z</time>
      </trkpt>
      <trkpt lat="37.168303979560733" lon="-4.148788014426827">
        <ele>439.45999999999998</ele>
        <time>2025-05-10T11:43:36Z</time>
      </trkpt>
      <trkpt lat="37.168400958180428" lon="-4.148691035807133">
        <ele>439.94</ele>
        <time>2025-05-10T11:43:37Z</time>
      </trkpt>
      <trkpt lat="37.168400958180428" lon="-4.148691035807133">
        <ele>440.42000000000002</ele>
        <time>2025-05-10T11:43:38Z</time>
      </trkpt>
      <trkpt lat="37.168400958180428" lon="-4.148691035807133">
        <ele>440.42000000000002</ele>
        <time>2025-05-10T11:43:39Z</time>
      </trkpt>
      <trkpt lat="37.168414033949375" lon="-4.148692963644862">
        <ele>440.89999999999998</ele>
        <time>2025-05-10T11:43:40Z</time>
      </trkpt>
      <trkpt lat="37.168454015627503" lon="-4.148697992786765">
        <ele>440.89999999999998</ele>
        <time>2025-05-10T11:43:41Z</time>
      </trkpt>
      <trkpt lat="37.168500032275915" lon="-4.148705033585429">
        <ele>441.38</ele>
        <time>2025-05-10T11:43:42Z</time>
      </trkpt>
      <trkpt lat="37.168548982590437" lon="-4.148711990565062">
        <ele>441.38</ele>
        <time>2025-05-10T11:43:43Z</time>
      </trkpt>
      <trkpt lat="37.168550994247198" lon="-4.148711990565062">
        <ele>440.89999999999998</ele>
        <time>2025-05-10T11:43:44Z</time>
      </trkpt>
      <trkpt lat="37.168761966750026" lon="-4.148736968636513">
        <ele>439.45999999999998</ele>
        <time>2025-05-10T11:43:49Z</time>
      </trkpt>
      <trkpt lat="37.168916026130319" lon="-4.148754989728332">
        <ele>440.42000000000002</ele>
        <time>2025-05-10T11:43:51Z</time>
      </trkpt>
      <trkpt lat="37.168916026130319" lon="-4.148754989728332">
        <ele>440.42000000000002</ele>
        <time>2025-05-10T11:43:52Z</time>
      </trkpt>
      <trkpt lat="37.16892097145319" lon="-4.14847101084888">
        <ele>441.38</ele>
        <time>2025-05-10T11:43:54Z</time>
      </trkpt>
      <trkpt lat="37.168900016695261" lon="-4.148420970886946">
        <ele>441.86000000000001</ele>
        <time>2025-05-10T11:43:55Z</time>
      </trkpt>
      <trkpt lat="37.168880989775062" lon="-4.148374032229185">
        <ele>441.86000000000001</ele>
        <time>2025-05-10T11:43:56Z</time>
      </trkpt>
      <trkpt lat="37.168860035017133" lon="-4.14832198061049">
        <ele>442.33999999999997</ele>
        <time>2025-05-10T11:43:57Z</time>
      </trkpt>
      <trkpt lat="37.168838996440172" lon="-4.148269006982446">
        <ele>442.81999999999999</ele>
        <time>2025-05-10T11:43:58Z</time>
      </trkpt>
      <trkpt lat="37.168817035853863" lon="-4.148215027526021">
        <ele>442.81999999999999</ele>
        <time>2025-05-10T11:43:59Z</time>
      </trkpt>
      <trkpt lat="37.168797003105283" lon="-4.148165993392468">
        <ele>443.31</ele>
        <time>2025-05-10T11:44:00Z</time>
      </trkpt>
      <trkpt lat="37.168778982013464" lon="-4.148122994229198">
        <ele>443.79000000000002</ele>
        <time>2025-05-10T11:44:01Z</time>
      </trkpt>
      <trkpt lat="37.168760038912296" lon="-4.148076977580786">
        <ele>444.26999999999998</ele>
        <time>2025-05-10T11:44:02Z</time>
      </trkpt>
      <trkpt lat="37.168739000335336" lon="-4.148025009781122">
        <ele>445.23000000000002</ele>
        <time>2025-05-10T11:44:03Z</time>
      </trkpt>
      <trkpt lat="37.168718967586756" lon="-4.147975975647569">
        <ele>445.23000000000002</ele>
        <time>2025-05-10T11:44:04Z</time>
      </trkpt>
      <trkpt lat="37.168446974828839" lon="-4.147295029833913">
        <ele>447.63</ele>
        <time>2025-05-10T11:44:15Z</time>
      </trkpt>
      <trkpt lat="37.168421996757388" lon="-4.14722403511405">
        <ele>448.11000000000001</ele>
        <time>2025-05-10T11:44:16Z</time>
      </trkpt>
      <trkpt lat="37.168373968452215" lon="-4.147109035402536">
        <ele>449.06999999999999</ele>
        <time>2025-05-10T11:44:18Z</time>
      </trkpt>
      <trkpt lat="37.168317977339029" lon="-4.146985989063978">
        <ele>450.02999999999997</ele>
        <time>2025-05-10T11:44:20Z</time>
      </trkpt>
      <trkpt lat="37.168260980397463" lon="-4.146870989352465">
        <ele>450.51999999999998</ele>
        <time>2025-05-10T11:44:22Z</time>
      </trkpt>
      <trkpt lat="37.168226027861238" lon="-4.146808041259646">
        <ele>450.51999999999998</ele>
        <time>2025-05-10T11:44:23Z</time>
      </trkpt>
      <trkpt lat="37.168109016492963" lon="-4.146612994372845">
        <ele>450.51999999999998</ele>
        <time>2025-05-10T11:44:26Z</time>
      </trkpt>
      <trkpt lat="37.168061994016171" lon="-4.146545017138124">
        <ele>451.48000000000002</ele>
        <time>2025-05-10T11:44:27Z</time>
      </trkpt>
      <trkpt lat="37.167975995689631" lon="-4.146419959142804">
        <ele>452.44</ele>
        <time>2025-05-10T11:44:29Z</time>
      </trkpt>
      <trkpt lat="37.167942970991135" lon="-4.146371008828282">
        <ele>452.44</ele>
        <time>2025-05-10T11:44:30Z</time>
      </trkpt>
      <trkpt lat="37.167918998748064" lon="-4.146335972473025">
        <ele>452.92000000000002</ele>
        <time>2025-05-10T11:44:31Z</time>
      </trkpt>
      <trkpt lat="37.167906006798148" lon="-4.146318035200238">
        <ele>452.92000000000002</ele>
        <time>2025-05-10T11:44:32Z</time>
      </trkpt>
      <trkpt lat="37.167885974049568" lon="-4.146287022158504">
        <ele>453.39999999999998</ele>
        <time>2025-05-10T11:44:33Z</time>
      </trkpt>
      <trkpt lat="37.167805004864931" lon="-4.146193983033299">
        <ele>454.36000000000001</ele>
        <time>2025-05-10T11:44:41Z</time>
      </trkpt>
      <trkpt lat="37.167693022638559" lon="-4.146116031333804">
        <ele>454.83999999999997</ele>
        <time>2025-05-10T11:44:43Z</time>
      </trkpt>
      <trkpt lat="37.167683970183134" lon="-4.146103961393237">
        <ele>455.80000000000001</ele>
        <time>2025-05-10T11:44:44Z</time>
      </trkpt>
      <trkpt lat="37.167652035132051" lon="-4.146061968058348">
        <ele>456.75999999999999</ele>
        <time>2025-05-10T11:44:45Z</time>
      </trkpt>
      <trkpt lat="37.167629990726709" lon="-4.146020980551839">
        <ele>457.72000000000003</ele>
        <time>2025-05-10T11:44:46Z</time>
      </trkpt>
      <trkpt lat="37.167643988505006" lon="-4.145951997488737">
        <ele>457.24000000000001</ele>
        <time>2025-05-10T11:44:47Z</time>
      </trkpt>
      <trkpt lat="37.167682964354753" lon="-4.145898018032312">
        <ele>456.75999999999999</ele>
        <time>2025-05-10T11:44:48Z</time>
      </trkpt>
      <trkpt lat="37.167749013751745" lon="-4.145861975848675">
        <ele>456.27999999999997</ele>
        <time>2025-05-10T11:44:49Z</time>
      </trkpt>
      <trkpt lat="37.16780299320817" lon="-4.145874967798591">
        <ele>456.27999999999997</ele>
        <time>2025-05-10T11:44:50Z</time>
      </trkpt>
      <trkpt lat="37.167821014299989" lon="-4.145879996940494">
        <ele>456.27999999999997</ele>
        <time>2025-05-10T11:44:51Z</time>
      </trkpt>
      <trkpt lat="37.167924027889967" lon="-4.145929031074047">
        <ele>456.27999999999997</ele>
        <time>2025-05-10T11:44:52Z</time>
      </trkpt>
      <trkpt lat="37.167980019003153" lon="-4.145915033295751">
        <ele>456.75999999999999</ele>
        <time>2025-05-10T11:44:53Z</time>
      </trkpt>
      <trkpt lat="37.168107004836202" lon="-4.145881002768874">
        <ele>457.24000000000001</ele>
        <time>2025-05-10T11:44:55Z</time>
      </trkpt>
      <trkpt lat="37.168171964585781" lon="-4.145862981677055">
        <ele>457.72000000000003</ele>
        <time>2025-05-10T11:44:56Z</time>
      </trkpt>
      <trkpt lat="37.168243965134025" lon="-4.145839009433985">
        <ele>457.72000000000003</ele>
        <time>2025-05-10T11:44:57Z</time>
      </trkpt>
      <trkpt lat="37.169089028611779" lon="-4.145545978099108">
        <ele>460.13</ele>
        <time>2025-05-10T11:45:06Z</time>
      </trkpt>
      <trkpt lat="37.170238019898534" lon="-4.145139958709478">
        <ele>460.13</ele>
        <time>2025-05-10T11:45:17Z</time>
      </trkpt>
      <trkpt lat="37.170863980427384" lon="-4.1449040081352">
        <ele>459.17000000000002</ele>
        <time>2025-05-10T11:45:24Z</time>
      </trkpt>
      <trkpt lat="37.17096003703773" lon="-4.144848017022014">
        <ele>459.17000000000002</ele>
        <time>2025-05-10T11:45:25Z</time>
      </trkpt>
      <trkpt lat="37.171211997047067" lon="-4.144698986783624">
        <ele>460.13</ele>
        <time>2025-05-10T11:45:28Z</time>
      </trkpt>
      <trkpt lat="37.171257007867098" lon="-4.144663028419018">
        <ele>460.13</ele>
        <time>2025-05-10T11:45:29Z</time>
      </trkpt>
      <trkpt lat="37.171278968453407" lon="-4.144645007327199">
        <ele>460.61000000000001</ele>
        <time>2025-05-10T11:45:30Z</time>
      </trkpt>
      <trkpt lat="37.171337977051735" lon="-4.144595973193646">
        <ele>461.08999999999997</ele>
        <time>2025-05-10T11:45:37Z</time>
      </trkpt>
      <trkpt lat="37.171378964558244" lon="-4.144563032314181">
        <ele>460.61000000000001</ele>
        <time>2025-05-10T11:45:38Z</time>
      </trkpt>
      <trkpt lat="37.171448031440377" lon="-4.144507041200995">
        <ele>460.61000000000001</ele>
        <time>2025-05-10T11:45:39Z</time>
      </trkpt>
      <trkpt lat="37.171451970934868" lon="-4.143816959112883">
        <ele>460.61000000000001</ele>
        <time>2025-05-10T11:45:45Z</time>
      </trkpt>
      <trkpt lat="37.171997968107462" lon="-4.14391603320837">
        <ele>460.61000000000001</ele>
        <time>2025-05-10T11:45:49Z</time>
      </trkpt>
      <trkpt lat="37.172062005847692" lon="-4.143848977982998">
        <ele>460.61000000000001</ele>
        <time>2025-05-10T11:45:50Z</time>
      </trkpt>
      <trkpt lat="37.172131994739175" lon="-4.143778989091516">
        <ele>460.61000000000001</ele>
        <time>2025-05-10T11:45:51Z</time>
      </trkpt>
      <trkpt lat="37.172111039981246" lon="-4.143437007442117">
        <ele>460.61000000000001</ele>
        <time>2025-05-10T11:45:52Z</time>
      </trkpt>
      <trkpt lat="37.172091007232666" lon="-4.143241038545966">
        <ele>460.61000000000001</ele>
        <time>2025-05-10T11:45:53Z</time>
      </trkpt>
      <trkpt lat="37.172091007232666" lon="-4.143204996362329">
        <ele>460.61000000000001</ele>
        <time>2025-05-10T11:45:54Z</time>
      </trkpt>
      <trkpt lat="37.172091007232666" lon="-4.143071975558996">
        <ele>460.61000000000001</ele>
        <time>2025-05-10T11:45:55Z</time>
      </trkpt>
      <trkpt lat="37.172091007232666" lon="-4.142936021089554">
        <ele>460.61000000000001</ele>
        <time>2025-05-10T11:45:56Z</time>
      </trkpt>
      <trkpt lat="37.172070974484086" lon="-4.142810963094235">
        <ele>460.61000000000001</ele>
        <time>2025-05-10T11:45:57Z</time>
      </trkpt>
      <trkpt lat="37.1720340102911" lon="-4.142689006403089">
        <ele>460.61000000000001</ele>
        <time>2025-05-10T11:45:58Z</time>
      </trkpt>
      <trkpt lat="37.171996040269732" lon="-4.142567971721292">
        <ele>460.61000000000001</ele>
        <time>2025-05-10T11:45:59Z</time>
      </trkpt>
      <trkpt lat="37.171958992257714" lon="-4.142447020858526">
        <ele>461.08999999999997</ele>
        <time>2025-05-10T11:46:00Z</time>
      </trkpt>
      <trkpt lat="37.171822031959891" lon="-4.14200596511364">
        <ele>463.00999999999999</ele>
        <time>2025-05-10T11:46:04Z</time>
      </trkpt>
      <trkpt lat="37.171809040009975" lon="-4.141923990100622">
        <ele>463.49000000000001</ele>
        <time>2025-05-10T11:46:05Z</time>
      </trkpt>
      <trkpt lat="37.171794036403298" lon="-4.141691979020834">
        <ele>464.44999999999999</ele>
        <time>2025-05-10T11:46:08Z</time>
      </trkpt>
      <trkpt lat="37.171781966462731" lon="-4.140830989927054">
        <ele>464.93000000000001</ele>
        <time>2025-05-10T11:46:15Z</time>
      </trkpt>
      <trkpt lat="37.171860001981258" lon="-4.140122970566154">
        <ele>463.49000000000001</ele>
        <time>2025-05-10T11:46:22Z</time>
      </trkpt>
      <trkpt lat="37.171977013349533" lon="-4.139357032254338">
        <ele>462.05000000000001</ele>
        <time>2025-05-10T11:46:29Z</time>
      </trkpt>
      <trkpt lat="37.172226961702108" lon="-4.138023974373937">
        <ele>463.00999999999999</ele>
        <time>2025-05-10T11:46:37Z</time>
      </trkpt>
      <trkpt lat="37.172588976100087" lon="-4.136685971170664">
        <ele>464.93000000000001</ele>
        <time>2025-05-10T11:46:47Z</time>
      </trkpt>
      <trkpt lat="37.172646978870034" lon="-4.135282002389431">
        <ele>466.86000000000001</ele>
        <time>2025-05-10T11:46:57Z</time>
      </trkpt>
      <trkpt lat="37.172648990526795" lon="-4.134381031617522">
        <ele>468.30000000000001</ele>
        <time>2025-05-10T11:47:03Z</time>
      </trkpt>
      <trkpt lat="37.172533990815282" lon="-4.133055014535785">
        <ele>472.13999999999999</ele>
        <time>2025-05-10T11:47:11Z</time>
      </trkpt>
      <trkpt lat="37.172520998865366" lon="-4.132896009832621">
        <ele>472.63</ele>
        <time>2025-05-10T11:47:12Z</time>
      </trkpt>
      <trkpt lat="37.172674974426627" lon="-4.131255000829697">
        <ele>478.87</ele>
        <time>2025-05-10T11:47:23Z</time>
      </trkpt>
      <trkpt lat="37.172694001346827" lon="-4.13109096698463">
        <ele>479.35000000000002</ele>
        <time>2025-05-10T11:47:24Z</time>
      </trkpt>
      <trkpt lat="37.172755021601915" lon="-4.130970016121864">
        <ele>479.83999999999997</ele>
        <time>2025-05-10T11:47:25Z</time>
      </trkpt>
      <trkpt lat="37.172814030200243" lon="-4.130851998925209">
        <ele>480.80000000000001</ele>
        <time>2025-05-10T11:47:26Z</time>
      </trkpt>
      <trkpt lat="37.172869015485048" lon="-4.130741022527218">
        <ele>481.27999999999997</ele>
        <time>2025-05-10T11:47:27Z</time>
      </trkpt>
      <trkpt lat="37.173097003251314" lon="-4.130302984267473">
        <ele>484.16000000000003</ele>
        <time>2025-05-10T11:47:31Z</time>
      </trkpt>
      <trkpt lat="37.173158023506403" lon="-4.130185972899199">
        <ele>484.63999999999999</ele>
        <time>2025-05-10T11:47:32Z</time>
      </trkpt>
      <trkpt lat="37.173220971599221" lon="-4.130068039521575">
        <ele>485.60000000000002</ele>
        <time>2025-05-10T11:47:33Z</time>
      </trkpt>
      <trkpt lat="37.173630008473992" lon="-4.129450041800737">
        <ele>493.29000000000002</ele>
        <time>2025-05-10T11:47:39Z</time>
      </trkpt>
      <trkpt lat="37.173980958759785" lon="-4.128708997741342">
        <ele>499.54000000000002</ele>
        <time>2025-05-10T11:47:47Z</time>
      </trkpt>
      <trkpt lat="37.174302991479635" lon="-4.127959990873933">
        <ele>501.94999999999999</ele>
        <time>2025-05-10T11:47:53Z</time>
      </trkpt>
      <trkpt lat="37.17435403726995" lon="-4.127822024747729">
        <ele>502.43000000000001</ele>
        <time>2025-05-10T11:47:54Z</time>
      </trkpt>
      <trkpt lat="37.174366023391485" lon="-4.127677017822862">
        <ele>502.43000000000001</ele>
        <time>2025-05-10T11:47:55Z</time>
      </trkpt>
      <trkpt lat="37.174323024228215" lon="-4.127561012282968">
        <ele>502.91000000000003</ele>
        <time>2025-05-10T11:47:56Z</time>
      </trkpt>
      <trkpt lat="37.174264015629888" lon="-4.127452969551086">
        <ele>503.38999999999999</ele>
        <time>2025-05-10T11:47:57Z</time>
      </trkpt>
      <trkpt lat="37.174200983718038" lon="-4.127337969839573">
        <ele>503.87</ele>
        <time>2025-05-10T11:47:58Z</time>
      </trkpt>
      <trkpt lat="37.174137029796839" lon="-4.127220958471298">
        <ele>504.82999999999998</ele>
        <time>2025-05-10T11:47:59Z</time>
      </trkpt>
      <trkpt lat="37.174081038683653" lon="-4.127091960981488">
        <ele>505.31</ele>
        <time>2025-05-10T11:48:00Z</time>
      </trkpt>
      <trkpt lat="37.174023035913706" lon="-4.126933040097356">
        <ele>506.26999999999998</ele>
        <time>2025-05-10T11:48:01Z</time>
      </trkpt>
      <trkpt lat="37.174014989286661" lon="-4.126790966838598">
        <ele>507.23000000000002</ele>
        <time>2025-05-10T11:48:02Z</time>
      </trkpt>
      <trkpt lat="37.174006020650268" lon="-4.126626010984182">
        <ele>508.19</ele>
        <time>2025-05-10T11:48:03Z</time>
      </trkpt>
      <trkpt lat="37.173984982073307" lon="-4.125958979129791">
        <ele>511.07999999999998</ele>
        <time>2025-05-10T11:48:07Z</time>
      </trkpt>
      <trkpt lat="37.173995040357113" lon="-4.125169990584254">
        <ele>509.63999999999999</ele>
        <time>2025-05-10T11:48:11Z</time>
      </trkpt>
      <trkpt lat="37.173633025959134" lon="-4.123363019898534">
        <ele>506.26999999999998</ele>
        <time>2025-05-10T11:48:19Z</time>
      </trkpt>
      <trkpt lat="37.173037994652987" lon="-4.121211972087622">
        <ele>491.85000000000002</ele>
        <time>2025-05-10T11:48:27Z</time>
      </trkpt>
      <trkpt lat="37.172066029161215" lon="-4.118775017559528">
        <ele>485.12</ele>
        <time>2025-05-10T11:48:37Z</time>
      </trkpt>
      <trkpt lat="37.171817002817988" lon="-4.118097005411983">
        <ele>486.07999999999998</ele>
        <time>2025-05-10T11:48:40Z</time>
      </trkpt>
      <trkpt lat="37.17175698839128" lon="-4.117863988503814">
        <ele>487.05000000000001</ele>
        <time>2025-05-10T11:48:41Z</time>
      </trkpt>
      <trkpt lat="37.171637965366244" lon="-4.117394015192986">
        <ele>488.00999999999999</ele>
        <time>2025-05-10T11:48:43Z</time>
      </trkpt>
      <trkpt lat="37.171576023101807" lon="-4.117148006334901">
        <ele>488.49000000000001</ele>
        <time>2025-05-10T11:48:44Z</time>
      </trkpt>
      <trkpt lat="37.171457000076771" lon="-4.116963017731905">
        <ele>488.49000000000001</ele>
        <time>2025-05-10T11:48:45Z</time>
      </trkpt>
      <trkpt lat="37.171329008415341" lon="-4.116769982501864">
        <ele>488.49000000000001</ele>
        <time>2025-05-10T11:48:46Z</time>
      </trkpt>
      <trkpt lat="37.171190036460757" lon="-4.116611983627081">
        <ele>488.49000000000001</ele>
        <time>2025-05-10T11:48:47Z</time>
      </trkpt>
      <trkpt lat="37.171019967645407" lon="-4.116509975865483">
        <ele>488.49000000000001</ele>
        <time>2025-05-10T11:48:48Z</time>
      </trkpt>
      <trkpt lat="37.17085300013423" lon="-4.116411991417408">
        <ele>488.49000000000001</ele>
        <time>2025-05-10T11:48:49Z</time>
      </trkpt>
      <trkpt lat="37.170687038451433" lon="-4.116314006969333">
        <ele>488.49000000000001</ele>
        <time>2025-05-10T11:48:50Z</time>
      </trkpt>
      <trkpt lat="37.170545971021056" lon="-4.116190038621426">
        <ele>488.00999999999999</ele>
        <time>2025-05-10T11:48:51Z</time>
      </trkpt>
      <trkpt lat="37.170419991016388" lon="-4.116037990897894">
        <ele>488.00999999999999</ele>
        <time>2025-05-10T11:48:52Z</time>
      </trkpt>
      <trkpt lat="37.170296022668481" lon="-4.115888038650155">
        <ele>488.00999999999999</ele>
        <time>2025-05-10T11:48:53Z</time>
      </trkpt>
      <trkpt lat="37.170189991593361" lon="-4.115742025896907">
        <ele>488.00999999999999</ele>
        <time>2025-05-10T11:48:54Z</time>
      </trkpt>
      <trkpt lat="37.17012302018702" lon="-4.115581009536982">
        <ele>488.00999999999999</ele>
        <time>2025-05-10T11:48:55Z</time>
      </trkpt>
      <trkpt lat="37.17005998827517" lon="-4.11542703397572">
        <ele>487.52999999999997</ele>
        <time>2025-05-10T11:48:56Z</time>
      </trkpt>
      <trkpt lat="37.170039033517241" lon="-4.115246990695596">
        <ele>487.52999999999997</ele>
        <time>2025-05-10T11:48:57Z</time>
      </trkpt>
      <trkpt lat="37.170022018253803" lon="-4.115054961293936">
        <ele>487.05000000000001</ele>
        <time>2025-05-10T11:48:58Z</time>
      </trkpt>
      <trkpt lat="37.16995001770556" lon="-4.114649025723338">
        <ele>486.07999999999998</ele>
        <time>2025-05-10T11:49:00Z</time>
      </trkpt>
      <trkpt lat="37.169868964701891" lon="-4.114291034638882">
        <ele>486.07999999999998</ele>
        <time>2025-05-10T11:49:02Z</time>
      </trkpt>
      <trkpt lat="37.169876005500555" lon="-4.114119037985802">
        <ele>486.56</ele>
        <time>2025-05-10T11:49:03Z</time>
      </trkpt>
      <trkpt lat="37.169898971915245" lon="-4.113936983048916">
        <ele>486.56</ele>
        <time>2025-05-10T11:49:04Z</time>
      </trkpt>
      <trkpt lat="37.169922022148967" lon="-4.113755011931062">
        <ele>486.56</ele>
        <time>2025-05-10T11:49:05Z</time>
      </trkpt>
      <trkpt lat="37.169945994392037" lon="-4.113564994186163">
        <ele>486.56</ele>
        <time>2025-05-10T11:49:06Z</time>
      </trkpt>
      <trkpt lat="37.169936019927263" lon="-4.113361984491348">
        <ele>486.56</ele>
        <time>2025-05-10T11:49:07Z</time>
      </trkpt>
      <trkpt lat="37.169925961643457" lon="-4.113145982846618">
        <ele>486.56</ele>
        <time>2025-05-10T11:49:08Z</time>
      </trkpt>
      <trkpt lat="37.169833006337285" lon="-4.111943012103438">
        <ele>484.63999999999999</ele>
        <time>2025-05-10T11:49:13Z</time>
      </trkpt>
      <trkpt lat="37.169765029102564" lon="-4.111704966053367">
        <ele>484.16000000000003</ele>
        <time>2025-05-10T11:49:14Z</time>
      </trkpt>
      <trkpt lat="37.169483983889222" lon="-4.11080801859498">
        <ele>481.75999999999999</ele>
        <time>2025-05-10T11:49:18Z</time>
      </trkpt>
      <trkpt lat="37.169467974454165" lon="-4.110551029443741">
        <ele>481.75999999999999</ele>
        <time>2025-05-10T11:49:19Z</time>
      </trkpt>
      <trkpt lat="37.169462023302913" lon="-4.110297979786992">
        <ele>481.27999999999997</ele>
        <time>2025-05-10T11:49:20Z</time>
      </trkpt>
      <trkpt lat="37.169493958353996" lon="-4.109547967091203">
        <ele>480.80000000000001</ele>
        <time>2025-05-10T11:49:23Z</time>
      </trkpt>
      <trkpt lat="37.169524971395731" lon="-4.109301036223769">
        <ele>480.31999999999999</ele>
        <time>2025-05-10T11:49:24Z</time>
      </trkpt>
      <trkpt lat="37.169550033286214" lon="-4.108822010457516">
        <ele>479.83999999999997</ele>
        <time>2025-05-10T11:49:26Z</time>
      </trkpt>
      <trkpt lat="37.169537041336298" lon="-4.108582958579063">
        <ele>479.83999999999997</ele>
        <time>2025-05-10T11:49:27Z</time>
      </trkpt>
      <trkpt lat="37.169532012194395" lon="-4.105942994356155">
        <ele>479.83999999999997</ele>
        <time>2025-05-10T11:49:38Z</time>
      </trkpt>
      <trkpt lat="37.169572999700904" lon="-4.105447037145495">
        <ele>479.83999999999997</ele>
        <time>2025-05-10T11:49:40Z</time>
      </trkpt>
      <trkpt lat="37.169620022177696" lon="-4.105219971388578">
        <ele>479.83999999999997</ele>
        <time>2025-05-10T11:49:41Z</time>
      </trkpt>
      <trkpt lat="37.169687999412417" lon="-4.104998018592596">
        <ele>479.83999999999997</ele>
        <time>2025-05-10T11:49:42Z</time>
      </trkpt>
      <trkpt lat="37.169759999960661" lon="-4.104775981977582">
        <ele>479.35000000000002</ele>
        <time>2025-05-10T11:49:43Z</time>
      </trkpt>
      <trkpt lat="37.169876005500555" lon="-4.104588981717825">
        <ele>478.87</ele>
        <time>2025-05-10T11:49:44Z</time>
      </trkpt>
      <trkpt lat="37.16999301686883" lon="-4.104398963972926">
        <ele>478.87</ele>
        <time>2025-05-10T11:49:45Z</time>
      </trkpt>
      <trkpt lat="37.170672034844756" lon="-4.103187024593353">
        <ele>480.80000000000001</ele>
        <time>2025-05-10T11:49:51Z</time>
      </trkpt>
      <trkpt lat="37.170717967674136" lon="-4.102933974936605">
        <ele>481.27999999999997</ele>
        <time>2025-05-10T11:49:52Z</time>
      </trkpt>
      <trkpt lat="37.171114012598991" lon="-4.101219959557056">
        <ele>485.12</ele>
        <time>2025-05-10T11:49:59Z</time>
      </trkpt>
      <trkpt lat="37.171926973387599" lon="-4.099701996892691">
        <ele>485.12</ele>
        <time>2025-05-10T11:50:06Z</time>
      </trkpt>
      <trkpt lat="37.17321895994246" lon="-4.097447013482451">
        <ele>483.68000000000001</ele>
        <time>2025-05-10T11:50:16Z</time>
      </trkpt>
      <trkpt lat="37.173465974628925" lon="-4.09699103794992">
        <ele>484.16000000000003</ele>
        <time>2025-05-10T11:50:18Z</time>
      </trkpt>
      <trkpt lat="37.173546021804214" lon="-4.096759026870132">
        <ele>484.63999999999999</ele>
        <time>2025-05-10T11:50:19Z</time>
      </trkpt>
      <trkpt lat="37.17360301874578" lon="-4.096531961113215">
        <ele>485.12</ele>
        <time>2025-05-10T11:50:20Z</time>
      </trkpt>
      <trkpt lat="37.173632020130754" lon="-4.096311014145613">
        <ele>486.07999999999998</ele>
        <time>2025-05-10T11:50:21Z</time>
      </trkpt>
      <trkpt lat="37.173658004030585" lon="-4.096055030822754">
        <ele>486.56</ele>
        <time>2025-05-10T11:50:22Z</time>
      </trkpt>
      <trkpt lat="37.17362598516047" lon="-4.095866018906236">
        <ele>487.52999999999997</ele>
        <time>2025-05-10T11:50:23Z</time>
      </trkpt>
      <trkpt lat="37.173564964905381" lon="-4.095654040575028">
        <ele>488.00999999999999</ele>
        <time>2025-05-10T11:50:24Z</time>
      </trkpt>
      <trkpt lat="37.173495981842279" lon="-4.095454970374703">
        <ele>488.49000000000001</ele>
        <time>2025-05-10T11:50:25Z</time>
      </trkpt>
      <trkpt lat="37.173227006569505" lon="-4.094465989619494">
        <ele>490.88999999999999</ele>
        <time>2025-05-10T11:50:30Z</time>
      </trkpt>
      <trkpt lat="37.173206973820925" lon="-4.094286030158401">
        <ele>490.88999999999999</ele>
        <time>2025-05-10T11:50:31Z</time>
      </trkpt>
      <trkpt lat="37.173206973820925" lon="-4.094102969393134">
        <ele>491.37</ele>
        <time>2025-05-10T11:50:32Z</time>
      </trkpt>
      <trkpt lat="37.173243016004562" lon="-4.093918986618519">
        <ele>491.37</ele>
        <time>2025-05-10T11:50:33Z</time>
      </trkpt>
      <trkpt lat="37.173307975754142" lon="-4.093743972480297">
        <ele>491.37</ele>
        <time>2025-05-10T11:50:34Z</time>
      </trkpt>
      <trkpt lat="37.173390034586191" lon="-4.093574993312359">
        <ele>490.88999999999999</ele>
        <time>2025-05-10T11:50:35Z</time>
      </trkpt>
      <trkpt lat="37.173514002934098" lon="-4.093434009701014">
        <ele>490.41000000000003</ele>
        <time>2025-05-10T11:50:36Z</time>
      </trkpt>
      <trkpt lat="37.173650963231921" lon="-4.093280034139752">
        <ele>489.93000000000001</ele>
        <time>2025-05-10T11:50:37Z</time>
      </trkpt>
      <trkpt lat="37.173833018168807" lon="-4.093165034428239">
        <ele>488.97000000000003</ele>
        <time>2025-05-10T11:50:38Z</time>
      </trkpt>
      <trkpt lat="37.174027981236577" lon="-4.093079958111048">
        <ele>487.52999999999997</ele>
        <time>2025-05-10T11:50:39Z</time>
      </trkpt>
      <trkpt lat="37.174226967617869" lon="-4.092993037775159">
        <ele>487.05000000000001</ele>
        <time>2025-05-10T11:50:40Z</time>
      </trkpt>
      <trkpt lat="37.17564501799643" lon="-4.092183010652661">
        <ele>482.72000000000003</ele>
        <time>2025-05-10T11:50:47Z</time>
      </trkpt>
      <trkpt lat="37.176158996298909" lon="-4.091638019308448">
        <ele>482.72000000000003</ele>
        <time>2025-05-10T11:50:50Z</time>
      </trkpt>
      <trkpt lat="37.178050959482789" lon="-4.089338025078178">
        <ele>482.72000000000003</ele>
        <time>2025-05-10T11:51:02Z</time>
      </trkpt>
      <trkpt lat="37.179714012891054" lon="-4.087689975276589">
        <ele>483.19999999999999</ele>
        <time>2025-05-10T11:51:12Z</time>
      </trkpt>
      <trkpt lat="37.18176900409162" lon="-4.085513027384877">
        <ele>483.68000000000001</ele>
        <time>2025-05-10T11:51:25Z</time>
      </trkpt>
      <trkpt lat="37.184149967506528" lon="-4.082860993221402">
        <ele>484.16000000000003</ele>
        <time>2025-05-10T11:51:40Z</time>
      </trkpt>
      <trkpt lat="37.184785986319184" lon="-4.082141993567348">
        <ele>484.63999999999999</ele>
        <time>2025-05-10T11:51:44Z</time>
      </trkpt>
      <trkpt lat="37.184897968545556" lon="-4.081924986094236">
        <ele>484.16000000000003</ele>
        <time>2025-05-10T11:51:45Z</time>
      </trkpt>
      <trkpt lat="37.185095027089119" lon="-4.081485019996762">
        <ele>484.16000000000003</ele>
        <time>2025-05-10T11:51:47Z</time>
      </trkpt>
      <trkpt lat="37.185226958245039" lon="-4.081315035000444">
        <ele>484.16000000000003</ele>
        <time>2025-05-10T11:51:48Z</time>
      </trkpt>
      <trkpt lat="37.186032962054014" lon="-4.080352960154414">
        <ele>487.05000000000001</ele>
        <time>2025-05-10T11:51:54Z</time>
      </trkpt>
      <trkpt lat="37.18617201782763" lon="-4.080270985141397">
        <ele>488.00999999999999</ele>
        <time>2025-05-10T11:51:55Z</time>
      </trkpt>
      <trkpt lat="37.186315013095737" lon="-4.080194039270282">
        <ele>489.44999999999999</ele>
        <time>2025-05-10T11:51:56Z</time>
      </trkpt>
      <trkpt lat="37.187510021030903" lon="-4.080119021236897">
        <ele>495.69999999999999</ele>
        <time>2025-05-10T11:52:03Z</time>
      </trkpt>
      <trkpt lat="37.188865039497614" lon="-4.080620007589459">
        <ele>502.43000000000001</ele>
        <time>2025-05-10T11:52:12Z</time>
      </trkpt>
      <trkpt lat="37.189221018925309" lon="-4.080638028681278">
        <ele>503.38999999999999</ele>
        <time>2025-05-10T11:52:14Z</time>
      </trkpt>
      <trkpt lat="37.189403995871544" lon="-4.080631993710995">
        <ele>503.87</ele>
        <time>2025-05-10T11:52:15Z</time>
      </trkpt>
      <trkpt lat="37.189592001959682" lon="-4.080605003982782">
        <ele>504.35000000000002</ele>
        <time>2025-05-10T11:52:16Z</time>
      </trkpt>
      <trkpt lat="37.189769027754664" lon="-4.080534009262919">
        <ele>504.82999999999998</ele>
        <time>2025-05-10T11:52:17Z</time>
      </trkpt>
      <trkpt lat="37.189939012750983" lon="-4.080442981794477">
        <ele>505.31</ele>
        <time>2025-05-10T11:52:18Z</time>
      </trkpt>
      <trkpt lat="37.19010598026216" lon="-4.080328987911344">
        <ele>505.31</ele>
        <time>2025-05-10T11:52:19Z</time>
      </trkpt>
      <trkpt lat="37.190273031592369" lon="-4.080211976543069">
        <ele>505.79000000000002</ele>
        <time>2025-05-10T11:52:20Z</time>
      </trkpt>
      <trkpt lat="37.19042600132525" lon="-4.080055989325047">
        <ele>506.26999999999998</ele>
        <time>2025-05-10T11:52:21Z</time>
      </trkpt>
      <trkpt lat="37.190580982714891" lon="-4.079897990450263">
        <ele>506.75</ele>
        <time>2025-05-10T11:52:22Z</time>
      </trkpt>
      <trkpt lat="37.191141983494163" lon="-4.079325003549457">
        <ele>508.67000000000002</ele>
        <time>2025-05-10T11:52:26Z</time>
      </trkpt>
      <trkpt lat="37.191275004297495" lon="-4.079188965260983">
        <ele>509.16000000000003</ele>
        <time>2025-05-10T11:52:27Z</time>
      </trkpt>
      <trkpt lat="37.191430991515517" lon="-4.079113025218248">
        <ele>509.16000000000003</ele>
        <time>2025-05-10T11:52:28Z</time>
      </trkpt>
      <trkpt lat="37.19240496866405" lon="-4.078633999451995">
        <ele>506.75</ele>
        <time>2025-05-10T11:52:34Z</time>
      </trkpt>
      <trkpt lat="37.192542012780905" lon="-4.078511958941817">
        <ele>506.26999999999998</ele>
        <time>2025-05-10T11:52:35Z</time>
      </trkpt>
      <trkpt lat="37.192668998613954" lon="-4.078369969502091">
        <ele>505.79000000000002</ele>
        <time>2025-05-10T11:52:36Z</time>
      </trkpt>
      <trkpt lat="37.193292025476694" lon="-4.077671002596617">
        <ele>502.43000000000001</ele>
        <time>2025-05-10T11:52:41Z</time>
      </trkpt>
      <trkpt lat="37.193430997431278" lon="-4.077566983178258">
        <ele>501.45999999999998</ele>
        <time>2025-05-10T11:52:42Z</time>
      </trkpt>
      <trkpt lat="37.19358597882092" lon="-4.077476039528847">
        <ele>500.5</ele>
        <time>2025-05-10T11:52:43Z</time>
      </trkpt>
      <trkpt lat="37.193757975474" lon="-4.077425999566913">
        <ele>499.54000000000002</ele>
        <time>2025-05-10T11:52:44Z</time>
      </trkpt>
      <trkpt lat="37.193937012925744" lon="-4.07737503759563">
        <ele>499.06</ele>
        <time>2025-05-10T11:52:45Z</time>
      </trkpt>
      <trkpt lat="37.194120995700359" lon="-4.077321980148554">
        <ele>498.57999999999998</ele>
        <time>2025-05-10T11:52:46Z</time>
      </trkpt>
      <trkpt lat="37.195599982514977" lon="-4.076901962980628">
        <ele>497.13999999999999</ele>
        <time>2025-05-10T11:52:54Z</time>
      </trkpt>
      <trkpt lat="37.195883961394429" lon="-4.076782017946243">
        <ele>496.66000000000003</ele>
        <time>2025-05-10T11:52:56Z</time>
      </trkpt>
      <trkpt lat="37.195999966934323" lon="-4.076674981042743">
        <ele>496.66000000000003</ele>
        <time>2025-05-10T11:52:57Z</time>
      </trkpt>
      <trkpt lat="37.196080014109612" lon="-4.076530979946256">
        <ele>496.66000000000003</ele>
        <time>2025-05-10T11:52:58Z</time>
      </trkpt>
      <trkpt lat="37.19616299495101" lon="-4.076382033526897">
        <ele>497.62</ele>
        <time>2025-05-10T11:52:59Z</time>
      </trkpt>
      <trkpt lat="37.196214040741324" lon="-4.076196039095521">
        <ele>498.10000000000002</ele>
        <time>2025-05-10T11:53:00Z</time>
      </trkpt>
      <trkpt lat="37.196252010762691" lon="-4.075990011915565">
        <ele>498.10000000000002</ele>
        <time>2025-05-10T11:53:01Z</time>
      </trkpt>
      <trkpt lat="37.196290986612439" lon="-4.075776021927595">
        <ele>498.57999999999998</ele>
        <time>2025-05-10T11:53:02Z</time>
      </trkpt>
      <trkpt lat="37.196696000173688" lon="-4.073570994660258">
        <ele>501.45999999999998</ele>
        <time>2025-05-10T11:53:11Z</time>
      </trkpt>
      <trkpt lat="37.197120962664485" lon="-4.072046997025609">
        <ele>501.45999999999998</ele>
        <time>2025-05-10T11:53:18Z</time>
      </trkpt>
      <trkpt lat="37.197201009839773" lon="-4.071842981502414">
        <ele>501.45999999999998</ele>
        <time>2025-05-10T11:53:19Z</time>
      </trkpt>
      <trkpt lat="37.197335036471486" lon="-4.071688000112772">
        <ele>500.98000000000002</ele>
        <time>2025-05-10T11:53:20Z</time>
      </trkpt>
      <trkpt lat="37.198640014976263" lon="-4.070184035226703">
        <ele>501.45999999999998</ele>
        <time>2025-05-10T11:53:29Z</time>
      </trkpt>
      <trkpt lat="37.199269998818636" lon="-4.069576011970639">
        <ele>501.94999999999999</ele>
        <time>2025-05-10T11:53:33Z</time>
      </trkpt>
      <trkpt lat="37.199935019016266" lon="-4.069163035601378">
        <ele>501.94999999999999</ele>
        <time>2025-05-10T11:53:37Z</time>
      </trkpt>
      <trkpt lat="37.200067033991218" lon="-4.069048035889864">
        <ele>501.94999999999999</ele>
        <time>2025-05-10T11:53:38Z</time>
      </trkpt>
      <trkpt lat="37.200162000954151" lon="-4.068902023136616">
        <ele>502.43000000000001</ele>
        <time>2025-05-10T11:53:39Z</time>
      </trkpt>
      <trkpt lat="37.200208017602563" lon="-4.068731032311916">
        <ele>502.43000000000001</ele>
        <time>2025-05-10T11:53:40Z</time>
      </trkpt>
      <trkpt lat="37.200218997895718" lon="-4.068561969324946">
        <ele>502.91000000000003</ele>
        <time>2025-05-10T11:53:41Z</time>
      </trkpt>
      <trkpt lat="37.200198965147138" lon="-4.068403970450163">
        <ele>503.38999999999999</ele>
        <time>2025-05-10T11:53:42Z</time>
      </trkpt>
      <trkpt lat="37.200169041752815" lon="-4.068232979625464">
        <ele>503.87</ele>
        <time>2025-05-10T11:53:43Z</time>
      </trkpt>
      <trkpt lat="37.200074996799231" lon="-4.068126026540995">
        <ele>504.35000000000002</ele>
        <time>2025-05-10T11:53:44Z</time>
      </trkpt>
      <trkpt lat="37.199980029836297" lon="-4.068016977980733">
        <ele>505.31</ele>
        <time>2025-05-10T11:53:45Z</time>
      </trkpt>
      <trkpt lat="37.19988196156919" lon="-4.067904995754361">
        <ele>506.26999999999998</ele>
        <time>2025-05-10T11:53:46Z</time>
      </trkpt>
      <trkpt lat="37.199415005743504" lon="-4.067339971661568">
        <ele>506.75</ele>
        <time>2025-05-10T11:53:51Z</time>
      </trkpt>
      <trkpt lat="37.199337976053357" lon="-4.067185996100307">
        <ele>506.26999999999998</ele>
        <time>2025-05-10T11:53:52Z</time>
      </trkpt>
      <trkpt lat="37.198678990826011" lon="-4.065680019557476">
        <ele>501.94999999999999</ele>
        <time>2025-05-10T11:54:00Z</time>
      </trkpt>
      <trkpt lat="37.198557034134865" lon="-4.065255979076028">
        <ele>501.45999999999998</ele>
        <time>2025-05-10T11:54:02Z</time>
      </trkpt>
      <trkpt lat="37.198141040280461" lon="-4.063354041427374">
        <ele>500.98000000000002</ele>
        <time>2025-05-10T11:54:11Z</time>
      </trkpt>
      <trkpt lat="37.198038026690483" lon="-4.062825981527567">
        <ele>500.5</ele>
        <time>2025-05-10T11:54:14Z</time>
      </trkpt>
      <trkpt lat="37.197829987853765" lon="-4.060696978121996">
        <ele>495.22000000000003</ele>
        <time>2025-05-10T11:54:26Z</time>
      </trkpt>
      <trkpt lat="37.197676012292504" lon="-4.059295020997524">
        <ele>491.85000000000002</ele>
        <time>2025-05-10T11:54:34Z</time>
      </trkpt>
      <trkpt lat="37.197629995644093" lon="-4.05913601629436">
        <ele>491.37</ele>
        <time>2025-05-10T11:54:35Z</time>
      </trkpt>
      <trkpt lat="37.1975829731673" lon="-4.059019004926086">
        <ele>491.37</ele>
        <time>2025-05-10T11:54:36Z</time>
      </trkpt>
      <trkpt lat="37.197491023689508" lon="-4.058895958587527">
        <ele>491.37</ele>
        <time>2025-05-10T11:54:37Z</time>
      </trkpt>
      <trkpt lat="37.197413993999362" lon="-4.058794034644961">
        <ele>491.37</ele>
        <time>2025-05-10T11:54:38Z</time>
      </trkpt>
      <trkpt lat="37.197342999279499" lon="-4.058698983862996">
        <ele>490.88999999999999</ele>
        <time>2025-05-10T11:54:39Z</time>
      </trkpt>
      <trkpt lat="37.197231017053127" lon="-4.058511983603239">
        <ele>490.88999999999999</ele>
        <time>2025-05-10T11:54:41Z</time>
      </trkpt>
      <trkpt lat="37.197192963212729" lon="-4.058413999155164">
        <ele>490.41000000000003</ele>
        <time>2025-05-10T11:54:42Z</time>
      </trkpt>
      <trkpt lat="37.197153987362981" lon="-4.058310985565186">
        <ele>489.93000000000001</ele>
        <time>2025-05-10T11:54:43Z</time>
      </trkpt>
      <trkpt lat="37.196995988488197" lon="-4.057083958759904">
        <ele>488.97000000000003</ele>
        <time>2025-05-10T11:54:54Z</time>
      </trkpt>
      <trkpt lat="37.196982996538281" lon="-4.056977005675435">
        <ele>488.97000000000003</ele>
        <time>2025-05-10T11:54:56Z</time>
      </trkpt>
      <trkpt lat="37.196976039558649" lon="-4.056929983198643">
        <ele>488.97000000000003</ele>
        <time>2025-05-10T11:54:57Z</time>
      </trkpt>
      <trkpt lat="37.196925999596715" lon="-4.056810960173607">
        <ele>488.97000000000003</ele>
        <time>2025-05-10T11:54:58Z</time>
      </trkpt>
      <trkpt lat="37.196866990998387" lon="-4.056813977658749">
        <ele>489.44999999999999</ele>
        <time>2025-05-10T11:54:59Z</time>
      </trkpt>
      <trkpt lat="37.196793984621763" lon="-4.056819006800652">
        <ele>489.44999999999999</ele>
        <time>2025-05-10T11:55:00Z</time>
      </trkpt>
      <trkpt lat="37.196711003780365" lon="-4.056824035942555">
        <ele>488.97000000000003</ele>
        <time>2025-05-10T11:55:01Z</time>
      </trkpt>
      <trkpt lat="37.196622993797064" lon="-4.056828981265426">
        <ele>488.97000000000003</ele>
        <time>2025-05-10T11:55:02Z</time>
      </trkpt>
      <trkpt lat="37.195673994719982" lon="-4.056714987382293">
        <ele>488.97000000000003</ele>
        <time>2025-05-10T11:55:11Z</time>
      </trkpt>
      <trkpt lat="37.194128958508372" lon="-4.055850980803371">
        <ele>488.97000000000003</ele>
        <time>2025-05-10T11:55:26Z</time>
      </trkpt>
      <trkpt lat="37.193570975214243" lon="-4.055500030517578">
        <ele>487.52999999999997</ele>
        <time>2025-05-10T11:55:34Z</time>
      </trkpt>
      <trkpt lat="37.192965969443321" lon="-4.055132986977696">
        <ele>486.07999999999998</ele>
        <time>2025-05-10T11:55:44Z</time>
      </trkpt>
      <trkpt lat="37.191999033093452" lon="-4.054520018398762">
        <ele>485.12</ele>
        <time>2025-05-10T11:55:56Z</time>
      </trkpt>
      <trkpt lat="37.191674988716841" lon="-4.054311979562044">
        <ele>484.16000000000003</ele>
        <time>2025-05-10T11:56:01Z</time>
      </trkpt>
      <trkpt lat="37.191613968461752" lon="-4.054273003712297">
        <ele>483.68000000000001</ele>
        <time>2025-05-10T11:56:02Z</time>
      </trkpt>
      <trkpt lat="37.191556971520185" lon="-4.054236961528659">
        <ele>483.68000000000001</ele>
        <time>2025-05-10T11:56:03Z</time>
      </trkpt>
      <trkpt lat="37.191507015377283" lon="-4.054204020649195">
        <ele>483.68000000000001</ele>
        <time>2025-05-10T11:56:04Z</time>
      </trkpt>
      <trkpt lat="37.191459992900491" lon="-4.054174013435841">
        <ele>483.19999999999999</ele>
        <time>2025-05-10T11:56:05Z</time>
      </trkpt>
      <trkpt lat="37.191421017050743" lon="-4.054149035364389">
        <ele>483.19999999999999</ele>
        <time>2025-05-10T11:56:06Z</time>
      </trkpt>
      <trkpt lat="37.191395033150911" lon="-4.054132020100951">
        <ele>482.72000000000003</ele>
        <time>2025-05-10T11:56:07Z</time>
      </trkpt>
      <trkpt lat="37.191395033150911" lon="-4.054132020100951">
        <ele>482.72000000000003</ele>
        <time>2025-05-10T11:56:16Z</time>
      </trkpt>
      <trkpt lat="37.191395033150911" lon="-4.054132020100951">
        <ele>482.72000000000003</ele>
        <time>2025-05-10T11:56:53Z</time>
      </trkpt>
      <trkpt lat="37.191395033150911" lon="-4.054132020100951">
        <ele>482.24000000000001</ele>
        <time>2025-05-10T11:57:40Z</time>
      </trkpt>
      <trkpt lat="37.191395033150911" lon="-4.054132020100951">
        <ele>482.24000000000001</ele>
        <time>2025-05-10T11:58:19Z</time>
      </trkpt>
      <trkpt lat="37.191395033150911" lon="-4.054132020100951">
        <ele>483.19999999999999</ele>
        <time>2025-05-10T11:58:56Z</time>
      </trkpt>
      <trkpt lat="37.191395033150911" lon="-4.054132020100951">
        <ele>483.68000000000001</ele>
        <time>2025-05-10T11:59:47Z</time>
      </trkpt>
      <trkpt lat="37.191395033150911" lon="-4.054132020100951">
        <ele>483.68000000000001</ele>
        <time>2025-05-10T12:00:35Z</time>
      </trkpt>
      <trkpt lat="37.191395033150911" lon="-4.054132020100951">
        <ele>484.16000000000003</ele>
        <time>2025-05-10T12:01:21Z</time>
      </trkpt>
      <trkpt lat="37.191395033150911" lon="-4.054132020100951">
        <ele>484.63999999999999</ele>
        <time>2025-05-10T12:02:19Z</time>
      </trkpt>
      <trkpt lat="37.191205015406013" lon="-4.054008973762393">
        <ele>485.60000000000002</ele>
        <time>2025-05-10T12:02:40Z</time>
      </trkpt>
      <trkpt lat="37.190265990793705" lon="-4.053418971598148">
        <ele>487.05000000000001</ele>
        <time>2025-05-10T12:02:52Z</time>
      </trkpt>
      <trkpt lat="37.190209999680519" lon="-4.053354011848569">
        <ele>487.52999999999997</ele>
        <time>2025-05-10T12:02:53Z</time>
      </trkpt>
      <trkpt lat="37.190134981647134" lon="-4.05326901935041">
        <ele>487.52999999999997</ele>
        <time>2025-05-10T12:02:54Z</time>
      </trkpt>
      <trkpt lat="37.190081002190709" lon="-4.053169023245573">
        <ele>487.52999999999997</ele>
        <time>2025-05-10T12:02:55Z</time>
      </trkpt>
      <trkpt lat="37.190036997199059" lon="-4.053073972463608">
        <ele>487.52999999999997</ele>
        <time>2025-05-10T12:02:56Z</time>
      </trkpt>
      <trkpt lat="37.190009001642466" lon="-4.05301102437079">
        <ele>487.52999999999997</ele>
        <time>2025-05-10T12:02:57Z</time>
      </trkpt>
      <trkpt lat="37.189983017742634" lon="-4.052895018830895">
        <ele>488.00999999999999</ele>
        <time>2025-05-10T12:02:58Z</time>
      </trkpt>
      <trkpt lat="37.189960973337293" lon="-4.052795022726059">
        <ele>488.00999999999999</ele>
        <time>2025-05-10T12:02:59Z</time>
      </trkpt>
      <trkpt lat="37.189937001094222" lon="-4.052686979994178">
        <ele>488.00999999999999</ele>
        <time>2025-05-10T12:03:00Z</time>
      </trkpt>
      <trkpt lat="37.189913028851151" lon="-4.052579021081328">
        <ele>488.49000000000001</ele>
        <time>2025-05-10T12:03:01Z</time>
      </trkpt>
      <trkpt lat="37.189880004152656" lon="-4.0524320024997">
        <ele>488.49000000000001</ele>
        <time>2025-05-10T12:03:02Z</time>
      </trkpt>
      <trkpt lat="37.189886039122939" lon="-4.052342986688018">
        <ele>488.49000000000001</ele>
        <time>2025-05-10T12:03:03Z</time>
      </trkpt>
      <trkpt lat="37.189895007759333" lon="-4.05221801251173">
        <ele>488.97000000000003</ele>
        <time>2025-05-10T12:03:04Z</time>
      </trkpt>
      <trkpt lat="37.189913028851151" lon="-4.052094966173172">
        <ele>488.97000000000003</ele>
        <time>2025-05-10T12:03:05Z</time>
      </trkpt>
      <trkpt lat="37.189948987215757" lon="-4.051976026967168">
        <ele>488.97000000000003</ele>
        <time>2025-05-10T12:03:06Z</time>
      </trkpt>
      <trkpt lat="37.189985029399395" lon="-4.051859015598893">
        <ele>488.97000000000003</ele>
        <time>2025-05-10T12:03:07Z</time>
      </trkpt>
      <trkpt lat="37.190041020512581" lon="-4.051756002008915">
        <ele>488.97000000000003</ele>
        <time>2025-05-10T12:03:08Z</time>
      </trkpt>
      <trkpt lat="37.190401023253798" lon="-4.05112199485302">
        <ele>488.49000000000001</ele>
        <time>2025-05-10T12:03:15Z</time>
      </trkpt>
      <trkpt lat="37.190394988283515" lon="-4.05099400319159">
        <ele>488.00999999999999</ele>
        <time>2025-05-10T12:03:16Z</time>
      </trkpt>
      <trkpt lat="37.190394988283515" lon="-4.050953015685082">
        <ele>488.00999999999999</ele>
        <time>2025-05-10T12:03:17Z</time>
      </trkpt>
      <trkpt lat="37.190394988283515" lon="-4.050868023186922">
        <ele>488.00999999999999</ele>
        <time>2025-05-10T12:03:18Z</time>
      </trkpt>
      <trkpt lat="37.190365986898541" lon="-4.050774984061718">
        <ele>488.00999999999999</ele>
        <time>2025-05-10T12:03:19Z</time>
      </trkpt>
      <trkpt lat="37.190299015492201" lon="-4.05071597546339">
        <ele>488.00999999999999</ele>
        <time>2025-05-10T12:03:20Z</time>
      </trkpt>
      <trkpt lat="37.190225003287196" lon="-4.05065000988543">
        <ele>488.00999999999999</ele>
        <time>2025-05-10T12:03:21Z</time>
      </trkpt>
      <trkpt lat="37.190145961940289" lon="-4.050580020993948">
        <ele>488.00999999999999</ele>
        <time>2025-05-10T12:03:22Z</time>
      </trkpt>
      <trkpt lat="37.189241973683238" lon="-4.049774017184973">
        <ele>490.88999999999999</ele>
        <time>2025-05-10T12:03:31Z</time>
      </trkpt>
      <trkpt lat="37.187758041545749" lon="-4.048474989831448">
        <ele>492.32999999999998</ele>
        <time>2025-05-10T12:03:41Z</time>
      </trkpt>
      <trkpt lat="37.186299003660679" lon="-4.047187026590109">
        <ele>490.41000000000003</ele>
        <time>2025-05-10T12:03:50Z</time>
      </trkpt>
      <trkpt lat="37.184461019933224" lon="-4.045575018972158">
        <ele>490.41000000000003</ele>
        <time>2025-05-10T12:04:03Z</time>
      </trkpt>
      <trkpt lat="37.183813014999032" lon="-4.045014018192887">
        <ele>492.32999999999998</ele>
        <time>2025-05-10T12:04:10Z</time>
      </trkpt>
      <trkpt lat="37.18374403193593" lon="-4.04495601542294">
        <ele>492.32999999999998</ele>
        <time>2025-05-10T12:04:11Z</time>
      </trkpt>
      <trkpt lat="37.183555020019412" lon="-4.044979987666011">
        <ele>492.32999999999998</ele>
        <time>2025-05-10T12:04:13Z</time>
      </trkpt>
      <trkpt lat="37.183456029742956" lon="-4.044923996552825">
        <ele>492.32999999999998</ele>
        <time>2025-05-10T12:04:14Z</time>
      </trkpt>
      <trkpt lat="37.183439014479518" lon="-4.044836992397904">
        <ele>492.81</ele>
        <time>2025-05-10T12:04:15Z</time>
      </trkpt>
      <trkpt lat="37.18342199921608" lon="-4.044753005728126">
        <ele>492.81</ele>
        <time>2025-05-10T12:04:16Z</time>
      </trkpt>
      <trkpt lat="37.183506991714239" lon="-4.044663989916444">
        <ele>492.81</ele>
        <time>2025-05-10T12:04:17Z</time>
      </trkpt>
      <trkpt lat="37.183506991714239" lon="-4.044663989916444">
        <ele>492.81</ele>
        <time>2025-05-10T12:04:18Z</time>
      </trkpt>
      <trkpt lat="37.183667002245784" lon="-4.04454798437655">
        <ele>492.32999999999998</ele>
        <time>2025-05-10T12:04:19Z</time>
      </trkpt>
      <trkpt lat="37.183719975873828" lon="-4.044431978836656">
        <ele>492.32999999999998</ele>
        <time>2025-05-10T12:04:20Z</time>
      </trkpt>
      <trkpt lat="37.18378895893693" lon="-4.044302981346846">
        <ele>492.32999999999998</ele>
        <time>2025-05-10T12:04:21Z</time>
      </trkpt>
      <trkpt lat="37.184530002996325" lon="-4.042887026444078">
        <ele>492.81</ele>
        <time>2025-05-10T12:04:31Z</time>
      </trkpt>
      <trkpt lat="37.185274986550212" lon="-4.041394963860512">
        <ele>494.25999999999999</ele>
        <time>2025-05-10T12:04:43Z</time>
      </trkpt>
      <trkpt lat="37.185843028128147" lon="-4.040333982557058">
        <ele>495.69999999999999</ele>
        <time>2025-05-10T12:04:54Z</time>
      </trkpt>
      <trkpt lat="37.185879992321134" lon="-4.040278997272253">
        <ele>495.69999999999999</ele>
        <time>2025-05-10T12:04:55Z</time>
      </trkpt>
      <trkpt lat="37.185876974835992" lon="-4.0401850361377">
        <ele>495.69999999999999</ele>
        <time>2025-05-10T12:04:56Z</time>
      </trkpt>
      <trkpt lat="37.185884015634656" lon="-4.040082022547722">
        <ele>495.22000000000003</ele>
        <time>2025-05-10T12:04:57Z</time>
      </trkpt>
      <trkpt lat="37.185917962342501" lon="-4.039999963715673">
        <ele>495.22000000000003</ele>
        <time>2025-05-10T12:04:58Z</time>
      </trkpt>
      <trkpt lat="37.185945035889745" lon="-4.039899967610836">
        <ele>494.74000000000001</ele>
        <time>2025-05-10T12:04:59Z</time>
      </trkpt>
      <trkpt lat="37.18638701364398" lon="-4.038651986047626">
        <ele>493.76999999999998</ele>
        <time>2025-05-10T12:05:10Z</time>
      </trkpt>
      <trkpt lat="37.186683984473348" lon="-4.037066968157888">
        <ele>493.29000000000002</ele>
        <time>2025-05-10T12:05:20Z</time>
      </trkpt>
      <trkpt lat="37.186850029975176" lon="-4.035383965820074">
        <ele>492.32999999999998</ele>
        <time>2025-05-10T12:05:29Z</time>
      </trkpt>
      <trkpt lat="37.186901997774839" lon="-4.035003008320928">
        <ele>492.32999999999998</ele>
        <time>2025-05-10T12:05:31Z</time>
      </trkpt>
      <trkpt lat="37.18694600276649" lon="-4.034817013889551">
        <ele>492.32999999999998</ele>
        <time>2025-05-10T12:05:32Z</time>
      </trkpt>
      <trkpt lat="37.187008028849959" lon="-4.034639988094568">
        <ele>492.32999999999998</ele>
        <time>2025-05-10T12:05:33Z</time>
      </trkpt>
      <trkpt lat="37.187624014914036" lon="-4.033638015389442">
        <ele>491.37</ele>
        <time>2025-05-10T12:05:40Z</time>
      </trkpt>
      <trkpt lat="37.187743037939072" lon="-4.03354799374938">
        <ele>490.88999999999999</ele>
        <time>2025-05-10T12:05:41Z</time>
      </trkpt>
      <trkpt lat="37.187866000458598" lon="-4.033455038443208">
        <ele>490.88999999999999</ele>
        <time>2025-05-10T12:05:42Z</time>
      </trkpt>
      <trkpt lat="37.187988040968776" lon="-4.033364010974765">
        <ele>490.88999999999999</ele>
        <time>2025-05-10T12:05:43Z</time>
      </trkpt>
      <trkpt lat="37.188649037852883" lon="-4.032927984371781">
        <ele>490.88999999999999</ele>
        <time>2025-05-10T12:05:49Z</time>
      </trkpt>
      <trkpt lat="37.18873000703752" lon="-4.03281700797379">
        <ele>490.88999999999999</ele>
        <time>2025-05-10T12:05:50Z</time>
      </trkpt>
      <trkpt lat="37.18881600536406" lon="-4.032698990777135">
        <ele>490.88999999999999</ele>
        <time>2025-05-10T12:05:51Z</time>
      </trkpt>
      <trkpt lat="37.189439032226801" lon="-4.03135503642261">
        <ele>496.66000000000003</ele>
        <time>2025-05-10T12:05:59Z</time>
      </trkpt>
      <trkpt lat="37.19021201133728" lon="-4.029188985005021">
        <ele>508.19</ele>
        <time>2025-05-10T12:06:09Z</time>
      </trkpt>
      <trkpt lat="37.190703023225069" lon="-4.027856010943651">
        <ele>515.39999999999998</ele>
        <time>2025-05-10T12:06:16Z</time>
      </trkpt>
      <trkpt lat="37.190687013790011" lon="-4.027669010683894">
        <ele>515.88</ele>
        <time>2025-05-10T12:06:17Z</time>
      </trkpt>
      <trkpt lat="37.190652983263135" lon="-4.027502965182066">
        <ele>516.85000000000002</ele>
        <time>2025-05-10T12:06:18Z</time>
      </trkpt>
      <trkpt lat="37.190604032948613" lon="-4.027346977964044">
        <ele>517.33000000000004</ele>
        <time>2025-05-10T12:06:19Z</time>
      </trkpt>
      <trkpt lat="37.190521974116564" lon="-4.027212029322982">
        <ele>518.28999999999996</ele>
        <time>2025-05-10T12:06:20Z</time>
      </trkpt>
      <trkpt lat="37.190444022417068" lon="-4.027084959670901">
        <ele>518.76999999999998</ele>
        <time>2025-05-10T12:06:21Z</time>
      </trkpt>
      <trkpt lat="37.190372021868825" lon="-4.026969959959388">
        <ele>519.25</ele>
        <time>2025-05-10T12:06:22Z</time>
      </trkpt>
      <trkpt lat="37.190130958333611" lon="-4.02662898413837">
        <ele>519.25</ele>
        <time>2025-05-10T12:06:27Z</time>
      </trkpt>
      <trkpt lat="37.190096005797386" lon="-4.026578022167087">
        <ele>519.25</ele>
        <time>2025-05-10T12:06:28Z</time>
      </trkpt>
      <trkpt lat="37.190078990533948" lon="-4.02645698748529">
        <ele>519.25</ele>
        <time>2025-05-10T12:06:29Z</time>
      </trkpt>
      <trkpt lat="37.190117966383696" lon="-4.026379035785794">
        <ele>519.25</ele>
        <time>2025-05-10T12:06:30Z</time>
      </trkpt>
      <trkpt lat="37.190164988860488" lon="-4.02628499083221">
        <ele>519.25</ele>
        <time>2025-05-10T12:06:31Z</time>
      </trkpt>
      <trkpt lat="37.190216034650803" lon="-4.026181977242231">
        <ele>518.76999999999998</ele>
        <time>2025-05-10T12:06:32Z</time>
      </trkpt>
      <trkpt lat="37.190284011885524" lon="-4.026096984744072">
        <ele>518.28999999999996</ele>
        <time>2025-05-10T12:06:33Z</time>
      </trkpt>
      <trkpt lat="37.190358024090528" lon="-4.026014003902674">
        <ele>517.80999999999995</ele>
        <time>2025-05-10T12:06:34Z</time>
      </trkpt>
      <trkpt lat="37.190453996881843" lon="-4.025956001132727">
        <ele>516.85000000000002</ele>
        <time>2025-05-10T12:06:35Z</time>
      </trkpt>
      <trkpt lat="37.190552987158298" lon="-4.025896992534399">
        <ele>516.37</ele>
        <time>2025-05-10T12:06:36Z</time>
      </trkpt>
      <trkpt lat="37.190660024061799" lon="-4.02583203278482">
        <ele>515.88</ele>
        <time>2025-05-10T12:06:37Z</time>
      </trkpt>
      <trkpt lat="37.191016003489494" lon="-4.025616031140089">
        <ele>512.51999999999998</ele>
        <time>2025-05-10T12:06:46Z</time>
      </trkpt>
      <trkpt lat="37.192066004499793" lon="-4.024731991812587">
        <ele>521.16999999999996</ele>
        <time>2025-05-10T12:06:54Z</time>
      </trkpt>
      <trkpt lat="37.193976994603872" lon="-4.022065037861466">
        <ele>526.46000000000004</ele>
        <time>2025-05-10T12:07:00Z</time>
      </trkpt>
      <trkpt lat="37.194836977869272" lon="-4.019708968698978">
        <ele>533.19000000000005</ele>
        <time>2025-05-10T12:07:07Z</time>
      </trkpt>
      <trkpt lat="37.195181977003813" lon="-4.017307972535491">
        <ele>535.59000000000003</ele>
        <time>2025-05-10T12:07:14Z</time>
      </trkpt>
      <trkpt lat="37.195348022505641" lon="-4.013764020055533">
        <ele>535.59000000000003</ele>
        <time>2025-05-10T12:07:24Z</time>
      </trkpt>
      <trkpt lat="37.195307034999132" lon="-4.010442020371556">
        <ele>526.94000000000005</ele>
        <time>2025-05-10T12:07:33Z</time>
      </trkpt>
      <trkpt lat="37.194730024784803" lon="-4.008375965058804">
        <ele>517.33000000000004</ele>
        <time>2025-05-10T12:07:39Z</time>
      </trkpt>
      <trkpt lat="37.193368971347809" lon="-4.005148010328412">
        <ele>507.23000000000002</ele>
        <time>2025-05-10T12:07:49Z</time>
      </trkpt>
      <trkpt lat="37.193002011626959" lon="-4.002984976395965">
        <ele>506.26999999999998</ele>
        <time>2025-05-10T12:07:55Z</time>
      </trkpt>
      <trkpt lat="37.192840995267034" lon="-3.99968896061182">
        <ele>515.88</ele>
        <time>2025-05-10T12:08:10Z</time>
      </trkpt>
      <trkpt lat="37.19313302077353" lon="-3.995263986289501">
        <ele>525.01999999999998</ele>
        <time>2025-05-10T12:08:16Z</time>
      </trkpt>
      <trkpt lat="37.193519007414579" lon="-3.992723012343049">
        <ele>547.13</ele>
        <time>2025-05-10T12:08:30Z</time>
      </trkpt>
      <trkpt lat="37.193602994084358" lon="-3.987195985391736">
        <ele>552.40999999999997</ele>
        <time>2025-05-10T12:08:38Z</time>
      </trkpt>
      <trkpt lat="37.192315030843019" lon="-3.978809975087643">
        <ele>562.99000000000001</ele>
        <time>2025-05-10T12:09:01Z</time>
      </trkpt>
      <trkpt lat="37.191688986495137" lon="-3.976754983887076">
        <ele>563.47000000000003</ele>
        <time>2025-05-10T12:09:07Z</time>
      </trkpt>
      <trkpt lat="37.190691959112883" lon="-3.97407797165215">
        <ele>565.38999999999999</ele>
        <time>2025-05-10T12:09:15Z</time>
      </trkpt>
      <trkpt lat="37.188933016732335" lon="-3.969348985701799">
        <ele>560.11000000000001</ele>
        <time>2025-05-10T12:09:29Z</time>
      </trkpt>
      <trkpt lat="37.187584033235908" lon="-3.965253001078963">
        <ele>563.47000000000003</ele>
        <time>2025-05-10T12:09:41Z</time>
      </trkpt>
      <trkpt lat="37.186565967276692" lon="-3.961780965328217">
        <ele>568.27999999999997</ele>
        <time>2025-05-10T12:09:51Z</time>
      </trkpt>
      <trkpt lat="37.185082035139203" lon="-3.958576982840896">
        <ele>572.60000000000002</ele>
        <time>2025-05-10T12:10:01Z</time>
      </trkpt>
      <trkpt lat="37.183768004179001" lon="-3.95525498315692">
        <ele>577.40999999999997</ele>
        <time>2025-05-10T12:10:11Z</time>
      </trkpt>
      <trkpt lat="37.181964972987771" lon="-3.949771039187908">
        <ele>586.05999999999995</ele>
        <time>2025-05-10T12:10:27Z</time>
      </trkpt>
      <trkpt lat="37.180164037272334" lon="-3.94427603110671">
        <ele>594.23000000000002</ele>
        <time>2025-05-10T12:10:43Z</time>
      </trkpt>
      <trkpt lat="37.179755000397563" lon="-3.942114003002644">
        <ele>597.12</ele>
        <time>2025-05-10T12:10:49Z</time>
      </trkpt>
      <trkpt lat="37.179893972352147" lon="-3.939877962693572">
        <ele>597.12</ele>
        <time>2025-05-10T12:10:55Z</time>
      </trkpt>
      <trkpt lat="37.180581036955118" lon="-3.934404999017716">
        <ele>600.96000000000004</ele>
        <time>2025-05-10T12:11:10Z</time>
      </trkpt>
      <trkpt lat="37.180682960897684" lon="-3.931423975154758">
        <ele>606.25</ele>
        <time>2025-05-10T12:11:18Z</time>
      </trkpt>
      <trkpt lat="37.180782034993172" lon="-3.926577977836132">
        <ele>601.91999999999996</ele>
        <time>2025-05-10T12:11:31Z</time>
      </trkpt>
      <trkpt lat="37.180567039176822" lon="-3.922495990991592">
        <ele>593.26999999999998</ele>
        <time>2025-05-10T12:11:42Z</time>
      </trkpt>
      <trkpt lat="37.179891038686037" lon="-3.917759964242578">
        <ele>585.10000000000002</ele>
        <time>2025-05-10T12:11:55Z</time>
      </trkpt>
      <trkpt lat="37.178940027952194" lon="-3.91155500896275">
        <ele>588.95000000000005</ele>
        <time>2025-05-10T12:12:12Z</time>
      </trkpt>
      <trkpt lat="37.178576001897454" lon="-3.907126011326909">
        <ele>594.71000000000004</ele>
        <time>2025-05-10T12:12:24Z</time>
      </trkpt>
      <trkpt lat="37.178550017997622" lon="-3.903007982298732">
        <ele>596.63999999999999</ele>
        <time>2025-05-10T12:12:35Z</time>
      </trkpt>
      <trkpt lat="37.179109007120132" lon="-3.900908986106515">
        <ele>592.30999999999995</ele>
        <time>2025-05-10T12:12:41Z</time>
      </trkpt>
      <trkpt lat="37.18060702085495" lon="-3.897730987519026">
        <ele>587.01999999999998</ele>
        <time>2025-05-10T12:12:51Z</time>
      </trkpt>
      <trkpt lat="37.181409001350403" lon="-3.895755959674716">
        <ele>587.98000000000002</ele>
        <time>2025-05-10T12:12:57Z</time>
      </trkpt>
      <trkpt lat="37.182206958532333" lon="-3.89297098852694">
        <ele>588.95000000000005</ele>
        <time>2025-05-10T12:13:05Z</time>
      </trkpt>
      <trkpt lat="37.183355027809739" lon="-3.890363965183497">
        <ele>587.5</ele>
        <time>2025-05-10T12:13:13Z</time>
      </trkpt>
      <trkpt lat="37.185563994571567" lon="-3.885515034198761">
        <ele>584.62</ele>
        <time>2025-05-10T12:13:28Z</time>
      </trkpt>
      <trkpt lat="37.187474984675646" lon="-3.881317963823676">
        <ele>581.25</ele>
        <time>2025-05-10T12:13:41Z</time>
      </trkpt>
      <trkpt lat="37.189823007211089" lon="-3.876129984855652">
        <ele>577.40999999999997</ele>
        <time>2025-05-10T12:13:57Z</time>
      </trkpt>
      <trkpt lat="37.191112982109189" lon="-3.873297991231084">
        <ele>563.95000000000005</ele>
        <time>2025-05-10T12:14:06Z</time>
      </trkpt>
      <trkpt lat="37.192178992554545" lon="-3.871569978073239">
        <ele>555.77999999999997</ele>
        <time>2025-05-10T12:14:13Z</time>
      </trkpt>
      <trkpt lat="37.194285029545426" lon="-3.868591971695423">
        <ele>544.24000000000001</ele>
        <time>2025-05-10T12:14:25Z</time>
      </trkpt>
      <trkpt lat="37.195084998384118" lon="-3.866915004327893">
        <ele>542.79999999999995</ele>
        <time>2025-05-10T12:14:31Z</time>
      </trkpt>
      <trkpt lat="37.195468973368406" lon="-3.865052964538336">
        <ele>540.39999999999998</ele>
        <time>2025-05-10T12:14:37Z</time>
      </trkpt>
      <trkpt lat="37.195410970598459" lon="-3.863152032718062">
        <ele>535.59000000000003</ele>
        <time>2025-05-10T12:14:43Z</time>
      </trkpt>
      <trkpt lat="37.194751985371113" lon="-3.860579039901495">
        <ele>536.07000000000005</ele>
        <time>2025-05-10T12:14:52Z</time>
      </trkpt>
      <trkpt lat="37.194214034825563" lon="-3.857960030436516">
        <ele>543.27999999999997</ele>
        <time>2025-05-10T12:15:01Z</time>
      </trkpt>
      <trkpt lat="37.194214034825563" lon="-3.855018988251686">
        <ele>552.40999999999997</ele>
        <time>2025-05-10T12:15:10Z</time>
      </trkpt>
      <trkpt lat="37.194112027063966" lon="-3.851848030462861">
        <ele>554.34000000000003</ele>
        <time>2025-05-10T12:15:20Z</time>
      </trkpt>
      <trkpt lat="37.193947993218899" lon="-3.84789202362299">
        <ele>545.69000000000005</ele>
        <time>2025-05-10T12:15:32Z</time>
      </trkpt>
      <trkpt lat="37.194192996248603" lon="-3.844829024747014">
        <ele>545.20000000000005</ele>
        <time>2025-05-10T12:15:41Z</time>
      </trkpt>
      <trkpt lat="37.194070033729076" lon="-3.842458035796881">
        <ele>551.92999999999995</ele>
        <time>2025-05-10T12:15:48Z</time>
      </trkpt>
      <trkpt lat="37.193447006866336" lon="-3.84063396602869">
        <ele>556.74000000000001</ele>
        <time>2025-05-10T12:15:54Z</time>
      </trkpt>
      <trkpt lat="37.192069021984935" lon="-3.838220983743668">
        <ele>560.59000000000003</ele>
        <time>2025-05-10T12:16:03Z</time>
      </trkpt>
      <trkpt lat="37.19032097607851" lon="-3.835435006767511">
        <ele>564.90999999999997</ele>
        <time>2025-05-10T12:16:14Z</time>
      </trkpt>
      <trkpt lat="37.189124962314963" lon="-3.832935020327568">
        <ele>570.67999999999995</ele>
        <time>2025-05-10T12:16:23Z</time>
      </trkpt>
      <trkpt lat="37.188876019790769" lon="-3.831110028550029">
        <ele>574.52999999999997</ele>
        <time>2025-05-10T12:16:29Z</time>
      </trkpt>
      <trkpt lat="37.189154969528317" lon="-3.82926500402391">
        <ele>575.97000000000003</ele>
        <time>2025-05-10T12:16:35Z</time>
      </trkpt>
      <trkpt lat="37.190030040219426" lon="-3.827233985066414">
        <ele>573.08000000000004</ele>
        <time>2025-05-10T12:16:42Z</time>
      </trkpt>
      <trkpt lat="37.191376006230712" lon="-3.824579017236829">
        <ele>563.95000000000005</ele>
        <time>2025-05-10T12:16:52Z</time>
      </trkpt>
      <trkpt lat="37.192829009145498" lon="-3.821756998077035">
        <ele>552.40999999999997</ele>
        <time>2025-05-10T12:17:03Z</time>
      </trkpt>
      <trkpt lat="37.194515028968453" lon="-3.818236012011766">
        <ele>548.57000000000005</ele>
        <time>2025-05-10T12:17:15Z</time>
      </trkpt>
      <trkpt lat="37.195078963413835" lon="-3.815856976434588">
        <ele>548.09000000000003</ele>
        <time>2025-05-10T12:17:22Z</time>
      </trkpt>
      <trkpt lat="37.195121962577105" lon="-3.813395965844393">
        <ele>550.49000000000001</ele>
        <time>2025-05-10T12:17:29Z</time>
      </trkpt>
      <trkpt lat="37.194901015609503" lon="-3.809354966506362">
        <ele>550.97000000000003</ele>
        <time>2025-05-10T12:17:40Z</time>
      </trkpt>
      <trkpt lat="37.194502959027886" lon="-3.80462103523314">
        <ele>554.34000000000003</ele>
        <time>2025-05-10T12:17:52Z</time>
      </trkpt>
      <trkpt lat="37.194298021495342" lon="-3.801981993019581">
        <ele>555.29999999999995</ele>
        <time>2025-05-10T12:17:59Z</time>
      </trkpt>
      <trkpt lat="37.193909017369151" lon="-3.79933699965477">
        <ele>557.22000000000003</ele>
        <time>2025-05-10T12:18:07Z</time>
      </trkpt>
      <trkpt lat="37.193204015493393" lon="-3.795090978965163">
        <ele>559.13999999999999</ele>
        <time>2025-05-10T12:18:19Z</time>
      </trkpt>
      <trkpt lat="37.192418966442347" lon="-3.79042100161314">
        <ele>562.02999999999997</ele>
        <time>2025-05-10T12:18:32Z</time>
      </trkpt>
      <trkpt lat="37.191536016762257" lon="-3.785498980432749">
        <ele>564.42999999999995</ele>
        <time>2025-05-10T12:18:46Z</time>
      </trkpt>
      <trkpt lat="37.190950037911534" lon="-3.783099995926023">
        <ele>567.32000000000005</ele>
        <time>2025-05-10T12:18:53Z</time>
      </trkpt>
      <trkpt lat="37.190721966326237" lon="-3.781042993068695">
        <ele>570.20000000000005</ele>
        <time>2025-05-10T12:18:59Z</time>
      </trkpt>
      <trkpt lat="37.190760020166636" lon="-3.778121983632445">
        <ele>571.15999999999997</ele>
        <time>2025-05-10T12:19:08Z</time>
      </trkpt>
      <trkpt lat="37.190486015751958" lon="-3.775567011907697">
        <ele>572.12</ele>
        <time>2025-05-10T12:19:14Z</time>
      </trkpt>
      <trkpt lat="37.190522979944944" lon="-3.773538004606962">
        <ele>572.60000000000002</ele>
        <time>2025-05-10T12:19:19Z</time>
      </trkpt>
      <trkpt lat="37.190625993534923" lon="-3.770533008500934">
        <ele>575.00999999999999</ele>
        <time>2025-05-10T12:19:27Z</time>
      </trkpt>
      <trkpt lat="37.190539995208383" lon="-3.767961021512747">
        <ele>576.45000000000005</ele>
        <time>2025-05-10T12:19:35Z</time>
      </trkpt>
      <trkpt lat="37.19074702821672" lon="-3.765568993985653">
        <ele>575.49000000000001</ele>
        <time>2025-05-10T12:19:43Z</time>
      </trkpt>
      <trkpt lat="37.191167967393994" lon="-3.762620994821191">
        <ele>574.52999999999997</ele>
        <time>2025-05-10T12:19:53Z</time>
      </trkpt>
      <trkpt lat="37.191486982628703" lon="-3.759305030107498">
        <ele>574.52999999999997</ele>
        <time>2025-05-10T12:20:04Z</time>
      </trkpt>
      <trkpt lat="37.191816978156567" lon="-3.755697961896658">
        <ele>575.49000000000001</ele>
        <time>2025-05-10T12:20:16Z</time>
      </trkpt>
      <trkpt lat="37.191700972616673" lon="-3.752845013514161">
        <ele>574.52999999999997</ele>
        <time>2025-05-10T12:20:25Z</time>
      </trkpt>
      <trkpt lat="37.191452030092478" lon="-3.750256011262536">
        <ele>574.52999999999997</ele>
        <time>2025-05-10T12:20:34Z</time>
      </trkpt>
      <trkpt lat="37.191030001267791" lon="-3.746863016858697">
        <ele>575.00999999999999</ele>
        <time>2025-05-10T12:20:46Z</time>
      </trkpt>
      <trkpt lat="37.190767982974648" lon="-3.744167983531952">
        <ele>575.00999999999999</ele>
        <time>2025-05-10T12:20:56Z</time>
      </trkpt>
      <trkpt lat="37.190523985773325" lon="-3.741943007335067">
        <ele>575.49000000000001</ele>
        <time>2025-05-10T12:21:05Z</time>
      </trkpt>
      <trkpt lat="37.190694976598024" lon="-3.739355010911822">
        <ele>577.40999999999997</ele>
        <time>2025-05-10T12:21:15Z</time>
      </trkpt>
      <trkpt lat="37.190544018521905" lon="-3.737755995243788">
        <ele>578.85000000000002</ele>
        <time>2025-05-10T12:21:21Z</time>
      </trkpt>
      <trkpt lat="37.190058035776019" lon="-3.735433034598827">
        <ele>581.25</ele>
        <time>2025-05-10T12:21:30Z</time>
      </trkpt>
      <trkpt lat="37.19008200801909" lon="-3.732906980440021">
        <ele>581.25</ele>
        <time>2025-05-10T12:21:40Z</time>
      </trkpt>
      <trkpt lat="37.190485009923577" lon="-3.730297023430467">
        <ele>582.22000000000003</ele>
        <time>2025-05-10T12:21:50Z</time>
      </trkpt>
      <trkpt lat="37.191290007904172" lon="-3.727349024266005">
        <ele>583.65999999999997</ele>
        <time>2025-05-10T12:22:01Z</time>
      </trkpt>
      <trkpt lat="37.192265996709466" lon="-3.723698034882546">
        <ele>588.95000000000005</ele>
        <time>2025-05-10T12:22:16Z</time>
      </trkpt>
      <trkpt lat="37.192541006952524" lon="-3.721120012924075">
        <ele>587.5</ele>
        <time>2025-05-10T12:22:26Z</time>
      </trkpt>
      <trkpt lat="37.192541006952524" lon="-3.717963974922895">
        <ele>585.10000000000002</ele>
        <time>2025-05-10T12:22:38Z</time>
      </trkpt>
      <trkpt lat="37.19249096699059" lon="-3.715084958821535">
        <ele>586.05999999999995</ele>
        <time>2025-05-10T12:22:49Z</time>
      </trkpt>
      <trkpt lat="37.192435981705785" lon="-3.711911989375949">
        <ele>588.46000000000004</ele>
        <time>2025-05-10T12:23:01Z</time>
      </trkpt>
      <trkpt lat="37.192389965057373" lon="-3.708775984123349">
        <ele>587.01999999999998</ele>
        <time>2025-05-10T12:23:13Z</time>
      </trkpt>
      <trkpt lat="37.192520974203944" lon="-3.70660699903965">
        <ele>589.90999999999997</ele>
        <time>2025-05-10T12:23:21Z</time>
      </trkpt>
      <trkpt lat="37.192836971953511" lon="-3.703584987670183">
        <ele>594.71000000000004</ele>
        <time>2025-05-10T12:23:32Z</time>
      </trkpt>
      <trkpt lat="37.193040987476707" lon="-3.700391985476017">
        <ele>596.63999999999999</ele>
        <time>2025-05-10T12:23:44Z</time>
      </trkpt>
      <trkpt lat="37.193003017455339" lon="-3.697987971827388">
        <ele>597.60000000000002</ele>
        <time>2025-05-10T12:23:53Z</time>
      </trkpt>
      <trkpt lat="37.192761031910777" lon="-3.694899994879961">
        <ele>599.03999999999996</ele>
        <time>2025-05-10T12:24:05Z</time>
      </trkpt>
      <trkpt lat="37.192556010559201" lon="-3.692207979038358">
        <ele>602.88</ele>
        <time>2025-05-10T12:24:15Z</time>
      </trkpt>
      <trkpt lat="37.192455008625984" lon="-3.689071973785758">
        <ele>604.33000000000004</ele>
        <time>2025-05-10T12:24:26Z</time>
      </trkpt>
      <trkpt lat="37.192455008625984" lon="-3.688783971592784">
        <ele>605.28999999999996</ele>
        <time>2025-05-10T12:24:27Z</time>
      </trkpt>
      <trkpt lat="37.192432964220643" lon="-3.686570981517434">
        <ele>608.64999999999998</ele>
        <time>2025-05-10T12:24:34Z</time>
      </trkpt>
      <trkpt lat="37.192389965057373" lon="-3.68338099680841">
        <ele>612.5</ele>
        <time>2025-05-10T12:24:44Z</time>
      </trkpt>
      <trkpt lat="37.192389965057373" lon="-3.681332040578127">
        <ele>618.25999999999999</ele>
        <time>2025-05-10T12:24:52Z</time>
      </trkpt>
      <trkpt lat="37.192369010299444" lon="-3.678599037230015">
        <ele>615.86000000000001</ele>
        <time>2025-05-10T12:25:02Z</time>
      </trkpt>
      <trkpt lat="37.192343026399612" lon="-3.675142005085945">
        <ele>612.5</ele>
        <time>2025-05-10T12:25:13Z</time>
      </trkpt>
      <trkpt lat="37.192298015579581" lon="-3.670604964718223">
        <ele>613.46000000000004</ele>
        <time>2025-05-10T12:25:27Z</time>
      </trkpt>
      <trkpt lat="37.192126018926501" lon="-3.667795015498996">
        <ele>613.94000000000005</ele>
        <time>2025-05-10T12:25:36Z</time>
      </trkpt>
      <trkpt lat="37.191750006750226" lon="-3.665615972131491">
        <ele>616.82000000000005</ele>
        <time>2025-05-10T12:25:44Z</time>
      </trkpt>
      <trkpt lat="37.191488994285464" lon="-3.663023030385375">
        <ele>619.71000000000004</ele>
        <time>2025-05-10T12:25:54Z</time>
      </trkpt>
      <trkpt lat="37.191609023138881" lon="-3.660248033702374">
        <ele>620.19000000000005</ele>
        <time>2025-05-10T12:26:04Z</time>
      </trkpt>
      <trkpt lat="37.191788982599974" lon="-3.657378992065787">
        <ele>623.07000000000005</ele>
        <time>2025-05-10T12:26:14Z</time>
      </trkpt>
      <trkpt lat="37.192433970049024" lon="-3.654839023947716">
        <ele>624.99000000000001</ele>
        <time>2025-05-10T12:26:23Z</time>
      </trkpt>
      <trkpt lat="37.193328989669681" lon="-3.653120985254645">
        <ele>626.91999999999996</ele>
        <time>2025-05-10T12:26:30Z</time>
      </trkpt>
      <trkpt lat="37.194642014801502" lon="-3.651342010125518">
        <ele>632.20000000000005</ele>
        <time>2025-05-10T12:26:39Z</time>
      </trkpt>
      <trkpt lat="37.196386959403753" lon="-3.649077974259853">
        <ele>640.38</ele>
        <time>2025-05-10T12:26:50Z</time>
      </trkpt>
      <trkpt lat="37.197269992902875" lon="-3.647821024060249">
        <ele>643.74000000000001</ele>
        <time>2025-05-10T12:26:57Z</time>
      </trkpt>
      <trkpt lat="37.197857983410358" lon="-3.646414959803224">
        <ele>641.34000000000003</ele>
        <time>2025-05-10T12:27:04Z</time>
      </trkpt>
      <trkpt lat="37.198169035837054" lon="-3.644846035167575">
        <ele>640.86000000000001</ele>
        <time>2025-05-10T12:27:11Z</time>
      </trkpt>
      <trkpt lat="37.198153026401997" lon="-3.643233021721244">
        <ele>642.29999999999995</ele>
        <time>2025-05-10T12:27:20Z</time>
      </trkpt>
      <trkpt lat="37.19796996563673" lon="-3.641408029943705">
        <ele>644.22000000000003</ele>
        <time>2025-05-10T12:27:29Z</time>
      </trkpt>
      <trkpt lat="37.197862006723881" lon="-3.640462970361114">
        <ele>645.65999999999997</ele>
        <time>2025-05-10T12:27:35Z</time>
      </trkpt>
      <trkpt lat="37.197876004502177" lon="-3.639031006023288">
        <ele>648.07000000000005</ele>
        <time>2025-05-10T12:27:44Z</time>
      </trkpt>
      <trkpt lat="37.197887990623713" lon="-3.637070981785655">
        <ele>651.90999999999997</ele>
        <time>2025-05-10T12:27:55Z</time>
      </trkpt>
      <trkpt lat="37.197547014802694" lon="-3.635730966925621">
        <ele>653.83000000000004</ele>
        <time>2025-05-10T12:28:03Z</time>
      </trkpt>
      <trkpt lat="37.196968998759985" lon="-3.633843027055264">
        <ele>654.79999999999995</ele>
        <time>2025-05-10T12:28:16Z</time>
      </trkpt>
      <trkpt lat="37.196674961596727" lon="-3.633173983544111">
        <ele>656.72000000000003</ele>
        <time>2025-05-10T12:28:22Z</time>
      </trkpt>
      <trkpt lat="37.196634979918599" lon="-3.633064012974501">
        <ele>656.72000000000003</ele>
        <time>2025-05-10T12:28:23Z</time>
      </trkpt>
      <trkpt lat="37.196395006030798" lon="-3.632469987496734">
        <ele>658.63999999999999</ele>
        <time>2025-05-10T12:28:29Z</time>
      </trkpt>
      <trkpt lat="37.196230972185731" lon="-3.63226898945868">
        <ele>660.08000000000004</ele>
        <time>2025-05-10T12:28:32Z</time>
      </trkpt>
      <trkpt lat="37.196167018264532" lon="-3.63226898945868">
        <ele>660.55999999999995</ele>
        <time>2025-05-10T12:28:33Z</time>
      </trkpt>
      <trkpt lat="37.196042966097593" lon="-3.632282987236977">
        <ele>661.03999999999996</ele>
        <time>2025-05-10T12:28:34Z</time>
      </trkpt>
      <trkpt lat="37.195959985256195" lon="-3.632292961701751">
        <ele>661.51999999999998</ele>
        <time>2025-05-10T12:28:35Z</time>
      </trkpt>
      <trkpt lat="37.195865018293262" lon="-3.632303019985557">
        <ele>661.51999999999998</ele>
        <time>2025-05-10T12:28:36Z</time>
      </trkpt>
      <trkpt lat="37.195758987218142" lon="-3.632315006107092">
        <ele>662.00999999999999</ele>
        <time>2025-05-10T12:28:37Z</time>
      </trkpt>
      <trkpt lat="37.194666992872953" lon="-3.632471999153495">
        <ele>664.88999999999999</ele>
        <time>2025-05-10T12:28:45Z</time>
      </trkpt>
      <trkpt lat="37.192877037450671" lon="-3.632864020764828">
        <ele>662.00999999999999</ele>
        <time>2025-05-10T12:28:56Z</time>
      </trkpt>
      <trkpt lat="37.191363014280796" lon="-3.633290994912386">
        <ele>659.12</ele>
        <time>2025-05-10T12:29:05Z</time>
      </trkpt>
      <trkpt lat="37.189830970019102" lon="-3.633501967415214">
        <ele>659.12</ele>
        <time>2025-05-10T12:29:12Z</time>
      </trkpt>
      <trkpt lat="37.188136987388134" lon="-3.633123021572828">
        <ele>655.27999999999997</ele>
        <time>2025-05-10T12:29:20Z</time>
      </trkpt>
      <trkpt lat="37.186637967824936" lon="-3.632168993353844">
        <ele>654.30999999999995</ele>
        <time>2025-05-10T12:29:28Z</time>
      </trkpt>
      <trkpt lat="37.185494005680084" lon="-3.630667040124536">
        <ele>652.87</ele>
        <time>2025-05-10T12:29:36Z</time>
      </trkpt>
      <trkpt lat="37.184441993013024" lon="-3.628532001748681">
        <ele>654.79999999999995</ele>
        <time>2025-05-10T12:29:46Z</time>
      </trkpt>
      <trkpt lat="37.183587038889527" lon="-3.626735005527735">
        <ele>656.72000000000003</ele>
        <time>2025-05-10T12:29:55Z</time>
      </trkpt>
      <trkpt lat="37.182565033435822" lon="-3.624515980482101">
        <ele>657.20000000000005</ele>
        <time>2025-05-10T12:30:07Z</time>
      </trkpt>
      <trkpt lat="37.181524001061916" lon="-3.622301984578371">
        <ele>659.12</ele>
        <time>2025-05-10T12:30:18Z</time>
      </trkpt>
      <trkpt lat="37.18045799061656" lon="-3.619973994791508">
        <ele>662.49000000000001</ele>
        <time>2025-05-10T12:30:30Z</time>
      </trkpt>
      <trkpt lat="37.179267005994916" lon="-3.617828981950879">
        <ele>662.97000000000003</ele>
        <time>2025-05-10T12:30:41Z</time>
      </trkpt>
      <trkpt lat="37.178277019411325" lon="-3.616341026499867">
        <ele>661.03999999999996</ele>
        <time>2025-05-10T12:30:51Z</time>
      </trkpt>
      <trkpt lat="37.177625996991992" lon="-3.615550026297569">
        <ele>660.08000000000004</ele>
        <time>2025-05-10T12:30:58Z</time>
      </trkpt>
      <trkpt lat="37.176839020103216" lon="-3.614687025547028">
        <ele>659.12</ele>
        <time>2025-05-10T12:31:06Z</time>
      </trkpt>
      <trkpt lat="37.176659982651472" lon="-3.614490972831845">
        <ele>658.15999999999997</ele>
        <time>2025-05-10T12:31:09Z</time>
      </trkpt>
      <trkpt lat="37.176604997366667" lon="-3.614430958405137">
        <ele>656.72000000000003</ele>
        <time>2025-05-10T12:31:15Z</time>
      </trkpt>
      <trkpt lat="37.176425959914923" lon="-3.614459037780762">
        <ele>655.27999999999997</ele>
        <time>2025-05-10T12:31:28Z</time>
      </trkpt>
      <trkpt lat="37.176362005993724" lon="-3.614502036944032">
        <ele>654.79999999999995</ele>
        <time>2025-05-10T12:31:29Z</time>
      </trkpt>
      <trkpt lat="37.176330992951989" lon="-3.61449901945889">
        <ele>653.83000000000004</ele>
        <time>2025-05-10T12:31:30Z</time>
      </trkpt>
      <trkpt lat="37.17624600045383" lon="-3.614488961175084">
        <ele>653.35000000000002</ele>
        <time>2025-05-10T12:31:31Z</time>
      </trkpt>
      <trkpt lat="37.176135024055839" lon="-3.614439005032182">
        <ele>652.87</ele>
        <time>2025-05-10T12:31:32Z</time>
      </trkpt>
      <trkpt lat="37.176072997972369" lon="-3.61432702280581">
        <ele>652.38999999999999</ele>
        <time>2025-05-10T12:31:33Z</time>
      </trkpt>
      <trkpt lat="37.17605497688055" lon="-3.614230966195464">
        <ele>651.90999999999997</ele>
        <time>2025-05-10T12:31:34Z</time>
      </trkpt>
      <trkpt lat="37.176049025729299" lon="-3.614098029211164">
        <ele>651.42999999999995</ele>
        <time>2025-05-10T12:31:35Z</time>
      </trkpt>
      <trkpt lat="37.176124965772033" lon="-3.613966014236212">
        <ele>651.42999999999995</ele>
        <time>2025-05-10T12:31:36Z</time>
      </trkpt>
      <trkpt lat="37.176148016005754" lon="-3.613912034779787">
        <ele>650.95000000000005</ele>
        <time>2025-05-10T12:31:37Z</time>
      </trkpt>
      <trkpt lat="37.176190009340644" lon="-3.613814972341061">
        <ele>650.95000000000005</ele>
        <time>2025-05-10T12:31:38Z</time>
      </trkpt>
      <trkpt lat="37.176254969090223" lon="-3.613711036741734">
        <ele>650.95000000000005</ele>
        <time>2025-05-10T12:31:39Z</time>
      </trkpt>
      <trkpt lat="37.176326969638467" lon="-3.61359897069633">
        <ele>650.47000000000003</ele>
        <time>2025-05-10T12:31:40Z</time>
      </trkpt>
      <trkpt lat="37.176538025960326" lon="-3.613324966281653">
        <ele>650.95000000000005</ele>
        <time>2025-05-10T12:31:43Z</time>
      </trkpt>
      <trkpt lat="37.176603991538286" lon="-3.613267969340086">
        <ele>651.42999999999995</ele>
        <time>2025-05-10T12:31:44Z</time>
      </trkpt>
      <trkpt lat="37.176640033721924" lon="-3.613236034289002">
        <ele>651.90999999999997</ele>
        <time>2025-05-10T12:31:45Z</time>
      </trkpt>
      <trkpt lat="37.176674986258149" lon="-3.613240979611874">
        <ele>651.90999999999997</ele>
        <time>2025-05-10T12:31:46Z</time>
      </trkpt>
      <trkpt lat="37.17671999707818" lon="-3.613247014582157">
        <ele>652.38999999999999</ele>
        <time>2025-05-10T12:31:47Z</time>
      </trkpt>
      <trkpt lat="37.176839020103216" lon="-3.613123968243599">
        <ele>652.87</ele>
        <time>2025-05-10T12:31:49Z</time>
      </trkpt>
      <trkpt lat="37.176857963204384" lon="-3.613072000443935">
        <ele>653.35000000000002</ele>
        <time>2025-05-10T12:31:50Z</time>
      </trkpt>
      <trkpt lat="37.176876990124583" lon="-3.613021038472652">
        <ele>653.35000000000002</ele>
        <time>2025-05-10T12:31:51Z</time>
      </trkpt>
      <trkpt lat="37.176925018429756" lon="-3.612964963540435">
        <ele>653.83000000000004</ele>
        <time>2025-05-10T12:31:52Z</time>
      </trkpt>
      <trkpt lat="37.176947984844446" lon="-3.612905032932758">
        <ele>654.30999999999995</ele>
        <time>2025-05-10T12:31:53Z</time>
      </trkpt>
      <trkpt lat="37.177067007869482" lon="-3.612602027133107">
        <ele>656.24000000000001</ele>
        <time>2025-05-10T12:31:57Z</time>
      </trkpt>
      <trkpt lat="37.177101960405707" lon="-3.612510999664664">
        <ele>656.72000000000003</ele>
        <time>2025-05-10T12:31:58Z</time>
      </trkpt>
      <trkpt lat="37.177208997309208" lon="-3.612238001078367">
        <ele>656.72000000000003</ele>
        <time>2025-05-10T12:32:02Z</time>
      </trkpt>
      <trkpt lat="37.177224000915885" lon="-3.612200031057">
        <ele>656.72000000000003</ele>
        <time>2025-05-10T12:32:03Z</time>
      </trkpt>
      <trkpt lat="37.177232969552279" lon="-3.612177986651659">
        <ele>657.20000000000005</ele>
        <time>2025-05-10T12:32:12Z</time>
      </trkpt>
      <trkpt lat="37.177285021170974" lon="-3.612044965848327">
        <ele>657.67999999999995</ele>
        <time>2025-05-10T12:32:40Z</time>
      </trkpt>
      <trkpt lat="37.177616022527218" lon="-3.611244997009635">
        <ele>651.90999999999997</ele>
        <time>2025-05-10T12:32:52Z</time>
      </trkpt>
      <trkpt lat="37.17764301225543" lon="-3.611171990633011">
        <ele>651.90999999999997</ele>
        <time>2025-05-10T12:32:53Z</time>
      </trkpt>
      <trkpt lat="37.177672013640404" lon="-3.61108498647809">
        <ele>651.42999999999995</ele>
        <time>2025-05-10T12:32:54Z</time>
      </trkpt>
      <trkpt lat="37.177984993904829" lon="-3.610280994325876">
        <ele>649.50999999999999</ele>
        <time>2025-05-10T12:33:01Z</time>
      </trkpt>
      <trkpt lat="37.178357988595963" lon="-3.609414976090193">
        <ele>651.90999999999997</ele>
        <time>2025-05-10T12:33:09Z</time>
      </trkpt>
      <trkpt lat="37.178424960002303" lon="-3.609325960278511">
        <ele>651.90999999999997</ele>
        <time>2025-05-10T12:33:10Z</time>
      </trkpt>
      <trkpt lat="37.17876099050045" lon="-3.608885994181037">
        <ele>652.87</ele>
        <time>2025-05-10T12:33:17Z</time>
      </trkpt>
      <trkpt lat="37.17876099050045" lon="-3.608885994181037">
        <ele>652.87</ele>
        <time>2025-05-10T12:33:28Z</time>
      </trkpt>
      <trkpt lat="37.178778005763888" lon="-3.608862021937966">
        <ele>652.38999999999999</ele>
        <time>2025-05-10T12:33:48Z</time>
      </trkpt>
      <trkpt lat="37.179129039868712" lon="-3.608436975628138">
        <ele>648.54999999999995</ele>
        <time>2025-05-10T12:33:55Z</time>
      </trkpt>
      <trkpt lat="37.179805040359497" lon="-3.60758101567626">
        <ele>645.65999999999997</ele>
        <time>2025-05-10T12:34:05Z</time>
      </trkpt>
      <trkpt lat="37.180434018373489" lon="-3.60680602490902">
        <ele>649.99000000000001</ele>
        <time>2025-05-10T12:34:13Z</time>
      </trkpt>
      <trkpt lat="37.180719003081322" lon="-3.606463959440589">
        <ele>651.42999999999995</ele>
        <time>2025-05-10T12:34:16Z</time>
      </trkpt>
      <trkpt lat="37.180834002792835" lon="-3.60640000551939">
        <ele>652.38999999999999</ele>
        <time>2025-05-10T12:34:17Z</time>
      </trkpt>
      <trkpt lat="37.180947996675968" lon="-3.60633596777916">
        <ele>653.35000000000002</ele>
        <time>2025-05-10T12:34:18Z</time>
      </trkpt>
      <trkpt lat="37.181393997743726" lon="-3.606102028861642">
        <ele>654.79999999999995</ele>
        <time>2025-05-10T12:34:22Z</time>
      </trkpt>
      <trkpt lat="37.181511009112" lon="-3.606047965586186">
        <ele>653.83000000000004</ele>
        <time>2025-05-10T12:34:23Z</time>
      </trkpt>
      <trkpt lat="37.18221802264452" lon="-3.605656027793884">
        <ele>649.02999999999997</ele>
        <time>2025-05-10T12:34:31Z</time>
      </trkpt>
      <trkpt lat="37.182408040389419" lon="-3.605555025860667">
        <ele>647.10000000000002</ele>
        <time>2025-05-10T12:34:36Z</time>
      </trkpt>
      <trkpt lat="37.18245699070394" lon="-3.605528958141804">
        <ele>647.59000000000003</ele>
        <time>2025-05-10T12:34:37Z</time>
      </trkpt>
      <trkpt lat="37.183013968169689" lon="-3.605229975655675">
        <ele>647.59000000000003</ele>
        <time>2025-05-10T12:34:45Z</time>
      </trkpt>
      <trkpt lat="37.183961039409041" lon="-3.604720020666719">
        <ele>643.74000000000001</ele>
        <time>2025-05-10T12:34:55Z</time>
      </trkpt>
      <trkpt lat="37.184150973334908" lon="-3.604631004855037">
        <ele>642.77999999999997</ele>
        <time>2025-05-10T12:34:56Z</time>
      </trkpt>
      <trkpt lat="37.184266978874803" lon="-3.604697976261377">
        <ele>641.82000000000005</ele>
        <time>2025-05-10T12:34:59Z</time>
      </trkpt>
      <trkpt lat="37.185072982683778" lon="-3.606112003326416">
        <ele>642.77999999999997</ele>
        <time>2025-05-10T12:35:17Z</time>
      </trkpt>
      <trkpt lat="37.186361029744148" lon="-3.603794993832707">
        <ele>644.70000000000005</ele>
        <time>2025-05-10T12:35:21Z</time>
      </trkpt>
      <trkpt lat="37.186406962573528" lon="-3.60377898439765">
        <ele>645.17999999999995</ele>
        <time>2025-05-10T12:35:22Z</time>
      </trkpt>
      <trkpt lat="37.186580970883369" lon="-3.603745037689805">
        <ele>646.13999999999999</ele>
        <time>2025-05-10T12:35:24Z</time>
      </trkpt>
      <trkpt lat="37.186661018058658" lon="-3.603730034083128">
        <ele>647.10000000000002</ele>
        <time>2025-05-10T12:35:25Z</time>
      </trkpt>
      <trkpt lat="37.186808958649635" lon="-3.603763980790973">
        <ele>648.07000000000005</ele>
        <time>2025-05-10T12:35:27Z</time>
      </trkpt>
      <trkpt lat="37.186863021925092" lon="-3.60373598523438">
        <ele>648.54999999999995</ele>
        <time>2025-05-10T12:35:28Z</time>
      </trkpt>
      <trkpt lat="37.186927981674671" lon="-3.603703966364265">
        <ele>649.02999999999997</ele>
        <time>2025-05-10T12:35:29Z</time>
      </trkpt>
      <trkpt lat="37.187043987214565" lon="-3.60358796082437">
        <ele>649.50999999999999</ele>
        <time>2025-05-10T12:35:31Z</time>
      </trkpt>
      <trkpt lat="37.187088998034596" lon="-3.603517971932888">
        <ele>649.99000000000001</ele>
        <time>2025-05-10T12:35:32Z</time>
      </trkpt>
      <trkpt lat="37.187111964449286" lon="-3.603472961112857">
        <ele>649.99000000000001</ele>
        <time>2025-05-10T12:35:33Z</time>
      </trkpt>
      <trkpt lat="37.187130991369486" lon="-3.603377994149923">
        <ele>650.47000000000003</ele>
        <time>2025-05-10T12:35:34Z</time>
      </trkpt>
      <trkpt lat="37.187150018289685" lon="-3.603289984166622">
        <ele>652.38999999999999</ele>
        <time>2025-05-10T12:35:35Z</time>
      </trkpt>
      <trkpt lat="37.187170973047614" lon="-3.603187976405025">
        <ele>654.30999999999995</ele>
        <time>2025-05-10T12:35:36Z</time>
      </trkpt>
      <trkpt lat="37.187192011624575" lon="-3.603088986128569">
        <ele>655.75999999999999</ele>
        <time>2025-05-10T12:35:37Z</time>
      </trkpt>
      <trkpt lat="37.187219001352787" lon="-3.602957976981998">
        <ele>656.24000000000001</ele>
        <time>2025-05-10T12:35:38Z</time>
      </trkpt>
      <trkpt lat="37.18731002882123" lon="-3.602363029494882">
        <ele>658.15999999999997</ele>
        <time>2025-05-10T12:35:45Z</time>
      </trkpt>
      <trkpt lat="37.187347998842597" lon="-3.602120960131288">
        <ele>658.15999999999997</ele>
        <time>2025-05-10T12:35:46Z</time>
      </trkpt>
      <trkpt lat="37.187347998842597" lon="-3.602120960131288">
        <ele>658.15999999999997</ele>
        <time>2025-05-10T12:35:47Z</time>
      </trkpt>
      <trkpt lat="37.187368031591177" lon="-3.602032028138638">
        <ele>658.63999999999999</ele>
        <time>2025-05-10T12:35:48Z</time>
      </trkpt>
      <trkpt lat="37.187392003834248" lon="-3.601929014548659">
        <ele>658.63999999999999</ele>
        <time>2025-05-10T12:35:49Z</time>
      </trkpt>
      <trkpt lat="37.187412958592176" lon="-3.601837987080216">
        <ele>658.15999999999997</ele>
        <time>2025-05-10T12:35:50Z</time>
      </trkpt>
      <trkpt lat="37.187432991340756" lon="-3.601754000410438">
        <ele>657.67999999999995</ele>
        <time>2025-05-10T12:35:51Z</time>
      </trkpt>
      <trkpt lat="37.187453024089336" lon="-3.601664984598756">
        <ele>657.67999999999995</ele>
        <time>2025-05-10T12:35:52Z</time>
      </trkpt>
      <trkpt lat="37.187473978847265" lon="-3.601573035120964">
        <ele>657.20000000000005</ele>
        <time>2025-05-10T12:35:53Z</time>
      </trkpt>
      <trkpt lat="37.187494011595845" lon="-3.601486030966044">
        <ele>657.20000000000005</ele>
        <time>2025-05-10T12:35:54Z</time>
      </trkpt>
      <trkpt lat="37.187512032687664" lon="-3.601411012932658">
        <ele>657.20000000000005</ele>
        <time>2025-05-10T12:35:55Z</time>
      </trkpt>
      <trkpt lat="37.187527036294341" lon="-3.601346975192428">
        <ele>657.20000000000005</ele>
        <time>2025-05-10T12:35:56Z</time>
      </trkpt>
      <trkpt lat="37.187543967738748" lon="-3.601257037371397">
        <ele>657.20000000000005</ele>
        <time>2025-05-10T12:36:03Z</time>
      </trkpt>
      <trkpt lat="37.187608005478978" lon="-3.600992001593113">
        <ele>663.92999999999995</ele>
        <time>2025-05-10T12:36:22Z</time>
      </trkpt>
      <trkpt lat="37.187671959400177" lon="-3.600855963304639">
        <ele>665.85000000000002</ele>
        <time>2025-05-10T12:36:24Z</time>
      </trkpt>
      <trkpt lat="37.187754018232226" lon="-3.60068597830832">
        <ele>666.33000000000004</ele>
        <time>2025-05-10T12:36:27Z</time>
      </trkpt>
      <trkpt lat="37.1877830196172" lon="-3.600628981366754">
        <ele>666.33000000000004</ele>
        <time>2025-05-10T12:36:28Z</time>
      </trkpt>
      <trkpt lat="37.187807997688651" lon="-3.600578019395471">
        <ele>666.33000000000004</ele>
        <time>2025-05-10T12:36:29Z</time>
      </trkpt>
      <trkpt lat="37.187830964103341" lon="-3.60053300857544">
        <ele>666.33000000000004</ele>
        <time>2025-05-10T12:36:30Z</time>
      </trkpt>
      <trkpt lat="37.187847979366779" lon="-3.600497972220182">
        <ele>666.33000000000004</ele>
        <time>2025-05-10T12:36:31Z</time>
      </trkpt>
      <trkpt lat="37.18786901794374" lon="-3.600453967228532">
        <ele>666.33000000000004</ele>
        <time>2025-05-10T12:36:32Z</time>
      </trkpt>
      <trkpt lat="37.187951998785138" lon="-3.600251963362098">
        <ele>667.28999999999996</ele>
        <time>2025-05-10T12:36:36Z</time>
      </trkpt>
      <trkpt lat="37.187996003776789" lon="-3.600145010277629">
        <ele>667.76999999999998</ele>
        <time>2025-05-10T12:36:38Z</time>
      </trkpt>
      <trkpt lat="37.188013019040227" lon="-3.600054988637567">
        <ele>668.25</ele>
        <time>2025-05-10T12:36:39Z</time>
      </trkpt>
      <trkpt lat="37.188013019040227" lon="-3.599984999746084">
        <ele>668.73000000000002</ele>
        <time>2025-05-10T12:36:40Z</time>
      </trkpt>
      <trkpt lat="37.188013019040227" lon="-3.599906964227557">
        <ele>668.73000000000002</ele>
        <time>2025-05-10T12:36:41Z</time>
      </trkpt>
      <trkpt lat="37.188013019040227" lon="-3.599823983386159">
        <ele>669.22000000000003</ele>
        <time>2025-05-10T12:36:42Z</time>
      </trkpt>
      <trkpt lat="37.187940012663603" lon="-3.599559031426907">
        <ele>670.65999999999997</ele>
        <time>2025-05-10T12:36:45Z</time>
      </trkpt>
      <trkpt lat="37.18791201710701" lon="-3.599495999515057">
        <ele>672.10000000000002</ele>
        <time>2025-05-10T12:36:46Z</time>
      </trkpt>
      <trkpt lat="37.187878992408514" lon="-3.599455012008548">
        <ele>672.58000000000004</ele>
        <time>2025-05-10T12:36:47Z</time>
      </trkpt>
      <trkpt lat="37.187828030437231" lon="-3.599403966218233">
        <ele>673.05999999999995</ele>
        <time>2025-05-10T12:36:48Z</time>
      </trkpt>
      <trkpt lat="37.187770027667284" lon="-3.599345963448286">
        <ele>674.01999999999998</ele>
        <time>2025-05-10T12:36:49Z</time>
      </trkpt>
      <trkpt lat="37.187713030725718" lon="-3.59928896650672">
        <ele>674.98000000000002</ele>
        <time>2025-05-10T12:36:50Z</time>
      </trkpt>
      <trkpt lat="37.187648992985487" lon="-3.599242027848959">
        <ele>676.41999999999996</ele>
        <time>2025-05-10T12:36:51Z</time>
      </trkpt>
      <trkpt lat="37.187580009922385" lon="-3.599191987887025">
        <ele>677.38999999999999</ele>
        <time>2025-05-10T12:36:52Z</time>
      </trkpt>
      <trkpt lat="37.187384041026235" lon="-3.599049998447299">
        <ele>679.78999999999996</ele>
        <time>2025-05-10T12:36:55Z</time>
      </trkpt>
      <trkpt lat="37.187254037708044" lon="-3.599006999284029">
        <ele>681.71000000000004</ele>
        <time>2025-05-10T12:36:57Z</time>
      </trkpt>
      <trkpt lat="37.187197962775826" lon="-3.59898797236383">
        <ele>682.19000000000005</ele>
        <time>2025-05-10T12:36:58Z</time>
      </trkpt>
      <trkpt lat="37.187123028561473" lon="-3.599006999284029">
        <ele>683.14999999999998</ele>
        <time>2025-05-10T12:36:59Z</time>
      </trkpt>
      <trkpt lat="37.187034012749791" lon="-3.599028959870338">
        <ele>684.12</ele>
        <time>2025-05-10T12:37:00Z</time>
      </trkpt>
      <trkpt lat="37.186939967796206" lon="-3.59905201010406">
        <ele>684.60000000000002</ele>
        <time>2025-05-10T12:37:01Z</time>
      </trkpt>
      <trkpt lat="37.186864027753472" lon="-3.599087968468666">
        <ele>684.12</ele>
        <time>2025-05-10T12:37:02Z</time>
      </trkpt>
      <trkpt lat="37.186771994456649" lon="-3.599131973460317">
        <ele>684.12</ele>
        <time>2025-05-10T12:37:03Z</time>
      </trkpt>
      <trkpt lat="37.186691025272012" lon="-3.599169021472335">
        <ele>683.63</ele>
        <time>2025-05-10T12:37:04Z</time>
      </trkpt>
      <trkpt lat="37.186575019732118" lon="-3.59922400675714">
        <ele>683.63</ele>
        <time>2025-05-10T12:37:05Z</time>
      </trkpt>
      <trkpt lat="37.186520034447312" lon="-3.599230041727424">
        <ele>683.63</ele>
        <time>2025-05-10T12:37:06Z</time>
      </trkpt>
      <trkpt lat="37.186444010585546" lon="-3.599236998707056">
        <ele>683.63</ele>
        <time>2025-05-10T12:37:07Z</time>
      </trkpt>
      <trkpt lat="37.186348037794232" lon="-3.599239010363817">
        <ele>684.12</ele>
        <time>2025-05-10T12:37:08Z</time>
      </trkpt>
      <trkpt lat="37.186232032254338" lon="-3.59918100759387">
        <ele>684.12</ele>
        <time>2025-05-10T12:37:09Z</time>
      </trkpt>
      <trkpt lat="37.186167994514108" lon="-3.59907397069037">
        <ele>685.08000000000004</ele>
        <time>2025-05-10T12:37:10Z</time>
      </trkpt>
      <trkpt lat="37.186141004785895" lon="-3.598982021212578">
        <ele>686.03999999999996</ele>
        <time>2025-05-10T12:37:11Z</time>
      </trkpt>
      <trkpt lat="37.186127007007599" lon="-3.598839025944471">
        <ele>687</ele>
        <time>2025-05-10T12:37:12Z</time>
      </trkpt>
      <trkpt lat="37.186131030321121" lon="-3.598737018182874">
        <ele>687.96000000000004</ele>
        <time>2025-05-10T12:37:13Z</time>
      </trkpt>
      <trkpt lat="37.186133963987231" lon="-3.598629981279373">
        <ele>688.91999999999996</ele>
        <time>2025-05-10T12:37:14Z</time>
      </trkpt>
      <trkpt lat="37.186136981472373" lon="-3.598517999053001">
        <ele>689.88</ele>
        <time>2025-05-10T12:37:15Z</time>
      </trkpt>
      <trkpt lat="37.186141004785895" lon="-3.59840702265501">
        <ele>690.84000000000003</ele>
        <time>2025-05-10T12:37:16Z</time>
      </trkpt>
      <trkpt lat="37.186144022271037" lon="-3.598303003236651">
        <ele>691.33000000000004</ele>
        <time>2025-05-10T12:37:17Z</time>
      </trkpt>
      <trkpt lat="37.186137987300754" lon="-3.598223961889744">
        <ele>692.28999999999996</ele>
        <time>2025-05-10T12:37:18Z</time>
      </trkpt>
      <trkpt lat="37.186088031157851" lon="-3.598140981048346">
        <ele>692.76999999999998</ele>
        <time>2025-05-10T12:37:19Z</time>
      </trkpt>
      <trkpt lat="37.186041008681059" lon="-3.59806202352047">
        <ele>693.73000000000002</ele>
        <time>2025-05-10T12:37:20Z</time>
      </trkpt>
      <trkpt lat="37.185983005911112" lon="-3.597991028800607">
        <ele>695.16999999999996</ele>
        <time>2025-05-10T12:37:21Z</time>
      </trkpt>
      <trkpt lat="37.185918968170881" lon="-3.597932020202279">
        <ele>696.61000000000001</ele>
        <time>2025-05-10T12:37:22Z</time>
      </trkpt>
      <trkpt lat="37.185438014566898" lon="-3.597421981394291">
        <ele>704.29999999999995</ele>
        <time>2025-05-10T12:37:29Z</time>
      </trkpt>
      <trkpt lat="37.185389986261725" lon="-3.597325002774596">
        <ele>705.25999999999999</ele>
        <time>2025-05-10T12:37:30Z</time>
      </trkpt>
      <trkpt lat="37.185346987098455" lon="-3.597203968092799">
        <ele>706.23000000000002</ele>
        <time>2025-05-10T12:37:31Z</time>
      </trkpt>
      <trkpt lat="37.185330977663398" lon="-3.597057033330202">
        <ele>708.14999999999998</ele>
        <time>2025-05-10T12:37:32Z</time>
      </trkpt>
      <trkpt lat="37.185338018462062" lon="-3.596986960619688">
        <ele>709.59000000000003</ele>
        <time>2025-05-10T12:37:33Z</time>
      </trkpt>
      <trkpt lat="37.185346987098455" lon="-3.596895011141896">
        <ele>711.02999999999997</ele>
        <time>2025-05-10T12:37:34Z</time>
      </trkpt>
      <trkpt lat="37.185350004583597" lon="-3.596810018643737">
        <ele>711.50999999999999</ele>
        <time>2025-05-10T12:37:35Z</time>
      </trkpt>
      <trkpt lat="37.185344975441694" lon="-3.596729971468449">
        <ele>712.47000000000003</ele>
        <time>2025-05-10T12:37:36Z</time>
      </trkpt>
      <trkpt lat="37.185341035947204" lon="-3.59666702337563">
        <ele>712.95000000000005</ele>
        <time>2025-05-10T12:37:37Z</time>
      </trkpt>
      <trkpt lat="37.185181025415659" lon="-3.596563003957272">
        <ele>713.44000000000005</ele>
        <time>2025-05-10T12:37:38Z</time>
      </trkpt>
      <trkpt lat="37.185181025415659" lon="-3.596563003957272">
        <ele>713.91999999999996</ele>
        <time>2025-05-10T12:37:39Z</time>
      </trkpt>
      <trkpt lat="37.185165015980601" lon="-3.596548000350595">
        <ele>714.39999999999998</ele>
        <time>2025-05-10T12:37:40Z</time>
      </trkpt>
      <trkpt lat="37.185181025415659" lon="-3.596563003957272">
        <ele>714.88</ele>
        <time>2025-05-10T12:37:41Z</time>
      </trkpt>
      <trkpt lat="37.185017997398973" lon="-3.596544982865453">
        <ele>715.84000000000003</ele>
        <time>2025-05-10T12:37:42Z</time>
      </trkpt>
      <trkpt lat="37.184974998235703" lon="-3.596612960100174">
        <ele>716.32000000000005</ele>
        <time>2025-05-10T12:37:43Z</time>
      </trkpt>
      <trkpt lat="37.184942979365587" lon="-3.596713962033391">
        <ele>717.27999999999997</ele>
        <time>2025-05-10T12:37:44Z</time>
      </trkpt>
      <trkpt lat="37.184901991859078" lon="-3.596863998100162">
        <ele>717.75999999999999</ele>
        <time>2025-05-10T12:37:45Z</time>
      </trkpt>
      <trkpt lat="37.184901991859078" lon="-3.596961982548237">
        <ele>718.24000000000001</ele>
        <time>2025-05-10T12:37:46Z</time>
      </trkpt>
      <trkpt lat="37.184901991859078" lon="-3.597091985866427">
        <ele>718.24000000000001</ele>
        <time>2025-05-10T12:37:47Z</time>
      </trkpt>
      <trkpt lat="37.184910960495472" lon="-3.597228024154902">
        <ele>718.72000000000003</ele>
        <time>2025-05-10T12:37:48Z</time>
      </trkpt>
      <trkpt lat="37.18492797575891" lon="-3.597351992502809">
        <ele>719.20000000000005</ele>
        <time>2025-05-10T12:37:49Z</time>
      </trkpt>
      <trkpt lat="37.18494700267911" lon="-3.597475960850716">
        <ele>719.67999999999995</ele>
        <time>2025-05-10T12:37:50Z</time>
      </trkpt>
      <trkpt lat="37.184972986578941" lon="-3.597596995532513">
        <ele>720.64999999999998</ele>
        <time>2025-05-10T12:37:51Z</time>
      </trkpt>
      <trkpt lat="37.184998970478773" lon="-3.59772096388042">
        <ele>721.13</ele>
        <time>2025-05-10T12:37:52Z</time>
      </trkpt>
      <trkpt lat="37.185042975470424" lon="-3.597835963591933">
        <ele>721.61000000000001</ele>
        <time>2025-05-10T12:37:53Z</time>
      </trkpt>
      <trkpt lat="37.1850960329175" lon="-3.597948029637337">
        <ele>722.09000000000003</ele>
        <time>2025-05-10T12:37:54Z</time>
      </trkpt>
      <trkpt lat="37.185146994888783" lon="-3.598055988550186">
        <ele>722.57000000000005</ele>
        <time>2025-05-10T12:37:55Z</time>
      </trkpt>
      <trkpt lat="37.185197034850717" lon="-3.598159002140164">
        <ele>723.52999999999997</ele>
        <time>2025-05-10T12:37:56Z</time>
      </trkpt>
      <trkpt lat="37.185224024578929" lon="-3.598280036821961">
        <ele>724.49000000000001</ele>
        <time>2025-05-10T12:37:57Z</time>
      </trkpt>
      <trkpt lat="37.185224024578929" lon="-3.598384978249669">
        <ele>724.97000000000003</ele>
        <time>2025-05-10T12:37:58Z</time>
      </trkpt>
      <trkpt lat="37.185180019587278" lon="-3.598473994061351">
        <ele>725.92999999999995</ele>
        <time>2025-05-10T12:37:59Z</time>
      </trkpt>
      <trkpt lat="37.185138026252389" lon="-3.598537025973201">
        <ele>726.88999999999999</ele>
        <time>2025-05-10T12:38:00Z</time>
      </trkpt>
      <trkpt lat="37.185087986290455" lon="-3.598537025973201">
        <ele>727.37</ele>
        <time>2025-05-10T12:38:01Z</time>
      </trkpt>
      <trkpt lat="37.18503300100565" lon="-3.598537025973201">
        <ele>727.86000000000001</ele>
        <time>2025-05-10T12:38:02Z</time>
      </trkpt>
      <trkpt lat="37.184976004064083" lon="-3.598537025973201">
        <ele>728.34000000000003</ele>
        <time>2025-05-10T12:38:03Z</time>
      </trkpt>
      <trkpt lat="37.184944991022348" lon="-3.598537025973201">
        <ele>728.82000000000005</ele>
        <time>2025-05-10T12:38:04Z</time>
      </trkpt>
      <trkpt lat="37.184921018779278" lon="-3.598501989617944">
        <ele>729.77999999999997</ele>
        <time>2025-05-10T12:38:05Z</time>
      </trkpt>
      <trkpt lat="37.184886988252401" lon="-3.598451027646661">
        <ele>731.22000000000003</ele>
        <time>2025-05-10T12:38:06Z</time>
      </trkpt>
      <trkpt lat="37.184853963553905" lon="-3.598397970199585">
        <ele>732.17999999999995</ele>
        <time>2025-05-10T12:38:07Z</time>
      </trkpt>
      <trkpt lat="37.184826973825693" lon="-3.598325969651341">
        <ele>732.65999999999997</ele>
        <time>2025-05-10T12:38:08Z</time>
      </trkpt>
      <trkpt lat="37.184767965227365" lon="-3.598174005746841">
        <ele>734.58000000000004</ele>
        <time>2025-05-10T12:38:10Z</time>
      </trkpt>
      <trkpt lat="37.184734018519521" lon="-3.598108040168881">
        <ele>735.54999999999995</ele>
        <time>2025-05-10T12:38:11Z</time>
      </trkpt>
      <trkpt lat="37.184681966900826" lon="-3.598040984943509">
        <ele>736.99000000000001</ele>
        <time>2025-05-10T12:38:12Z</time>
      </trkpt>
      <trkpt lat="37.184624969959259" lon="-3.597967978566885">
        <ele>737.95000000000005</ele>
        <time>2025-05-10T12:38:13Z</time>
      </trkpt>
      <trkpt lat="37.184564033523202" lon="-3.59789103269577">
        <ele>738.90999999999997</ele>
        <time>2025-05-10T12:38:14Z</time>
      </trkpt>
      <trkpt lat="37.184495972469449" lon="-3.597814003005624">
        <ele>739.87</ele>
        <time>2025-05-10T12:38:15Z</time>
      </trkpt>
      <trkpt lat="37.184413997456431" lon="-3.597748037427664">
        <ele>740.83000000000004</ele>
        <time>2025-05-10T12:38:16Z</time>
      </trkpt>
      <trkpt lat="37.184242000803351" lon="-3.597620967775583">
        <ele>741.78999999999996</ele>
        <time>2025-05-10T12:38:18Z</time>
      </trkpt>
      <trkpt lat="37.183676976710558" lon="-3.59720597974956">
        <ele>746.60000000000002</ele>
        <time>2025-05-10T12:38:24Z</time>
      </trkpt>
      <trkpt lat="37.183596007525921" lon="-3.597124004736543">
        <ele>747.55999999999995</ele>
        <time>2025-05-10T12:38:25Z</time>
      </trkpt>
      <trkpt lat="37.183516966179013" lon="-3.597045969218016">
        <ele>748.51999999999998</ele>
        <time>2025-05-10T12:38:26Z</time>
      </trkpt>
      <trkpt lat="37.183420993387699" lon="-3.596949996426702">
        <ele>749.49000000000001</ele>
        <time>2025-05-10T12:38:27Z</time>
      </trkpt>
      <trkpt lat="37.183391992002726" lon="-3.596880007535219">
        <ele>750.45000000000005</ele>
        <time>2025-05-10T12:38:28Z</time>
      </trkpt>
      <trkpt lat="37.1833570394665" lon="-3.59679501503706">
        <ele>751.40999999999997</ele>
        <time>2025-05-10T12:38:29Z</time>
      </trkpt>
      <trkpt lat="37.183324014768004" lon="-3.596716979518533">
        <ele>753.33000000000004</ele>
        <time>2025-05-10T12:38:30Z</time>
      </trkpt>
      <trkpt lat="37.18329400755465" lon="-3.596643973141909">
        <ele>753.80999999999995</ele>
        <time>2025-05-10T12:38:31Z</time>
      </trkpt>
      <trkpt lat="37.183204991742969" lon="-3.596415985375643">
        <ele>759.10000000000002</ele>
        <time>2025-05-10T12:38:35Z</time>
      </trkpt>
      <trkpt lat="37.183193005621433" lon="-3.596272990107536">
        <ele>761.5</ele>
        <time>2025-05-10T12:38:38Z</time>
      </trkpt>
      <trkpt lat="37.183184958994389" lon="-3.596177017316222">
        <ele>761.98000000000002</ele>
        <time>2025-05-10T12:38:39Z</time>
      </trkpt>
      <trkpt lat="37.183213038370013" lon="-3.596126977354288">
        <ele>762.94000000000005</ele>
        <time>2025-05-10T12:38:40Z</time>
      </trkpt>
      <trkpt lat="37.183246985077858" lon="-3.59606503508985">
        <ele>763.41999999999996</ele>
        <time>2025-05-10T12:38:41Z</time>
      </trkpt>
      <trkpt lat="37.183296019211411" lon="-3.595981970429421">
        <ele>763.89999999999998</ele>
        <time>2025-05-10T12:38:42Z</time>
      </trkpt>
      <trkpt lat="37.183354021981359" lon="-3.595947017893195">
        <ele>764.38999999999999</ele>
        <time>2025-05-10T12:38:43Z</time>
      </trkpt>
      <trkpt lat="37.183405989781022" lon="-3.595916004851461">
        <ele>764.87</ele>
        <time>2025-05-10T12:38:44Z</time>
      </trkpt>
      <trkpt lat="37.183462986722589" lon="-3.595883985981345">
        <ele>764.87</ele>
        <time>2025-05-10T12:38:45Z</time>
      </trkpt>
      <trkpt lat="37.183562982827425" lon="-3.595823971554637">
        <ele>765.35000000000002</ele>
        <time>2025-05-10T12:38:47Z</time>
      </trkpt>
      <trkpt lat="37.183601036667824" lon="-3.595796981826425">
        <ele>765.83000000000004</ele>
        <time>2025-05-10T12:38:48Z</time>
      </trkpt>
      <trkpt lat="37.183630038052797" lon="-3.595776027068496">
        <ele>765.83000000000004</ele>
        <time>2025-05-10T12:38:49Z</time>
      </trkpt>
      <trkpt lat="37.18374302610755" lon="-3.595673013478518">
        <ele>765.83000000000004</ele>
        <time>2025-05-10T12:38:52Z</time>
      </trkpt>
      <trkpt lat="37.18415399082005" lon="-3.595049986615777">
        <ele>764.87</ele>
        <time>2025-05-10T12:39:01Z</time>
      </trkpt>
      <trkpt lat="37.184183998033404" lon="-3.594964994117618">
        <ele>764.87</ele>
        <time>2025-05-10T12:39:02Z</time>
      </trkpt>
      <trkpt lat="37.184201013296843" lon="-3.594885030761361">
        <ele>764.87</ele>
        <time>2025-05-10T12:39:03Z</time>
      </trkpt>
      <trkpt lat="37.18421601690352" lon="-3.594812024384737">
        <ele>765.35000000000002</ele>
        <time>2025-05-10T12:39:04Z</time>
      </trkpt>
      <trkpt lat="37.184235965833068" lon="-3.594717979431152">
        <ele>765.83000000000004</ele>
        <time>2025-05-10T12:39:05Z</time>
      </trkpt>
      <trkpt lat="37.18423898331821" lon="-3.594688978046179">
        <ele>765.83000000000004</ele>
        <time>2025-05-10T12:39:06Z</time>
      </trkpt>
      <trkpt lat="37.184244012460113" lon="-3.594630975276232">
        <ele>766.30999999999995</ele>
        <time>2025-05-10T12:39:07Z</time>
      </trkpt>
      <trkpt lat="37.184249041602015" lon="-3.594568027183414">
        <ele>766.78999999999996</ele>
        <time>2025-05-10T12:39:08Z</time>
      </trkpt>
      <trkpt lat="37.184253986924887" lon="-3.594511030241847">
        <ele>766.78999999999996</ele>
        <time>2025-05-10T12:39:09Z</time>
      </trkpt>
      <trkpt lat="37.184300003573298" lon="-3.594280024990439">
        <ele>767.26999999999998</ele>
        <time>2025-05-10T12:39:14Z</time>
      </trkpt>
      <trkpt lat="37.184322969987988" lon="-3.594179023057222">
        <ele>766.78999999999996</ele>
        <time>2025-05-10T12:39:18Z</time>
      </trkpt>
      <trkpt lat="37.184331016615033" lon="-3.594164019450545">
        <ele>766.78999999999996</ele>
        <time>2025-05-10T12:39:19Z</time>
      </trkpt>
      <trkpt lat="37.184404022991657" lon="-3.594193020835519">
        <ele>764.87</ele>
        <time>2025-05-10T12:39:31Z</time>
      </trkpt>
      <trkpt lat="37.184380972757936" lon="-3.594223028048873">
        <ele>764.38999999999999</ele>
        <time>2025-05-10T12:39:46Z</time>
      </trkpt>
      <trkpt lat="37.184321964159608" lon="-3.594182040542364">
        <ele>763.89999999999998</ele>
        <time>2025-05-10T12:39:48Z</time>
      </trkpt>
      <trkpt lat="37.18430201523006" lon="-3.594270972535014">
        <ele>763.89999999999998</ele>
        <time>2025-05-10T12:39:49Z</time>
      </trkpt>
      <trkpt lat="37.184291034936905" lon="-3.594317995011807">
        <ele>763.89999999999998</ele>
        <time>2025-05-10T12:39:50Z</time>
      </trkpt>
      <trkpt lat="37.184275025501847" lon="-3.594384966418147">
        <ele>763.89999999999998</ele>
        <time>2025-05-10T12:39:51Z</time>
      </trkpt>
      <trkpt lat="37.18425901606679" lon="-3.594457972794771">
        <ele>764.38999999999999</ele>
        <time>2025-05-10T12:39:52Z</time>
      </trkpt>
      <trkpt lat="37.184250969439745" lon="-3.594544976949692">
        <ele>764.38999999999999</ele>
        <time>2025-05-10T12:39:53Z</time>
      </trkpt>
      <trkpt lat="37.184244012460113" lon="-3.594627035781741">
        <ele>764.38999999999999</ele>
        <time>2025-05-10T12:39:54Z</time>
      </trkpt>
      <trkpt lat="37.184209981933236" lon="-3.594841025769711">
        <ele>764.38999999999999</ele>
        <time>2025-05-10T12:39:57Z</time>
      </trkpt>
      <trkpt lat="37.184194978326559" lon="-3.594911014661193">
        <ele>764.38999999999999</ele>
        <time>2025-05-10T12:39:58Z</time>
      </trkpt>
      <trkpt lat="37.184032034128904" lon="-3.595275962725282">
        <ele>764.38999999999999</ele>
        <time>2025-05-10T12:40:03Z</time>
      </trkpt>
      <trkpt lat="37.183949975296855" lon="-3.595418035984039">
        <ele>764.38999999999999</ele>
        <time>2025-05-10T12:40:05Z</time>
      </trkpt>
      <trkpt lat="37.183845033869147" lon="-3.59554803930223">
        <ele>762.94000000000005</ele>
        <time>2025-05-10T12:40:07Z</time>
      </trkpt>
      <trkpt lat="37.183798011392355" lon="-3.595605958253145">
        <ele>762.46000000000004</ele>
        <time>2025-05-10T12:40:08Z</time>
      </trkpt>
      <trkpt lat="37.183754006400704" lon="-3.595661027356982">
        <ele>761.5</ele>
        <time>2025-05-10T12:40:09Z</time>
      </trkpt>
      <trkpt lat="37.183707989752293" lon="-3.595717018470168">
        <ele>761.01999999999998</ele>
        <time>2025-05-10T12:40:10Z</time>
      </trkpt>
      <trkpt lat="37.183668008074164" lon="-3.595749959349632">
        <ele>760.53999999999996</ele>
        <time>2025-05-10T12:40:11Z</time>
      </trkpt>
      <trkpt lat="37.183573041111231" lon="-3.595908964052796">
        <ele>756.21000000000004</ele>
        <time>2025-05-10T12:40:16Z</time>
      </trkpt>
      <trkpt lat="37.183582009747624" lon="-3.59593796543777">
        <ele>755.73000000000002</ele>
        <time>2025-05-10T12:40:17Z</time>
      </trkpt>
      <trkpt lat="37.183592990040779" lon="-3.595973001793027">
        <ele>755.25</ele>
        <time>2025-05-10T12:40:18Z</time>
      </trkpt>
      <trkpt lat="37.183605981990695" lon="-3.596013989299536">
        <ele>754.76999999999998</ele>
        <time>2025-05-10T12:40:19Z</time>
      </trkpt>
      <trkpt lat="37.183621991425753" lon="-3.596063023433089">
        <ele>754.28999999999996</ele>
        <time>2025-05-10T12:40:20Z</time>
      </trkpt>
      <trkpt lat="37.18363699503243" lon="-3.596112979575992">
        <ele>753.80999999999995</ele>
        <time>2025-05-10T12:40:21Z</time>
      </trkpt>
      <trkpt lat="37.183653004467487" lon="-3.596163019537926">
        <ele>753.80999999999995</ele>
        <time>2025-05-10T12:40:22Z</time>
      </trkpt>
      <trkpt lat="37.183664990589023" lon="-3.596203001216054">
        <ele>753.33000000000004</ele>
        <time>2025-05-10T12:40:23Z</time>
      </trkpt>
      <trkpt lat="37.183673959225416" lon="-3.596229990944266">
        <ele>752.85000000000002</ele>
        <time>2025-05-10T12:40:24Z</time>
      </trkpt>
      <trkpt lat="37.183673959225416" lon="-3.596229990944266">
        <ele>752.37</ele>
        <time>2025-05-10T12:40:25Z</time>
      </trkpt>
      <trkpt lat="37.183684017509222" lon="-3.596264021471143">
        <ele>751.88999999999999</ele>
        <time>2025-05-10T12:40:34Z</time>
      </trkpt>
      <trkpt lat="37.183691980317235" lon="-3.596290005370975">
        <ele>751.40999999999997</ele>
        <time>2025-05-10T12:40:35Z</time>
      </trkpt>
      <trkpt lat="37.18370002694428" lon="-3.596315989270806">
        <ele>751.40999999999997</ele>
        <time>2025-05-10T12:40:36Z</time>
      </trkpt>
      <trkpt lat="37.18374696560204" lon="-3.59654095955193">
        <ele>753.80999999999995</ele>
        <time>2025-05-10T12:40:47Z</time>
      </trkpt>
      <trkpt lat="37.183725005015731" lon="-3.596567027270794">
        <ele>753.80999999999995</ele>
        <time>2025-05-10T12:40:48Z</time>
      </trkpt>
      <trkpt lat="37.183715030550957" lon="-3.59658001922071">
        <ele>753.80999999999995</ele>
        <time>2025-05-10T12:40:49Z</time>
      </trkpt>
      <trkpt lat="37.183702038601041" lon="-3.596595022827387">
        <ele>753.80999999999995</ele>
        <time>2025-05-10T12:40:50Z</time>
      </trkpt>
      <trkpt lat="37.183687034994364" lon="-3.596613965928555">
        <ele>753.80999999999995</ele>
        <time>2025-05-10T12:40:51Z</time>
      </trkpt>
      <trkpt lat="37.183655016124249" lon="-3.596649002283812">
        <ele>753.80999999999995</ele>
        <time>2025-05-10T12:40:52Z</time>
      </trkpt>
      <trkpt lat="37.183643030002713" lon="-3.59664598479867">
        <ele>754.28999999999996</ele>
        <time>2025-05-10T12:40:53Z</time>
      </trkpt>
      <trkpt lat="37.18363699503243" lon="-3.596643973141909">
        <ele>754.28999999999996</ele>
        <time>2025-05-10T12:40:54Z</time>
      </trkpt>
      <trkpt lat="37.183628026396036" lon="-3.596641961485148">
        <ele>754.28999999999996</ele>
        <time>2025-05-10T12:40:55Z</time>
      </trkpt>
      <trkpt lat="37.183628026396036" lon="-3.596641961485148">
        <ele>757.17999999999995</ele>
        <time>2025-05-10T12:41:10Z</time>
      </trkpt>
      <trkpt lat="37.183628026396036" lon="-3.596641961485148">
        <ele>757.17999999999995</ele>
        <time>2025-05-10T12:41:24Z</time>
      </trkpt>
      <trkpt lat="37.183628026396036" lon="-3.596641961485148">
        <ele>757.17999999999995</ele>
        <time>2025-05-10T12:41:53Z</time>
      </trkpt>
      <trkpt lat="37.183628026396036" lon="-3.596641961485148">
        <ele>757.17999999999995</ele>
        <time>2025-05-10T12:42:10Z</time>
      </trkpt>
      <trkpt lat="37.183628026396036" lon="-3.596641961485148">
        <ele>758.13999999999999</ele>
        <time>2025-05-10T12:42:31Z</time>
      </trkpt>
      <trkpt lat="37.183628026396036" lon="-3.596641961485148">
        <ele>758.13999999999999</ele>
        <time>2025-05-10T12:42:59Z</time>
      </trkpt>
      <trkpt lat="37.183628026396036" lon="-3.596641961485148">
        <ele>758.62</ele>
        <time>2025-05-10T12:43:25Z</time>
      </trkpt>
    </trkseg>
  </trk>

</gpx>